<?xml version='1.0' encoding='UTF-8'?><gpx version="1.1" creator="JPX - https://github.com/jenetics/jpx" xmlns="http://www.topografix.com/GPX/1/1"><trk><trkseg><trkpt lat="43.849156453675484" lon="12.785965386959086"><ele>44.166666666666664</ele><time>2026-05-03T13:11:11Z</time></trkpt><trkpt lat="43.8491002276948" lon="12.786061674815647"><ele>44.33333333333333</ele><time>2026-05-03T13:13:10Z</time></trkpt><trkpt lat="43.84903984079572" lon="12.786109128819712"><ele>44.5</ele><time>2026-05-03T13:13:11Z</time></trkpt><trkpt lat="43.84896661823267" lon="12.786160486013717"><ele>44.666666666666664</ele><time>2026-05-03T13:13:12Z</time></trkpt><trkpt lat="43.84887454037966" lon="12.786220884807184"><ele>44.833333333333336</ele><time>2026-05-03T13:13:14Z</time></trkpt><trkpt lat="43.84881288413993" lon="12.786247935896286"><ele>45.0</ele><time>2026-05-03T13:13:15Z</time></trkpt><trkpt lat="43.84872384939442" lon="12.78629820249346"><ele>45.0</ele><time>2026-05-03T13:13:16Z</time></trkpt><trkpt lat="43.84860925690086" lon="12.78638273145176"><ele>45.0</ele><time>2026-05-03T13:13:17Z</time></trkpt><trkpt lat="43.848461362760965" lon="12.78647181280058"><ele>45.0</ele><time>2026-05-03T13:13:17.999Z</time></trkpt><trkpt lat="43.84833654656509" lon="12.786599174214485"><ele>45.0</ele><time>2026-05-03T13:13:18.999Z</time></trkpt><trkpt lat="43.84823191777303" lon="12.786690462281525"><ele>45.166666666666664</ele><time>2026-05-03T13:13:19.999Z</time></trkpt><trkpt lat="43.84814807209771" lon="12.786766583352202"><ele>45.333333333333336</ele><time>2026-05-03T13:13:20.999Z</time></trkpt><trkpt lat="43.848075733313976" lon="12.78683070372506"><ele>45.5</ele><time>2026-05-03T13:13:21.999Z</time></trkpt><trkpt lat="43.848019481628484" lon="12.786895360578866"><ele>45.66666666666667</ele><time>2026-05-03T13:13:22.999Z</time></trkpt><trkpt lat="43.84793227062055" lon="12.786963515720503"><ele>45.833333333333336</ele><time>2026-05-03T13:13:24.999Z</time></trkpt><trkpt lat="43.84786895176719" lon="12.786985606389461"><ele>46.0</ele><time>2026-05-03T13:13:26.999Z</time></trkpt><trkpt lat="43.847804894531016" lon="12.787021334312403"><ele>46.0</ele><time>2026-05-03T13:13:29.999Z</time></trkpt><trkpt lat="43.84766128985426" lon="12.786835308367309"><ele>46.0</ele><time>2026-05-03T13:13:31.999Z</time></trkpt><trkpt lat="43.84756167064773" lon="12.786722072276154"><ele>46.0</ele><time>2026-05-03T13:13:32.999Z</time></trkpt><trkpt lat="43.84745010053565" lon="12.786597612890498"><ele>48.0</ele><time>2026-05-03T13:13:34Z</time></trkpt><trkpt lat="43.847325257099016" lon="12.786470495788695"><ele>50.0</ele><time>2026-05-03T13:13:35Z</time></trkpt><trkpt lat="43.847166018397964" lon="12.786325183010334"><ele>52.0</ele><time>2026-05-03T13:13:36Z</time></trkpt><trkpt lat="43.84701662503198" lon="12.78616572628509"><ele>52.0</ele><time>2026-05-03T13:13:37Z</time></trkpt><trkpt lat="43.84690057700149" lon="12.786048946722508"><ele>52.0</ele><time>2026-05-03T13:13:38Z</time></trkpt><trkpt lat="43.84682763663052" lon="12.785953746770137"><ele>52.0</ele><time>2026-05-03T13:13:39Z</time></trkpt><trkpt lat="43.84682147512031" lon="12.785804648581541"><ele>52.0</ele><time>2026-05-03T13:13:40Z</time></trkpt><trkpt lat="43.84679434734305" lon="12.785613939584039"><ele>53.5</ele><time>2026-05-03T13:13:41Z</time></trkpt><trkpt lat="43.84675370349417" lon="12.785409261114975"><ele>55.0</ele><time>2026-05-03T13:13:42Z</time></trkpt><trkpt lat="43.84673058863677" lon="12.785261511533406"><ele>56.5</ele><time>2026-05-03T13:13:43Z</time></trkpt><trkpt lat="43.84672006223752" lon="12.785125029314472"><ele>58.0</ele><time>2026-05-03T13:13:44Z</time></trkpt><trkpt lat="43.84668620989334" lon="12.784962466288878"><ele>58.0</ele><time>2026-05-03T13:13:45Z</time></trkpt><trkpt lat="43.84666080096523" lon="12.784826754736098"><ele>58.0</ele><time>2026-05-03T13:13:46Z</time></trkpt><trkpt lat="43.84654521594817" lon="12.784609792591349"><ele>58.0</ele><time>2026-05-03T13:13:47Z</time></trkpt><trkpt lat="43.8464224112734" lon="12.784396511540622"><ele>57.33333333333333</ele><time>2026-05-03T13:13:48Z</time></trkpt><trkpt lat="43.846310667159905" lon="12.784218724639977"><ele>56.66666666666667</ele><time>2026-05-03T13:13:49Z</time></trkpt><trkpt lat="43.84621216541742" lon="12.784050146275792"><ele>56.0</ele><time>2026-05-03T13:13:50Z</time></trkpt><trkpt lat="43.84609899704029" lon="12.78386092988011"><ele>56.0</ele><time>2026-05-03T13:13:51Z</time></trkpt><trkpt lat="43.84599140269168" lon="12.783654427657506"><ele>56.0</ele><time>2026-05-03T13:13:52Z</time></trkpt><trkpt lat="43.84590042663675" lon="12.783488084392912"><ele>56.0</ele><time>2026-05-03T13:13:53Z</time></trkpt><trkpt lat="43.84580940857349" lon="12.783357265662064"><ele>56.199999999999996</ele><time>2026-05-03T13:13:54Z</time></trkpt><trkpt lat="43.84572034475779" lon="12.783252524727281"><ele>56.39999999999999</ele><time>2026-05-03T13:13:55Z</time></trkpt><trkpt lat="43.84562980042737" lon="12.783176151308131"><ele>56.6</ele><time>2026-05-03T13:13:56Z</time></trkpt><trkpt lat="43.84552815534287" lon="12.783127555062574"><ele>56.8</ele><time>2026-05-03T13:13:57Z</time></trkpt><trkpt lat="43.84543633513962" lon="12.783071870298645"><ele>57.0</ele><time>2026-05-03T13:13:58Z</time></trkpt><trkpt lat="43.84528215370488" lon="12.783019874583701"><ele>57.0</ele><time>2026-05-03T13:13:59Z</time></trkpt><trkpt lat="43.84514561873058" lon="12.782959776483592"><ele>57.0</ele><time>2026-05-03T13:14:00Z</time></trkpt><trkpt lat="43.844967275395064" lon="12.782927319143202"><ele>57.0</ele><time>2026-05-03T13:14:01Z</time></trkpt><trkpt lat="43.8447857374478" lon="12.782892255853076"><ele>58.0</ele><time>2026-05-03T13:14:02Z</time></trkpt><trkpt lat="43.84463696980736" lon="12.78285161113069"><ele>59.0</ele><time>2026-05-03T13:14:03Z</time></trkpt><trkpt lat="43.844527669679756" lon="12.782775815999383"><ele>60.0</ele><time>2026-05-03T13:14:04Z</time></trkpt><trkpt lat="43.844438200661926" lon="12.782712258987283"><ele>61.0</ele><time>2026-05-03T13:14:05Z</time></trkpt><trkpt lat="43.84436483149461" lon="12.782634711484144"><ele>61.8</ele><time>2026-05-03T13:14:06Z</time></trkpt><trkpt lat="43.844292437725606" lon="12.782558728587748"><ele>62.599999999999994</ele><time>2026-05-03T13:14:07Z</time></trkpt><trkpt lat="43.84427951288133" lon="12.78244724692752"><ele>63.4</ele><time>2026-05-03T13:14:08Z</time></trkpt><trkpt lat="43.84424433092429" lon="12.782323500663562"><ele>64.2</ele><time>2026-05-03T13:14:09Z</time></trkpt><trkpt lat="43.84427886710143" lon="12.782145627148676"><ele>65.0</ele><time>2026-05-03T13:14:10Z</time></trkpt><trkpt lat="43.844294940837095" lon="12.781933577757606"><ele>64.25</ele><time>2026-05-03T13:14:11Z</time></trkpt><trkpt lat="43.84431275668168" lon="12.781773619070696"><ele>63.5</ele><time>2026-05-03T13:14:12Z</time></trkpt><trkpt lat="43.84428586525572" lon="12.78161678944993"><ele>62.75</ele><time>2026-05-03T13:14:13Z</time></trkpt><trkpt lat="43.84422340761602" lon="12.781436345268661"><ele>62.0</ele><time>2026-05-03T13:14:14Z</time></trkpt><trkpt lat="43.84413494397131" lon="12.78121801189802"><ele>62.0</ele><time>2026-05-03T13:14:15Z</time></trkpt><trkpt lat="43.84405651848991" lon="12.781018853630725"><ele>62.0</ele><time>2026-05-03T13:14:16Z</time></trkpt><trkpt lat="43.843988084394795" lon="12.780821625568882"><ele>62.0</ele><time>2026-05-03T13:14:17Z</time></trkpt><trkpt lat="43.84391557661912" lon="12.780594992810094"><ele>62.0</ele><time>2026-05-03T13:14:18Z</time></trkpt><trkpt lat="43.843835358703004" lon="12.780356968955118"><ele>62.0</ele><time>2026-05-03T13:14:19Z</time></trkpt><trkpt lat="43.84375224411859" lon="12.780136522650901"><ele>62.0</ele><time>2026-05-03T13:14:20Z</time></trkpt><trkpt lat="43.84368402719428" lon="12.779910804501355"><ele>59.0</ele><time>2026-05-03T13:14:21Z</time></trkpt><trkpt lat="43.84361175974322" lon="12.779700608502159"><ele>56.0</ele><time>2026-05-03T13:14:22Z</time></trkpt><trkpt lat="43.84355326889294" lon="12.779498460407318"><ele>53.0</ele><time>2026-05-03T13:14:23Z</time></trkpt><trkpt lat="43.84350355114512" lon="12.77927611029501"><ele>50.0</ele><time>2026-05-03T13:14:24Z</time></trkpt><trkpt lat="43.84347215363524" lon="12.779028927700159"><ele>47.0</ele><time>2026-05-03T13:14:25Z</time></trkpt><trkpt lat="43.843451825439324" lon="12.778775396054428"><ele>44.0</ele><time>2026-05-03T13:14:26Z</time></trkpt><trkpt lat="43.84343480094626" lon="12.778561209315946"><ele>49.75</ele><time>2026-05-03T13:14:27Z</time></trkpt><trkpt lat="43.843419255304134" lon="12.778382781671567"><ele>55.5</ele><time>2026-05-03T13:14:28Z</time></trkpt><trkpt lat="43.84340203063584" lon="12.778205972838334"><ele>61.25</ele><time>2026-05-03T13:14:29Z</time></trkpt><trkpt lat="43.84338266145152" lon="12.778015569361596"><ele>67.0</ele><time>2026-05-03T13:14:30Z</time></trkpt><trkpt lat="43.84335687154893" lon="12.77777497039884"><ele>66.0</ele><time>2026-05-03T13:14:31Z</time></trkpt><trkpt lat="43.8433281233423" lon="12.77753150845644"><ele>65.0</ele><time>2026-05-03T13:14:32Z</time></trkpt><trkpt lat="43.84327309272444" lon="12.777314144004448"><ele>64.0</ele><time>2026-05-03T13:14:33Z</time></trkpt><trkpt lat="43.843214806386776" lon="12.777092422956422"><ele>63.666666666666664</ele><time>2026-05-03T13:14:34Z</time></trkpt><trkpt lat="43.843125278978654" lon="12.776835972203573"><ele>63.33333333333333</ele><time>2026-05-03T13:14:35Z</time></trkpt><trkpt lat="43.84302984148864" lon="12.776567159426792"><ele>63.0</ele><time>2026-05-03T13:14:36Z</time></trkpt><trkpt lat="43.842937061999365" lon="12.776277094910682"><ele>62.33333333333333</ele><time>2026-05-03T13:14:37Z</time></trkpt><trkpt lat="43.84283617958927" lon="12.775999924517905"><ele>61.666666666666664</ele><time>2026-05-03T13:14:38Z</time></trkpt><trkpt lat="43.842738757924195" lon="12.775745152135173"><ele>61.0</ele><time>2026-05-03T13:14:39Z</time></trkpt><trkpt lat="43.84262110506301" lon="12.775487705945084"><ele>61.5</ele><time>2026-05-03T13:14:40Z</time></trkpt><trkpt lat="43.84249367889895" lon="12.775232411728991"><ele>62.0</ele><time>2026-05-03T13:14:41Z</time></trkpt><trkpt lat="43.842356818356265" lon="12.774964645155855"><ele>62.0</ele><time>2026-05-03T13:14:42Z</time></trkpt><trkpt lat="43.842227581959094" lon="12.774712851335032"><ele>62.0</ele><time>2026-05-03T13:14:43Z</time></trkpt><trkpt lat="43.84211478101521" lon="12.774493078892572"><ele>62.0</ele><time>2026-05-03T13:14:44Z</time></trkpt><trkpt lat="43.84200163849043" lon="12.774272641048073"><ele>62.0</ele><time>2026-05-03T13:14:45Z</time></trkpt><trkpt lat="43.84188032039649" lon="12.77403627359491"><ele>62.0</ele><time>2026-05-03T13:14:46Z</time></trkpt><trkpt lat="43.84174492999498" lon="12.77377301451894"><ele>62.0</ele><time>2026-05-03T13:14:47Z</time></trkpt><trkpt lat="43.84161954702043" lon="12.773526439214654"><ele>64.33333333333334</ele><time>2026-05-03T13:14:48Z</time></trkpt><trkpt lat="43.84150454596024" lon="12.773301973899722"><ele>66.66666666666667</ele><time>2026-05-03T13:14:49Z</time></trkpt><trkpt lat="43.84138392116303" lon="12.77307270270552"><ele>69.0</ele><time>2026-05-03T13:14:50Z</time></trkpt><trkpt lat="43.841265291771116" lon="12.772844721190161"><ele>68.66666666666667</ele><time>2026-05-03T13:14:51Z</time></trkpt><trkpt lat="43.8411531278451" lon="12.77262476429036"><ele>68.33333333333334</ele><time>2026-05-03T13:14:52Z</time></trkpt><trkpt lat="43.84104371584332" lon="12.7724102039911"><ele>68.0</ele><time>2026-05-03T13:14:53Z</time></trkpt><trkpt lat="43.84092702016489" lon="12.77218077813591"><ele>68.66666666666667</ele><time>2026-05-03T13:14:54Z</time></trkpt><trkpt lat="43.84081621538754" lon="12.771961803045532"><ele>69.33333333333333</ele><time>2026-05-03T13:14:55Z</time></trkpt><trkpt lat="43.84069855948629" lon="12.771729288539946"><ele>70.0</ele><time>2026-05-03T13:14:56Z</time></trkpt><trkpt lat="43.84056939556999" lon="12.771477975869816"><ele>70.0</ele><time>2026-05-03T13:14:57Z</time></trkpt><trkpt lat="43.840439661095544" lon="12.771221515273888"><ele>70.0</ele><time>2026-05-03T13:14:58Z</time></trkpt><trkpt lat="43.84033054203438" lon="12.771000856037412"><ele>70.0</ele><time>2026-05-03T13:14:59Z</time></trkpt><trkpt lat="43.84022269471196" lon="12.770788607124702"><ele>72.66666666666666</ele><time>2026-05-03T13:15:00Z</time></trkpt><trkpt lat="43.84012107830117" lon="12.770593713479343"><ele>75.33333333333333</ele><time>2026-05-03T13:15:01Z</time></trkpt><trkpt lat="43.840035004949385" lon="12.770423605035957"><ele>78.0</ele><time>2026-05-03T13:15:02Z</time></trkpt><trkpt lat="43.839957809685394" lon="12.770261437352364"><ele>77.4</ele><time>2026-05-03T13:15:03Z</time></trkpt><trkpt lat="43.83989727099084" lon="12.770128887735119"><ele>76.8</ele><time>2026-05-03T13:15:04Z</time></trkpt><trkpt lat="43.83984563593252" lon="12.77000366496605"><ele>76.2</ele><time>2026-05-03T13:15:05Z</time></trkpt><trkpt lat="43.83985298379831" lon="12.769876362030192"><ele>75.6</ele><time>2026-05-03T13:15:06Z</time></trkpt><trkpt lat="43.839858999287884" lon="12.769771705173317"><ele>75.0</ele><time>2026-05-03T13:15:07Z</time></trkpt><trkpt lat="43.839856096834104" lon="12.76966509251255"><ele>75.0</ele><time>2026-05-03T13:15:08Z</time></trkpt><trkpt lat="43.83973404067776" lon="12.769588471588465"><ele>75.0</ele><time>2026-05-03T13:15:10Z</time></trkpt><trkpt lat="43.839614557718335" lon="12.769558448330985"><ele>75.0</ele><time>2026-05-03T13:15:11Z</time></trkpt><trkpt lat="43.83950558908757" lon="12.76948550581514"><ele>75.0</ele><time>2026-05-03T13:15:12Z</time></trkpt><trkpt lat="43.839414517147006" lon="12.769368897859989"><ele>74.0</ele><time>2026-05-03T13:15:13Z</time></trkpt><trkpt lat="43.83935357361535" lon="12.769156998550677"><ele>73.0</ele><time>2026-05-03T13:15:14Z</time></trkpt><trkpt lat="43.8392461184839" lon="12.768950795633186"><ele>72.0</ele><time>2026-05-03T13:15:15Z</time></trkpt><trkpt lat="43.83918380383759" lon="12.768755154191458"><ele>73.33333333333333</ele><time>2026-05-03T13:15:16Z</time></trkpt><trkpt lat="43.83914081689905" lon="12.768565723908873"><ele>74.66666666666666</ele><time>2026-05-03T13:15:17Z</time></trkpt><trkpt lat="43.83909415989552" lon="12.768341009846939"><ele>76.0</ele><time>2026-05-03T13:15:18Z</time></trkpt><trkpt lat="43.839046790417534" lon="12.768085600605787"><ele>76.0</ele><time>2026-05-03T13:15:19Z</time></trkpt><trkpt lat="43.83900376188725" lon="12.767865486260227"><ele>76.0</ele><time>2026-05-03T13:15:20Z</time></trkpt><trkpt lat="43.83893184068107" lon="12.76766965173884"><ele>76.0</ele><time>2026-05-03T13:15:21Z</time></trkpt><trkpt lat="43.838864266302245" lon="12.767462518386235"><ele>75.5</ele><time>2026-05-03T13:15:22Z</time></trkpt><trkpt lat="43.838789146103466" lon="12.76727536428498"><ele>75.0</ele><time>2026-05-03T13:15:23Z</time></trkpt><trkpt lat="43.83874142112294" lon="12.76710212029202"><ele>74.5</ele><time>2026-05-03T13:15:23.999Z</time></trkpt><trkpt lat="43.8386821728367" lon="12.766941636447097"><ele>74.0</ele><time>2026-05-03T13:15:24.999Z</time></trkpt><trkpt lat="43.83862114163381" lon="12.766797023180114"><ele>73.75</ele><time>2026-05-03T13:15:25.999Z</time></trkpt><trkpt lat="43.838535730744894" lon="12.766657251306336"><ele>73.5</ele><time>2026-05-03T13:15:26.999Z</time></trkpt><trkpt lat="43.83844244530579" lon="12.766519640444336"><ele>73.25</ele><time>2026-05-03T13:15:27.999Z</time></trkpt><trkpt lat="43.83833164155128" lon="12.76639108988263"><ele>73.0</ele><time>2026-05-03T13:15:28.999Z</time></trkpt><trkpt lat="43.83825323199425" lon="12.766278112359727"><ele>73.5</ele><time>2026-05-03T13:15:29.999Z</time></trkpt><trkpt lat="43.83817963772027" lon="12.766159031285746"><ele>74.0</ele><time>2026-05-03T13:15:30.999Z</time></trkpt><trkpt lat="43.83808968355687" lon="12.766029988974891"><ele>74.5</ele><time>2026-05-03T13:15:31.999Z</time></trkpt><trkpt lat="43.83799778587206" lon="12.765857193832398"><ele>75.0</ele><time>2026-05-03T13:15:32.999Z</time></trkpt><trkpt lat="43.83792396894396" lon="12.765683940528767"><ele>73.5</ele><time>2026-05-03T13:15:33.999Z</time></trkpt><trkpt lat="43.837868582409236" lon="12.765513412594116"><ele>72.0</ele><time>2026-05-03T13:15:34.999Z</time></trkpt><trkpt lat="43.83780930540547" lon="12.765339642527735"><ele>70.5</ele><time>2026-05-03T13:15:35.999Z</time></trkpt><trkpt lat="43.83779101501111" lon="12.765157641208985"><ele>69.0</ele><time>2026-05-03T13:15:36.999Z</time></trkpt><trkpt lat="43.83777102126554" lon="12.764988917408662"><ele>68.0</ele><time>2026-05-03T13:15:37.999Z</time></trkpt><trkpt lat="43.83775524512166" lon="12.764780469900508"><ele>67.0</ele><time>2026-05-03T13:15:38.999Z</time></trkpt><trkpt lat="43.8377598526957" lon="12.764636745160708"><ele>66.0</ele><time>2026-05-03T13:15:39.999Z</time></trkpt><trkpt lat="43.83779172802862" lon="12.764484443192178"><ele>65.0</ele><time>2026-05-03T13:15:40.999Z</time></trkpt><trkpt lat="43.83785880613507" lon="12.76430384914606"><ele>65.0</ele><time>2026-05-03T13:15:41.999Z</time></trkpt><trkpt lat="43.837948358013165" lon="12.764073645658057"><ele>65.0</ele><time>2026-05-03T13:15:42.999Z</time></trkpt><trkpt lat="43.838025439476446" lon="12.763819082730999"><ele>65.0</ele><time>2026-05-03T13:15:43.999Z</time></trkpt><trkpt lat="43.838103333072695" lon="12.763635859940841"><ele>66.66666666666667</ele><time>2026-05-03T13:15:44.999Z</time></trkpt><trkpt lat="43.838201325396575" lon="12.763470522350195"><ele>68.33333333333333</ele><time>2026-05-03T13:15:45.999Z</time></trkpt><trkpt lat="43.83828234559063" lon="12.7632781500268"><ele>70.0</ele><time>2026-05-03T13:15:46.999Z</time></trkpt><trkpt lat="43.83838783243819" lon="12.763148301866885"><ele>70.0</ele><time>2026-05-03T13:15:47.999Z</time></trkpt><trkpt lat="43.83843102257785" lon="12.763012662239364"><ele>70.0</ele><time>2026-05-03T13:15:49Z</time></trkpt><trkpt lat="43.83845848939739" lon="12.762884941405941"><ele>70.0</ele><time>2026-05-03T13:15:50Z</time></trkpt><trkpt lat="43.83845611136738" lon="12.762728019626651"><ele>70.0</ele><time>2026-05-03T13:15:51Z</time></trkpt><trkpt lat="43.838438962632544" lon="12.762519300556898"><ele>70.75</ele><time>2026-05-03T13:15:52Z</time></trkpt><trkpt lat="43.83841647636306" lon="12.762281866606774"><ele>71.5</ele><time>2026-05-03T13:15:53Z</time></trkpt><trkpt lat="43.838413579944365" lon="12.76206977411108"><ele>72.25</ele><time>2026-05-03T13:15:54Z</time></trkpt><trkpt lat="43.83841127026709" lon="12.761929783678715"><ele>73.0</ele><time>2026-05-03T13:15:55Z</time></trkpt><trkpt lat="43.83840968813018" lon="12.761806104091852"><ele>73.0</ele><time>2026-05-03T13:15:56Z</time></trkpt><trkpt lat="43.83840831769227" lon="12.761693191499814"><ele>73.0</ele><time>2026-05-03T13:15:57Z</time></trkpt><trkpt lat="43.83838988969807" lon="12.761530988720375"><ele>73.0</ele><time>2026-05-03T13:15:58Z</time></trkpt><trkpt lat="43.838400059047125" lon="12.761302367322712"><ele>73.0</ele><time>2026-05-03T13:15:59Z</time></trkpt><trkpt lat="43.838362898023014" lon="12.761043445611453"><ele>72.66666666666666</ele><time>2026-05-03T13:16:00Z</time></trkpt><trkpt lat="43.8383234190022" lon="12.760782944096032"><ele>72.33333333333333</ele><time>2026-05-03T13:16:01Z</time></trkpt><trkpt lat="43.83829427535595" lon="12.760513544639313"><ele>72.0</ele><time>2026-05-03T13:16:02Z</time></trkpt><trkpt lat="43.838236918077065" lon="12.760233193685169"><ele>71.0</ele><time>2026-05-03T13:16:03Z</time></trkpt><trkpt lat="43.83816805307566" lon="12.759931190279467"><ele>70.0</ele><time>2026-05-03T13:16:04Z</time></trkpt><trkpt lat="43.83807535254716" lon="12.759617438587425"><ele>69.66666666666666</ele><time>2026-05-03T13:16:05Z</time></trkpt><trkpt lat="43.838029415081884" lon="12.759324997867301"><ele>69.33333333333333</ele><time>2026-05-03T13:16:06Z</time></trkpt><trkpt lat="43.83799033761381" lon="12.759024435507367"><ele>69.0</ele><time>2026-05-03T13:16:07Z</time></trkpt><trkpt lat="43.83795472052483" lon="12.758711796676343"><ele>68.66666666666667</ele><time>2026-05-03T13:16:08Z</time></trkpt><trkpt lat="43.837921158090396" lon="12.7584171930114"><ele>68.33333333333334</ele><time>2026-05-03T13:16:09Z</time></trkpt><trkpt lat="43.837888398805234" lon="12.758157331334104"><ele>68.0</ele><time>2026-05-03T13:16:10Z</time></trkpt><trkpt lat="43.83786169527869" lon="12.757944699041708"><ele>68.0</ele><time>2026-05-03T13:16:11Z</time></trkpt><trkpt lat="43.83783956587119" lon="12.75775799420903"><ele>68.0</ele><time>2026-05-03T13:16:12Z</time></trkpt><trkpt lat="43.83781178196476" lon="12.757566784773303"><ele>68.0</ele><time>2026-05-03T13:16:13Z</time></trkpt><trkpt lat="43.83777684980599" lon="12.75737382402061"><ele>68.0</ele><time>2026-05-03T13:16:14Z</time></trkpt><trkpt lat="43.83773795535992" lon="12.75719878022392"><ele>68.16666666666667</ele><time>2026-05-03T13:16:15Z</time></trkpt><trkpt lat="43.83770412981477" lon="12.757047017126824"><ele>68.33333333333334</ele><time>2026-05-03T13:16:16Z</time></trkpt><trkpt lat="43.83767413134637" lon="12.756921139546058"><ele>68.5</ele><time>2026-05-03T13:16:17Z</time></trkpt><trkpt lat="43.83764667839979" lon="12.756821634808777"><ele>68.66666666666667</ele><time>2026-05-03T13:16:18Z</time></trkpt><trkpt lat="43.83760167210513" lon="12.756745471584452"><ele>68.83333333333333</ele><time>2026-05-03T13:16:19Z</time></trkpt><trkpt lat="43.83756125027554" lon="12.756636400783801"><ele>69.0</ele><time>2026-05-03T13:16:21Z</time></trkpt><trkpt lat="43.8375459103383" lon="12.756545519612903"><ele>69.0</ele><time>2026-05-03T13:16:33Z</time></trkpt><trkpt lat="43.83749164812878" lon="12.75645825930854"><ele>69.0</ele><time>2026-05-03T13:16:38Z</time></trkpt><trkpt lat="43.837438226145295" lon="12.756364271392394"><ele>69.0</ele><time>2026-05-03T13:16:39Z</time></trkpt><trkpt lat="43.837361516905695" lon="12.756233155003375"><ele>69.0</ele><time>2026-05-03T13:16:40Z</time></trkpt><trkpt lat="43.83726729944205" lon="12.756071291412828"><ele>69.0</ele><time>2026-05-03T13:16:41Z</time></trkpt><trkpt lat="43.837146916428736" lon="12.755901505429554"><ele>65.5</ele><time>2026-05-03T13:16:42Z</time></trkpt><trkpt lat="43.83696902453999" lon="12.755559909845921"><ele>62.0</ele><time>2026-05-03T13:16:43Z</time></trkpt><trkpt lat="43.83685839775935" lon="12.755271169130008"><ele>64.0</ele><time>2026-05-03T13:16:44Z</time></trkpt><trkpt lat="43.83671150707079" lon="12.754930465021019"><ele>66.0</ele><time>2026-05-03T13:16:45Z</time></trkpt><trkpt lat="43.83660991398806" lon="12.754582384049579"><ele>63.66666666666667</ele><time>2026-05-03T13:16:46Z</time></trkpt><trkpt lat="43.83650412761921" lon="12.754283694480362"><ele>61.333333333333336</ele><time>2026-05-03T13:16:47Z</time></trkpt><trkpt lat="43.83641693235088" lon="12.754118738576642"><ele>59.0</ele><time>2026-05-03T13:16:48Z</time></trkpt><trkpt lat="43.836337602971774" lon="12.753994170927495"><ele>59.0</ele><time>2026-05-03T13:16:49Z</time></trkpt><trkpt lat="43.83625022767347" lon="12.753886515044156"><ele>59.0</ele><time>2026-05-03T13:16:50Z</time></trkpt><trkpt lat="43.83659689242416" lon="12.752793725991289"><ele>57.66666666666667</ele><time>2026-05-03T13:16:51Z</time></trkpt><trkpt lat="43.83652359918044" lon="12.752533744311792"><ele>56.33333333333333</ele><time>2026-05-03T13:16:52Z</time></trkpt><trkpt lat="43.83645675780051" lon="12.752296536798168"><ele>55.0</ele><time>2026-05-03T13:16:53Z</time></trkpt><trkpt lat="43.83638945352722" lon="12.75206474968568"><ele>54.666666666666664</ele><time>2026-05-03T13:16:54Z</time></trkpt><trkpt lat="43.83632190663622" lon="12.751824761080115"><ele>54.33333333333333</ele><time>2026-05-03T13:16:55Z</time></trkpt><trkpt lat="43.83626082046321" lon="12.751599927215443"><ele>54.0</ele><time>2026-05-03T13:16:56Z</time></trkpt><trkpt lat="43.836209459167414" lon="12.751412736783646"><ele>54.0</ele><time>2026-05-03T13:16:57Z</time></trkpt><trkpt lat="43.83617838206523" lon="12.75126185152388"><ele>54.00000000000001</ele><time>2026-05-03T13:16:58Z</time></trkpt><trkpt lat="43.83617549992491" lon="12.751127885368502"><ele>54.00000000000001</ele><time>2026-05-03T13:16:59Z</time></trkpt><trkpt lat="43.83620683129889" lon="12.75100078352117"><ele>54.0</ele><time>2026-05-03T13:17:00Z</time></trkpt><trkpt lat="43.83627038012718" lon="12.750877378149731"><ele>54.0</ele><time>2026-05-03T13:17:01Z</time></trkpt><trkpt lat="43.83633595725697" lon="12.750751081666955"><ele>54.6</ele><time>2026-05-03T13:17:02Z</time></trkpt><trkpt lat="43.836353804054426" lon="12.750636407729845"><ele>55.2</ele><time>2026-05-03T13:17:03Z</time></trkpt><trkpt lat="43.83631453445076" lon="12.750538608823488"><ele>55.800000000000004</ele><time>2026-05-03T13:17:04Z</time></trkpt><trkpt lat="43.83624894349972" lon="12.75045422056772"><ele>56.400000000000006</ele><time>2026-05-03T13:17:05Z</time></trkpt><trkpt lat="43.83614905014882" lon="12.75038737148053"><ele>57.0</ele><time>2026-05-03T13:17:06Z</time></trkpt><trkpt lat="43.83601994793124" lon="12.750325392945758"><ele>58.25</ele><time>2026-05-03T13:17:07Z</time></trkpt><trkpt lat="43.83591196107372" lon="12.750241260642682"><ele>59.5</ele><time>2026-05-03T13:17:08Z</time></trkpt><trkpt lat="43.83584267508451" lon="12.750124043137465"><ele>60.75</ele><time>2026-05-03T13:17:09Z</time></trkpt><trkpt lat="43.835779141559904" lon="12.749961101059357"><ele>62.0</ele><time>2026-05-03T13:17:10Z</time></trkpt><trkpt lat="43.83573312993044" lon="12.749830035028019"><ele>62.2</ele><time>2026-05-03T13:17:11Z</time></trkpt><trkpt lat="43.83568205859582" lon="12.749717863604463"><ele>62.400000000000006</ele><time>2026-05-03T13:17:12Z</time></trkpt><trkpt lat="43.83566394079921" lon="12.749624797597194"><ele>62.599999999999994</ele><time>2026-05-03T13:17:13Z</time></trkpt><trkpt lat="43.83561084830844" lon="12.74948871370958"><ele>62.8</ele><time>2026-05-03T13:17:15Z</time></trkpt><trkpt lat="43.835452959826" lon="12.749566180175531"><ele>63.0</ele><time>2026-05-03T13:17:17Z</time></trkpt><trkpt lat="43.835393224786344" lon="12.749618210928771"><ele>63.0</ele><time>2026-05-03T13:17:18Z</time></trkpt><trkpt lat="43.835339582795264" lon="12.74969981337651"><ele>63.0</ele><time>2026-05-03T13:17:20Z</time></trkpt><trkpt lat="43.83523392640384" lon="12.749995984100602"><ele>63.0</ele><time>2026-05-03T13:17:23Z</time></trkpt><trkpt lat="43.835446813939335" lon="12.749787572170098"><ele>63.0</ele><time>2026-05-03T13:17:24Z</time></trkpt><trkpt lat="43.835580025750524" lon="12.749798994509476"><ele>63.0</ele><time>2026-05-03T13:17:26Z</time></trkpt><trkpt lat="43.83564155244702" lon="12.749916432835764"><ele>63.0</ele><time>2026-05-03T13:17:28.001Z</time></trkpt><trkpt lat="43.83557569399913" lon="12.750127147181146"><ele>63.0</ele><time>2026-05-03T13:17:29.001Z</time></trkpt><trkpt lat="43.83557903524297" lon="12.750301935769706"><ele>62.833333333333336</ele><time>2026-05-03T13:17:29.999Z</time></trkpt><trkpt lat="43.835582510673696" lon="12.75042335731682"><ele>62.66666666666667</ele><time>2026-05-03T13:17:30.999Z</time></trkpt><trkpt lat="43.835586115555515" lon="12.750522656119315"><ele>62.5</ele><time>2026-05-03T13:17:31.999Z</time></trkpt><trkpt lat="43.835602627786656" lon="12.750692607682508"><ele>62.333333333333336</ele><time>2026-05-03T13:17:33.999Z</time></trkpt><trkpt lat="43.835604301091216" lon="12.750793042532163"><ele>62.16666666666667</ele><time>2026-05-03T13:17:34.999Z</time></trkpt><trkpt lat="43.835607463060235" lon="12.750909203334025"><ele>62.0</ele><time>2026-05-03T13:17:35.999Z</time></trkpt><trkpt lat="43.8356145343762" lon="12.75104158206724"><ele>61.333333333333336</ele><time>2026-05-03T13:17:36.999Z</time></trkpt><trkpt lat="43.83562296813328" lon="12.75115770175828"><ele>60.66666666666667</ele><time>2026-05-03T13:17:37.999Z</time></trkpt><trkpt lat="43.83563366965031" lon="12.751259311179767"><ele>60.0</ele><time>2026-05-03T13:17:38.999Z</time></trkpt><trkpt lat="43.83563925090303" lon="12.751352533043733"><ele>59.33333333333333</ele><time>2026-05-03T13:17:39.999Z</time></trkpt><trkpt lat="43.835644309467185" lon="12.751522481550387"><ele>58.666666666666664</ele><time>2026-05-03T13:17:41.999Z</time></trkpt><trkpt lat="43.83561815667325" lon="12.751619092734629"><ele>58.0</ele><time>2026-05-03T13:17:42.999Z</time></trkpt><trkpt lat="43.8355648234949" lon="12.751686003722337"><ele>57.99999999999999</ele><time>2026-05-03T13:17:43.999Z</time></trkpt><trkpt lat="43.83550065156276" lon="12.751742000825907"><ele>58.0</ele><time>2026-05-03T13:17:44.999Z</time></trkpt><trkpt lat="43.83544297747837" lon="12.751803529968639"><ele>58.0</ele><time>2026-05-03T13:17:45.999Z</time></trkpt><trkpt lat="43.83538612043786" lon="12.751871827554647"><ele>58.0</ele><time>2026-05-03T13:17:46.999Z</time></trkpt><trkpt lat="43.83533155820726" lon="12.751919429627186"><ele>57.99999999999999</ele><time>2026-05-03T13:17:47.999Z</time></trkpt><trkpt lat="43.83525452460368" lon="12.751990872126632"><ele>58.0</ele><time>2026-05-03T13:17:50Z</time></trkpt><trkpt lat="43.83518474796363" lon="12.752069076979444"><ele>57.2</ele><time>2026-05-03T13:17:52Z</time></trkpt><trkpt lat="43.83526896328597" lon="12.75222048152317"><ele>56.4</ele><time>2026-05-03T13:17:53Z</time></trkpt><trkpt lat="43.835328998238815" lon="12.752264721245735"><ele>55.60000000000001</ele><time>2026-05-03T13:17:54Z</time></trkpt><trkpt lat="43.835391455349466" lon="12.752332268671307"><ele>54.800000000000004</ele><time>2026-05-03T13:17:56Z</time></trkpt><trkpt lat="43.835457651218185" lon="12.752391498377383"><ele>54.0</ele><time>2026-05-03T13:17:59Z</time></trkpt><trkpt lat="43.83534186926445" lon="12.752533485984657"><ele>54.0</ele><time>2026-05-03T13:18:46Z</time></trkpt><trkpt lat="43.835256136627514" lon="12.752582981249825"><ele>54.0</ele><time>2026-05-03T13:18:47Z</time></trkpt><trkpt lat="43.83512890876162" lon="12.752639779461523"><ele>54.0</ele><time>2026-05-03T13:18:48Z</time></trkpt><trkpt lat="43.8349330046703" lon="12.752695937151374"><ele>54.0</ele><time>2026-05-03T13:18:50Z</time></trkpt><trkpt lat="43.83481879969169" lon="12.752706233291708"><ele>54.25</ele><time>2026-05-03T13:18:51Z</time></trkpt><trkpt lat="43.83467679089484" lon="12.752693759428459"><ele>54.5</ele><time>2026-05-03T13:18:52Z</time></trkpt><trkpt lat="43.83454374037621" lon="12.752675777859258"><ele>54.75</ele><time>2026-05-03T13:18:53Z</time></trkpt><trkpt lat="43.834399760892275" lon="12.752643256713808"><ele>55.0</ele><time>2026-05-03T13:18:54Z</time></trkpt><trkpt lat="43.83422698981036" lon="12.752628507019264"><ele>54.4</ele><time>2026-05-03T13:18:55Z</time></trkpt><trkpt lat="43.83408740535505" lon="12.752597582973495"><ele>53.8</ele><time>2026-05-03T13:18:56Z</time></trkpt><trkpt lat="43.8339647001868" lon="12.752571892537572"><ele>53.2</ele><time>2026-05-03T13:18:57Z</time></trkpt><trkpt lat="43.83386682280489" lon="12.75255127933903"><ele>52.6</ele><time>2026-05-03T13:18:58Z</time></trkpt><trkpt lat="43.83379074330639" lon="12.752508079831896"><ele>52.0</ele><time>2026-05-03T13:18:59Z</time></trkpt><trkpt lat="43.833713946436305" lon="12.752464193114752"><ele>52.0</ele><time>2026-05-03T13:19:00Z</time></trkpt><trkpt lat="43.83360947449796" lon="12.752411176522763"><ele>52.0</ele><time>2026-05-03T13:19:01.001Z</time></trkpt><trkpt lat="43.833489270653544" lon="12.752324933454808"><ele>52.0</ele><time>2026-05-03T13:19:02.001Z</time></trkpt><trkpt lat="43.83340725149085" lon="12.75224822316159"><ele>52.0</ele><time>2026-05-03T13:19:03.001Z</time></trkpt><trkpt lat="43.83333939422905" lon="12.752172809901605"><ele>52.0</ele><time>2026-05-03T13:19:04.001Z</time></trkpt><trkpt lat="43.833280707100016" lon="12.752042392951582"><ele>52.0</ele><time>2026-05-03T13:19:05.001Z</time></trkpt><trkpt lat="43.83319065097868" lon="12.751906312982358"><ele>52.0</ele><time>2026-05-03T13:19:06.001Z</time></trkpt><trkpt lat="43.83310562465441" lon="12.751840538503224"><ele>52.0</ele><time>2026-05-03T13:19:07.001Z</time></trkpt><trkpt lat="43.83306964906307" lon="12.751762572802011"><ele>52.0</ele><time>2026-05-03T13:19:08.001Z</time></trkpt><trkpt lat="43.83296342727172" lon="12.75165475577195"><ele>52.0</ele><time>2026-05-03T13:19:10.001Z</time></trkpt><trkpt lat="43.83282726038197" lon="12.75175219977085"><ele>52.0</ele><time>2026-05-03T13:19:11.001Z</time></trkpt><trkpt lat="43.832718495296724" lon="12.751696222064844"><ele>52.0</ele><time>2026-05-03T13:19:12.001Z</time></trkpt><trkpt lat="43.832612463091756" lon="12.751655137554021"><ele>52.0</ele><time>2026-05-03T13:19:13.001Z</time></trkpt><trkpt lat="43.83251780762948" lon="12.751630328446677"><ele>52.0</ele><time>2026-05-03T13:19:14.001Z</time></trkpt><trkpt lat="43.8324462128367" lon="12.751604736822516"><ele>52.0</ele><time>2026-05-03T13:19:15.001Z</time></trkpt><trkpt lat="43.832322542938236" lon="12.751523431760715"><ele>51.99999999999999</ele><time>2026-05-03T13:19:17.001Z</time></trkpt><trkpt lat="43.83224732203689" lon="12.751467704665606"><ele>52.0</ele><time>2026-05-03T13:19:18.001Z</time></trkpt><trkpt lat="43.83217217761251" lon="12.751383627587849"><ele>52.0</ele><time>2026-05-03T13:19:19.001Z</time></trkpt><trkpt lat="43.83210490374948" lon="12.751312834430179"><ele>52.0</ele><time>2026-05-03T13:19:20.001Z</time></trkpt><trkpt lat="43.83203312075474" lon="12.751267622297659"><ele>51.99999999999999</ele><time>2026-05-03T13:19:21.001Z</time></trkpt><trkpt lat="43.83196389394079" lon="12.751236786598163"><ele>52.0</ele><time>2026-05-03T13:19:22.001Z</time></trkpt><trkpt lat="43.83186673128597" lon="12.751159955758942"><ele>52.166666666666664</ele><time>2026-05-03T13:19:24.001Z</time></trkpt><trkpt lat="43.83178918066295" lon="12.751096734010384"><ele>52.33333333333333</ele><time>2026-05-03T13:19:25.001Z</time></trkpt><trkpt lat="43.831730421349" lon="12.751032365440997"><ele>52.5</ele><time>2026-05-03T13:19:26.001Z</time></trkpt><trkpt lat="43.831660658503544" lon="12.750964467685137"><ele>52.66666666666667</ele><time>2026-05-03T13:19:27.001Z</time></trkpt><trkpt lat="43.83158319754613" lon="12.750893941811936"><ele>52.833333333333336</ele><time>2026-05-03T13:19:28.001Z</time></trkpt><trkpt lat="43.831496984575615" lon="12.750839729554286"><ele>53.0</ele><time>2026-05-03T13:19:29.001Z</time></trkpt><trkpt lat="43.83136459838235" lon="12.75077161293815"><ele>53.50000000000001</ele><time>2026-05-03T13:19:31.001Z</time></trkpt><trkpt lat="43.831290412687494" lon="12.750775601938612"><ele>54.0</ele><time>2026-05-03T13:19:32.001Z</time></trkpt><trkpt lat="43.83120783278783" lon="12.750770876653089"><ele>54.5</ele><time>2026-05-03T13:19:33.001Z</time></trkpt><trkpt lat="43.83110173941201" lon="12.750706238522785"><ele>55.0</ele><time>2026-05-03T13:19:35.001Z</time></trkpt><trkpt lat="43.831045947749594" lon="12.750649474082325"><ele>55.50000000000001</ele><time>2026-05-03T13:19:35.999Z</time></trkpt><trkpt lat="43.83096903903982" lon="12.750567387937688"><ele>56.0</ele><time>2026-05-03T13:19:36.999Z</time></trkpt><trkpt lat="43.83091543382622" lon="12.750500920142592"><ele>56.00000000000001</ele><time>2026-05-03T13:19:37.999Z</time></trkpt><trkpt lat="43.83086086101018" lon="12.750413839228695"><ele>56.0</ele><time>2026-05-03T13:19:38.999Z</time></trkpt><trkpt lat="43.83080916250655" lon="12.750332948753957"><ele>56.0</ele><time>2026-05-03T13:19:39.999Z</time></trkpt><trkpt lat="43.830753066726224" lon="12.75028176168286"><ele>56.0</ele><time>2026-05-03T13:19:40.999Z</time></trkpt><trkpt lat="43.83069128179166" lon="12.750237463922792"><ele>56.00000000000001</ele><time>2026-05-03T13:19:41.999Z</time></trkpt><trkpt lat="43.830635156521126" lon="12.750126955266538"><ele>56.0</ele><time>2026-05-03T13:19:43.999Z</time></trkpt><trkpt lat="43.83060360877211" lon="12.74999460003081"><ele>56.4</ele><time>2026-05-03T13:19:45.999Z</time></trkpt><trkpt lat="43.83048973328048" lon="12.749897549060034"><ele>56.8</ele><time>2026-05-03T13:19:48Z</time></trkpt><trkpt lat="43.830377327316285" lon="12.749894225781919"><ele>57.199999999999996</ele><time>2026-05-03T13:19:50Z</time></trkpt><trkpt lat="43.83027918163339" lon="12.749852134201427"><ele>57.599999999999994</ele><time>2026-05-03T13:19:52Z</time></trkpt><trkpt lat="43.83022780042944" lon="12.749777137809268"><ele>58.0</ele><time>2026-05-03T13:19:53Z</time></trkpt><trkpt lat="43.8301723480546" lon="12.749679632512462"><ele>58.33333333333333</ele><time>2026-05-03T13:19:54Z</time></trkpt><trkpt lat="43.8301209525242" lon="12.74960768693932"><ele>58.666666666666664</ele><time>2026-05-03T13:19:55Z</time></trkpt><trkpt lat="43.83003614548652" lon="12.749543440624059"><ele>59.0</ele><time>2026-05-03T13:19:56Z</time></trkpt><trkpt lat="43.82995843804629" lon="12.749480739679358"><ele>59.33333333333333</ele><time>2026-05-03T13:19:57Z</time></trkpt><trkpt lat="43.82991225616329" lon="12.749397631476967"><ele>59.666666666666664</ele><time>2026-05-03T13:19:59Z</time></trkpt><trkpt lat="43.82989990742709" lon="12.749297095008377"><ele>60.0</ele><time>2026-05-03T13:20:00Z</time></trkpt><trkpt lat="43.82986309819694" lon="12.749167066483169"><ele>60.0</ele><time>2026-05-03T13:20:01Z</time></trkpt><trkpt lat="43.82984755845683" lon="12.749052026266371"><ele>60.0</ele><time>2026-05-03T13:20:02Z</time></trkpt><trkpt lat="43.829838458208144" lon="12.748921115967624"><ele>60.0</ele><time>2026-05-03T13:20:04Z</time></trkpt><trkpt lat="43.82972482537381" lon="12.748838330044538"><ele>60.0</ele><time>2026-05-03T13:20:06Z</time></trkpt><trkpt lat="43.82966480583651" lon="12.7487822643432"><ele>60.0</ele><time>2026-05-03T13:20:07Z</time></trkpt><trkpt lat="43.82961232797857" lon="12.748703343436404"><ele>60.0</ele><time>2026-05-03T13:20:08Z</time></trkpt><trkpt lat="43.82958394607398" lon="12.748605826817716"><ele>60.0</ele><time>2026-05-03T13:20:09Z</time></trkpt><trkpt lat="43.8295677337326" lon="12.74850171008198"><ele>60.0</ele><time>2026-05-03T13:20:10Z</time></trkpt><trkpt lat="43.82958660242096" lon="12.74840225310268"><ele>60.0</ele><time>2026-05-03T13:20:11Z</time></trkpt><trkpt lat="43.829610135207176" lon="12.748281252243743"><ele>60.0</ele><time>2026-05-03T13:20:12Z</time></trkpt><trkpt lat="43.82959677031439" lon="12.748188210099602"><ele>60.0</ele><time>2026-05-03T13:20:13Z</time></trkpt><trkpt lat="43.82956079225739" lon="12.748078827675371"><ele>59.6</ele><time>2026-05-03T13:20:14Z</time></trkpt><trkpt lat="43.8295135011271" lon="12.74794720520356"><ele>59.2</ele><time>2026-05-03T13:20:15Z</time></trkpt><trkpt lat="43.829458768489374" lon="12.747855300246465"><ele>58.8</ele><time>2026-05-03T13:20:16Z</time></trkpt><trkpt lat="43.82939498574845" lon="12.747777479826077"><ele>58.4</ele><time>2026-05-03T13:20:17Z</time></trkpt><trkpt lat="43.82930501048969" lon="12.74768467865051"><ele>58.0</ele><time>2026-05-03T13:20:18Z</time></trkpt><trkpt lat="43.8292351150378" lon="12.747587968147897"><ele>58.8</ele><time>2026-05-03T13:20:19Z</time></trkpt><trkpt lat="43.829173131187815" lon="12.747507726042732"><ele>59.599999999999994</ele><time>2026-05-03T13:20:20Z</time></trkpt><trkpt lat="43.82909495084881" lon="12.747433840307231"><ele>60.400000000000006</ele><time>2026-05-03T13:20:21Z</time></trkpt><trkpt lat="43.829005299547006" lon="12.747368245551677"><ele>61.2</ele><time>2026-05-03T13:20:22Z</time></trkpt><trkpt lat="43.828909236456276" lon="12.747301086463573"><ele>62.0</ele><time>2026-05-03T13:20:23Z</time></trkpt><trkpt lat="43.82883177525966" lon="12.747253438332427"><ele>62.00000000000001</ele><time>2026-05-03T13:20:24Z</time></trkpt><trkpt lat="43.82874725720267" lon="12.747212937982898"><ele>62.0</ele><time>2026-05-03T13:20:25Z</time></trkpt><trkpt lat="43.828662288178535" lon="12.747186238878317"><ele>62.0</ele><time>2026-05-03T13:20:26Z</time></trkpt><trkpt lat="43.82858504251047" lon="12.74718458337078"><ele>62.0</ele><time>2026-05-03T13:20:27Z</time></trkpt><trkpt lat="43.828503720405934" lon="12.74719039252675"><ele>62.00000000000001</ele><time>2026-05-03T13:20:28Z</time></trkpt><trkpt lat="43.82844095836184" lon="12.747172115717586"><ele>62.0</ele><time>2026-05-03T13:20:29Z</time></trkpt><trkpt lat="43.828368773367394" lon="12.74710359503226"><ele>62.2</ele><time>2026-05-03T13:20:30Z</time></trkpt><trkpt lat="43.82827197690522" lon="12.747007209563717"><ele>62.400000000000006</ele><time>2026-05-03T13:20:31Z</time></trkpt><trkpt lat="43.828167028785195" lon="12.74691515525528"><ele>62.599999999999994</ele><time>2026-05-03T13:20:32Z</time></trkpt><trkpt lat="43.82806872549246" lon="12.746858616583085"><ele>62.8</ele><time>2026-05-03T13:20:33Z</time></trkpt><trkpt lat="43.82798280418831" lon="12.746827173537604"><ele>63.0</ele><time>2026-05-03T13:20:34Z</time></trkpt><trkpt lat="43.82789217003234" lon="12.746764989188893"><ele>63.0</ele><time>2026-05-03T13:20:36Z</time></trkpt><trkpt lat="43.82780828778639" lon="12.7466008043691"><ele>63.0</ele><time>2026-05-03T13:20:38Z</time></trkpt><trkpt lat="43.827734753543936" lon="12.74651473598498"><ele>63.0</ele><time>2026-05-03T13:20:39Z</time></trkpt><trkpt lat="43.827664377144856" lon="12.746450280513807"><ele>63.0</ele><time>2026-05-03T13:20:40Z</time></trkpt><trkpt lat="43.82757919233943" lon="12.746390315994066"><ele>63.0</ele><time>2026-05-03T13:20:41Z</time></trkpt><trkpt lat="43.827485453995884" lon="12.74631932951578"><ele>63.0</ele><time>2026-05-03T13:20:42Z</time></trkpt><trkpt lat="43.82741926484486" lon="12.746257797552168"><ele>63.0</ele><time>2026-05-03T13:20:43Z</time></trkpt><trkpt lat="43.827360957186144" lon="12.746222063783764"><ele>63.0</ele><time>2026-05-03T13:20:44Z</time></trkpt><trkpt lat="43.827294856339805" lon="12.746204738736134"><ele>63.0</ele><time>2026-05-03T13:20:45.001Z</time></trkpt><trkpt lat="43.827193659488756" lon="12.746196574082742"><ele>63.0</ele><time>2026-05-03T13:20:46.001Z</time></trkpt><trkpt lat="43.827082577724525" lon="12.7461708167604"><ele>63.0</ele><time>2026-05-03T13:20:47.001Z</time></trkpt><trkpt lat="43.82699266197431" lon="12.746133418173835"><ele>63.0</ele><time>2026-05-03T13:20:48.001Z</time></trkpt><trkpt lat="43.82690366352896" lon="12.746085537784284"><ele>63.0</ele><time>2026-05-03T13:20:49.001Z</time></trkpt><trkpt lat="43.82680425467823" lon="12.746042044037885"><ele>63.0</ele><time>2026-05-03T13:20:50.001Z</time></trkpt><trkpt lat="43.82670583596607" lon="12.745988607138308"><ele>63.0</ele><time>2026-05-03T13:20:51.001Z</time></trkpt><trkpt lat="43.82661534328026" lon="12.745950318840924"><ele>63.0</ele><time>2026-05-03T13:20:52.001Z</time></trkpt><trkpt lat="43.82650651684046" lon="12.745882536158797"><ele>62.5</ele><time>2026-05-03T13:20:53.001Z</time></trkpt><trkpt lat="43.82638900121546" lon="12.745820532794951"><ele>62.0</ele><time>2026-05-03T13:20:54.001Z</time></trkpt><trkpt lat="43.82628177268191" lon="12.745761570993015"><ele>61.5</ele><time>2026-05-03T13:20:55.001Z</time></trkpt><trkpt lat="43.82617807339448" lon="12.745708388567888"><ele>61.0</ele><time>2026-05-03T13:20:56.001Z</time></trkpt><trkpt lat="43.82606524438975" lon="12.745644320440789"><ele>61.0</ele><time>2026-05-03T13:20:57.001Z</time></trkpt><trkpt lat="43.82597337245072" lon="12.745582922525903"><ele>60.99999999999999</ele><time>2026-05-03T13:20:58.001Z</time></trkpt><trkpt lat="43.82587347954509" lon="12.745529313402676"><ele>60.99999999999999</ele><time>2026-05-03T13:20:59.001Z</time></trkpt><trkpt lat="43.825785211136626" lon="12.745479571125301"><ele>61.0</ele><time>2026-05-03T13:21:00.001Z</time></trkpt><trkpt lat="43.82569914991434" lon="12.745429356675107"><ele>61.0</ele><time>2026-05-03T13:21:01.001Z</time></trkpt><trkpt lat="43.825638548978446" lon="12.745386032386932"><ele>61.0</ele><time>2026-05-03T13:21:02.001Z</time></trkpt><trkpt lat="43.82548175435263" lon="12.745416485718101"><ele>61.0</ele><time>2026-05-03T13:21:04.001Z</time></trkpt><trkpt lat="43.825357955071205" lon="12.745434945447736"><ele>61.0</ele><time>2026-05-03T13:21:05.001Z</time></trkpt><trkpt lat="43.82525190216668" lon="12.74545835969837"><ele>61.0</ele><time>2026-05-03T13:21:06.001Z</time></trkpt><trkpt lat="43.82517305480397" lon="12.745441210923937"><ele>61.0</ele><time>2026-05-03T13:21:08.001Z</time></trkpt><trkpt lat="43.82518772493412" lon="12.745351255872695"><ele>60.99999999999999</ele><time>2026-05-03T13:21:10.001Z</time></trkpt><trkpt lat="43.825189122512896" lon="12.745262498958574"><ele>60.99999999999999</ele><time>2026-05-03T13:21:11.001Z</time></trkpt><trkpt lat="43.82508500950417" lon="12.74513475086371"><ele>61.0</ele><time>2026-05-03T13:21:13.001Z</time></trkpt><trkpt lat="43.825000134473036" lon="12.745076680642976"><ele>61.0</ele><time>2026-05-03T13:21:14.001Z</time></trkpt><trkpt lat="43.82490515424061" lon="12.745036643675705"><ele>61.199999999999996</ele><time>2026-05-03T13:21:15.001Z</time></trkpt><trkpt lat="43.82480092956839" lon="12.745016481964836"><ele>61.39999999999999</ele><time>2026-05-03T13:21:16.001Z</time></trkpt><trkpt lat="43.824709502285764" lon="12.745003700404993"><ele>61.6</ele><time>2026-05-03T13:21:17.001Z</time></trkpt><trkpt lat="43.824643195899796" lon="12.74500130612011"><ele>61.8</ele><time>2026-05-03T13:21:18.001Z</time></trkpt><trkpt lat="43.824559600978866" lon="12.745040221975158"><ele>62.0</ele><time>2026-05-03T13:21:35.001Z</time></trkpt><trkpt lat="43.82446037718456" lon="12.745038440256861"><ele>62.00000000000001</ele><time>2026-05-03T13:21:37.001Z</time></trkpt><trkpt lat="43.82440038096069" lon="12.74500790503709"><ele>62.0</ele><time>2026-05-03T13:21:38.001Z</time></trkpt><trkpt lat="43.82434586269482" lon="12.744959964952686"><ele>62.0</ele><time>2026-05-03T13:21:39.001Z</time></trkpt><trkpt lat="43.824285350234575" lon="12.74489781054309"><ele>62.0</ele><time>2026-05-03T13:21:40.001Z</time></trkpt><trkpt lat="43.82421968174124" lon="12.744837661339243"><ele>62.00000000000001</ele><time>2026-05-03T13:21:41.001Z</time></trkpt><trkpt lat="43.824142538583615" lon="12.744774079542662"><ele>62.0</ele><time>2026-05-03T13:21:43Z</time></trkpt><trkpt lat="43.82404872300893" lon="12.744697658399673"><ele>62.0</ele><time>2026-05-03T13:22:17Z</time></trkpt><trkpt lat="43.82399422445579" lon="12.744640551119192"><ele>62.0</ele><time>2026-05-03T13:22:18Z</time></trkpt><trkpt lat="43.8239064531538" lon="12.744555222092732"><ele>62.0</ele><time>2026-05-03T13:22:20Z</time></trkpt><trkpt lat="43.82384706373731" lon="12.744474871546855"><ele>62.0</ele><time>2026-05-03T13:22:21Z</time></trkpt><trkpt lat="43.823752589075006" lon="12.744370941798824"><ele>62.0</ele><time>2026-05-03T13:22:22Z</time></trkpt><trkpt lat="43.82367577618933" lon="12.744283393857307"><ele>62.00000000000001</ele><time>2026-05-03T13:22:23Z</time></trkpt><trkpt lat="43.82360509546769" lon="12.7441942153445"><ele>62.0</ele><time>2026-05-03T13:22:24Z</time></trkpt><trkpt lat="43.823540463088264" lon="12.744115642722726"><ele>62.0</ele><time>2026-05-03T13:22:25Z</time></trkpt><trkpt lat="43.82348397102483" lon="12.74404239799543"><ele>62.0</ele><time>2026-05-03T13:22:26Z</time></trkpt><trkpt lat="43.8234239428531" lon="12.743968036952511"><ele>62.00000000000001</ele><time>2026-05-03T13:22:27Z</time></trkpt><trkpt lat="43.82337352740102" lon="12.743890681432818"><ele>62.0</ele><time>2026-05-03T13:22:28Z</time></trkpt><trkpt lat="43.82333884537638" lon="12.743808571642656"><ele>62.00000000000001</ele><time>2026-05-03T13:22:29Z</time></trkpt><trkpt lat="43.823310925994676" lon="12.743700738132857"><ele>62.0</ele><time>2026-05-03T13:22:30Z</time></trkpt><trkpt lat="43.82326961739523" lon="12.743587764187533"><ele>62.0</ele><time>2026-05-03T13:22:31Z</time></trkpt><trkpt lat="43.82321336556251" lon="12.743502820970456"><ele>62.0</ele><time>2026-05-03T13:22:32Z</time></trkpt><trkpt lat="43.82315424019783" lon="12.74343433503895"><ele>62.00000000000001</ele><time>2026-05-03T13:22:33Z</time></trkpt><trkpt lat="43.82309258095705" lon="12.743360517701053"><ele>62.0</ele><time>2026-05-03T13:22:34Z</time></trkpt><trkpt lat="43.823033898341414" lon="12.743274102802339"><ele>62.333333333333336</ele><time>2026-05-03T13:22:35Z</time></trkpt><trkpt lat="43.82297719132703" lon="12.743185841443387"><ele>62.66666666666667</ele><time>2026-05-03T13:22:36Z</time></trkpt><trkpt lat="43.82292781049232" lon="12.743087161618423"><ele>63.0</ele><time>2026-05-03T13:22:37Z</time></trkpt><trkpt lat="43.82286706172338" lon="12.743013223362038"><ele>63.33333333333333</ele><time>2026-05-03T13:22:38Z</time></trkpt><trkpt lat="43.822809504248006" lon="12.742941530279865"><ele>63.666666666666664</ele><time>2026-05-03T13:22:39Z</time></trkpt><trkpt lat="43.822746819298786" lon="12.742870879180211"><ele>64.0</ele><time>2026-05-03T13:22:40Z</time></trkpt><trkpt lat="43.82267027394682" lon="12.742766772102652"><ele>63.99999999999999</ele><time>2026-05-03T13:22:42Z</time></trkpt><trkpt lat="43.82264878665897" lon="12.74265894136069"><ele>64.0</ele><time>2026-05-03T13:22:44Z</time></trkpt><trkpt lat="43.822631015523825" lon="12.742561329715146"><ele>64.0</ele><time>2026-05-03T13:22:46.001Z</time></trkpt><trkpt lat="43.82257391228273" lon="12.742508808234696"><ele>64.0</ele><time>2026-05-03T13:22:48.001Z</time></trkpt><trkpt lat="43.82252658629844" lon="12.742425328627021"><ele>63.99999999999999</ele><time>2026-05-03T13:22:49.001Z</time></trkpt><trkpt lat="43.822465601460564" lon="12.742311757882714"><ele>64.0</ele><time>2026-05-03T13:22:50.001Z</time></trkpt><trkpt lat="43.82242515458972" lon="12.742232200824409"><ele>64.0</ele><time>2026-05-03T13:22:51.001Z</time></trkpt><trkpt lat="43.8223662775242" lon="12.742141363088997"><ele>64.0</ele><time>2026-05-03T13:22:52.001Z</time></trkpt><trkpt lat="43.822313624735656" lon="12.742038154137465"><ele>64.0</ele><time>2026-05-03T13:22:53.001Z</time></trkpt><trkpt lat="43.82227093063379" lon="12.74192655289107"><ele>64.0</ele><time>2026-05-03T13:22:54.001Z</time></trkpt><trkpt lat="43.8222264898987" lon="12.741804911817548"><ele>64.0</ele><time>2026-05-03T13:22:55.001Z</time></trkpt><trkpt lat="43.82217348729547" lon="12.741707165139731"><ele>63.666666666666664</ele><time>2026-05-03T13:22:56.001Z</time></trkpt><trkpt lat="43.82212040866134" lon="12.741611043923948"><ele>63.33333333333333</ele><time>2026-05-03T13:22:57.001Z</time></trkpt><trkpt lat="43.82209139870958" lon="12.741521387447165"><ele>63.0</ele><time>2026-05-03T13:22:58.001Z</time></trkpt><trkpt lat="43.82206932972814" lon="12.741421471216256"><ele>62.66666666666667</ele><time>2026-05-03T13:22:59.001Z</time></trkpt><trkpt lat="43.822046117735276" lon="12.741315477541562"><ele>62.333333333333336</ele><time>2026-05-03T13:23:00.001Z</time></trkpt><trkpt lat="43.82200805352202" lon="12.741186370195702"><ele>62.0</ele><time>2026-05-03T13:23:02.001Z</time></trkpt><trkpt lat="43.82197273602414" lon="12.741113424534692"><ele>62.0</ele><time>2026-05-03T13:23:04.001Z</time></trkpt><trkpt lat="43.821895195389416" lon="12.741196213367601"><ele>62.0</ele><time>2026-05-03T13:23:07.001Z</time></trkpt><trkpt lat="43.82184520814264" lon="12.741305117018605"><ele>62.0</ele><time>2026-05-03T13:23:08.001Z</time></trkpt><trkpt lat="43.82179401560681" lon="12.741451547573144"><ele>62.0</ele><time>2026-05-03T13:23:09.001Z</time></trkpt><trkpt lat="43.82173201343264" lon="12.741604146867003"><ele>62.0</ele><time>2026-05-03T13:23:10.001Z</time></trkpt><trkpt lat="43.82168635187853" lon="12.741719028511408"><ele>62.50000000000001</ele><time>2026-05-03T13:23:11.001Z</time></trkpt><trkpt lat="43.82165340537377" lon="12.741802897523735"><ele>63.0</ele><time>2026-05-03T13:23:12.001Z</time></trkpt><trkpt lat="43.8215863962336" lon="12.741885584376314"><ele>63.5</ele><time>2026-05-03T13:23:14.001Z</time></trkpt><trkpt lat="43.821503708565075" lon="12.741835583443603"><ele>64.0</ele><time>2026-05-03T13:23:16.001Z</time></trkpt><trkpt lat="43.8214581190986" lon="12.741718794789989"><ele>64.5</ele><time>2026-05-03T13:23:18.001Z</time></trkpt><trkpt lat="43.82143748361064" lon="12.741600771042153"><ele>65.0</ele><time>2026-05-03T13:23:20.001Z</time></trkpt><trkpt lat="43.82143053488232" lon="12.741505498132799"><ele>65.16666666666667</ele><time>2026-05-03T13:23:22.001Z</time></trkpt><trkpt lat="43.821397980692936" lon="12.741424156917907"><ele>65.33333333333334</ele><time>2026-05-03T13:23:24.001Z</time></trkpt><trkpt lat="43.82132951241994" lon="12.741391806841559"><ele>65.5</ele><time>2026-05-03T13:23:27.001Z</time></trkpt><trkpt lat="43.82126628467361" lon="12.741429805637107"><ele>65.66666666666667</ele><time>2026-05-03T13:23:30.001Z</time></trkpt><trkpt lat="43.821191662141345" lon="12.741426279023802"><ele>65.83333333333333</ele><time>2026-05-03T13:23:31.001Z</time></trkpt><trkpt lat="43.8211548232351" lon="12.7415173345958"><ele>66.0</ele><time>2026-05-03T13:23:32.001Z</time></trkpt><trkpt lat="43.821083406003766" lon="12.741620471470943"><ele>66.0</ele><time>2026-05-03T13:23:33.001Z</time></trkpt><trkpt lat="43.82106021797075" lon="12.741730774684184"><ele>66.0</ele><time>2026-05-03T13:23:34.001Z</time></trkpt><trkpt lat="43.82104653995793" lon="12.741863668638725"><ele>66.0</ele><time>2026-05-03T13:23:35.001Z</time></trkpt><trkpt lat="43.821034839619124" lon="12.742059609151024"><ele>66.0</ele><time>2026-05-03T13:23:36.001Z</time></trkpt><trkpt lat="43.82104088069083" lon="12.742242989858967"><ele>66.0</ele><time>2026-05-03T13:23:37.001Z</time></trkpt><trkpt lat="43.82105460830396" lon="12.742442232989767"><ele>66.0</ele><time>2026-05-03T13:23:38.001Z</time></trkpt><trkpt lat="43.821098526116984" lon="12.742676766193288"><ele>66.0</ele><time>2026-05-03T13:23:39.001Z</time></trkpt><trkpt lat="43.8211401367966" lon="12.742949190178486"><ele>66.0</ele><time>2026-05-03T13:23:40.001Z</time></trkpt><trkpt lat="43.8211673634716" lon="12.743201517863117"><ele>66.0</ele><time>2026-05-03T13:23:41.001Z</time></trkpt><trkpt lat="43.82120546934448" lon="12.743419977645544"><ele>66.0</ele><time>2026-05-03T13:23:42.001Z</time></trkpt><trkpt lat="43.821272522801515" lon="12.743637448564984"><ele>69.66666666666667</ele><time>2026-05-03T13:23:43.001Z</time></trkpt><trkpt lat="43.82136502259037" lon="12.743891655759603"><ele>73.33333333333334</ele><time>2026-05-03T13:23:44.001Z</time></trkpt><trkpt lat="43.821463869168596" lon="12.744158506808775"><ele>77.0</ele><time>2026-05-03T13:23:45.001Z</time></trkpt><trkpt lat="43.82154376550887" lon="12.744382662003668"><ele>77.2</ele><time>2026-05-03T13:23:46.001Z</time></trkpt><trkpt lat="43.82160619689593" lon="12.744550885320194"><ele>77.4</ele><time>2026-05-03T13:23:47.001Z</time></trkpt><trkpt lat="43.82163594617493" lon="12.744671009251949"><ele>77.6</ele><time>2026-05-03T13:23:48Z</time></trkpt><trkpt lat="43.821592670348565" lon="12.744757710953746"><ele>77.8</ele><time>2026-05-03T13:23:49Z</time></trkpt><trkpt lat="43.82154150111378" lon="12.74481094237039"><ele>78.0</ele><time>2026-05-03T13:23:50Z</time></trkpt><trkpt lat="43.82146044603901" lon="12.744855245406336"><ele>78.0</ele><time>2026-05-03T13:23:51Z</time></trkpt><trkpt lat="43.82134747239279" lon="12.744899136605436"><ele>78.0</ele><time>2026-05-03T13:23:52Z</time></trkpt><trkpt lat="43.82120447726779" lon="12.744969058976183"><ele>78.0</ele><time>2026-05-03T13:23:53Z</time></trkpt><trkpt lat="43.82103151123462" lon="12.745024802505817"><ele>78.0</ele><time>2026-05-03T13:23:54Z</time></trkpt><trkpt lat="43.820846074048674" lon="12.745093163515739"><ele>83.33333333333333</ele><time>2026-05-03T13:23:55Z</time></trkpt><trkpt lat="43.820647867016866" lon="12.745152212479953"><ele>88.66666666666666</ele><time>2026-05-03T13:23:56Z</time></trkpt><trkpt lat="43.82047312919165" lon="12.745192583037417"><ele>94.0</ele><time>2026-05-03T13:23:57Z</time></trkpt><trkpt lat="43.82030931415894" lon="12.745188487407672"><ele>94.5</ele><time>2026-05-03T13:23:58Z</time></trkpt><trkpt lat="43.82017768643044" lon="12.745235174027526"><ele>95.0</ele><time>2026-05-03T13:23:59Z</time></trkpt><trkpt lat="43.82009113509398" lon="12.745245826670317"><ele>95.5</ele><time>2026-05-03T13:24:00Z</time></trkpt><trkpt lat="43.82005762257165" lon="12.7451571531262"><ele>96.0</ele><time>2026-05-03T13:24:03Z</time></trkpt><trkpt lat="43.820149822940856" lon="12.744937257139355"><ele>95.33333333333333</ele><time>2026-05-03T13:24:04Z</time></trkpt><trkpt lat="43.82019089604222" lon="12.744723413508686"><ele>94.66666666666666</ele><time>2026-05-03T13:24:05Z</time></trkpt><trkpt lat="43.82026796408342" lon="12.744506715323828"><ele>94.0</ele><time>2026-05-03T13:24:06Z</time></trkpt><trkpt lat="43.820335652833975" lon="12.744359513177905"><ele>95.75</ele><time>2026-05-03T13:24:07Z</time></trkpt><trkpt lat="43.82038959763292" lon="12.744217143146892"><ele>97.5</ele><time>2026-05-03T13:24:08Z</time></trkpt><trkpt lat="43.82043840590995" lon="12.744070725362942"><ele>99.25</ele><time>2026-05-03T13:24:09Z</time></trkpt><trkpt lat="43.82045980333931" lon="12.74390110403713"><ele>101.0</ele><time>2026-05-03T13:24:10Z</time></trkpt><trkpt lat="43.82045760352153" lon="12.743751055078288"><ele>101.0</ele><time>2026-05-03T13:24:11Z</time></trkpt><trkpt lat="43.82044027562242" lon="12.743610807246998"><ele>101.0</ele><time>2026-05-03T13:24:12Z</time></trkpt><trkpt lat="43.82039885120948" lon="12.743459294343458"><ele>101.0</ele><time>2026-05-03T13:24:13Z</time></trkpt><trkpt lat="43.82031536584634" lon="12.743315250823594"><ele>101.0</ele><time>2026-05-03T13:24:14Z</time></trkpt><trkpt lat="43.82020342925862" lon="12.743156179925677"><ele>106.0</ele><time>2026-05-03T13:24:15Z</time></trkpt><trkpt lat="43.820086782193364" lon="12.743007608496779"><ele>111.0</ele><time>2026-05-03T13:24:16Z</time></trkpt><trkpt lat="43.81998579587021" lon="12.742895067508554"><ele>116.0</ele><time>2026-05-03T13:24:17Z</time></trkpt><trkpt lat="43.819872822085564" lon="12.742810287286305"><ele>121.0</ele><time>2026-05-03T13:24:18Z</time></trkpt><trkpt lat="43.81976546965751" lon="12.742756213568853"><ele>121.0</ele><time>2026-05-03T13:24:19Z</time></trkpt><trkpt lat="43.81967874942872" lon="12.742748382167603"><ele>121.0</ele><time>2026-05-03T13:24:20Z</time></trkpt><trkpt lat="43.819584314651976" lon="12.742785976098679"><ele>121.0</ele><time>2026-05-03T13:24:21Z</time></trkpt><trkpt lat="43.81952254749801" lon="12.742870563376037"><ele>121.0</ele><time>2026-05-03T13:24:22Z</time></trkpt><trkpt lat="43.819459213870935" lon="12.74301126131454"><ele>121.0</ele><time>2026-05-03T13:24:23Z</time></trkpt><trkpt lat="43.81937793280715" lon="12.743180690457676"><ele>124.4</ele><time>2026-05-03T13:24:24Z</time></trkpt><trkpt lat="43.81927106711905" lon="12.743279020153077"><ele>127.8</ele><time>2026-05-03T13:24:25Z</time></trkpt><trkpt lat="43.81917385246768" lon="12.743340497852516"><ele>131.20000000000002</ele><time>2026-05-03T13:24:26Z</time></trkpt><trkpt lat="43.819074485328954" lon="12.743344057486953"><ele>134.6</ele><time>2026-05-03T13:24:27Z</time></trkpt><trkpt lat="43.81896547172897" lon="12.743319798356044"><ele>138.0</ele><time>2026-05-03T13:24:28Z</time></trkpt><trkpt lat="43.81884357148751" lon="12.743322700379824"><ele>138.0</ele><time>2026-05-03T13:24:29Z</time></trkpt><trkpt lat="43.81874577493053" lon="12.743337609215562"><ele>138.0</ele><time>2026-05-03T13:24:30Z</time></trkpt><trkpt lat="43.818632625787444" lon="12.743417898467564"><ele>138.0</ele><time>2026-05-03T13:24:31Z</time></trkpt><trkpt lat="43.818501746476684" lon="12.743537307639883"><ele>138.0</ele><time>2026-05-03T13:24:32Z</time></trkpt><trkpt lat="43.81834877611353" lon="12.743611823308381"><ele>140.5</ele><time>2026-05-03T13:24:33Z</time></trkpt><trkpt lat="43.81820706022135" lon="12.743673793543666"><ele>143.0</ele><time>2026-05-03T13:24:34Z</time></trkpt><trkpt lat="43.81808604785899" lon="12.743714867193798"><ele>145.5</ele><time>2026-05-03T13:24:35Z</time></trkpt><trkpt lat="43.81792034057445" lon="12.743734462927836"><ele>148.0</ele><time>2026-05-03T13:24:36Z</time></trkpt><trkpt lat="43.81774144722773" lon="12.743777588908362"><ele>152.25</ele><time>2026-05-03T13:24:37Z</time></trkpt><trkpt lat="43.81758654838436" lon="12.743783022748929"><ele>156.5</ele><time>2026-05-03T13:24:38Z</time></trkpt><trkpt lat="43.81743648555927" lon="12.743805913784097"><ele>160.75</ele><time>2026-05-03T13:24:39Z</time></trkpt><trkpt lat="43.81730193511069" lon="12.743867041005236"><ele>165.0</ele><time>2026-05-03T13:24:40Z</time></trkpt><trkpt lat="43.81712580312068" lon="12.743966240803092"><ele>165.0</ele><time>2026-05-03T13:24:41Z</time></trkpt><trkpt lat="43.816948656658674" lon="12.744086305987445"><ele>165.0</ele><time>2026-05-03T13:24:42.001Z</time></trkpt><trkpt lat="43.816791011124735" lon="12.744132869097935"><ele>165.0</ele><time>2026-05-03T13:24:43.001Z</time></trkpt><trkpt lat="43.81664986893897" lon="12.744210105838322"><ele>164.0</ele><time>2026-05-03T13:24:44.001Z</time></trkpt><trkpt lat="43.816546029776525" lon="12.74432187058701"><ele>163.0</ele><time>2026-05-03T13:24:45.001Z</time></trkpt><trkpt lat="43.81645807898388" lon="12.744372766365366"><ele>162.0</ele><time>2026-05-03T13:24:46.001Z</time></trkpt><trkpt lat="43.8163720785876" lon="12.744392725531302"><ele>161.0</ele><time>2026-05-03T13:24:47.001Z</time></trkpt><trkpt lat="43.81627464365424" lon="12.744338627094722"><ele>160.0</ele><time>2026-05-03T13:24:48.001Z</time></trkpt><trkpt lat="43.81615505996351" lon="12.744266436506608"><ele>167.25</ele><time>2026-05-03T13:24:49.001Z</time></trkpt><trkpt lat="43.81597604856377" lon="12.744210624444028"><ele>174.5</ele><time>2026-05-03T13:24:50.001Z</time></trkpt><trkpt lat="43.815843250862706" lon="12.744130782272526"><ele>181.75</ele><time>2026-05-03T13:24:51.001Z</time></trkpt><trkpt lat="43.81573347173167" lon="12.744097383757458"><ele>189.0</ele><time>2026-05-03T13:24:52.001Z</time></trkpt><trkpt lat="43.81562879638091" lon="12.744064032392814"><ele>189.0</ele><time>2026-05-03T13:24:53.001Z</time></trkpt><trkpt lat="43.81551378199847" lon="12.744100404611986"><ele>189.0</ele><time>2026-05-03T13:24:54.001Z</time></trkpt><trkpt lat="43.815359353363796" lon="12.744165983365475"><ele>189.0</ele><time>2026-05-03T13:24:55.001Z</time></trkpt><trkpt lat="43.81522274587908" lon="12.744221866581647"><ele>189.0</ele><time>2026-05-03T13:24:56.001Z</time></trkpt><trkpt lat="43.815130282743205" lon="12.744351394067694"><ele>186.66666666666666</ele><time>2026-05-03T13:24:57.001Z</time></trkpt><trkpt lat="43.815042953877395" lon="12.744495463635083"><ele>184.33333333333331</ele><time>2026-05-03T13:24:58.001Z</time></trkpt><trkpt lat="43.81492077600515" lon="12.744664999779337"><ele>182.0</ele><time>2026-05-03T13:24:59.001Z</time></trkpt><trkpt lat="43.81482440995704" lon="12.74486888788542"><ele>182.0</ele><time>2026-05-03T13:25:00.001Z</time></trkpt><trkpt lat="43.81472570483285" lon="12.745064251282706"><ele>182.0</ele><time>2026-05-03T13:25:01.001Z</time></trkpt><trkpt lat="43.814651583163545" lon="12.745270786628335"><ele>182.0</ele><time>2026-05-03T13:25:02.001Z</time></trkpt><trkpt lat="43.8145856753317" lon="12.745469362727736"><ele>183.39999999999998</ele><time>2026-05-03T13:25:03.001Z</time></trkpt><trkpt lat="43.814552022556704" lon="12.745658071349453"><ele>184.79999999999998</ele><time>2026-05-03T13:25:04.001Z</time></trkpt><trkpt lat="43.81448827977668" lon="12.74575576234054"><ele>186.2</ele><time>2026-05-03T13:25:05.001Z</time></trkpt><trkpt lat="43.81442153577426" lon="12.74580363890663"><ele>187.6</ele><time>2026-05-03T13:25:06.001Z</time></trkpt><trkpt lat="43.81431491858301" lon="12.745708883046362"><ele>189.0</ele><time>2026-05-03T13:25:08.001Z</time></trkpt><trkpt lat="43.81421408117388" lon="12.745669712693257"><ele>189.0</ele><time>2026-05-03T13:25:09.001Z</time></trkpt><trkpt lat="43.81411442607086" lon="12.745656456078185"><ele>189.0</ele><time>2026-05-03T13:25:10.001Z</time></trkpt><trkpt lat="43.814008146152005" lon="12.745684277383623"><ele>189.0</ele><time>2026-05-03T13:25:11.001Z</time></trkpt><trkpt lat="43.813846912386325" lon="12.745739407947976"><ele>189.0</ele><time>2026-05-03T13:25:12.001Z</time></trkpt><trkpt lat="43.81365593533359" lon="12.74579952923706"><ele>191.25</ele><time>2026-05-03T13:25:13.001Z</time></trkpt><trkpt lat="43.81347606726459" lon="12.745830378615956"><ele>193.5</ele><time>2026-05-03T13:25:14.001Z</time></trkpt><trkpt lat="43.813349926696745" lon="12.745889573800488"><ele>195.75</ele><time>2026-05-03T13:25:15.001Z</time></trkpt><trkpt lat="43.81325268777417" lon="12.745941920346064"><ele>198.0</ele><time>2026-05-03T13:25:16.001Z</time></trkpt><trkpt lat="43.81317012387341" lon="12.74603997391101"><ele>194.0</ele><time>2026-05-03T13:25:17.001Z</time></trkpt><trkpt lat="43.81309107231775" lon="12.746182815040136"><ele>190.0</ele><time>2026-05-03T13:25:18.001Z</time></trkpt><trkpt lat="43.81299513883028" lon="12.746353278236972"><ele>186.0</ele><time>2026-05-03T13:25:19.001Z</time></trkpt><trkpt lat="43.81287860656452" lon="12.746506215500704"><ele>182.0</ele><time>2026-05-03T13:25:20.001Z</time></trkpt><trkpt lat="43.81276171781973" lon="12.746620941288038"><ele>182.0</ele><time>2026-05-03T13:25:21.001Z</time></trkpt><trkpt lat="43.81267435919828" lon="12.746685036461123"><ele>182.0</ele><time>2026-05-03T13:25:22.001Z</time></trkpt><trkpt lat="43.81256130364116" lon="12.746747526603963"><ele>182.0</ele><time>2026-05-03T13:25:23.001Z</time></trkpt><trkpt lat="43.81246768742274" lon="12.74674601371034"><ele>182.0</ele><time>2026-05-03T13:25:24.001Z</time></trkpt><trkpt lat="43.81235854635991" lon="12.746691681480094"><ele>182.0</ele><time>2026-05-03T13:25:25.001Z</time></trkpt><trkpt lat="43.8122264756131" lon="12.746617375730084"><ele>188.0</ele><time>2026-05-03T13:25:26.001Z</time></trkpt><trkpt lat="43.81206839510851" lon="12.746504026334467"><ele>194.0</ele><time>2026-05-03T13:25:27.001Z</time></trkpt><trkpt lat="43.81193601310725" lon="12.746388209725026"><ele>200.0</ele><time>2026-05-03T13:25:28.001Z</time></trkpt><trkpt lat="43.81182293727364" lon="12.74625883568091"><ele>200.0</ele><time>2026-05-03T13:25:29.001Z</time></trkpt><trkpt lat="43.81170355076755" lon="12.746120214236322"><ele>200.0</ele><time>2026-05-03T13:25:30.001Z</time></trkpt><trkpt lat="43.81162281832387" lon="12.746006594705413"><ele>200.0</ele><time>2026-05-03T13:25:31.001Z</time></trkpt><trkpt lat="43.81158568139744" lon="12.745935788727401"><ele>200.0</ele><time>2026-05-03T13:25:32.001Z</time></trkpt><trkpt lat="43.811649629815314" lon="12.74588699494862"><ele>200.0</ele><time>2026-05-03T13:25:34.001Z</time></trkpt><trkpt lat="43.811731590606655" lon="12.745945204053532"><ele>204.8</ele><time>2026-05-03T13:25:36.001Z</time></trkpt><trkpt lat="43.81182378158033" lon="12.745968011235666"><ele>209.6</ele><time>2026-05-03T13:25:37.001Z</time></trkpt><trkpt lat="43.811923287969414" lon="12.746014888074388"><ele>214.39999999999998</ele><time>2026-05-03T13:25:38.001Z</time></trkpt><trkpt lat="43.81201637253258" lon="12.746044505614005"><ele>219.2</ele><time>2026-05-03T13:25:39.001Z</time></trkpt><trkpt lat="43.81211463121107" lon="12.746036392604088"><ele>224.0</ele><time>2026-05-03T13:25:40.001Z</time></trkpt><trkpt lat="43.81223300523645" lon="12.746018492538072"><ele>224.0</ele><time>2026-05-03T13:25:41.001Z</time></trkpt><trkpt lat="43.812314754799665" lon="12.745990586631732"><ele>223.99999999999997</ele><time>2026-05-03T13:25:42.001Z</time></trkpt><trkpt lat="43.81239810522751" lon="12.745889548536587"><ele>223.99999999999997</ele><time>2026-05-03T13:25:44.001Z</time></trkpt><trkpt lat="43.812341642261956" lon="12.745747357012418"><ele>224.0</ele><time>2026-05-03T13:25:46.001Z</time></trkpt><trkpt lat="43.812237122821706" lon="12.745736134539106"><ele>224.0</ele><time>2026-05-03T13:25:47.001Z</time></trkpt><trkpt lat="43.8121290825521" lon="12.745694913114837"><ele>224.00000000000003</ele><time>2026-05-03T13:25:48.001Z</time></trkpt><trkpt lat="43.81204594617974" lon="12.745613012841387"><ele>224.0</ele><time>2026-05-03T13:25:49.001Z</time></trkpt><trkpt lat="43.812008225093734" lon="12.745525963464466"><ele>224.0</ele><time>2026-05-03T13:25:50.001Z</time></trkpt><trkpt lat="43.811984015810886" lon="12.745403176425889"><ele>224.0</ele><time>2026-05-03T13:25:51.001Z</time></trkpt><trkpt lat="43.81198809442093" lon="12.745286398342156"><ele>224.00000000000003</ele><time>2026-05-03T13:25:52.001Z</time></trkpt><trkpt lat="43.812056640850294" lon="12.745230242722712"><ele>224.0</ele><time>2026-05-03T13:25:53.001Z</time></trkpt><trkpt lat="43.81214878551708" lon="12.7451739022268"><ele>226.33333333333334</ele><time>2026-05-03T13:25:54Z</time></trkpt><trkpt lat="43.81224307993166" lon="12.745089424551304"><ele>228.66666666666669</ele><time>2026-05-03T13:25:55Z</time></trkpt><trkpt lat="43.81228513069131" lon="12.745001674738877"><ele>231.0</ele><time>2026-05-03T13:25:56Z</time></trkpt><trkpt lat="43.812287193278" lon="12.74489716103878"><ele>233.33333333333331</ele><time>2026-05-03T13:25:57Z</time></trkpt><trkpt lat="43.81226566551121" lon="12.74477355842722"><ele>235.66666666666666</ele><time>2026-05-03T13:25:58Z</time></trkpt><trkpt lat="43.81221765955521" lon="12.744663615391692"><ele>238.0</ele><time>2026-05-03T13:25:59Z</time></trkpt><trkpt lat="43.81213981711404" lon="12.744577440489204"><ele>238.0</ele><time>2026-05-03T13:26:00Z</time></trkpt><trkpt lat="43.812031789289236" lon="12.74446942729598"><ele>238.0</ele><time>2026-05-03T13:26:01Z</time></trkpt><trkpt lat="43.81198580758155" lon="12.744349466793265"><ele>238.0</ele><time>2026-05-03T13:26:02Z</time></trkpt><trkpt lat="43.81195899315189" lon="12.744159585991177"><ele>238.0</ele><time>2026-05-03T13:26:04Z</time></trkpt><trkpt lat="43.81194529270393" lon="12.743975446192502"><ele>239.4</ele><time>2026-05-03T13:26:05Z</time></trkpt><trkpt lat="43.811908802000744" lon="12.743809829560178"><ele>240.8</ele><time>2026-05-03T13:26:06Z</time></trkpt><trkpt lat="43.811890960189984" lon="12.74370633403416"><ele>242.2</ele><time>2026-05-03T13:26:07Z</time></trkpt><trkpt lat="43.81181163212888" lon="12.743655345200622"><ele>243.6</ele><time>2026-05-03T13:26:08Z</time></trkpt><trkpt lat="43.811686221273455" lon="12.743633360431044"><ele>245.0</ele><time>2026-05-03T13:26:09Z</time></trkpt><trkpt lat="43.81154410310061" lon="12.743545057933693"><ele>247.75</ele><time>2026-05-03T13:26:10Z</time></trkpt><trkpt lat="43.81139454169074" lon="12.743457622255237"><ele>250.5</ele><time>2026-05-03T13:26:11Z</time></trkpt><trkpt lat="43.8112694525196" lon="12.743427640824224"><ele>253.25</ele><time>2026-05-03T13:26:12Z</time></trkpt><trkpt lat="43.81114299738786" lon="12.743396822345431"><ele>256.0</ele><time>2026-05-03T13:26:13Z</time></trkpt><trkpt lat="43.811015365081175" lon="12.743372340142134"><ele>257.66666666666663</ele><time>2026-05-03T13:26:14Z</time></trkpt><trkpt lat="43.810903346694744" lon="12.743299353238166"><ele>259.3333333333333</ele><time>2026-05-03T13:26:15Z</time></trkpt><trkpt lat="43.81076418478275" lon="12.743237022305312"><ele>261.0</ele><time>2026-05-03T13:26:16Z</time></trkpt><trkpt lat="43.81059249115618" lon="12.74310368795179"><ele>261.0</ele><time>2026-05-03T13:26:17Z</time></trkpt><trkpt lat="43.81044847705579" lon="12.74301253985827"><ele>261.0</ele><time>2026-05-03T13:26:18Z</time></trkpt><trkpt lat="43.81032670278197" lon="12.742960584176268"><ele>261.0</ele><time>2026-05-03T13:26:19Z</time></trkpt><trkpt lat="43.81019897098666" lon="12.74292932972004"><ele>261.0</ele><time>2026-05-03T13:26:20Z</time></trkpt><trkpt lat="43.81003617225582" lon="12.742918085173637"><ele>260.25</ele><time>2026-05-03T13:26:21Z</time></trkpt><trkpt lat="43.80987656999467" lon="12.742899675720146"><ele>259.5</ele><time>2026-05-03T13:26:22Z</time></trkpt><trkpt lat="43.809759784158" lon="12.742865101625657"><ele>258.75</ele><time>2026-05-03T13:26:23Z</time></trkpt><trkpt lat="43.809665671174635" lon="12.74282949663136"><ele>258.0</ele><time>2026-05-03T13:26:24Z</time></trkpt><trkpt lat="43.80955289448101" lon="12.742764471672904"><ele>260.25</ele><time>2026-05-03T13:26:25Z</time></trkpt><trkpt lat="43.8094311570876" lon="12.742662441781729"><ele>262.5</ele><time>2026-05-03T13:26:26Z</time></trkpt><trkpt lat="43.80930523110914" lon="12.742541568831012"><ele>264.75</ele><time>2026-05-03T13:26:27Z</time></trkpt><trkpt lat="43.8091763333243" lon="12.742437751140015"><ele>267.0</ele><time>2026-05-03T13:26:28Z</time></trkpt><trkpt lat="43.809059026418204" lon="12.742391338933494"><ele>269.4</ele><time>2026-05-03T13:26:29Z</time></trkpt><trkpt lat="43.80894622754279" lon="12.742358091973482"><ele>271.79999999999995</ele><time>2026-05-03T13:26:30Z</time></trkpt><trkpt lat="43.808857877652486" lon="12.742356587515383"><ele>274.2</ele><time>2026-05-03T13:26:31Z</time></trkpt><trkpt lat="43.80875439364102" lon="12.74235235804643"><ele>276.59999999999997</ele><time>2026-05-03T13:26:32Z</time></trkpt><trkpt lat="43.8086715060802" lon="12.742361517313135"><ele>279.0</ele><time>2026-05-03T13:26:33Z</time></trkpt><trkpt lat="43.80858671925148" lon="12.742412181319867"><ele>279.0</ele><time>2026-05-03T13:26:34Z</time></trkpt><trkpt lat="43.80849767439059" lon="12.74251817572814"><ele>279.0</ele><time>2026-05-03T13:26:35Z</time></trkpt><trkpt lat="43.80841042964765" lon="12.742613945077332"><ele>279.0</ele><time>2026-05-03T13:26:36Z</time></trkpt><trkpt lat="43.80833039117777" lon="12.742755723422883"><ele>279.0</ele><time>2026-05-03T13:26:37Z</time></trkpt><trkpt lat="43.808245930687406" lon="12.742928743538487"><ele>276.0</ele><time>2026-05-03T13:26:38Z</time></trkpt><trkpt lat="43.808167448722045" lon="12.74303846480969"><ele>273.0</ele><time>2026-05-03T13:26:39Z</time></trkpt><trkpt lat="43.8081108308722" lon="12.743112517680235"><ele>270.0</ele><time>2026-05-03T13:26:40Z</time></trkpt><trkpt lat="43.80803918582201" lon="12.74314546966839"><ele>267.0</ele><time>2026-05-03T13:26:41Z</time></trkpt><trkpt lat="43.807950374276444" lon="12.743173910110011"><ele>264.0</ele><time>2026-05-03T13:26:42Z</time></trkpt><trkpt lat="43.807853974720295" lon="12.743144913228141"><ele>264.0</ele><time>2026-05-03T13:26:43Z</time></trkpt><trkpt lat="43.80772803788029" lon="12.743116240757907"><ele>264.0</ele><time>2026-05-03T13:26:44Z</time></trkpt><trkpt lat="43.8076129487204" lon="12.743065520143467"><ele>264.0</ele><time>2026-05-03T13:26:45Z</time></trkpt><trkpt lat="43.80753360421" lon="12.7430050877948"><ele>264.0</ele><time>2026-05-03T13:26:46Z</time></trkpt><trkpt lat="43.80747397739633" lon="12.742910227901502"><ele>264.0</ele><time>2026-05-03T13:26:47.001Z</time></trkpt><trkpt lat="43.80741680227106" lon="12.742781157336617"><ele>264.25</ele><time>2026-05-03T13:26:48.001Z</time></trkpt><trkpt lat="43.80732492083614" lon="12.742638484744829"><ele>264.5</ele><time>2026-05-03T13:26:49.001Z</time></trkpt><trkpt lat="43.807224921189366" lon="12.742486903015914"><ele>264.75</ele><time>2026-05-03T13:26:50.001Z</time></trkpt><trkpt lat="43.80711354147752" lon="12.742358275664214"><ele>265.0</ele><time>2026-05-03T13:26:51.001Z</time></trkpt><trkpt lat="43.807036669069795" lon="12.742283359768846"><ele>265.0</ele><time>2026-05-03T13:26:52.001Z</time></trkpt><trkpt lat="43.80696424388446" lon="12.742225500634268"><ele>265.0</ele><time>2026-05-03T13:26:53.001Z</time></trkpt><trkpt lat="43.80688600815399" lon="12.742191326170017"><ele>265.0</ele><time>2026-05-03T13:26:54.001Z</time></trkpt><trkpt lat="43.80677389198833" lon="12.742180468998745"><ele>265.0</ele><time>2026-05-03T13:26:55.001Z</time></trkpt><trkpt lat="43.80665324108893" lon="12.742191064742896"><ele>265.0</ele><time>2026-05-03T13:26:56.001Z</time></trkpt><trkpt lat="43.806490676475406" lon="12.742164205644404"><ele>271.66666666666663</ele><time>2026-05-03T13:26:57.001Z</time></trkpt><trkpt lat="43.806323709059015" lon="12.742159487391103"><ele>278.3333333333333</ele><time>2026-05-03T13:26:58.001Z</time></trkpt><trkpt lat="43.80617910718209" lon="12.742179313391414"><ele>285.0</ele><time>2026-05-03T13:26:59.001Z</time></trkpt><trkpt lat="43.806035803513595" lon="12.74219556555073"><ele>288.0</ele><time>2026-05-03T13:27:00.001Z</time></trkpt><trkpt lat="43.805927283569844" lon="12.742231016230638"><ele>291.0</ele><time>2026-05-03T13:27:01.001Z</time></trkpt><trkpt lat="43.805838306022096" lon="12.742278627026401"><ele>294.0</ele><time>2026-05-03T13:27:02.001Z</time></trkpt><trkpt lat="43.80572923859997" lon="12.742358656771328"><ele>297.0</ele><time>2026-05-03T13:27:03.001Z</time></trkpt><trkpt lat="43.80560807345532" lon="12.742438396567387"><ele>297.0</ele><time>2026-05-03T13:27:04.001Z</time></trkpt><trkpt lat="43.80545710920106" lon="12.742495279795742"><ele>297.0</ele><time>2026-05-03T13:27:05.001Z</time></trkpt><trkpt lat="43.80534039797971" lon="12.742529354698789"><ele>297.0</ele><time>2026-05-03T13:27:06.001Z</time></trkpt><trkpt lat="43.80524490653326" lon="12.74261567389683"><ele>297.0</ele><time>2026-05-03T13:27:07.001Z</time></trkpt><trkpt lat="43.805159180820624" lon="12.742749151414188"><ele>303.75</ele><time>2026-05-03T13:27:08.001Z</time></trkpt><trkpt lat="43.80507441473682" lon="12.742874101934559"><ele>310.5</ele><time>2026-05-03T13:27:09.001Z</time></trkpt><trkpt lat="43.805033007724646" lon="12.74300027620278"><ele>317.25</ele><time>2026-05-03T13:27:10.001Z</time></trkpt><trkpt lat="43.80498093461414" lon="12.74314833764041"><ele>324.0</ele><time>2026-05-03T13:27:11.001Z</time></trkpt><trkpt lat="43.804955501382864" lon="12.743316593091468"><ele>324.0</ele><time>2026-05-03T13:27:12.001Z</time></trkpt><trkpt lat="43.80497157147364" lon="12.743470399431166"><ele>324.0</ele><time>2026-05-03T13:27:13.001Z</time></trkpt><trkpt lat="43.80498598493428" lon="12.743642589965573"><ele>324.0</ele><time>2026-05-03T13:27:14.001Z</time></trkpt><trkpt lat="43.80499582327348" lon="12.743783379303183"><ele>324.0</ele><time>2026-05-03T13:27:15.001Z</time></trkpt><trkpt lat="43.80496834140084" lon="12.743874212389663"><ele>324.0</ele><time>2026-05-03T13:27:16.001Z</time></trkpt><trkpt lat="43.8049119102666" lon="12.743948857214152"><ele>323.79999999999995</ele><time>2026-05-03T13:27:17.001Z</time></trkpt><trkpt lat="43.804835110079786" lon="12.74403934587027"><ele>323.59999999999997</ele><time>2026-05-03T13:27:18.001Z</time></trkpt><trkpt lat="43.80472748282284" lon="12.74413013422951"><ele>323.4</ele><time>2026-05-03T13:27:19.001Z</time></trkpt><trkpt lat="43.80462112355261" lon="12.744195732024073"><ele>323.2</ele><time>2026-05-03T13:27:20.001Z</time></trkpt><trkpt lat="43.80454400413594" lon="12.744232042428932"><ele>323.0</ele><time>2026-05-03T13:27:21.001Z</time></trkpt><trkpt lat="43.80448428569924" lon="12.744176618833734"><ele>323.0</ele><time>2026-05-03T13:27:22.001Z</time></trkpt><trkpt lat="43.80442361402028" lon="12.744107544972087"><ele>323.0</ele><time>2026-05-03T13:27:23.001Z</time></trkpt><trkpt lat="43.804339431801736" lon="12.743975912049185"><ele>323.0</ele><time>2026-05-03T13:27:24.001Z</time></trkpt><trkpt lat="43.80423197020086" lon="12.743863823817659"><ele>323.0</ele><time>2026-05-03T13:27:25.001Z</time></trkpt><trkpt lat="43.80414359628077" lon="12.743792131638267"><ele>323.0</ele><time>2026-05-03T13:27:26.001Z</time></trkpt><trkpt lat="43.80402236142639" lon="12.743759562788096"><ele>326.0</ele><time>2026-05-03T13:27:27.001Z</time></trkpt><trkpt lat="43.80386498156034" lon="12.743731930501573"><ele>329.0</ele><time>2026-05-03T13:27:28.001Z</time></trkpt><trkpt lat="43.80370073420187" lon="12.743715628688111"><ele>332.0</ele><time>2026-05-03T13:27:29.001Z</time></trkpt><trkpt lat="43.80356344118705" lon="12.743720265825866"><ele>331.25</ele><time>2026-05-03T13:27:30.001Z</time></trkpt><trkpt lat="43.80344416023107" lon="12.743734708867338"><ele>330.5</ele><time>2026-05-03T13:27:31.001Z</time></trkpt><trkpt lat="43.803335484626224" lon="12.743685779300076"><ele>329.75</ele><time>2026-05-03T13:27:32.001Z</time></trkpt><trkpt lat="43.80319640709309" lon="12.743628829383821"><ele>329.0</ele><time>2026-05-03T13:27:33.001Z</time></trkpt><trkpt lat="43.803005506175275" lon="12.743564366057788"><ele>333.33333333333337</ele><time>2026-05-03T13:27:34.001Z</time></trkpt><trkpt lat="43.80279884099089" lon="12.74348945139018"><ele>337.6666666666667</ele><time>2026-05-03T13:27:35.001Z</time></trkpt><trkpt lat="43.80257402763819" lon="12.743406360427695"><ele>342.0</ele><time>2026-05-03T13:27:36.001Z</time></trkpt><trkpt lat="43.80233830550881" lon="12.743348973017843"><ele>342.0</ele><time>2026-05-03T13:27:37.001Z</time></trkpt><trkpt lat="43.80214042881904" lon="12.743277775821632"><ele>342.0</ele><time>2026-05-03T13:27:38.001Z</time></trkpt><trkpt lat="43.80196766011346" lon="12.743221746011132"><ele>342.0</ele><time>2026-05-03T13:27:39.001Z</time></trkpt><trkpt lat="43.80181466590856" lon="12.743153088248603"><ele>342.3333333333333</ele><time>2026-05-03T13:27:40.001Z</time></trkpt><trkpt lat="43.80166075690897" lon="12.743095325797151"><ele>342.66666666666663</ele><time>2026-05-03T13:27:41.001Z</time></trkpt><trkpt lat="43.80150740571705" lon="12.743061558351936"><ele>343.0</ele><time>2026-05-03T13:27:42.001Z</time></trkpt><trkpt lat="43.801381971742536" lon="12.742991834993935"><ele>343.0</ele><time>2026-05-03T13:27:43.001Z</time></trkpt><trkpt lat="43.801263513955135" lon="12.742948602494867"><ele>343.0</ele><time>2026-05-03T13:27:44.001Z</time></trkpt><trkpt lat="43.80117140988637" lon="12.742915306111843"><ele>343.0</ele><time>2026-05-03T13:27:45.001Z</time></trkpt><trkpt lat="43.80110734070862" lon="12.742896416234768"><ele>343.0</ele><time>2026-05-03T13:27:46.001Z</time></trkpt><trkpt lat="43.8010465276851" lon="12.74286984300963"><ele>343.0</ele><time>2026-05-03T13:28:15Z</time></trkpt><trkpt lat="43.80095464926434" lon="12.742888851626976"><ele>343.0</ele><time>2026-05-03T13:28:18Z</time></trkpt><trkpt lat="43.800880647180335" lon="12.742908462499052"><ele>346.66666666666663</ele><time>2026-05-03T13:28:21Z</time></trkpt><trkpt lat="43.800761668256385" lon="12.74252012018715"><ele>350.3333333333333</ele><time>2026-05-03T13:28:23Z</time></trkpt><trkpt lat="43.80074671702882" lon="12.742427040357745"><ele>354.0</ele><time>2026-05-03T13:28:25Z</time></trkpt><trkpt lat="43.80070699816546" lon="12.74231453545402"><ele>354.0</ele><time>2026-05-03T13:28:27Z</time></trkpt><trkpt lat="43.80064496313019" lon="12.742181343768596"><ele>354.0</ele><time>2026-05-03T13:28:29Z</time></trkpt><trkpt lat="43.80060369878796" lon="12.74208519439097"><ele>354.0</ele><time>2026-05-03T13:28:31Z</time></trkpt><trkpt lat="43.80053790181959" lon="12.742019664563381"><ele>354.0</ele><time>2026-05-03T13:28:33Z</time></trkpt><trkpt lat="43.80048316009786" lon="12.741963559065008"><ele>354.0</ele><time>2026-05-03T13:28:36Z</time></trkpt><trkpt lat="43.80043913844022" lon="12.741900838357378"><ele>354.0</ele><time>2026-05-03T13:28:53.001Z</time></trkpt><trkpt lat="43.80040376201945" lon="12.741819850790693"><ele>353.3333333333333</ele><time>2026-05-03T13:28:57.001Z</time></trkpt><trkpt lat="43.80037969780848" lon="12.74173741414578"><ele>352.6666666666667</ele><time>2026-05-03T13:29:00.001Z</time></trkpt><trkpt lat="43.800386005974374" lon="12.741614417853084"><ele>352.0</ele><time>2026-05-03T13:29:05.001Z</time></trkpt><trkpt lat="43.80037286791395" lon="12.74151053202462"><ele>351.33333333333337</ele><time>2026-05-03T13:29:09.001Z</time></trkpt><trkpt lat="43.80039558244325" lon="12.741404228101343"><ele>350.6666666666667</ele><time>2026-05-03T13:29:13.001Z</time></trkpt><trkpt lat="43.800441943703305" lon="12.741326495074576"><ele>350.0</ele><time>2026-05-03T13:29:15.001Z</time></trkpt><trkpt lat="43.80045825822753" lon="12.741224101512062"><ele>350.0</ele><time>2026-05-03T13:29:18.001Z</time></trkpt><trkpt lat="43.80045706686094" lon="12.741120573935596"><ele>350.0</ele><time>2026-05-03T13:29:21.001Z</time></trkpt><trkpt lat="43.800449578619855" lon="12.741012253459354"><ele>350.0</ele><time>2026-05-03T13:29:24.001Z</time></trkpt><trkpt lat="43.800442834430555" lon="12.740879015822"><ele>350.0</ele><time>2026-05-03T13:29:26.001Z</time></trkpt><trkpt lat="43.800460708280006" lon="12.740793434222164"><ele>350.0</ele><time>2026-05-03T13:29:27.001Z</time></trkpt><trkpt lat="43.80046042191496" lon="12.740680772391505"><ele>350.0</ele><time>2026-05-03T13:29:28.001Z</time></trkpt><trkpt lat="43.800421983226585" lon="12.740479389375635"><ele>347.2</ele><time>2026-05-03T13:29:30.001Z</time></trkpt><trkpt lat="43.800397317286446" lon="12.740356250917683"><ele>344.4</ele><time>2026-05-03T13:29:31.001Z</time></trkpt><trkpt lat="43.80038681114891" lon="12.740254306530382"><ele>341.6</ele><time>2026-05-03T13:29:32.001Z</time></trkpt><trkpt lat="43.800368851660004" lon="12.74016312999859"><ele>338.8</ele><time>2026-05-03T13:29:33.001Z</time></trkpt><trkpt lat="43.80032734766709" lon="12.739984269060512"><ele>336.0</ele><time>2026-05-03T13:29:35.001Z</time></trkpt><trkpt lat="43.800293059884794" lon="12.739882328868507"><ele>334.6666666666667</ele><time>2026-05-03T13:29:36.001Z</time></trkpt><trkpt lat="43.80026637063107" lon="12.739798584116878"><ele>333.3333333333333</ele><time>2026-05-03T13:29:37.001Z</time></trkpt><trkpt lat="43.80023852816733" lon="12.739703302843859"><ele>332.0</ele><time>2026-05-03T13:29:38.001Z</time></trkpt><trkpt lat="43.8001998056725" lon="12.739572226300792"><ele>330.66666666666663</ele><time>2026-05-03T13:29:40.001Z</time></trkpt><trkpt lat="43.800211582336075" lon="12.739483188918404"><ele>329.3333333333333</ele><time>2026-05-03T13:29:41.001Z</time></trkpt><trkpt lat="43.80023558255247" lon="12.739361039200432"><ele>328.0</ele><time>2026-05-03T13:29:42.001Z</time></trkpt><trkpt lat="43.80025395995639" lon="12.739217169613134"><ele>326.3333333333333</ele><time>2026-05-03T13:29:44.001Z</time></trkpt><trkpt lat="43.800219433665376" lon="12.739110930893432"><ele>324.66666666666663</ele><time>2026-05-03T13:29:46.001Z</time></trkpt><trkpt lat="43.80014251127418" lon="12.738970511912568"><ele>323.0</ele><time>2026-05-03T13:29:48.001Z</time></trkpt><trkpt lat="43.800097884402305" lon="12.738870552188574"><ele>321.3333333333333</ele><time>2026-05-03T13:29:49.001Z</time></trkpt><trkpt lat="43.80005197465945" lon="12.73879787687331"><ele>319.6666666666667</ele><time>2026-05-03T13:29:50.001Z</time></trkpt><trkpt lat="43.799984074863865" lon="12.738742731219837"><ele>318.0</ele><time>2026-05-03T13:29:52.001Z</time></trkpt><trkpt lat="43.79987250534241" lon="12.738683130097462"><ele>319.8</ele><time>2026-05-03T13:29:54.001Z</time></trkpt><trkpt lat="43.799804595558896" lon="12.73868535366949"><ele>321.6</ele><time>2026-05-03T13:29:55.001Z</time></trkpt><trkpt lat="43.79968846194195" lon="12.738649517980727"><ele>323.40000000000003</ele><time>2026-05-03T13:29:57.001Z</time></trkpt><trkpt lat="43.799579705661536" lon="12.738622829400494"><ele>325.20000000000005</ele><time>2026-05-03T13:29:59.002Z</time></trkpt><trkpt lat="43.79950584857527" lon="12.738609863722775"><ele>327.0</ele><time>2026-05-03T13:30:00.002Z</time></trkpt><trkpt lat="43.7994086400753" lon="12.738529727759698"><ele>327.0</ele><time>2026-05-03T13:30:02.002Z</time></trkpt><trkpt lat="43.79937862969366" lon="12.738442400162555"><ele>327.0</ele><time>2026-05-03T13:30:03.002Z</time></trkpt><trkpt lat="43.79935874687807" lon="12.738328971587402"><ele>327.0</ele><time>2026-05-03T13:30:05.002Z</time></trkpt><trkpt lat="43.79928647663183" lon="12.738200042926438"><ele>327.0</ele><time>2026-05-03T13:30:07.001Z</time></trkpt><trkpt lat="43.79923393563532" lon="12.738096751383413"><ele>327.0</ele><time>2026-05-03T13:30:08.001Z</time></trkpt><trkpt lat="43.799203086448045" lon="12.737993995763656"><ele>327.0</ele><time>2026-05-03T13:30:09.001Z</time></trkpt><trkpt lat="43.799180148402094" lon="12.73788981281552"><ele>329.8333333333333</ele><time>2026-05-03T13:30:10.001Z</time></trkpt><trkpt lat="43.799168954935446" lon="12.737803348356866"><ele>332.6666666666667</ele><time>2026-05-03T13:30:11.001Z</time></trkpt><trkpt lat="43.79912859225011" lon="12.737656439298894"><ele>335.5</ele><time>2026-05-03T13:30:13Z</time></trkpt><trkpt lat="43.79908244079865" lon="12.737554714045311"><ele>338.33333333333337</ele><time>2026-05-03T13:30:15Z</time></trkpt><trkpt lat="43.799022198662946" lon="12.737419601147842"><ele>341.1666666666667</ele><time>2026-05-03T13:30:17Z</time></trkpt><trkpt lat="43.798966999888165" lon="12.737373735749237"><ele>344.0</ele><time>2026-05-03T13:30:19Z</time></trkpt><trkpt lat="43.79883196726338" lon="12.737401551553283"><ele>344.0</ele><time>2026-05-03T13:30:21Z</time></trkpt><trkpt lat="43.79875148014415" lon="12.737435671884171"><ele>344.0</ele><time>2026-05-03T13:30:22Z</time></trkpt><trkpt lat="43.79867270581298" lon="12.737463160674636"><ele>344.0</ele><time>2026-05-03T13:30:24Z</time></trkpt><trkpt lat="43.7985803877571" lon="12.737448883531492"><ele>344.0</ele><time>2026-05-03T13:30:27Z</time></trkpt><trkpt lat="43.7985125687344" lon="12.737472458419893"><ele>344.0</ele><time>2026-05-03T13:30:29Z</time></trkpt><trkpt lat="43.79843259809957" lon="12.737527285024667"><ele>344.0</ele><time>2026-05-03T13:30:32Z</time></trkpt><trkpt lat="43.79836007925721" lon="12.73754042199841"><ele>344.28571428571433</ele><time>2026-05-03T13:30:35Z</time></trkpt><trkpt lat="43.79831351561873" lon="12.737480310450646"><ele>344.57142857142856</ele><time>2026-05-03T13:32:05.001Z</time></trkpt><trkpt lat="43.798316941009105" lon="12.737389591842014"><ele>344.8571428571429</ele><time>2026-05-03T13:32:07.002Z</time></trkpt><trkpt lat="43.79830956143702" lon="12.737284839513395"><ele>345.14285714285717</ele><time>2026-05-03T13:32:09.002Z</time></trkpt><trkpt lat="43.798314319870784" lon="12.737162395024832"><ele>345.42857142857144</ele><time>2026-05-03T13:32:12.001Z</time></trkpt><trkpt lat="43.79832945693853" lon="12.73706567933477"><ele>345.7142857142857</ele><time>2026-05-03T13:32:15.001Z</time></trkpt><trkpt lat="43.79835015476084" lon="12.736978954292377"><ele>346.0</ele><time>2026-05-03T13:32:17.001Z</time></trkpt><trkpt lat="43.79836709808064" lon="12.736887295486016"><ele>343.85714285714283</ele><time>2026-05-03T13:32:19Z</time></trkpt><trkpt lat="43.7983795453021" lon="12.736799366691564"><ele>341.7142857142857</ele><time>2026-05-03T13:32:21Z</time></trkpt><trkpt lat="43.79838484455605" lon="12.736710322882871"><ele>339.57142857142856</ele><time>2026-05-03T13:32:23Z</time></trkpt><trkpt lat="43.79840611875929" lon="12.73662676021433"><ele>337.42857142857144</ele><time>2026-05-03T13:32:25Z</time></trkpt><trkpt lat="43.79845905067911" lon="12.73654135730129"><ele>335.2857142857143</ele><time>2026-05-03T13:32:28Z</time></trkpt><trkpt lat="43.798522227565634" lon="12.736464342494866"><ele>333.14285714285717</ele><time>2026-05-03T13:32:31Z</time></trkpt><trkpt lat="43.79856677417733" lon="12.736388917286424"><ele>331.0</ele><time>2026-05-03T13:32:34Z</time></trkpt><trkpt lat="43.79852422780154" lon="12.736308193608231"><ele>331.0</ele><time>2026-05-03T13:32:37Z</time></trkpt><trkpt lat="43.79845883431348" lon="12.736268868482005"><ele>331.0</ele><time>2026-05-03T13:32:40Z</time></trkpt><trkpt lat="43.798396120975156" lon="12.73625455541881"><ele>331.0</ele><time>2026-05-03T13:32:43Z</time></trkpt><trkpt lat="43.798309923909876" lon="12.736288083517715"><ele>331.0</ele><time>2026-05-03T13:32:46Z</time></trkpt><trkpt lat="43.7982389845304" lon="12.736315575530746"><ele>331.0</ele><time>2026-05-03T13:32:49Z</time></trkpt><trkpt lat="43.79815341695209" lon="12.736319223387"><ele>331.0</ele><time>2026-05-03T13:32:52.001Z</time></trkpt><trkpt lat="43.798108066201735" lon="12.736245682205857"><ele>331.0</ele><time>2026-05-03T13:32:54.001Z</time></trkpt><trkpt lat="43.79806671406309" lon="12.736158593180063"><ele>331.0</ele><time>2026-05-03T13:32:56.001Z</time></trkpt><trkpt lat="43.79804967095377" lon="12.736062075438353"><ele>331.0</ele><time>2026-05-03T13:32:58.001Z</time></trkpt><trkpt lat="43.79801856254392" lon="12.735960410855858"><ele>331.0</ele><time>2026-05-03T13:33:00.001Z</time></trkpt><trkpt lat="43.79798762530066" lon="12.735871722669678"><ele>331.0</ele><time>2026-05-03T13:33:02.001Z</time></trkpt><trkpt lat="43.797975413524306" lon="12.735763303851417"><ele>331.0</ele><time>2026-05-03T13:33:04.001Z</time></trkpt><trkpt lat="43.79797065252251" lon="12.73564400451514"><ele>327.2</ele><time>2026-05-03T13:33:07.001Z</time></trkpt><trkpt lat="43.79800926661429" lon="12.735523779308858"><ele>323.40000000000003</ele><time>2026-05-03T13:33:10.001Z</time></trkpt><trkpt lat="43.79811811634967" lon="12.735479112147404"><ele>319.6</ele><time>2026-05-03T13:33:13.001Z</time></trkpt><trkpt lat="43.798218347133336" lon="12.73548148321624"><ele>315.8</ele><time>2026-05-03T13:33:15.001Z</time></trkpt><trkpt lat="43.798293723918626" lon="12.735443745290018"><ele>312.0</ele><time>2026-05-03T13:33:16.001Z</time></trkpt><trkpt lat="43.79840037046728" lon="12.735435978299162"><ele>312.0</ele><time>2026-05-03T13:33:17.001Z</time></trkpt><trkpt lat="43.7984954741478" lon="12.735436328188312"><ele>312.0</ele><time>2026-05-03T13:33:18.001Z</time></trkpt><trkpt lat="43.79856268861194" lon="12.735429911759486"><ele>312.0</ele><time>2026-05-03T13:33:19.001Z</time></trkpt><trkpt lat="43.79863353458981" lon="12.735443487213951"><ele>312.0</ele><time>2026-05-03T13:33:21.001Z</time></trkpt><trkpt lat="43.798705073251696" lon="12.735407303118587"><ele>312.0</ele><time>2026-05-03T13:33:23.001Z</time></trkpt><trkpt lat="43.79872102645376" lon="12.73527622792135"><ele>312.0</ele><time>2026-05-03T13:33:26.001Z</time></trkpt><trkpt lat="43.798742280804134" lon="12.735161778036955"><ele>308.3333333333333</ele><time>2026-05-03T13:33:29.001Z</time></trkpt><trkpt lat="43.7987661249255" lon="12.735040698256448"><ele>304.6666666666667</ele><time>2026-05-03T13:33:32.001Z</time></trkpt><trkpt lat="43.79878662455761" lon="12.73494814539639"><ele>301.0</ele><time>2026-05-03T13:33:35.001Z</time></trkpt><trkpt lat="43.79878172089772" lon="12.734835107943947"><ele>297.33333333333337</ele><time>2026-05-03T13:33:46.001Z</time></trkpt><trkpt lat="43.79877068735914" lon="12.734697630687538"><ele>293.6666666666667</ele><time>2026-05-03T13:33:49.001Z</time></trkpt><trkpt lat="43.798760954297364" lon="12.734587676533348"><ele>290.0</ele><time>2026-05-03T13:33:52.001Z</time></trkpt><trkpt lat="43.79876480737593" lon="12.73447233261439"><ele>286.8571428571429</ele><time>2026-05-03T13:33:56.001Z</time></trkpt><trkpt lat="43.7987843028911" lon="12.734385821225471"><ele>283.7142857142857</ele><time>2026-05-03T13:33:58.001Z</time></trkpt><trkpt lat="43.79882830560966" lon="12.734309234970654"><ele>280.57142857142856</ele><time>2026-05-03T13:34:01.001Z</time></trkpt><trkpt lat="43.79887850101349" lon="12.73425569209113"><ele>277.42857142857144</ele><time>2026-05-03T13:34:03.001Z</time></trkpt><trkpt lat="43.798905393311465" lon="12.734166877169756"><ele>274.2857142857143</ele><time>2026-05-03T13:34:06.001Z</time></trkpt><trkpt lat="43.79884291940753" lon="12.734065394155257"><ele>271.14285714285717</ele><time>2026-05-03T13:34:08.001Z</time></trkpt><trkpt lat="43.798773945368794" lon="12.73402994127973"><ele>268.0</ele><time>2026-05-03T13:34:10.001Z</time></trkpt><trkpt lat="43.798696747114434" lon="12.734064136594254"><ele>268.0</ele><time>2026-05-03T13:34:12.001Z</time></trkpt><trkpt lat="43.79860010911562" lon="12.7341015149939"><ele>268.0</ele><time>2026-05-03T13:34:14.001Z</time></trkpt><trkpt lat="43.798497402947454" lon="12.734125585890425"><ele>268.0</ele><time>2026-05-03T13:34:16.001Z</time></trkpt><trkpt lat="43.7983554851294" lon="12.734109370589787"><ele>268.0</ele><time>2026-05-03T13:34:18Z</time></trkpt><trkpt lat="43.798267033770195" lon="12.734101247191663"><ele>268.0</ele><time>2026-05-03T13:34:19Z</time></trkpt><trkpt lat="43.798188628172866" lon="12.734120728208506"><ele>268.5</ele><time>2026-05-03T13:34:20Z</time></trkpt><trkpt lat="43.79810833755071" lon="12.734099026956404"><ele>269.0</ele><time>2026-05-03T13:34:21Z</time></trkpt><trkpt lat="43.79802495730144" lon="12.73411774830578"><ele>269.5</ele><time>2026-05-03T13:34:22Z</time></trkpt><trkpt lat="43.79795452869989" lon="12.73411155471302"><ele>270.0</ele><time>2026-05-03T13:34:23Z</time></trkpt><trkpt lat="43.7978457018172" lon="12.734168951232364"><ele>270.5</ele><time>2026-05-03T13:34:25Z</time></trkpt><trkpt lat="43.797765193321304" lon="12.734216804253737"><ele>271.0</ele><time>2026-05-03T13:34:26Z</time></trkpt><trkpt lat="43.79768193281611" lon="12.734260625494942"><ele>271.5</ele><time>2026-05-03T13:34:27Z</time></trkpt><trkpt lat="43.79759339679422" lon="12.734291837590444"><ele>272.0</ele><time>2026-05-03T13:34:28Z</time></trkpt><trkpt lat="43.79752047629802" lon="12.73435115742844"><ele>272.5</ele><time>2026-05-03T13:34:29Z</time></trkpt><trkpt lat="43.79746086307406" lon="12.734390728368266"><ele>273.0</ele><time>2026-05-03T13:34:30Z</time></trkpt><trkpt lat="43.79739973970254" lon="12.734423240730264"><ele>273.5</ele><time>2026-05-03T13:34:31Z</time></trkpt><trkpt lat="43.797310696215156" lon="12.73445092595212"><ele>274.0</ele><time>2026-05-03T13:34:33Z</time></trkpt><trkpt lat="43.797214615112956" lon="12.734468732448233"><ele>274.0</ele><time>2026-05-03T13:34:35Z</time></trkpt><trkpt lat="43.79710707917158" lon="12.734511529427085"><ele>274.0</ele><time>2026-05-03T13:34:37Z</time></trkpt><trkpt lat="43.79698393488791" lon="12.734526233244722"><ele>274.0</ele><time>2026-05-03T13:34:39Z</time></trkpt><trkpt lat="43.79689386901157" lon="12.734551433800364"><ele>274.0</ele><time>2026-05-03T13:34:41Z</time></trkpt><trkpt lat="43.79680600827137" lon="12.734572581037428"><ele>274.0</ele><time>2026-05-03T13:34:57Z</time></trkpt><trkpt lat="43.79673121369342" lon="12.73455378947633"><ele>270.16666666666663</ele><time>2026-05-03T13:35:00Z</time></trkpt><trkpt lat="43.79669386784847" lon="12.734482075989911"><ele>266.3333333333333</ele><time>2026-05-03T13:35:03Z</time></trkpt><trkpt lat="43.796708888932585" lon="12.734368084610491"><ele>262.5</ele><time>2026-05-03T13:35:06Z</time></trkpt><trkpt lat="43.79674375802153" lon="12.734254110472031"><ele>258.6666666666667</ele><time>2026-05-03T13:35:08Z</time></trkpt><trkpt lat="43.796791233885166" lon="12.734148881851405"><ele>254.83333333333334</ele><time>2026-05-03T13:35:10Z</time></trkpt><trkpt lat="43.79680218919223" lon="12.73401331607227"><ele>251.0</ele><time>2026-05-03T13:35:12Z</time></trkpt><trkpt lat="43.79680904979752" lon="12.733897396693573"><ele>249.16666666666669</ele><time>2026-05-03T13:35:14Z</time></trkpt><trkpt lat="43.79680702897593" lon="12.733781481975461"><ele>247.33333333333334</ele><time>2026-05-03T13:35:16Z</time></trkpt><trkpt lat="43.79679378699202" lon="12.733653057530804"><ele>245.5</ele><time>2026-05-03T13:35:18.001Z</time></trkpt><trkpt lat="43.7968111360094" lon="12.733499748642263"><ele>243.66666666666669</ele><time>2026-05-03T13:35:20.001Z</time></trkpt><trkpt lat="43.796831971779135" lon="12.733409092040336"><ele>241.83333333333334</ele><time>2026-05-03T13:35:21.001Z</time></trkpt><trkpt lat="43.79686027114671" lon="12.733325442621817"><ele>240.0</ele><time>2026-05-03T13:35:22.001Z</time></trkpt><trkpt lat="43.796935160210886" lon="12.733181368253513"><ele>239.2</ele><time>2026-05-03T13:35:24.001Z</time></trkpt><trkpt lat="43.79699083970608" lon="12.733086558697396"><ele>238.4</ele><time>2026-05-03T13:35:25.001Z</time></trkpt><trkpt lat="43.79703171555277" lon="12.733006746129712"><ele>237.60000000000002</ele><time>2026-05-03T13:35:26.001Z</time></trkpt><trkpt lat="43.79706468090138" lon="12.732921181752427"><ele>236.8</ele><time>2026-05-03T13:35:27.001Z</time></trkpt><trkpt lat="43.79707936484166" lon="12.732734001269788"><ele>236.0</ele><time>2026-05-03T13:35:29.001Z</time></trkpt><trkpt lat="43.79705810551446" lon="12.732612471938898"><ele>232.25</ele><time>2026-05-03T13:35:30.001Z</time></trkpt><trkpt lat="43.79702443889483" lon="12.732435728516641"><ele>228.5</ele><time>2026-05-03T13:35:31.001Z</time></trkpt><trkpt lat="43.797000787357405" lon="12.732280113132438"><ele>224.75</ele><time>2026-05-03T13:35:32.001Z</time></trkpt><trkpt lat="43.79698697262237" lon="12.732172974063422"><ele>221.0</ele><time>2026-05-03T13:35:33.001Z</time></trkpt><trkpt lat="43.79691271585194" lon="12.73201575046246"><ele>221.20000000000002</ele><time>2026-05-03T13:35:35.001Z</time></trkpt><trkpt lat="43.7968350221998" lon="12.731913751565145"><ele>221.40000000000003</ele><time>2026-05-03T13:35:36.001Z</time></trkpt><trkpt lat="43.79673461440887" lon="12.731817146260893"><ele>221.6</ele><time>2026-05-03T13:35:37.001Z</time></trkpt><trkpt lat="43.796649520918166" lon="12.731763394457628"><ele>221.8</ele><time>2026-05-03T13:35:38.001Z</time></trkpt><trkpt lat="43.79658935819458" lon="12.731720394421844"><ele>222.0</ele><time>2026-05-03T13:35:39.001Z</time></trkpt><trkpt lat="43.79650712776262" lon="12.731713821256488"><ele>222.6</ele><time>2026-05-03T13:35:40.001Z</time></trkpt><trkpt lat="43.796408240100426" lon="12.73176550321232"><ele>223.2</ele><time>2026-05-03T13:35:41.001Z</time></trkpt><trkpt lat="43.79632964463357" lon="12.731806040671286"><ele>223.8</ele><time>2026-05-03T13:35:42.001Z</time></trkpt><trkpt lat="43.796195212434284" lon="12.73181680043662"><ele>224.4</ele><time>2026-05-03T13:35:44.001Z</time></trkpt><trkpt lat="43.79612080227513" lon="12.731821494530042"><ele>225.0</ele><time>2026-05-03T13:35:45.001Z</time></trkpt><trkpt lat="43.79605756761388" lon="12.731823163937541"><ele>223.6</ele><time>2026-05-03T13:35:46.001Z</time></trkpt><trkpt lat="43.79597298729559" lon="12.731819605819629"><ele>222.2</ele><time>2026-05-03T13:35:47.001Z</time></trkpt><trkpt lat="43.79585846703249" lon="12.731770228813497"><ele>220.8</ele><time>2026-05-03T13:35:49.001Z</time></trkpt><trkpt lat="43.79579728489595" lon="12.731645821170385"><ele>219.4</ele><time>2026-05-03T13:35:51.001Z</time></trkpt><trkpt lat="43.795779068302345" lon="12.73152880807624"><ele>218.0</ele><time>2026-05-03T13:35:52.001Z</time></trkpt><trkpt lat="43.79575654014913" lon="12.731414454747169"><ele>218.00000000000003</ele><time>2026-05-03T13:35:53.001Z</time></trkpt><trkpt lat="43.79573022403018" lon="12.731335101518521"><ele>218.0</ele><time>2026-05-03T13:35:54.001Z</time></trkpt><trkpt lat="43.79569076031033" lon="12.731239840329403"><ele>218.0</ele><time>2026-05-03T13:35:55.001Z</time></trkpt><trkpt lat="43.79567968470499" lon="12.731146851626898"><ele>218.0</ele><time>2026-05-03T13:35:56.001Z</time></trkpt><trkpt lat="43.79564927790232" lon="12.731064731606056"><ele>218.00000000000003</ele><time>2026-05-03T13:35:57.001Z</time></trkpt><trkpt lat="43.79563745116433" lon="12.730916743574353"><ele>218.0</ele><time>2026-05-03T13:35:59.001Z</time></trkpt><trkpt lat="43.795570843480554" lon="12.73079362108628"><ele>218.60000000000002</ele><time>2026-05-03T13:36:01.001Z</time></trkpt><trkpt lat="43.79545242891788" lon="12.730695656507567"><ele>219.20000000000002</ele><time>2026-05-03T13:36:03.001Z</time></trkpt><trkpt lat="43.7954044030194" lon="12.73060542596985"><ele>219.8</ele><time>2026-05-03T13:36:04.001Z</time></trkpt><trkpt lat="43.79534659898111" lon="12.73049726338974"><ele>220.4</ele><time>2026-05-03T13:36:05.001Z</time></trkpt><trkpt lat="43.79530595636403" lon="12.730424926775425"><ele>221.0</ele><time>2026-05-03T13:36:06.001Z</time></trkpt><trkpt lat="43.79520675235886" lon="12.730342591555468"><ele>216.0</ele><time>2026-05-03T13:36:08.001Z</time></trkpt><trkpt lat="43.79510656687137" lon="12.730260585318973"><ele>211.00000000000003</ele><time>2026-05-03T13:36:10.001Z</time></trkpt><trkpt lat="43.795016139413775" lon="12.730212237228997"><ele>206.0</ele><time>2026-05-03T13:36:11.001Z</time></trkpt><trkpt lat="43.79494622691829" lon="12.730154210680181"><ele>201.0</ele><time>2026-05-03T13:36:12.001Z</time></trkpt><trkpt lat="43.79484700526933" lon="12.730143093025685"><ele>196.0</ele><time>2026-05-03T13:36:13.001Z</time></trkpt><trkpt lat="43.7947363859042" lon="12.730125284859854"><ele>195.5</ele><time>2026-05-03T13:36:14.001Z</time></trkpt><trkpt lat="43.79464300969965" lon="12.730112029750668"><ele>195.0</ele><time>2026-05-03T13:36:15.001Z</time></trkpt><trkpt lat="43.794541746756316" lon="12.730097499831825"><ele>194.5</ele><time>2026-05-03T13:36:16.001Z</time></trkpt><trkpt lat="43.794410708628014" lon="12.730059535425303"><ele>194.0</ele><time>2026-05-03T13:36:17.001Z</time></trkpt><trkpt lat="43.79429364817796" lon="12.730009447925301"><ele>193.33333333333334</ele><time>2026-05-03T13:36:18.001Z</time></trkpt><trkpt lat="43.794209091876496" lon="12.729966063903703"><ele>192.66666666666669</ele><time>2026-05-03T13:36:19.001Z</time></trkpt><trkpt lat="43.79414342283326" lon="12.729933003749517"><ele>192.0</ele><time>2026-05-03T13:36:20.001Z</time></trkpt><trkpt lat="43.794074568377965" lon="12.729900296771579"><ele>191.33333333333334</ele><time>2026-05-03T13:36:21.001Z</time></trkpt><trkpt lat="43.79397650843564" lon="12.729845939388964"><ele>190.66666666666669</ele><time>2026-05-03T13:36:23.001Z</time></trkpt><trkpt lat="43.79389063604206" lon="12.729795925798024"><ele>190.0</ele><time>2026-05-03T13:36:24Z</time></trkpt><trkpt lat="43.793820516367575" lon="12.729724658113387"><ele>190.0</ele><time>2026-05-03T13:36:25Z</time></trkpt><trkpt lat="43.793729175544186" lon="12.729464689688669"><ele>190.0</ele><time>2026-05-03T13:36:26Z</time></trkpt><trkpt lat="43.793691126454384" lon="12.729354485488377"><ele>190.0</ele><time>2026-05-03T13:36:28Z</time></trkpt><trkpt lat="43.793625664713126" lon="12.729284607640817"><ele>190.0</ele><time>2026-05-03T13:36:30Z</time></trkpt><trkpt lat="43.793521041417655" lon="12.729261122628442"><ele>190.2</ele><time>2026-05-03T13:36:33Z</time></trkpt><trkpt lat="43.79343076546083" lon="12.72921759988342"><ele>190.4</ele><time>2026-05-03T13:36:34Z</time></trkpt><trkpt lat="43.793352783040284" lon="12.729180720151424"><ele>190.60000000000002</ele><time>2026-05-03T13:36:35Z</time></trkpt><trkpt lat="43.79323827305812" lon="12.72913946586557"><ele>190.8</ele><time>2026-05-03T13:36:37Z</time></trkpt><trkpt lat="43.793131348205364" lon="12.729102217120388"><ele>191.0</ele><time>2026-05-03T13:36:39Z</time></trkpt><trkpt lat="43.79321779418459" lon="12.728437385037846"><ele>191.0</ele><time>2026-05-03T13:36:43Z</time></trkpt><trkpt lat="43.79330250510814" lon="12.728345852893558"><ele>191.0</ele><time>2026-05-03T13:36:46Z</time></trkpt><trkpt lat="43.79336408905805" lon="12.728305057089546"><ele>191.0</ele><time>2026-05-03T13:36:47Z</time></trkpt><trkpt lat="43.79343036714697" lon="12.728234790924231"><ele>191.0</ele><time>2026-05-03T13:36:49Z</time></trkpt><trkpt lat="43.79347449022581" lon="12.72814981913919"><ele>191.0</ele><time>2026-05-03T13:36:52Z</time></trkpt><trkpt lat="43.79350241672564" lon="12.728050024424098"><ele>191.0</ele><time>2026-05-03T13:36:55Z</time></trkpt><trkpt lat="43.793527246873296" lon="12.72795648582298"><ele>189.33333333333331</ele><time>2026-05-03T13:36:57Z</time></trkpt><trkpt lat="43.793545283963034" lon="12.727868752683502"><ele>187.66666666666666</ele><time>2026-05-03T13:36:59Z</time></trkpt><trkpt lat="43.793545302446795" lon="12.727743063347857"><ele>186.0</ele><time>2026-05-03T13:37:02Z</time></trkpt><trkpt lat="43.79354999844426" lon="12.727638692282941"><ele>184.33333333333334</ele><time>2026-05-03T13:37:04Z</time></trkpt><trkpt lat="43.793528290627314" lon="12.72752004530831"><ele>182.66666666666669</ele><time>2026-05-03T13:37:07Z</time></trkpt><trkpt lat="43.793505065601565" lon="12.727403413142518"><ele>181.0</ele><time>2026-05-03T13:37:10Z</time></trkpt><trkpt lat="43.793482635379256" lon="12.72728272195523"><ele>181.0</ele><time>2026-05-03T13:37:13Z</time></trkpt><trkpt lat="43.793463910907384" lon="12.727170488340544"><ele>181.0</ele><time>2026-05-03T13:37:16Z</time></trkpt><trkpt lat="43.79341000425248" lon="12.727087095681792"><ele>181.0</ele><time>2026-05-03T13:37:19Z</time></trkpt><trkpt lat="43.79343569902876" lon="12.726912015099572"><ele>181.0</ele><time>2026-05-03T13:37:20Z</time></trkpt><trkpt lat="43.79333405532128" lon="12.726925214626348"><ele>181.0</ele><time>2026-05-03T13:37:22Z</time></trkpt><trkpt lat="43.793280498621954" lon="12.72698049603995"><ele>181.0</ele><time>2026-05-03T13:37:24Z</time></trkpt><trkpt lat="43.7933814799848" lon="12.72693277700289"><ele>181.0</ele><time>2026-05-03T13:37:38.001Z</time></trkpt><trkpt lat="43.7934909500843" lon="12.726988236990177"><ele>181.0</ele><time>2026-05-03T13:37:40.001Z</time></trkpt><trkpt lat="43.793585695086534" lon="12.727048304362839"><ele>181.0</ele><time>2026-05-03T13:37:42.001Z</time></trkpt><trkpt lat="43.79367250411955" lon="12.72717441507697"><ele>176.60000000000002</ele><time>2026-05-03T13:37:44.001Z</time></trkpt><trkpt lat="43.793722030116804" lon="12.727235535831126"><ele>172.20000000000002</ele><time>2026-05-03T13:37:45.001Z</time></trkpt><trkpt lat="43.793797923543465" lon="12.727339033072745"><ele>167.8</ele><time>2026-05-03T13:37:47.001Z</time></trkpt><trkpt lat="43.79388178740493" lon="12.727392948099828"><ele>163.4</ele><time>2026-05-03T13:37:49.001Z</time></trkpt><trkpt lat="43.79396857636771" lon="12.72745074359718"><ele>159.0</ele><time>2026-05-03T13:37:51.001Z</time></trkpt><trkpt lat="43.79404719115482" lon="12.727530102978836"><ele>159.0</ele><time>2026-05-03T13:37:53.001Z</time></trkpt><trkpt lat="43.79413118515497" lon="12.727558323751575"><ele>159.0</ele><time>2026-05-03T13:37:55.001Z</time></trkpt><trkpt lat="43.79421685930151" lon="12.72762392184615"><ele>159.0</ele><time>2026-05-03T13:37:57.001Z</time></trkpt><trkpt lat="43.79428849179719" lon="12.727651354669714"><ele>159.0</ele><time>2026-05-03T13:38:00.001Z</time></trkpt><trkpt lat="43.79432991060478" lon="12.72758122122566"><ele>159.0</ele><time>2026-05-03T13:38:13.001Z</time></trkpt><trkpt lat="43.79429720949305" lon="12.727461151054925"><ele>159.0</ele><time>2026-05-03T13:38:16.001Z</time></trkpt><trkpt lat="43.79423817238919" lon="12.727358237055398"><ele>159.0</ele><time>2026-05-03T13:38:18.001Z</time></trkpt><trkpt lat="43.79420496660504" lon="12.727272039501582"><ele>159.0</ele><time>2026-05-03T13:38:19.001Z</time></trkpt><trkpt lat="43.79416396604986" lon="12.727179489438168"><ele>159.0</ele><time>2026-05-03T13:38:20.001Z</time></trkpt><trkpt lat="43.79413849809115" lon="12.727064575687548"><ele>159.0</ele><time>2026-05-03T13:38:21.001Z</time></trkpt><trkpt lat="43.794103275105485" lon="12.72695118075922"><ele>159.0</ele><time>2026-05-03T13:38:22.001Z</time></trkpt><trkpt lat="43.79407384619064" lon="12.726831319178467"><ele>159.0</ele><time>2026-05-03T13:38:23.001Z</time></trkpt><trkpt lat="43.79404783995485" lon="12.726725307827262"><ele>156.83333333333334</ele><time>2026-05-03T13:38:24.001Z</time></trkpt><trkpt lat="43.79402895617125" lon="12.726607838709839"><ele>154.66666666666666</ele><time>2026-05-03T13:38:25.001Z</time></trkpt><trkpt lat="43.79400143093494" lon="12.726498894100136"><ele>152.5</ele><time>2026-05-03T13:38:26.001Z</time></trkpt><trkpt lat="43.793985322693835" lon="12.726382984106074"><ele>150.33333333333331</ele><time>2026-05-03T13:38:27.001Z</time></trkpt><trkpt lat="43.79396206496949" lon="12.726265021455431"><ele>148.16666666666666</ele><time>2026-05-03T13:38:28.001Z</time></trkpt><trkpt lat="43.79394620547421" lon="12.726140113308835"><ele>146.0</ele><time>2026-05-03T13:38:29.001Z</time></trkpt><trkpt lat="43.79392333738613" lon="12.726016301205348"><ele>143.5</ele><time>2026-05-03T13:38:29.999Z</time></trkpt><trkpt lat="43.79390062563849" lon="12.725913575178797"><ele>141.0</ele><time>2026-05-03T13:38:30.999Z</time></trkpt><trkpt lat="43.79388084224614" lon="12.725811187561195"><ele>138.5</ele><time>2026-05-03T13:38:31.999Z</time></trkpt><trkpt lat="43.793846351974544" lon="12.725725471424088"><ele>136.0</ele><time>2026-05-03T13:38:32.999Z</time></trkpt><trkpt lat="43.79378817885223" lon="12.725644126790314"><ele>133.5</ele><time>2026-05-03T13:38:33.999Z</time></trkpt><trkpt lat="43.79370696204336" lon="12.725555119802555"><ele>131.0</ele><time>2026-05-03T13:38:34.999Z</time></trkpt><trkpt lat="43.79360085309706" lon="12.725544428219866"><ele>133.4</ele><time>2026-05-03T13:38:35.999Z</time></trkpt><trkpt lat="43.79348180545522" lon="12.72551079877822"><ele>135.8</ele><time>2026-05-03T13:38:36.999Z</time></trkpt><trkpt lat="43.793386716625896" lon="12.725486200556903"><ele>138.20000000000002</ele><time>2026-05-03T13:38:37.999Z</time></trkpt><trkpt lat="43.79329190327043" lon="12.725462545221744"><ele>140.6</ele><time>2026-05-03T13:38:38.999Z</time></trkpt><trkpt lat="43.7932048383114" lon="12.725442280444954"><ele>143.0</ele><time>2026-05-03T13:38:39.999Z</time></trkpt><trkpt lat="43.793121363568766" lon="12.725422851288357"><ele>143.0</ele><time>2026-05-03T13:38:40.999Z</time></trkpt><trkpt lat="43.793037087658284" lon="12.725385767417192"><ele>143.0</ele><time>2026-05-03T13:38:42Z</time></trkpt><trkpt lat="43.792953391562556" lon="12.725375683882065"><ele>143.0</ele><time>2026-05-03T13:38:43Z</time></trkpt><trkpt lat="43.79289090238354" lon="12.725354426104706"><ele>143.0</ele><time>2026-05-03T13:38:44Z</time></trkpt><trkpt lat="43.79281935389575" lon="12.725328275589263"><ele>143.0</ele><time>2026-05-03T13:38:45Z</time></trkpt><trkpt lat="43.792704620483654" lon="12.725288976201918"><ele>143.0</ele><time>2026-05-03T13:38:46Z</time></trkpt><trkpt lat="43.792615869074005" lon="12.725274706294991"><ele>142.16666666666666</ele><time>2026-05-03T13:38:47Z</time></trkpt><trkpt lat="43.79253922278147" lon="12.725287111837506"><ele>141.33333333333331</ele><time>2026-05-03T13:38:48Z</time></trkpt><trkpt lat="43.79247004117396" lon="12.72528140002217"><ele>140.5</ele><time>2026-05-03T13:38:49Z</time></trkpt><trkpt lat="43.79236827689591" lon="12.72524726878134"><ele>139.66666666666666</ele><time>2026-05-03T13:38:51Z</time></trkpt><trkpt lat="43.79228091751515" lon="12.725235115417792"><ele>138.83333333333334</ele><time>2026-05-03T13:38:53Z</time></trkpt><trkpt lat="43.79222524146724" lon="12.725186316865123"><ele>138.0</ele><time>2026-05-03T13:38:54Z</time></trkpt><trkpt lat="43.792118558446646" lon="12.725150754436827"><ele>134.20000000000002</ele><time>2026-05-03T13:38:55Z</time></trkpt><trkpt lat="43.79201585299686" lon="12.725096341810602"><ele>130.4</ele><time>2026-05-03T13:38:56Z</time></trkpt><trkpt lat="43.79193563959312" lon="12.725040714024884"><ele>126.60000000000001</ele><time>2026-05-03T13:38:57Z</time></trkpt><trkpt lat="43.79186294490582" lon="12.724962618414933"><ele>122.80000000000001</ele><time>2026-05-03T13:38:58Z</time></trkpt><trkpt lat="43.79181704411949" lon="12.724841288268046"><ele>119.0</ele><time>2026-05-03T13:38:59Z</time></trkpt><trkpt lat="43.79174226116229" lon="12.724720824501574"><ele>118.4</ele><time>2026-05-03T13:39:00Z</time></trkpt><trkpt lat="43.79169226152169" lon="12.724596761989238"><ele>117.80000000000001</ele><time>2026-05-03T13:39:01Z</time></trkpt><trkpt lat="43.791644394138245" lon="12.724498395008425"><ele>117.19999999999999</ele><time>2026-05-03T13:39:02Z</time></trkpt><trkpt lat="43.79159100504371" lon="12.724426649345983"><ele>116.6</ele><time>2026-05-03T13:39:03Z</time></trkpt><trkpt lat="43.79145516397064" lon="12.724413323523"><ele>116.0</ele><time>2026-05-03T13:39:05Z</time></trkpt><trkpt lat="43.79133537250442" lon="12.724450595798391"><ele>116.0</ele><time>2026-05-03T13:39:06Z</time></trkpt><trkpt lat="43.79118258155826" lon="12.724502130580323"><ele>116.0</ele><time>2026-05-03T13:39:07Z</time></trkpt><trkpt lat="43.79106591924316" lon="12.724503514394135"><ele>116.0</ele><time>2026-05-03T13:39:08Z</time></trkpt><trkpt lat="43.79097233599479" lon="12.724516942906902"><ele>116.0</ele><time>2026-05-03T13:39:09Z</time></trkpt><trkpt lat="43.79087652744803" lon="12.724529307142898"><ele>114.5</ele><time>2026-05-03T13:39:10Z</time></trkpt><trkpt lat="43.790765414025" lon="12.724540806736053"><ele>113.0</ele><time>2026-05-03T13:39:11Z</time></trkpt><trkpt lat="43.790659768816795" lon="12.724543214367293"><ele>111.5</ele><time>2026-05-03T13:39:12Z</time></trkpt><trkpt lat="43.790554998483564" lon="12.724525600829745"><ele>110.0</ele><time>2026-05-03T13:39:13Z</time></trkpt><trkpt lat="43.79042132175641" lon="12.724469248714534"><ele>110.0</ele><time>2026-05-03T13:39:14Z</time></trkpt><trkpt lat="43.790229619425396" lon="12.724409894668774"><ele>110.0</ele><time>2026-05-03T13:39:15Z</time></trkpt><trkpt lat="43.790037147220055" lon="12.724353942663887"><ele>110.0</ele><time>2026-05-03T13:39:16Z</time></trkpt><trkpt lat="43.78989398311775" lon="12.724308023413132"><ele>107.6</ele><time>2026-05-03T13:39:17Z</time></trkpt><trkpt lat="43.789770579416434" lon="12.724288193777353"><ele>105.2</ele><time>2026-05-03T13:39:18Z</time></trkpt><trkpt lat="43.789662660335715" lon="12.724250695724708"><ele>102.80000000000001</ele><time>2026-05-03T13:39:19Z</time></trkpt><trkpt lat="43.78957167858132" lon="12.724217220861656"><ele>100.4</ele><time>2026-05-03T13:39:20Z</time></trkpt><trkpt lat="43.789493259659736" lon="12.724195793010377"><ele>98.0</ele><time>2026-05-03T13:39:21Z</time></trkpt><trkpt lat="43.789411473137136" lon="12.72416843197505"><ele>98.33333333333333</ele><time>2026-05-03T13:39:23Z</time></trkpt><trkpt lat="43.78934714505009" lon="12.72440561319377"><ele>98.66666666666666</ele><time>2026-05-03T13:39:27Z</time></trkpt><trkpt lat="43.78931354590119" lon="12.724596672405218"><ele>99.0</ele><time>2026-05-03T13:39:28Z</time></trkpt><trkpt lat="43.789300816535544" lon="12.724807016775594"><ele>99.0</ele><time>2026-05-03T13:39:29Z</time></trkpt><trkpt lat="43.78928085565433" lon="12.725073351680662"><ele>99.0</ele><time>2026-05-03T13:39:30Z</time></trkpt><trkpt lat="43.78925196938884" lon="12.725373121923775"><ele>99.0</ele><time>2026-05-03T13:39:31Z</time></trkpt><trkpt lat="43.78921506441635" lon="12.725697041261412"><ele>101.5</ele><time>2026-05-03T13:39:32Z</time></trkpt><trkpt lat="43.78917568117487" lon="12.726036905101887"><ele>104.0</ele><time>2026-05-03T13:39:33Z</time></trkpt><trkpt lat="43.78913849951122" lon="12.726388243088572"><ele>106.0</ele><time>2026-05-03T13:39:34Z</time></trkpt><trkpt lat="43.78910004164358" lon="12.726754334896242"><ele>108.0</ele><time>2026-05-03T13:39:35Z</time></trkpt><trkpt lat="43.78906391356777" lon="12.727100719149595"><ele>109.0</ele><time>2026-05-03T13:39:36Z</time></trkpt><trkpt lat="43.789029405014745" lon="12.727394542381447"><ele>110.0</ele><time>2026-05-03T13:39:37Z</time></trkpt><trkpt lat="43.78899732415303" lon="12.727660238646736"><ele>111.0</ele><time>2026-05-03T13:39:38Z</time></trkpt><trkpt lat="43.78896062426545" lon="12.72791609410215"><ele>111.33333333333334</ele><time>2026-05-03T13:39:39Z</time></trkpt><trkpt lat="43.78890630385225" lon="12.72814857464905"><ele>111.66666666666667</ele><time>2026-05-03T13:39:40.001Z</time></trkpt><trkpt lat="43.78881201303091" lon="12.728344387095714"><ele>112.0</ele><time>2026-05-03T13:39:41.001Z</time></trkpt><trkpt lat="43.788701055300315" lon="12.7285529179821"><ele>111.66666666666667</ele><time>2026-05-03T13:39:42.001Z</time></trkpt><trkpt lat="43.78858371128915" lon="12.72880194916533"><ele>111.33333333333334</ele><time>2026-05-03T13:39:43.001Z</time></trkpt><trkpt lat="43.78844044413326" lon="12.729047885767447"><ele>111.0</ele><time>2026-05-03T13:39:44.001Z</time></trkpt><trkpt lat="43.78829037152192" lon="12.729322382599467"><ele>112.5</ele><time>2026-05-03T13:39:45.001Z</time></trkpt><trkpt lat="43.78814398678982" lon="12.72958929690691"><ele>114.0</ele><time>2026-05-03T13:39:46.001Z</time></trkpt><trkpt lat="43.78801657152388" lon="12.729821221714278"><ele>114.0</ele><time>2026-05-03T13:39:47.001Z</time></trkpt><trkpt lat="43.78790503714866" lon="12.730035012764187"><ele>114.0</ele><time>2026-05-03T13:39:48.001Z</time></trkpt><trkpt lat="43.787800329628475" lon="12.730226490734347"><ele>114.0</ele><time>2026-05-03T13:39:49.001Z</time></trkpt><trkpt lat="43.787710503762376" lon="12.730393587145402"><ele>113.4</ele><time>2026-05-03T13:39:50.001Z</time></trkpt><trkpt lat="43.78763579445372" lon="12.73052988515558"><ele>112.80000000000001</ele><time>2026-05-03T13:39:51.001Z</time></trkpt><trkpt lat="43.78757912331335" lon="12.730639259970623"><ele>112.19999999999999</ele><time>2026-05-03T13:39:52.001Z</time></trkpt><trkpt lat="43.78753790256426" lon="12.730745668142315"><ele>111.6</ele><time>2026-05-03T13:39:53.001Z</time></trkpt><trkpt lat="43.78753108973957" lon="12.73089879936109"><ele>111.0</ele><time>2026-05-03T13:39:55.001Z</time></trkpt><trkpt lat="43.78754212199617" lon="12.731032511370067"><ele>111.5</ele><time>2026-05-03T13:39:57.001Z</time></trkpt><trkpt lat="43.78757419517836" lon="12.731170163310663"><ele>112.0</ele><time>2026-05-03T13:39:59.001Z</time></trkpt><trkpt lat="43.787607439918496" lon="12.73126575307379"><ele>112.5</ele><time>2026-05-03T13:40:01.001Z</time></trkpt><trkpt lat="43.787411498480246" lon="12.731410254436344"><ele>113.0</ele><time>2026-05-03T13:40:04.001Z</time></trkpt><trkpt lat="43.78732643183766" lon="12.731345151481348"><ele>113.0</ele><time>2026-05-03T13:40:07.001Z</time></trkpt><trkpt lat="43.78732643183766" lon="12.731345151481348"><ele>113.0</ele><time>2026-05-03T13:40:07.001Z</time></trkpt></trkseg><trkseg><trkpt lat="43.787647897824264" lon="12.73128515960648"><ele>115.0</ele><time>2026-05-03T14:02:07Z</time></trkpt><trkpt lat="43.78770496630397" lon="12.731370426592411"><ele>117.00000000000001</ele><time>2026-05-03T14:02:08Z</time></trkpt><trkpt lat="43.78776272850486" lon="12.731475663844623"><ele>119.00000000000001</ele><time>2026-05-03T14:02:09Z</time></trkpt><trkpt lat="43.78781781713651" lon="12.731596021694244"><ele>121.0</ele><time>2026-05-03T14:02:10Z</time></trkpt><trkpt lat="43.787836746280504" lon="12.731726772114587"><ele>123.0</ele><time>2026-05-03T14:02:11Z</time></trkpt><trkpt lat="43.78782923632742" lon="12.731848796760636"><ele>123.0</ele><time>2026-05-03T14:02:12Z</time></trkpt><trkpt lat="43.787800370579056" lon="12.731996474446555"><ele>123.0</ele><time>2026-05-03T14:02:13Z</time></trkpt><trkpt lat="43.787754559542" lon="12.732167200476958"><ele>123.0</ele><time>2026-05-03T14:02:14Z</time></trkpt><trkpt lat="43.78769801059689" lon="12.732347667912357"><ele>123.0</ele><time>2026-05-03T14:02:15Z</time></trkpt><trkpt lat="43.7876310814212" lon="12.73254927513635"><ele>121.66666666666666</ele><time>2026-05-03T14:02:16Z</time></trkpt><trkpt lat="43.787545854753" lon="12.732782013070977"><ele>120.33333333333333</ele><time>2026-05-03T14:02:17Z</time></trkpt><trkpt lat="43.78744260586852" lon="12.733026946317962"><ele>119.0</ele><time>2026-05-03T14:02:18Z</time></trkpt><trkpt lat="43.78734410446611" lon="12.733226069579537"><ele>119.0</ele><time>2026-05-03T14:02:19Z</time></trkpt><trkpt lat="43.78726947926041" lon="12.73338572276293"><ele>119.0</ele><time>2026-05-03T14:02:20Z</time></trkpt><trkpt lat="43.78721337842264" lon="12.733522335104869"><ele>119.0</ele><time>2026-05-03T14:02:21Z</time></trkpt><trkpt lat="43.78717656251957" lon="12.733651201854242"><ele>119.0</ele><time>2026-05-03T14:02:22Z</time></trkpt><trkpt lat="43.78714330583932" lon="12.733790627377932"><ele>120.5</ele><time>2026-05-03T14:02:23.001Z</time></trkpt><trkpt lat="43.78711572239927" lon="12.733947489253739"><ele>122.0</ele><time>2026-05-03T14:02:24.001Z</time></trkpt><trkpt lat="43.78709533739687" lon="12.734108997450358"><ele>123.5</ele><time>2026-05-03T14:02:25.001Z</time></trkpt><trkpt lat="43.787093610388865" lon="12.734286215811887"><ele>125.0</ele><time>2026-05-03T14:02:26.001Z</time></trkpt><trkpt lat="43.78709301072669" lon="12.73450166867219"><ele>127.0</ele><time>2026-05-03T14:02:27.001Z</time></trkpt><trkpt lat="43.78710156065954" lon="12.734746389702101"><ele>129.0</ele><time>2026-05-03T14:02:28.001Z</time></trkpt><trkpt lat="43.78711630884979" lon="12.73501687995979"><ele>131.0</ele><time>2026-05-03T14:02:29.001Z</time></trkpt><trkpt lat="43.78712536823936" lon="12.735252860922552"><ele>132.0</ele><time>2026-05-03T14:02:30.001Z</time></trkpt><trkpt lat="43.78712576587361" lon="12.735448458132431"><ele>133.0</ele><time>2026-05-03T14:02:31.001Z</time></trkpt><trkpt lat="43.78712031052307" lon="12.735650049001102"><ele>134.0</ele><time>2026-05-03T14:02:32.001Z</time></trkpt><trkpt lat="43.787103745052036" lon="12.735851990703317"><ele>135.0</ele><time>2026-05-03T14:02:33.001Z</time></trkpt><trkpt lat="43.78709105504491" lon="12.736065416562639"><ele>136.25</ele><time>2026-05-03T14:02:34.001Z</time></trkpt><trkpt lat="43.78706347645477" lon="12.736252917481378"><ele>137.5</ele><time>2026-05-03T14:02:35.001Z</time></trkpt><trkpt lat="43.7870254375919" lon="12.736416400274582"><ele>138.75</ele><time>2026-05-03T14:02:36.001Z</time></trkpt><trkpt lat="43.78697589392825" lon="12.736569926465188"><ele>140.0</ele><time>2026-05-03T14:02:37.001Z</time></trkpt><trkpt lat="43.78692098678372" lon="12.736700481567361"><ele>140.0</ele><time>2026-05-03T14:02:38.001Z</time></trkpt><trkpt lat="43.786873222100596" lon="12.736816566471097"><ele>140.0</ele><time>2026-05-03T14:02:39.001Z</time></trkpt><trkpt lat="43.786785137236336" lon="12.736889417694158"><ele>140.0</ele><time>2026-05-03T14:02:40.001Z</time></trkpt><trkpt lat="43.78669901683015" lon="12.736935319239564"><ele>140.0</ele><time>2026-05-03T14:02:41.001Z</time></trkpt><trkpt lat="43.78662092025439" lon="12.736996128093436"><ele>140.0</ele><time>2026-05-03T14:02:42.001Z</time></trkpt><trkpt lat="43.786561828130104" lon="12.737074943428262"><ele>138.2</ele><time>2026-05-03T14:02:43.001Z</time></trkpt><trkpt lat="43.786530216615944" lon="12.73716769096712"><ele>136.4</ele><time>2026-05-03T14:02:44.001Z</time></trkpt><trkpt lat="43.786530892166645" lon="12.737267614608845"><ele>134.6</ele><time>2026-05-03T14:02:45.001Z</time></trkpt><trkpt lat="43.78654874901057" lon="12.737392515256365"><ele>132.8</ele><time>2026-05-03T14:02:46.001Z</time></trkpt><trkpt lat="43.786578524369354" lon="12.737524208296751"><ele>131.0</ele><time>2026-05-03T14:02:47.001Z</time></trkpt><trkpt lat="43.786616326246616" lon="12.737700984820174"><ele>132.0</ele><time>2026-05-03T14:02:48.001Z</time></trkpt><trkpt lat="43.78662585790072" lon="12.737867031452085"><ele>133.0</ele><time>2026-05-03T14:02:49.001Z</time></trkpt><trkpt lat="43.786611990870064" lon="12.738010982722816"><ele>134.0</ele><time>2026-05-03T14:02:50.001Z</time></trkpt><trkpt lat="43.78657427169142" lon="12.738153271347826"><ele>135.0</ele><time>2026-05-03T14:02:51.001Z</time></trkpt><trkpt lat="43.786519378853846" lon="12.738291772429067"><ele>136.0</ele><time>2026-05-03T14:02:52.001Z</time></trkpt><trkpt lat="43.78646029265089" lon="12.73844539353246"><ele>137.0</ele><time>2026-05-03T14:02:53.001Z</time></trkpt><trkpt lat="43.78638871290714" lon="12.738625953612615"><ele>138.0</ele><time>2026-05-03T14:02:54.001Z</time></trkpt><trkpt lat="43.78631452783536" lon="12.738850778868525"><ele>139.0</ele><time>2026-05-03T14:02:55.001Z</time></trkpt><trkpt lat="43.78623637938522" lon="12.739108501707914"><ele>139.0</ele><time>2026-05-03T14:02:56.001Z</time></trkpt><trkpt lat="43.78616744072627" lon="12.739338713753062"><ele>139.0</ele><time>2026-05-03T14:02:57.001Z</time></trkpt><trkpt lat="43.78610999822287" lon="12.739532720946432"><ele>139.0</ele><time>2026-05-03T14:02:58.001Z</time></trkpt><trkpt lat="43.786054708844354" lon="12.739690381756992"><ele>138.0</ele><time>2026-05-03T14:02:59.001Z</time></trkpt><trkpt lat="43.78600184733627" lon="12.739836220167177"><ele>137.0</ele><time>2026-05-03T14:03:00.001Z</time></trkpt><trkpt lat="43.785945761792" lon="12.739960854366844"><ele>136.0</ele><time>2026-05-03T14:03:01.001Z</time></trkpt><trkpt lat="43.78589089994338" lon="12.74005260206271"><ele>135.0</ele><time>2026-05-03T14:03:02.001Z</time></trkpt><trkpt lat="43.78582783401707" lon="12.740105431505176"><ele>134.0</ele><time>2026-05-03T14:03:03.001Z</time></trkpt><trkpt lat="43.78577575465534" lon="12.740264604611756"><ele>134.0</ele><time>2026-05-03T14:03:05.001Z</time></trkpt><trkpt lat="43.78572485315772" lon="12.74037338698571"><ele>134.0</ele><time>2026-05-03T14:03:06.001Z</time></trkpt><trkpt lat="43.78566799694656" lon="12.740498316732578"><ele>134.0</ele><time>2026-05-03T14:03:07.001Z</time></trkpt><trkpt lat="43.78562968035788" lon="12.740625309402146"><ele>134.0</ele><time>2026-05-03T14:03:08.001Z</time></trkpt><trkpt lat="43.7855900807111" lon="12.740714588458268"><ele>134.0</ele><time>2026-05-03T14:03:09.001Z</time></trkpt><trkpt lat="43.78555295316242" lon="12.740818001376134"><ele>134.0</ele><time>2026-05-03T14:03:10.001Z</time></trkpt><trkpt lat="43.78548383165914" lon="12.740948763361057"><ele>134.0</ele><time>2026-05-03T14:03:11.001Z</time></trkpt><trkpt lat="43.78543251193835" lon="12.741109152861231"><ele>134.0</ele><time>2026-05-03T14:03:12.001Z</time></trkpt><trkpt lat="43.785375069269115" lon="12.741225322675769"><ele>134.0</ele><time>2026-05-03T14:03:13.001Z</time></trkpt><trkpt lat="43.78532145566761" lon="12.741323546894034"><ele>134.0</ele><time>2026-05-03T14:03:14.001Z</time></trkpt><trkpt lat="43.78527692355484" lon="12.74141925386197"><ele>135.5</ele><time>2026-05-03T14:03:15.001Z</time></trkpt><trkpt lat="43.78523534128276" lon="12.741591753980883"><ele>137.0</ele><time>2026-05-03T14:03:17.001Z</time></trkpt><trkpt lat="43.78522988533209" lon="12.741732875355066"><ele>138.5</ele><time>2026-05-03T14:03:18.001Z</time></trkpt><trkpt lat="43.785222174759106" lon="12.741943457240213"><ele>140.0</ele><time>2026-05-03T14:03:19.001Z</time></trkpt><trkpt lat="43.785216528823284" lon="12.742169025784232"><ele>137.5</ele><time>2026-05-03T14:03:20.001Z</time></trkpt><trkpt lat="43.785168360532445" lon="12.742328592375483"><ele>135.0</ele><time>2026-05-03T14:03:21.001Z</time></trkpt><trkpt lat="43.78513452089292" lon="12.742467070129281"><ele>132.5</ele><time>2026-05-03T14:03:22.001Z</time></trkpt><trkpt lat="43.78512151998812" lon="12.742608290683986"><ele>130.0</ele><time>2026-05-03T14:03:23.001Z</time></trkpt><trkpt lat="43.78510360118692" lon="12.742779693039894"><ele>130.0</ele><time>2026-05-03T14:03:24.001Z</time></trkpt><trkpt lat="43.78510485803186" lon="12.742982240795252"><ele>130.0</ele><time>2026-05-03T14:03:25.001Z</time></trkpt><trkpt lat="43.78512262281228" lon="12.743151138861517"><ele>130.0</ele><time>2026-05-03T14:03:26.001Z</time></trkpt><trkpt lat="43.78511292000993" lon="12.743326039506405"><ele>130.0</ele><time>2026-05-03T14:03:27.001Z</time></trkpt><trkpt lat="43.78513336977233" lon="12.743552150646474"><ele>131.25</ele><time>2026-05-03T14:03:28.001Z</time></trkpt><trkpt lat="43.785135945539615" lon="12.743744142775212"><ele>132.5</ele><time>2026-05-03T14:03:29.001Z</time></trkpt><trkpt lat="43.785179223690534" lon="12.743902795115947"><ele>133.75</ele><time>2026-05-03T14:03:30.001Z</time></trkpt><trkpt lat="43.785217669554314" lon="12.744106762740591"><ele>135.0</ele><time>2026-05-03T14:03:31.001Z</time></trkpt><trkpt lat="43.78524676311755" lon="12.744296658957236"><ele>135.25</ele><time>2026-05-03T14:03:32.001Z</time></trkpt><trkpt lat="43.78526392860597" lon="12.744487542658618"><ele>135.5</ele><time>2026-05-03T14:03:33.001Z</time></trkpt><trkpt lat="43.78528392237122" lon="12.744703438031634"><ele>135.75</ele><time>2026-05-03T14:03:34.001Z</time></trkpt><trkpt lat="43.785290747623144" lon="12.744867723526365"><ele>136.0</ele><time>2026-05-03T14:03:35.001Z</time></trkpt><trkpt lat="43.78529712003396" lon="12.745042124329572"><ele>136.0</ele><time>2026-05-03T14:03:36.001Z</time></trkpt><trkpt lat="43.785305422004654" lon="12.745182274909657"><ele>136.0</ele><time>2026-05-03T14:03:37.001Z</time></trkpt><trkpt lat="43.7853147960335" lon="12.74529924028581"><ele>136.0</ele><time>2026-05-03T14:03:38.001Z</time></trkpt><trkpt lat="43.785325941735614" lon="12.74541069722577"><ele>136.0</ele><time>2026-05-03T14:03:39.001Z</time></trkpt><trkpt lat="43.7853447034319" lon="12.745529243653605"><ele>136.0</ele><time>2026-05-03T14:03:40.001Z</time></trkpt><trkpt lat="43.785371048960705" lon="12.745629760382595"><ele>136.0</ele><time>2026-05-03T14:03:41.001Z</time></trkpt><trkpt lat="43.78542843325444" lon="12.74574804367296"><ele>135.16666666666669</ele><time>2026-05-03T14:03:43Z</time></trkpt><trkpt lat="43.78547743780668" lon="12.745806641080016"><ele>134.33333333333334</ele><time>2026-05-03T14:03:46Z</time></trkpt><trkpt lat="43.78556058888979" lon="12.745804579409775"><ele>133.5</ele><time>2026-05-03T14:03:54Z</time></trkpt><trkpt lat="43.78565239594611" lon="12.745823973900997"><ele>132.66666666666666</ele><time>2026-05-03T14:03:55Z</time></trkpt><trkpt lat="43.78573190791218" lon="12.74584542518575"><ele>131.83333333333331</ele><time>2026-05-03T14:03:56Z</time></trkpt><trkpt lat="43.78582118388985" lon="12.745873129904188"><ele>131.0</ele><time>2026-05-03T14:03:57Z</time></trkpt><trkpt lat="43.785935475697926" lon="12.745902170029513"><ele>134.2</ele><time>2026-05-03T14:03:58Z</time></trkpt><trkpt lat="43.78603420306513" lon="12.745938195580024"><ele>137.39999999999998</ele><time>2026-05-03T14:03:59Z</time></trkpt><trkpt lat="43.7861141587569" lon="12.745992999565825"><ele>140.6</ele><time>2026-05-03T14:04:00Z</time></trkpt><trkpt lat="43.786171914524" lon="12.74607395626068"><ele>143.79999999999998</ele><time>2026-05-03T14:04:01Z</time></trkpt><trkpt lat="43.786203300120725" lon="12.746208855965248"><ele>147.0</ele><time>2026-05-03T14:04:02Z</time></trkpt><trkpt lat="43.78628442586053" lon="12.746343176639375"><ele>147.0</ele><time>2026-05-03T14:04:03Z</time></trkpt><trkpt lat="43.78634325371134" lon="12.746529930601259"><ele>147.0</ele><time>2026-05-03T14:04:04Z</time></trkpt><trkpt lat="43.786419302575716" lon="12.746662973473375"><ele>147.0</ele><time>2026-05-03T14:04:05Z</time></trkpt><trkpt lat="43.78647390028445" lon="12.746799574935965"><ele>147.0</ele><time>2026-05-03T14:04:06Z</time></trkpt><trkpt lat="43.78652369646602" lon="12.746922272435258"><ele>147.0</ele><time>2026-05-03T14:04:07Z</time></trkpt><trkpt lat="43.78657744209161" lon="12.747025071548347"><ele>147.0</ele><time>2026-05-03T14:04:08Z</time></trkpt><trkpt lat="43.78664915750875" lon="12.747106805548968"><ele>147.0</ele><time>2026-05-03T14:04:09Z</time></trkpt><trkpt lat="43.78670928354192" lon="12.74717343846934"><ele>147.0</ele><time>2026-05-03T14:04:10Z</time></trkpt><trkpt lat="43.78678749800372" lon="12.747241753117287"><ele>147.0</ele><time>2026-05-03T14:04:11Z</time></trkpt><trkpt lat="43.78689281643192" lon="12.74728935720404"><ele>145.75</ele><time>2026-05-03T14:04:12Z</time></trkpt><trkpt lat="43.787017538124516" lon="12.747365795454021"><ele>144.5</ele><time>2026-05-03T14:04:13Z</time></trkpt><trkpt lat="43.787170456095495" lon="12.747449437739187"><ele>143.25</ele><time>2026-05-03T14:04:14Z</time></trkpt><trkpt lat="43.78727718315569" lon="12.74754071534591"><ele>142.0</ele><time>2026-05-03T14:04:15Z</time></trkpt><trkpt lat="43.78739312501993" lon="12.747616266220122"><ele>142.0</ele><time>2026-05-03T14:04:16Z</time></trkpt><trkpt lat="43.78750559798948" lon="12.747667484760013"><ele>142.0</ele><time>2026-05-03T14:04:17Z</time></trkpt><trkpt lat="43.78761789598892" lon="12.747745093003836"><ele>142.0</ele><time>2026-05-03T14:04:18Z</time></trkpt><trkpt lat="43.787714254054904" lon="12.7478428475397"><ele>142.0</ele><time>2026-05-03T14:04:19Z</time></trkpt><trkpt lat="43.787806034017116" lon="12.747885545724111"><ele>143.0</ele><time>2026-05-03T14:04:20Z</time></trkpt><trkpt lat="43.78788670566234" lon="12.747950358806749"><ele>144.0</ele><time>2026-05-03T14:04:21Z</time></trkpt><trkpt lat="43.78794955887214" lon="12.748009456836435"><ele>145.0</ele><time>2026-05-03T14:04:22Z</time></trkpt><trkpt lat="43.78800350203223" lon="12.748123026467999"><ele>146.0</ele><time>2026-05-03T14:04:24Z</time></trkpt><trkpt lat="43.78796975555821" lon="12.748206412219083"><ele>147.0</ele><time>2026-05-03T14:04:58.001Z</time></trkpt><trkpt lat="43.78784111266834" lon="12.748284401163572"><ele>147.0</ele><time>2026-05-03T14:05:03.001Z</time></trkpt><trkpt lat="43.787945704797266" lon="12.748254097644056"><ele>147.0</ele><time>2026-05-03T14:05:10.001Z</time></trkpt><trkpt lat="43.78799301463994" lon="12.74819392274347"><ele>147.0</ele><time>2026-05-03T14:05:12.001Z</time></trkpt><trkpt lat="43.787999025505215" lon="12.748094571916585"><ele>147.0</ele><time>2026-05-03T14:05:15.001Z</time></trkpt><trkpt lat="43.787957768688436" lon="12.747985966726446"><ele>147.0</ele><time>2026-05-03T14:05:19.001Z</time></trkpt><trkpt lat="43.78789373175475" lon="12.747902474735993"><ele>147.0</ele><time>2026-05-03T14:05:20.001Z</time></trkpt><trkpt lat="43.78777675863203" lon="12.74787503209556"><ele>147.0</ele><time>2026-05-03T14:05:21.001Z</time></trkpt><trkpt lat="43.78767909647293" lon="12.7478033332527"><ele>147.0</ele><time>2026-05-03T14:05:22.001Z</time></trkpt><trkpt lat="43.78757351531167" lon="12.747729257307789"><ele>147.0</ele><time>2026-05-03T14:05:23.001Z</time></trkpt><trkpt lat="43.787477007419234" lon="12.747656255451087"><ele>147.0</ele><time>2026-05-03T14:05:24.001Z</time></trkpt><trkpt lat="43.7873628173302" lon="12.74759613158795"><ele>146.0</ele><time>2026-05-03T14:05:25.001Z</time></trkpt><trkpt lat="43.78727563013487" lon="12.747513851941124"><ele>145.0</ele><time>2026-05-03T14:05:26.001Z</time></trkpt><trkpt lat="43.78717023769557" lon="12.747446785899744"><ele>144.0</ele><time>2026-05-03T14:05:27.001Z</time></trkpt><trkpt lat="43.78706937337308" lon="12.747389841735982"><ele>143.0</ele><time>2026-05-03T14:05:28.001Z</time></trkpt><trkpt lat="43.78696635223334" lon="12.74733110464254"><ele>142.0</ele><time>2026-05-03T14:05:29.001Z</time></trkpt><trkpt lat="43.78687938036297" lon="12.747271799349354"><ele>142.83333333333334</ele><time>2026-05-03T14:05:30.001Z</time></trkpt><trkpt lat="43.78680176038275" lon="12.747221772819449"><ele>143.66666666666669</ele><time>2026-05-03T14:05:31.001Z</time></trkpt><trkpt lat="43.786733292425616" lon="12.747170083367207"><ele>144.5</ele><time>2026-05-03T14:05:32.001Z</time></trkpt><trkpt lat="43.786657435661745" lon="12.74711500656017"><ele>145.33333333333334</ele><time>2026-05-03T14:05:33.001Z</time></trkpt><trkpt lat="43.78658780814293" lon="12.747021708939725"><ele>146.16666666666666</ele><time>2026-05-03T14:05:34.001Z</time></trkpt><trkpt lat="43.78655753762115" lon="12.74689409760981"><ele>147.0</ele><time>2026-05-03T14:05:35.001Z</time></trkpt><trkpt lat="43.78646771183882" lon="12.746754465774606"><ele>147.0</ele><time>2026-05-03T14:05:36.001Z</time></trkpt><trkpt lat="43.78640101328904" lon="12.746571771043882"><ele>147.0</ele><time>2026-05-03T14:05:37.001Z</time></trkpt><trkpt lat="43.78634427833825" lon="12.746439266939621"><ele>147.0</ele><time>2026-05-03T14:05:38.001Z</time></trkpt><trkpt lat="43.7862792005939" lon="12.746329288194003"><ele>147.0</ele><time>2026-05-03T14:05:39.001Z</time></trkpt><trkpt lat="43.78622931703227" lon="12.746208202052234"><ele>147.0</ele><time>2026-05-03T14:05:40.001Z</time></trkpt><trkpt lat="43.78618478833661" lon="12.746105405221657"><ele>147.0</ele><time>2026-05-03T14:05:41.001Z</time></trkpt><trkpt lat="43.78613921203182" lon="12.746013646892532"><ele>147.0</ele><time>2026-05-03T14:05:42.001Z</time></trkpt><trkpt lat="43.78606588051067" lon="12.745959374316154"><ele>147.0</ele><time>2026-05-03T14:05:43.001Z</time></trkpt><trkpt lat="43.78598816167854" lon="12.74592085717489"><ele>147.0</ele><time>2026-05-03T14:05:44.001Z</time></trkpt><trkpt lat="43.785878028313725" lon="12.745864757230652"><ele>143.79999999999998</ele><time>2026-05-03T14:05:45.001Z</time></trkpt><trkpt lat="43.7857479324833" lon="12.74582386752772"><ele>140.6</ele><time>2026-05-03T14:05:46.001Z</time></trkpt><trkpt lat="43.78566219720125" lon="12.745799703891372"><ele>137.39999999999998</ele><time>2026-05-03T14:05:47.001Z</time></trkpt><trkpt lat="43.78558264174251" lon="12.745779748066212"><ele>134.2</ele><time>2026-05-03T14:05:47.999Z</time></trkpt><trkpt lat="43.78548496871767" lon="12.745749082989713"><ele>131.0</ele><time>2026-05-03T14:05:49.999Z</time></trkpt><trkpt lat="43.78540282365845" lon="12.745669928104661"><ele>131.0</ele><time>2026-05-03T14:05:51.999Z</time></trkpt><trkpt lat="43.785370261417654" lon="12.745565791782635"><ele>131.0</ele><time>2026-05-03T14:05:52.999Z</time></trkpt><trkpt lat="43.785360155280344" lon="12.745415439221636"><ele>131.0</ele><time>2026-05-03T14:05:53.999Z</time></trkpt><trkpt lat="43.78534258829747" lon="12.745241003854316"><ele>131.0</ele><time>2026-05-03T14:05:54.999Z</time></trkpt><trkpt lat="43.785330877265565" lon="12.745048995391661"><ele>132.25</ele><time>2026-05-03T14:05:55.999Z</time></trkpt><trkpt lat="43.785323075418376" lon="12.744834916768347"><ele>133.5</ele><time>2026-05-03T14:05:56.999Z</time></trkpt><trkpt lat="43.78529688486496" lon="12.744640159922213"><ele>134.75</ele><time>2026-05-03T14:05:57.999Z</time></trkpt><trkpt lat="43.7852936145536" lon="12.74443185914659"><ele>136.0</ele><time>2026-05-03T14:05:58.999Z</time></trkpt><trkpt lat="43.785274912511625" lon="12.744228946966368"><ele>135.66666666666669</ele><time>2026-05-03T14:05:59.999Z</time></trkpt><trkpt lat="43.785220390732626" lon="12.744008287807844"><ele>135.33333333333334</ele><time>2026-05-03T14:06:00.999Z</time></trkpt><trkpt lat="43.78518625208968" lon="12.743790369652363"><ele>135.0</ele><time>2026-05-03T14:06:01.999Z</time></trkpt><trkpt lat="43.785154873472855" lon="12.743581856698238"><ele>133.33333333333334</ele><time>2026-05-03T14:06:02.999Z</time></trkpt><trkpt lat="43.78514221293444" lon="12.743366505484383"><ele>131.66666666666669</ele><time>2026-05-03T14:06:03.999Z</time></trkpt><trkpt lat="43.78513616836436" lon="12.743143749204755"><ele>130.0</ele><time>2026-05-03T14:06:04.999Z</time></trkpt><trkpt lat="43.78513295509805" lon="12.742935748249447"><ele>130.0</ele><time>2026-05-03T14:06:05.999Z</time></trkpt><trkpt lat="43.78513358068464" lon="12.742746336281455"><ele>130.0</ele><time>2026-05-03T14:06:06.999Z</time></trkpt><trkpt lat="43.785140368552476" lon="12.742565113392043"><ele>130.0</ele><time>2026-05-03T14:06:07.999Z</time></trkpt><trkpt lat="43.78516949915133" lon="12.742403410296088"><ele>130.0</ele><time>2026-05-03T14:06:09Z</time></trkpt><trkpt lat="43.78522209607742" lon="12.742234061906114"><ele>132.5</ele><time>2026-05-03T14:06:10Z</time></trkpt><trkpt lat="43.78525044955578" lon="12.742075637016185"><ele>135.0</ele><time>2026-05-03T14:06:11Z</time></trkpt><trkpt lat="43.78525219331716" lon="12.741883670401846"><ele>137.5</ele><time>2026-05-03T14:06:12Z</time></trkpt><trkpt lat="43.78525417069524" lon="12.74168614093732"><ele>140.0</ele><time>2026-05-03T14:06:13Z</time></trkpt><trkpt lat="43.78526792704565" lon="12.741533831147194"><ele>140.0</ele><time>2026-05-03T14:06:14Z</time></trkpt><trkpt lat="43.78528631229546" lon="12.741422193733431"><ele>140.0</ele><time>2026-05-03T14:06:15Z</time></trkpt><trkpt lat="43.78532320077704" lon="12.741321496641294"><ele>140.0</ele><time>2026-05-03T14:06:16Z</time></trkpt><trkpt lat="43.785408556121766" lon="12.741204810758468"><ele>140.0</ele><time>2026-05-03T14:06:17Z</time></trkpt><trkpt lat="43.78548016171792" lon="12.741025284575992"><ele>140.0</ele><time>2026-05-03T14:06:18Z</time></trkpt><trkpt lat="43.78556185730003" lon="12.740827620414581"><ele>138.8</ele><time>2026-05-03T14:06:19Z</time></trkpt><trkpt lat="43.78562552085561" lon="12.740669976172212"><ele>137.6</ele><time>2026-05-03T14:06:20Z</time></trkpt><trkpt lat="43.78569707396304" lon="12.740516788110705"><ele>136.4</ele><time>2026-05-03T14:06:21Z</time></trkpt><trkpt lat="43.785738605895844" lon="12.740388669771258"><ele>135.2</ele><time>2026-05-03T14:06:22Z</time></trkpt><trkpt lat="43.78578570639531" lon="12.740291407047629"><ele>134.0</ele><time>2026-05-03T14:06:23Z</time></trkpt><trkpt lat="43.78582327899446" lon="12.7402028130902"><ele>132.75</ele><time>2026-05-03T14:06:24Z</time></trkpt><trkpt lat="43.78585002892923" lon="12.740113562473613"><ele>131.5</ele><time>2026-05-03T14:06:26Z</time></trkpt><trkpt lat="43.785928360370185" lon="12.739975571595746"><ele>130.25</ele><time>2026-05-03T14:06:28Z</time></trkpt><trkpt lat="43.78600375911583" lon="12.739853005306575"><ele>129.0</ele><time>2026-05-03T14:06:29Z</time></trkpt><trkpt lat="43.78607655546896" lon="12.739681289495751"><ele>132.33333333333334</ele><time>2026-05-03T14:06:30Z</time></trkpt><trkpt lat="43.786145860070846" lon="12.739467220988999"><ele>135.66666666666669</ele><time>2026-05-03T14:06:31Z</time></trkpt><trkpt lat="43.786247567397794" lon="12.739234470661176"><ele>139.0</ele><time>2026-05-03T14:06:32Z</time></trkpt><trkpt lat="43.786333960130726" lon="12.738948764173646"><ele>139.0</ele><time>2026-05-03T14:06:33Z</time></trkpt><trkpt lat="43.78642635755452" lon="12.738664197508841"><ele>139.0</ele><time>2026-05-03T14:06:34Z</time></trkpt><trkpt lat="43.78651146577063" lon="12.738423476808025"><ele>139.0</ele><time>2026-05-03T14:06:35Z</time></trkpt><trkpt lat="43.786570459399464" lon="12.738208397837843"><ele>138.25</ele><time>2026-05-03T14:06:36Z</time></trkpt><trkpt lat="43.78662393742116" lon="12.738028602800846"><ele>137.5</ele><time>2026-05-03T14:06:37Z</time></trkpt><trkpt lat="43.78664715183149" lon="12.737859184772637"><ele>136.75</ele><time>2026-05-03T14:06:38Z</time></trkpt><trkpt lat="43.78663761741658" lon="12.7376788969679"><ele>136.0</ele><time>2026-05-03T14:06:39Z</time></trkpt><trkpt lat="43.78659702977142" lon="12.737482334554421"><ele>134.75</ele><time>2026-05-03T14:06:40Z</time></trkpt><trkpt lat="43.78656655546517" lon="12.737316371693277"><ele>133.5</ele><time>2026-05-03T14:06:41Z</time></trkpt><trkpt lat="43.78656440017478" lon="12.737168916394324"><ele>132.25</ele><time>2026-05-03T14:06:42Z</time></trkpt><trkpt lat="43.78670026195916" lon="12.736994037299203"><ele>131.0</ele><time>2026-05-03T14:06:44Z</time></trkpt><trkpt lat="43.786804404549706" lon="12.736911610891225"><ele>133.25</ele><time>2026-05-03T14:06:45Z</time></trkpt><trkpt lat="43.78691164055316" lon="12.736809064289528"><ele>135.5</ele><time>2026-05-03T14:06:46Z</time></trkpt><trkpt lat="43.78696924965573" lon="12.736677056159941"><ele>137.75</ele><time>2026-05-03T14:06:47Z</time></trkpt><trkpt lat="43.78702610201078" lon="12.736534832386338"><ele>140.0</ele><time>2026-05-03T14:06:48Z</time></trkpt><trkpt lat="43.78707886319359" lon="12.736327144488172"><ele>140.0</ele><time>2026-05-03T14:06:49Z</time></trkpt><trkpt lat="43.78711923048025" lon="12.73612810382737"><ele>140.0</ele><time>2026-05-03T14:06:50Z</time></trkpt><trkpt lat="43.78715234927094" lon="12.735929552242489"><ele>140.0</ele><time>2026-05-03T14:06:51Z</time></trkpt><trkpt lat="43.78716403684611" lon="12.735718057714898"><ele>140.0</ele><time>2026-05-03T14:06:52Z</time></trkpt><trkpt lat="43.78716914205895" lon="12.73553568069458"><ele>138.33333333333331</ele><time>2026-05-03T14:06:53Z</time></trkpt><trkpt lat="43.787167557292186" lon="12.735341963276253"><ele>136.66666666666666</ele><time>2026-05-03T14:06:54Z</time></trkpt><trkpt lat="43.78715424397156" lon="12.735117517643268"><ele>135.0</ele><time>2026-05-03T14:06:55Z</time></trkpt><trkpt lat="43.78714302053224" lon="12.734905264302029"><ele>134.0</ele><time>2026-05-03T14:06:56Z</time></trkpt><trkpt lat="43.787135758644666" lon="12.734715188122985"><ele>133.0</ele><time>2026-05-03T14:06:57Z</time></trkpt><trkpt lat="43.78712458203784" lon="12.734529158484627"><ele>132.0</ele><time>2026-05-03T14:06:58Z</time></trkpt><trkpt lat="43.78711672766718" lon="12.734355583136736"><ele>131.0</ele><time>2026-05-03T14:06:59Z</time></trkpt><trkpt lat="43.787112274606486" lon="12.734196064668389"><ele>129.5</ele><time>2026-05-03T14:07:00Z</time></trkpt><trkpt lat="43.78713452199577" lon="12.734045771107278"><ele>128.0</ele><time>2026-05-03T14:07:01Z</time></trkpt><trkpt lat="43.78715922444917" lon="12.733876690573123"><ele>126.5</ele><time>2026-05-03T14:07:02Z</time></trkpt><trkpt lat="43.78719513875851" lon="12.733726161476161"><ele>125.0</ele><time>2026-05-03T14:07:03Z</time></trkpt><trkpt lat="43.78723479298845" lon="12.733582101992303"><ele>123.5</ele><time>2026-05-03T14:07:04Z</time></trkpt><trkpt lat="43.78728539659338" lon="12.73344885487171"><ele>122.0</ele><time>2026-05-03T14:07:05.001Z</time></trkpt><trkpt lat="43.78735088302647" lon="12.733299073879353"><ele>120.5</ele><time>2026-05-03T14:07:06.001Z</time></trkpt><trkpt lat="43.78744848294039" lon="12.733084535878858"><ele>119.0</ele><time>2026-05-03T14:07:07.001Z</time></trkpt><trkpt lat="43.787559893514924" lon="12.732832687953309"><ele>120.33333333333333</ele><time>2026-05-03T14:07:08.001Z</time></trkpt><trkpt lat="43.78766257672581" lon="12.732548353430541"><ele>121.66666666666666</ele><time>2026-05-03T14:07:09.001Z</time></trkpt><trkpt lat="43.787736211792954" lon="12.732303922405922"><ele>123.0</ele><time>2026-05-03T14:07:10.001Z</time></trkpt><trkpt lat="43.78780110153116" lon="12.732084016149628"><ele>123.0</ele><time>2026-05-03T14:07:11.001Z</time></trkpt><trkpt lat="43.78784871972608" lon="12.731894552948166"><ele>123.0</ele><time>2026-05-03T14:07:12.001Z</time></trkpt><trkpt lat="43.78787244339382" lon="12.731748660369218"><ele>123.0</ele><time>2026-05-03T14:07:13.001Z</time></trkpt><trkpt lat="43.78786520782114" lon="12.73160586367958"><ele>123.0</ele><time>2026-05-03T14:07:14.001Z</time></trkpt><trkpt lat="43.78781768708794" lon="12.731469484823876"><ele>123.0</ele><time>2026-05-03T14:07:15.001Z</time></trkpt><trkpt lat="43.78773363682064" lon="12.731336584873073"><ele>123.0</ele><time>2026-05-03T14:07:16.001Z</time></trkpt><trkpt lat="43.787646722082066" lon="12.73121612262229"><ele>123.0</ele><time>2026-05-03T14:07:17.001Z</time></trkpt><trkpt lat="43.78760289130865" lon="12.731083076730767"><ele>123.0</ele><time>2026-05-03T14:07:18.001Z</time></trkpt><trkpt lat="43.78758259508601" lon="12.730925251341677"><ele>122.5</ele><time>2026-05-03T14:07:19.001Z</time></trkpt><trkpt lat="43.78759822378141" lon="12.730752587065966"><ele>122.0</ele><time>2026-05-03T14:07:20.001Z</time></trkpt><trkpt lat="43.78764742065104" lon="12.730579059429553"><ele>121.5</ele><time>2026-05-03T14:07:21.001Z</time></trkpt><trkpt lat="43.787727122806935" lon="12.730434237268868"><ele>121.0</ele><time>2026-05-03T14:07:22.001Z</time></trkpt><trkpt lat="43.78784884432736" lon="12.730216900900569"><ele>117.5</ele><time>2026-05-03T14:07:23.001Z</time></trkpt><trkpt lat="43.78797367028034" lon="12.729965354063234"><ele>114.0</ele><time>2026-05-03T14:07:24.001Z</time></trkpt><trkpt lat="43.788113696379554" lon="12.72970774219243"><ele>114.0</ele><time>2026-05-03T14:07:25.001Z</time></trkpt><trkpt lat="43.78825784825921" lon="12.729433360039563"><ele>114.0</ele><time>2026-05-03T14:07:26.001Z</time></trkpt><trkpt lat="43.7883897235934" lon="12.729191834384824"><ele>116.33333333333334</ele><time>2026-05-03T14:07:27.001Z</time></trkpt><trkpt lat="43.78851538349808" lon="12.728971304065015"><ele>118.66666666666667</ele><time>2026-05-03T14:07:28.001Z</time></trkpt><trkpt lat="43.78862749452031" lon="12.728770184485088"><ele>121.0</ele><time>2026-05-03T14:07:29.001Z</time></trkpt><trkpt lat="43.788727510998264" lon="12.728572549222458"><ele>118.0</ele><time>2026-05-03T14:07:30.001Z</time></trkpt><trkpt lat="43.78882172691985" lon="12.728388548651555"><ele>115.0</ele><time>2026-05-03T14:07:31.001Z</time></trkpt><trkpt lat="43.78890808369952" lon="12.728202001415326"><ele>112.0</ele><time>2026-05-03T14:07:32.001Z</time></trkpt><trkpt lat="43.78897645139038" lon="12.727987453483955"><ele>112.0</ele><time>2026-05-03T14:07:33.001Z</time></trkpt><trkpt lat="43.78902388826266" lon="12.727737844148992"><ele>112.0</ele><time>2026-05-03T14:07:34.001Z</time></trkpt><trkpt lat="43.78905439161223" lon="12.727423761409234"><ele>112.0</ele><time>2026-05-03T14:07:35.001Z</time></trkpt><trkpt lat="43.78909102380546" lon="12.727086670122622"><ele>110.66666666666667</ele><time>2026-05-03T14:07:36.001Z</time></trkpt><trkpt lat="43.789121327006136" lon="12.726781630741488"><ele>109.33333333333334</ele><time>2026-05-03T14:07:37.001Z</time></trkpt><trkpt lat="43.78915338233223" lon="12.726518163559646"><ele>108.0</ele><time>2026-05-03T14:07:38.001Z</time></trkpt><trkpt lat="43.78918545845957" lon="12.726277344037788"><ele>106.66666666666666</ele><time>2026-05-03T14:07:39.001Z</time></trkpt><trkpt lat="43.78920977638684" lon="12.726050000669396"><ele>105.33333333333333</ele><time>2026-05-03T14:07:40.001Z</time></trkpt><trkpt lat="43.789231758012725" lon="12.725839322004873"><ele>104.0</ele><time>2026-05-03T14:07:41.001Z</time></trkpt><trkpt lat="43.78925250269094" lon="12.72562758717049"><ele>104.0</ele><time>2026-05-03T14:07:42.001Z</time></trkpt><trkpt lat="43.78927714042729" lon="12.725402574580528"><ele>104.0</ele><time>2026-05-03T14:07:43.001Z</time></trkpt><trkpt lat="43.78930213713172" lon="12.725183368506697"><ele>104.0</ele><time>2026-05-03T14:07:44.001Z</time></trkpt><trkpt lat="43.789324367769325" lon="12.7249898033068"><ele>103.4</ele><time>2026-05-03T14:07:45.001Z</time></trkpt><trkpt lat="43.78934499749078" lon="12.724811855571032"><ele>102.80000000000001</ele><time>2026-05-03T14:07:46.001Z</time></trkpt><trkpt lat="43.78936477082266" lon="12.724659029547709"><ele>102.19999999999999</ele><time>2026-05-03T14:07:47.001Z</time></trkpt><trkpt lat="43.78938102253383" lon="12.724518218520632"><ele>101.6</ele><time>2026-05-03T14:07:48.001Z</time></trkpt><trkpt lat="43.78939478821515" lon="12.724389675355342"><ele>101.0</ele><time>2026-05-03T14:07:49.001Z</time></trkpt><trkpt lat="43.7894123394947" lon="12.724285783821623"><ele>100.4</ele><time>2026-05-03T14:07:50.001Z</time></trkpt><trkpt lat="43.78945411061534" lon="12.724192234267692"><ele>99.8</ele><time>2026-05-03T14:07:52.001Z</time></trkpt><trkpt lat="43.78954605862502" lon="12.724239027716722"><ele>99.2</ele><time>2026-05-03T14:07:53.999Z</time></trkpt><trkpt lat="43.78962566173097" lon="12.724249979190517"><ele>98.60000000000001</ele><time>2026-05-03T14:07:54.999Z</time></trkpt><trkpt lat="43.78973731698458" lon="12.724306399458614"><ele>98.0</ele><time>2026-05-03T14:07:55.999Z</time></trkpt><trkpt lat="43.78989035527209" lon="12.724340221949596"><ele>99.0</ele><time>2026-05-03T14:07:56.999Z</time></trkpt><trkpt lat="43.79006493689649" lon="12.724396928673857"><ele>100.0</ele><time>2026-05-03T14:07:57.999Z</time></trkpt><trkpt lat="43.790233455591085" lon="12.724445053020402"><ele>101.0</ele><time>2026-05-03T14:07:58.999Z</time></trkpt><trkpt lat="43.79036648097132" lon="12.724480494936136"><ele>103.25</ele><time>2026-05-03T14:07:59.999Z</time></trkpt><trkpt lat="43.79049872473645" lon="12.72455089843158"><ele>105.5</ele><time>2026-05-03T14:08:00.999Z</time></trkpt><trkpt lat="43.79062851321493" lon="12.72456390701754"><ele>107.75</ele><time>2026-05-03T14:08:01.999Z</time></trkpt><trkpt lat="43.79073837676223" lon="12.724588360626788"><ele>110.0</ele><time>2026-05-03T14:08:02.999Z</time></trkpt><trkpt lat="43.79087130856874" lon="12.724576716755426"><ele>111.5</ele><time>2026-05-03T14:08:03.999Z</time></trkpt><trkpt lat="43.7910184751896" lon="12.724543440266139"><ele>113.0</ele><time>2026-05-03T14:08:04.999Z</time></trkpt><trkpt lat="43.79116160872819" lon="12.724517450404798"><ele>114.5</ele><time>2026-05-03T14:08:05.999Z</time></trkpt><trkpt lat="43.791276485311144" lon="12.724489454358343"><ele>116.0</ele><time>2026-05-03T14:08:06.999Z</time></trkpt><trkpt lat="43.79140414569388" lon="12.724455635510703"><ele>116.0</ele><time>2026-05-03T14:08:08Z</time></trkpt><trkpt lat="43.791511586857055" lon="12.724430841815522"><ele>116.0</ele><time>2026-05-03T14:08:09Z</time></trkpt><trkpt lat="43.7915872879235" lon="12.724465128242375"><ele>116.0</ele><time>2026-05-03T14:08:10Z</time></trkpt><trkpt lat="43.791655751695345" lon="12.724571063318619"><ele>116.0</ele><time>2026-05-03T14:08:12Z</time></trkpt><trkpt lat="43.79170240326708" lon="12.724679115538494"><ele>116.0</ele><time>2026-05-03T14:08:13Z</time></trkpt><trkpt lat="43.79178455415647" lon="12.724822672561622"><ele>116.6</ele><time>2026-05-03T14:08:14Z</time></trkpt><trkpt lat="43.791850081234266" lon="12.724960303247938"><ele>117.19999999999999</ele><time>2026-05-03T14:08:15Z</time></trkpt><trkpt lat="43.79191827566288" lon="12.725055981143305"><ele>117.80000000000001</ele><time>2026-05-03T14:08:16Z</time></trkpt><trkpt lat="43.79200539417715" lon="12.725130644291514"><ele>118.4</ele><time>2026-05-03T14:08:17Z</time></trkpt><trkpt lat="43.79210918545718" lon="12.725180779170788"><ele>119.0</ele><time>2026-05-03T14:08:18Z</time></trkpt><trkpt lat="43.79221241380812" lon="12.725223272653412"><ele>122.16666666666666</ele><time>2026-05-03T14:08:19Z</time></trkpt><trkpt lat="43.79227899827132" lon="12.72525626462199"><ele>125.33333333333333</ele><time>2026-05-03T14:08:20Z</time></trkpt><trkpt lat="43.79235117618138" lon="12.725301742145046"><ele>128.5</ele><time>2026-05-03T14:08:23Z</time></trkpt><trkpt lat="43.79246159742664" lon="12.72530563380459"><ele>131.66666666666666</ele><time>2026-05-03T14:08:25Z</time></trkpt><trkpt lat="43.79253987268427" lon="12.725312875948763"><ele>134.83333333333334</ele><time>2026-05-03T14:08:26Z</time></trkpt><trkpt lat="43.79263409774282" lon="12.725322921958279"><ele>138.0</ele><time>2026-05-03T14:08:27Z</time></trkpt><trkpt lat="43.792712297867425" lon="12.725322795970206"><ele>139.0</ele><time>2026-05-03T14:08:28Z</time></trkpt><trkpt lat="43.79279140848984" lon="12.725365614860417"><ele>140.0</ele><time>2026-05-03T14:08:29Z</time></trkpt><trkpt lat="43.7928891968449" lon="12.725401355984696"><ele>141.0</ele><time>2026-05-03T14:08:30Z</time></trkpt><trkpt lat="43.792970628180086" lon="12.725407845329961"><ele>142.0</ele><time>2026-05-03T14:08:31Z</time></trkpt><trkpt lat="43.793068589199535" lon="12.725456588771145"><ele>143.0</ele><time>2026-05-03T14:08:32Z</time></trkpt><trkpt lat="43.793188883640624" lon="12.725485186742691"><ele>143.0</ele><time>2026-05-03T14:08:33Z</time></trkpt><trkpt lat="43.79328697694128" lon="12.725508018451052"><ele>143.0</ele><time>2026-05-03T14:08:34Z</time></trkpt><trkpt lat="43.79338112860678" lon="12.725531526164893"><ele>143.0</ele><time>2026-05-03T14:08:35Z</time></trkpt><trkpt lat="43.79346132001044" lon="12.725552270636129"><ele>143.0</ele><time>2026-05-03T14:08:36Z</time></trkpt><trkpt lat="43.793546406286836" lon="12.725575225725693"><ele>143.0</ele><time>2026-05-03T14:08:37Z</time></trkpt><trkpt lat="43.79364030059488" lon="12.725605991119437"><ele>143.5</ele><time>2026-05-03T14:08:38Z</time></trkpt><trkpt lat="43.79373382218857" lon="12.725653810712325"><ele>144.0</ele><time>2026-05-03T14:08:39Z</time></trkpt><trkpt lat="43.79379508686444" lon="12.72571361861077"><ele>144.5</ele><time>2026-05-03T14:08:40Z</time></trkpt><trkpt lat="43.793870366791005" lon="12.725812768920196"><ele>145.0</ele><time>2026-05-03T14:08:42Z</time></trkpt><trkpt lat="43.79388210665722" lon="12.72591287679833"><ele>145.5</ele><time>2026-05-03T14:08:46Z</time></trkpt><trkpt lat="43.79390065141443" lon="12.726017159885599"><ele>146.0</ele><time>2026-05-03T14:09:11.001Z</time></trkpt><trkpt lat="43.793933764423095" lon="12.726181397986743"><ele>146.0</ele><time>2026-05-03T14:09:13.001Z</time></trkpt><trkpt lat="43.793958243149014" lon="12.726286250683302"><ele>146.0</ele><time>2026-05-03T14:09:14.001Z</time></trkpt><trkpt lat="43.793966763128324" lon="12.72641319792503"><ele>146.0</ele><time>2026-05-03T14:09:15.001Z</time></trkpt><trkpt lat="43.7939871861379" lon="12.726554001631"><ele>146.0</ele><time>2026-05-03T14:09:16.001Z</time></trkpt><trkpt lat="43.79400936600102" lon="12.726700979350193"><ele>146.0</ele><time>2026-05-03T14:09:17.001Z</time></trkpt><trkpt lat="43.79403625900251" lon="12.726828281017593"><ele>148.6</ele><time>2026-05-03T14:09:18.001Z</time></trkpt><trkpt lat="43.79406682934205" lon="12.726928897828556"><ele>151.2</ele><time>2026-05-03T14:09:19.001Z</time></trkpt><trkpt lat="43.79410408919216" lon="12.727048528321083"><ele>153.8</ele><time>2026-05-03T14:09:20.001Z</time></trkpt><trkpt lat="43.79414169908577" lon="12.727174218196932"><ele>156.4</ele><time>2026-05-03T14:09:21.001Z</time></trkpt><trkpt lat="43.79419036528818" lon="12.727303992960051"><ele>159.0</ele><time>2026-05-03T14:09:22.001Z</time></trkpt><trkpt lat="43.79424975550466" lon="12.727408104868891"><ele>159.0</ele><time>2026-05-03T14:09:23.001Z</time></trkpt><trkpt lat="43.79430741048769" lon="12.727544339329285"><ele>159.0</ele><time>2026-05-03T14:09:25.001Z</time></trkpt><trkpt lat="43.79429344998308" lon="12.727679621817794"><ele>159.0</ele><time>2026-05-03T14:09:28.001Z</time></trkpt><trkpt lat="43.79429344998285" lon="12.727881492531356"><ele>159.0</ele><time>2026-05-03T14:09:30.001Z</time></trkpt><trkpt lat="43.794392002673305" lon="12.727999210856405"><ele>157.8</ele><time>2026-05-03T14:09:31.001Z</time></trkpt><trkpt lat="43.7944022826187" lon="12.728124258324259"><ele>156.60000000000002</ele><time>2026-05-03T14:09:32.001Z</time></trkpt><trkpt lat="43.79441624168891" lon="12.728268492655449"><ele>155.4</ele><time>2026-05-03T14:09:33.001Z</time></trkpt><trkpt lat="43.79442354250538" lon="12.728389985019822"><ele>154.20000000000002</ele><time>2026-05-03T14:09:34.001Z</time></trkpt><trkpt lat="43.79444080108548" lon="12.7285034003748"><ele>153.0</ele><time>2026-05-03T14:09:35.001Z</time></trkpt><trkpt lat="43.79447426208719" lon="12.72861970743598"><ele>156.0</ele><time>2026-05-03T14:09:36.001Z</time></trkpt><trkpt lat="43.79450502159004" lon="12.728712167160852"><ele>159.0</ele><time>2026-05-03T14:09:37.001Z</time></trkpt><trkpt lat="43.794539924522304" lon="12.728799899776229"><ele>162.0</ele><time>2026-05-03T14:09:38.001Z</time></trkpt><trkpt lat="43.7946046590284" lon="12.72889361705009"><ele>165.0</ele><time>2026-05-03T14:09:40.001Z</time></trkpt><trkpt lat="43.79466825736518" lon="12.728937766905009"><ele>168.0</ele><time>2026-05-03T14:09:41.001Z</time></trkpt><trkpt lat="43.7947438727287" lon="12.728946926129504"><ele>171.0</ele><time>2026-05-03T14:09:42.001Z</time></trkpt><trkpt lat="43.79483696170868" lon="12.728940737796847"><ele>171.0</ele><time>2026-05-03T14:09:43.001Z</time></trkpt><trkpt lat="43.79493641456618" lon="12.728923210338007"><ele>171.0</ele><time>2026-05-03T14:09:44.001Z</time></trkpt><trkpt lat="43.79502422202154" lon="12.728918906855474"><ele>171.0</ele><time>2026-05-03T14:09:45.001Z</time></trkpt><trkpt lat="43.79511116535045" lon="12.728935161363083"><ele>171.0</ele><time>2026-05-03T14:09:46.001Z</time></trkpt><trkpt lat="43.79519492716155" lon="12.72892068482266"><ele>171.0</ele><time>2026-05-03T14:09:47.001Z</time></trkpt><trkpt lat="43.7952830633215" lon="12.72889796467543"><ele>171.20000000000002</ele><time>2026-05-03T14:09:48.001Z</time></trkpt><trkpt lat="43.79541225595459" lon="12.728888840729926"><ele>171.4</ele><time>2026-05-03T14:09:49.001Z</time></trkpt><trkpt lat="43.79551235697095" lon="12.72888399365709"><ele>171.6</ele><time>2026-05-03T14:09:50.001Z</time></trkpt><trkpt lat="43.795590844903394" lon="12.728875808899296"><ele>171.8</ele><time>2026-05-03T14:09:51.001Z</time></trkpt><trkpt lat="43.795663297973924" lon="12.72889628136838"><ele>172.0</ele><time>2026-05-03T14:09:52.001Z</time></trkpt><trkpt lat="43.79575879904164" lon="12.728926323190743"><ele>172.0</ele><time>2026-05-03T14:09:53.001Z</time></trkpt><trkpt lat="43.79585502443753" lon="12.728935852861248"><ele>172.0</ele><time>2026-05-03T14:09:54.001Z</time></trkpt><trkpt lat="43.79593353500657" lon="12.728949290868366"><ele>172.0</ele><time>2026-05-03T14:09:55.001Z</time></trkpt><trkpt lat="43.79603320220784" lon="12.728980933030325"><ele>172.0</ele><time>2026-05-03T14:09:56.001Z</time></trkpt><trkpt lat="43.796152178688274" lon="12.729036942814835"><ele>172.0</ele><time>2026-05-03T14:09:57.001Z</time></trkpt><trkpt lat="43.79627799872067" lon="12.729103070787513"><ele>172.2</ele><time>2026-05-03T14:09:58.002Z</time></trkpt><trkpt lat="43.79638447943802" lon="12.729154866143974"><ele>172.39999999999998</ele><time>2026-05-03T14:09:59.002Z</time></trkpt><trkpt lat="43.79650001104" lon="12.729218185682669"><ele>172.60000000000002</ele><time>2026-05-03T14:10:00Z</time></trkpt><trkpt lat="43.796603535196375" lon="12.729280081184426"><ele>172.8</ele><time>2026-05-03T14:10:01Z</time></trkpt><trkpt lat="43.796682575371335" lon="12.729322507017375"><ele>173.0</ele><time>2026-05-03T14:10:02Z</time></trkpt><trkpt lat="43.79678365911685" lon="12.729347223035795"><ele>174.5</ele><time>2026-05-03T14:10:04Z</time></trkpt><trkpt lat="43.79688590573861" lon="12.729237653092031"><ele>176.0</ele><time>2026-05-03T14:10:06Z</time></trkpt><trkpt lat="43.79692970466841" lon="12.729146645749172"><ele>177.5</ele><time>2026-05-03T14:10:07Z</time></trkpt><trkpt lat="43.79695803420968" lon="12.729064877854613"><ele>179.0</ele><time>2026-05-03T14:10:08Z</time></trkpt><trkpt lat="43.79700537051341" lon="12.728990826464962"><ele>180.5</ele><time>2026-05-03T14:10:09Z</time></trkpt><trkpt lat="43.797059525813594" lon="12.728940183272975"><ele>182.0</ele><time>2026-05-03T14:10:10Z</time></trkpt><trkpt lat="43.797130726479445" lon="12.728913599589704"><ele>182.0</ele><time>2026-05-03T14:10:11Z</time></trkpt><trkpt lat="43.79722729994147" lon="12.728873790844654"><ele>182.0</ele><time>2026-05-03T14:10:12Z</time></trkpt><trkpt lat="43.79729898190032" lon="12.7288131850399"><ele>182.0</ele><time>2026-05-03T14:10:13Z</time></trkpt><trkpt lat="43.797347363967575" lon="12.728757106220886"><ele>182.0</ele><time>2026-05-03T14:10:14Z</time></trkpt><trkpt lat="43.797424530428835" lon="12.728707318819309"><ele>182.0</ele><time>2026-05-03T14:10:15Z</time></trkpt><trkpt lat="43.797515535732416" lon="12.72865790086278"><ele>182.0</ele><time>2026-05-03T14:10:16Z</time></trkpt><trkpt lat="43.7975934837279" lon="12.728639055891623"><ele>180.8</ele><time>2026-05-03T14:10:17Z</time></trkpt><trkpt lat="43.79767559101044" lon="12.728613522839597"><ele>179.6</ele><time>2026-05-03T14:10:18Z</time></trkpt><trkpt lat="43.79774592118855" lon="12.72854471053054"><ele>178.4</ele><time>2026-05-03T14:10:20Z</time></trkpt><trkpt lat="43.7978153368828" lon="12.728396442807279"><ele>177.20000000000002</ele><time>2026-05-03T14:10:22Z</time></trkpt><trkpt lat="43.797921336882354" lon="12.728315637849791"><ele>176.0</ele><time>2026-05-03T14:10:24Z</time></trkpt><trkpt lat="43.797992955838545" lon="12.728271393672296"><ele>175.0</ele><time>2026-05-03T14:10:25Z</time></trkpt><trkpt lat="43.79808350788034" lon="12.728210668123191"><ele>174.0</ele><time>2026-05-03T14:10:26Z</time></trkpt><trkpt lat="43.79816610066981" lon="12.72815716367101"><ele>173.0</ele><time>2026-05-03T14:10:27Z</time></trkpt><trkpt lat="43.7982465998605" lon="12.728113614165867"><ele>172.0</ele><time>2026-05-03T14:10:29Z</time></trkpt><trkpt lat="43.798288046209706" lon="12.728182781068794"><ele>171.0</ele><time>2026-05-03T14:10:31Z</time></trkpt><trkpt lat="43.798273526816175" lon="12.728287872123085"><ele>170.0</ele><time>2026-05-03T14:10:33Z</time></trkpt><trkpt lat="43.79822142158639" lon="12.72842131279527"><ele>170.0</ele><time>2026-05-03T14:10:35Z</time></trkpt><trkpt lat="43.79819908930076" lon="12.728516530949896"><ele>170.0</ele><time>2026-05-03T14:10:36Z</time></trkpt><trkpt lat="43.798174832160086" lon="12.72860966714084"><ele>170.0</ele><time>2026-05-03T14:10:37Z</time></trkpt><trkpt lat="43.79814953786717" lon="12.728700833232798"><ele>170.0</ele><time>2026-05-03T14:10:38Z</time></trkpt><trkpt lat="43.798072836736026" lon="12.728817641376565"><ele>170.0</ele><time>2026-05-03T14:10:40Z</time></trkpt><trkpt lat="43.798003066732775" lon="12.728899752934893"><ele>170.0</ele><time>2026-05-03T14:10:41Z</time></trkpt><trkpt lat="43.79794278607553" lon="12.7289610716085"><ele>171.2</ele><time>2026-05-03T14:10:42Z</time></trkpt><trkpt lat="43.79786118101803" lon="12.729116037238498"><ele>172.4</ele><time>2026-05-03T14:10:44Z</time></trkpt><trkpt lat="43.79780726534288" lon="12.729213996512556"><ele>173.60000000000002</ele><time>2026-05-03T14:10:45Z</time></trkpt><trkpt lat="43.7977486101005" lon="12.729289236862883"><ele>174.8</ele><time>2026-05-03T14:10:46.001Z</time></trkpt><trkpt lat="43.79766993032682" lon="12.729366325575265"><ele>176.0</ele><time>2026-05-03T14:10:47.001Z</time></trkpt><trkpt lat="43.79761803665351" lon="12.729431895673601"><ele>180.20000000000002</ele><time>2026-05-03T14:10:48.001Z</time></trkpt><trkpt lat="43.79755573655488" lon="12.729572003475127"><ele>184.4</ele><time>2026-05-03T14:10:50.001Z</time></trkpt><trkpt lat="43.797516508481756" lon="12.72965924375561"><ele>188.6</ele><time>2026-05-03T14:10:51.001Z</time></trkpt><trkpt lat="43.79746225870553" lon="12.729742293091578"><ele>192.8</ele><time>2026-05-03T14:10:52.001Z</time></trkpt><trkpt lat="43.797401429215085" lon="12.72983054639451"><ele>197.0</ele><time>2026-05-03T14:10:53.001Z</time></trkpt><trkpt lat="43.79733968264064" lon="12.7299297524419"><ele>197.0</ele><time>2026-05-03T14:10:54.001Z</time></trkpt><trkpt lat="43.797298411884306" lon="12.730007222440827"><ele>197.0</ele><time>2026-05-03T14:10:55.001Z</time></trkpt><trkpt lat="43.79727895029579" lon="12.730167899232846"><ele>197.0</ele><time>2026-05-03T14:10:57.001Z</time></trkpt><trkpt lat="43.797287809199254" lon="12.730271760282864"><ele>197.0</ele><time>2026-05-03T14:10:58.001Z</time></trkpt><trkpt lat="43.7972990106149" lon="12.73043915725446"><ele>197.0</ele><time>2026-05-03T14:11:00.001Z</time></trkpt><trkpt lat="43.79729774220554" lon="12.730542319850006"><ele>198.66666666666669</ele><time>2026-05-03T14:11:01.001Z</time></trkpt><trkpt lat="43.79729044600854" lon="12.730657121877396"><ele>200.33333333333334</ele><time>2026-05-03T14:11:02.001Z</time></trkpt><trkpt lat="43.79727946290444" lon="12.73076931883652"><ele>202.0</ele><time>2026-05-03T14:11:03.001Z</time></trkpt><trkpt lat="43.797255373356386" lon="12.730884403781692"><ele>203.66666666666669</ele><time>2026-05-03T14:11:04.001Z</time></trkpt><trkpt lat="43.79722974225435" lon="12.73101708435992"><ele>205.33333333333334</ele><time>2026-05-03T14:11:05.001Z</time></trkpt><trkpt lat="43.797206813783724" lon="12.731130508217863"><ele>207.0</ele><time>2026-05-03T14:11:06.001Z</time></trkpt><trkpt lat="43.79719299292697" lon="12.731237833214575"><ele>207.83333333333334</ele><time>2026-05-03T14:11:07.001Z</time></trkpt><trkpt lat="43.797175750268174" lon="12.731339844824856"><ele>208.66666666666669</ele><time>2026-05-03T14:11:08.001Z</time></trkpt><trkpt lat="43.79715464883322" lon="12.73142516098055"><ele>209.5</ele><time>2026-05-03T14:11:09.001Z</time></trkpt><trkpt lat="43.79713011185865" lon="12.73151563750512"><ele>210.33333333333334</ele><time>2026-05-03T14:11:10.001Z</time></trkpt><trkpt lat="43.797102988825145" lon="12.731636278830317"><ele>211.16666666666669</ele><time>2026-05-03T14:11:12.001Z</time></trkpt><trkpt lat="43.79707683397714" lon="12.73178198120205"><ele>212.0</ele><time>2026-05-03T14:11:14.001Z</time></trkpt><trkpt lat="43.7970266740228" lon="12.731937416278326"><ele>212.00000000000003</ele><time>2026-05-03T14:11:16.001Z</time></trkpt><trkpt lat="43.79699330443473" lon="12.732015945654704"><ele>212.0</ele><time>2026-05-03T14:11:19.001Z</time></trkpt><trkpt lat="43.797024621243466" lon="12.731928752986294"><ele>212.0</ele><time>2026-05-03T14:12:44Z</time></trkpt><trkpt lat="43.79706453682995" lon="12.73183521702125"><ele>212.0</ele><time>2026-05-03T14:12:48Z</time></trkpt><trkpt lat="43.797089592083566" lon="12.731735379390724"><ele>212.00000000000003</ele><time>2026-05-03T14:12:50Z</time></trkpt><trkpt lat="43.797121465475605" lon="12.731622545024875"><ele>212.0</ele><time>2026-05-03T14:12:53.001Z</time></trkpt><trkpt lat="43.7971411162831" lon="12.731506088314308"><ele>212.0</ele><time>2026-05-03T14:12:56.001Z</time></trkpt><trkpt lat="43.79717294572499" lon="12.731384999647792"><ele>212.0</ele><time>2026-05-03T14:12:59.001Z</time></trkpt><trkpt lat="43.79719994240014" lon="12.731261425847483"><ele>212.0</ele><time>2026-05-03T14:13:02.001Z</time></trkpt><trkpt lat="43.79722124325773" lon="12.731145429701115"><ele>212.0</ele><time>2026-05-03T14:13:04.001Z</time></trkpt><trkpt lat="43.79724209480272" lon="12.730998513424858"><ele>212.0</ele><time>2026-05-03T14:13:06.001Z</time></trkpt><trkpt lat="43.797268443705825" lon="12.730851254071995"><ele>211.0</ele><time>2026-05-03T14:13:08.001Z</time></trkpt><trkpt lat="43.79729465234866" lon="12.73070654769837"><ele>210.0</ele><time>2026-05-03T14:13:10.001Z</time></trkpt><trkpt lat="43.79730013209903" lon="12.730616391979488"><ele>209.0</ele><time>2026-05-03T14:13:11.001Z</time></trkpt><trkpt lat="43.797303129571716" lon="12.730472503549327"><ele>208.0</ele><time>2026-05-03T14:13:13.001Z</time></trkpt><trkpt lat="43.79730212631007" lon="12.730336497717458"><ele>207.0</ele><time>2026-05-03T14:13:15.001Z</time></trkpt><trkpt lat="43.797297318592726" lon="12.730208141532152"><ele>205.33333333333334</ele><time>2026-05-03T14:13:17.001Z</time></trkpt><trkpt lat="43.79729218931255" lon="12.730100398105032"><ele>203.66666666666669</ele><time>2026-05-03T14:13:19.001Z</time></trkpt><trkpt lat="43.797306790302926" lon="12.730004840071365"><ele>202.0</ele><time>2026-05-03T14:13:21.001Z</time></trkpt><trkpt lat="43.79735040989003" lon="12.729905679792731"><ele>200.33333333333334</ele><time>2026-05-03T14:13:23.001Z</time></trkpt><trkpt lat="43.79741561249835" lon="12.729805439828894"><ele>198.66666666666669</ele><time>2026-05-03T14:13:25.001Z</time></trkpt><trkpt lat="43.797489231692616" lon="12.72969316592721"><ele>197.0</ele><time>2026-05-03T14:13:27.001Z</time></trkpt><trkpt lat="43.79755429163104" lon="12.729584610184613"><ele>197.0</ele><time>2026-05-03T14:13:29.001Z</time></trkpt><trkpt lat="43.797600584362115" lon="12.729473165002728"><ele>197.0</ele><time>2026-05-03T14:13:31.001Z</time></trkpt><trkpt lat="43.79765931327366" lon="12.729373807201862"><ele>197.0</ele><time>2026-05-03T14:13:33.001Z</time></trkpt><trkpt lat="43.797738134102254" lon="12.729280919355842"><ele>197.0</ele><time>2026-05-03T14:13:35.001Z</time></trkpt><trkpt lat="43.79782382656121" lon="12.729181630180683"><ele>197.0</ele><time>2026-05-03T14:13:37.001Z</time></trkpt><trkpt lat="43.79790224121382" lon="12.729058041578641"><ele>192.8</ele><time>2026-05-03T14:13:39.001Z</time></trkpt><trkpt lat="43.797961388643245" lon="12.728943495094343"><ele>188.6</ele><time>2026-05-03T14:13:41.001Z</time></trkpt><trkpt lat="43.7980357102943" lon="12.728851426133076"><ele>184.4</ele><time>2026-05-03T14:13:43.001Z</time></trkpt><trkpt lat="43.79810932504287" lon="12.728769398900292"><ele>180.20000000000002</ele><time>2026-05-03T14:13:45.001Z</time></trkpt><trkpt lat="43.798165435706004" lon="12.728657969611415"><ele>176.0</ele><time>2026-05-03T14:13:47.001Z</time></trkpt><trkpt lat="43.79819787076861" lon="12.728534925716197"><ele>175.0</ele><time>2026-05-03T14:13:49.001Z</time></trkpt><trkpt lat="43.79821956284023" lon="12.728440562731615"><ele>174.0</ele><time>2026-05-03T14:13:50.001Z</time></trkpt><trkpt lat="43.79823985760709" lon="12.728344625550795"><ele>173.0</ele><time>2026-05-03T14:13:51.001Z</time></trkpt><trkpt lat="43.79827209240967" lon="12.728240022859545"><ele>172.0</ele><time>2026-05-03T14:13:53.001Z</time></trkpt><trkpt lat="43.798276011120585" lon="12.728143336854673"><ele>171.0</ele><time>2026-05-03T14:13:56.001Z</time></trkpt><trkpt lat="43.79818863816375" lon="12.728126969984796"><ele>170.0</ele><time>2026-05-03T14:13:59.001Z</time></trkpt><trkpt lat="43.79811864117363" lon="12.728164950229962"><ele>170.0</ele><time>2026-05-03T14:14:01.001Z</time></trkpt><trkpt lat="43.79799676116649" lon="12.728261682082476"><ele>170.0</ele><time>2026-05-03T14:14:03.002Z</time></trkpt><trkpt lat="43.79792323225817" lon="12.72831289337841"><ele>170.0</ele><time>2026-05-03T14:14:04.002Z</time></trkpt><trkpt lat="43.797859978890905" lon="12.72835193752666"><ele>170.0</ele><time>2026-05-03T14:14:05.002Z</time></trkpt><trkpt lat="43.79777252315462" lon="12.728438980358142"><ele>170.0</ele><time>2026-05-03T14:14:07.002Z</time></trkpt><trkpt lat="43.79774156740226" lon="12.728520818063872"><ele>171.2</ele><time>2026-05-03T14:14:08.002Z</time></trkpt><trkpt lat="43.79767015929347" lon="12.728630016646491"><ele>172.4</ele><time>2026-05-03T14:14:10.002Z</time></trkpt><trkpt lat="43.79758939873903" lon="12.728665249275142"><ele>173.60000000000002</ele><time>2026-05-03T14:14:12Z</time></trkpt><trkpt lat="43.797461352213546" lon="12.728702660642607"><ele>174.8</ele><time>2026-05-03T14:14:14Z</time></trkpt><trkpt lat="43.79739578989509" lon="12.728735576848134"><ele>176.0</ele><time>2026-05-03T14:14:15Z</time></trkpt><trkpt lat="43.797331037174175" lon="12.728777142924429"><ele>177.0</ele><time>2026-05-03T14:14:16Z</time></trkpt><trkpt lat="43.79727311178201" lon="12.728814607300881"><ele>178.0</ele><time>2026-05-03T14:14:17Z</time></trkpt><trkpt lat="43.79719470135189" lon="12.728876747629291"><ele>179.0</ele><time>2026-05-03T14:14:18Z</time></trkpt><trkpt lat="43.797117629583084" lon="12.728932511236279"><ele>180.0</ele><time>2026-05-03T14:14:19Z</time></trkpt><trkpt lat="43.79705482925963" lon="12.728961133065678"><ele>181.0</ele><time>2026-05-03T14:14:20Z</time></trkpt><trkpt lat="43.79698955628177" lon="12.728998828878172"><ele>182.0</ele><time>2026-05-03T14:14:21Z</time></trkpt><trkpt lat="43.79690497000487" lon="12.729142837622067"><ele>182.0</ele><time>2026-05-03T14:14:23Z</time></trkpt><trkpt lat="43.796858206833136" lon="12.729260264117178"><ele>182.0</ele><time>2026-05-03T14:14:24Z</time></trkpt><trkpt lat="43.7968176942046" lon="12.729329689016742"><ele>182.0</ele><time>2026-05-03T14:14:25Z</time></trkpt><trkpt lat="43.79675488115868" lon="12.729341012218672"><ele>182.0</ele><time>2026-05-03T14:14:26Z</time></trkpt><trkpt lat="43.79667655971745" lon="12.72931733006048"><ele>182.0</ele><time>2026-05-03T14:14:27Z</time></trkpt><trkpt lat="43.79659339492054" lon="12.729267664307606"><ele>182.0</ele><time>2026-05-03T14:14:28Z</time></trkpt><trkpt lat="43.79646931739346" lon="12.729181208005432"><ele>179.75</ele><time>2026-05-03T14:14:29Z</time></trkpt><trkpt lat="43.79632964701756" lon="12.729099342699273"><ele>177.5</ele><time>2026-05-03T14:14:30Z</time></trkpt><trkpt lat="43.796217693775695" lon="12.729045707953876"><ele>175.25</ele><time>2026-05-03T14:14:31Z</time></trkpt><trkpt lat="43.796124471168795" lon="12.729014217614932"><ele>173.0</ele><time>2026-05-03T14:14:32Z</time></trkpt><trkpt lat="43.79602924161003" lon="12.728976124675386"><ele>172.8</ele><time>2026-05-03T14:14:33Z</time></trkpt><trkpt lat="43.79593670923416" lon="12.728942899828635"><ele>172.60000000000002</ele><time>2026-05-03T14:14:34Z</time></trkpt><trkpt lat="43.79585460442519" lon="12.728932654087489"><ele>172.39999999999998</ele><time>2026-05-03T14:14:35Z</time></trkpt><trkpt lat="43.79575232341583" lon="12.728919620305534"><ele>172.2</ele><time>2026-05-03T14:14:36Z</time></trkpt><trkpt lat="43.79565479063895" lon="12.728914824532785"><ele>172.0</ele><time>2026-05-03T14:14:37Z</time></trkpt><trkpt lat="43.79557335463877" lon="12.728899653093347"><ele>172.0</ele><time>2026-05-03T14:14:38Z</time></trkpt><trkpt lat="43.7955040416944" lon="12.728881690478017"><ele>172.0</ele><time>2026-05-03T14:14:39Z</time></trkpt><trkpt lat="43.79541562839551" lon="12.72889575198661"><ele>172.0</ele><time>2026-05-03T14:14:40Z</time></trkpt><trkpt lat="43.79529877736751" lon="12.728901460566703"><ele>172.0</ele><time>2026-05-03T14:14:41Z</time></trkpt><trkpt lat="43.795174251420626" lon="12.728908642771174"><ele>172.0</ele><time>2026-05-03T14:14:42Z</time></trkpt><trkpt lat="43.79508930967462" lon="12.72893413880182"><ele>171.83333333333334</ele><time>2026-05-03T14:14:43.001Z</time></trkpt><trkpt lat="43.79500904254218" lon="12.728940687120375"><ele>171.66666666666669</ele><time>2026-05-03T14:14:44.001Z</time></trkpt><trkpt lat="43.794936040107075" lon="12.728912973005247"><ele>171.5</ele><time>2026-05-03T14:14:45.001Z</time></trkpt><trkpt lat="43.79484049655238" lon="12.728911992845392"><ele>171.33333333333334</ele><time>2026-05-03T14:14:46.001Z</time></trkpt><trkpt lat="43.79475484634333" lon="12.72891696740081"><ele>171.16666666666666</ele><time>2026-05-03T14:14:47.001Z</time></trkpt><trkpt lat="43.794677955408226" lon="12.728922493738155"><ele>171.0</ele><time>2026-05-03T14:14:48.001Z</time></trkpt><trkpt lat="43.7946163709866" lon="12.7288994898962"><ele>171.0</ele><time>2026-05-03T14:14:49.001Z</time></trkpt><trkpt lat="43.794562631961966" lon="12.728852513400632"><ele>171.0</ele><time>2026-05-03T14:14:50.001Z</time></trkpt><trkpt lat="43.794497410467464" lon="12.72870366426321"><ele>171.0</ele><time>2026-05-03T14:14:52.001Z</time></trkpt><trkpt lat="43.79446631314154" lon="12.728599451543872"><ele>171.0</ele><time>2026-05-03T14:14:53.001Z</time></trkpt><trkpt lat="43.794441294543205" lon="12.728496281665297"><ele>171.0</ele><time>2026-05-03T14:14:54.001Z</time></trkpt><trkpt lat="43.7944184172971" lon="12.728379530244096"><ele>171.0</ele><time>2026-05-03T14:14:55.001Z</time></trkpt><trkpt lat="43.79441379392406" lon="12.728246113171258"><ele>169.0</ele><time>2026-05-03T14:14:56.001Z</time></trkpt><trkpt lat="43.79440192914876" lon="12.72809973861435"><ele>167.0</ele><time>2026-05-03T14:14:57.001Z</time></trkpt><trkpt lat="43.79438957142502" lon="12.727974570251366"><ele>165.0</ele><time>2026-05-03T14:14:58.001Z</time></trkpt><trkpt lat="43.79437404164646" lon="12.727863163670287"><ele>163.0</ele><time>2026-05-03T14:14:59.001Z</time></trkpt><trkpt lat="43.79435009580266" lon="12.727778488957547"><ele>161.0</ele><time>2026-05-03T14:15:00.001Z</time></trkpt><trkpt lat="43.794335997787364" lon="12.727685687383927"><ele>159.0</ele><time>2026-05-03T14:15:02.001Z</time></trkpt><trkpt lat="43.79426635286632" lon="12.727654025152667"><ele>159.0</ele><time>2026-05-03T14:15:10.001Z</time></trkpt><trkpt lat="43.794158019426" lon="12.727582293014397"><ele>159.0</ele><time>2026-05-03T14:15:12.001Z</time></trkpt><trkpt lat="43.794097248956874" lon="12.72753444142676"><ele>159.0</ele><time>2026-05-03T14:15:13.001Z</time></trkpt><trkpt lat="43.79397076602395" lon="12.72745811909046"><ele>159.0</ele><time>2026-05-03T14:15:15.001Z</time></trkpt><trkpt lat="43.79390429960707" lon="12.72738260270192"><ele>159.0</ele><time>2026-05-03T14:15:16.001Z</time></trkpt><trkpt lat="43.793828270032016" lon="12.727324755056996"><ele>159.0</ele><time>2026-05-03T14:15:17.001Z</time></trkpt><trkpt lat="43.793764650539785" lon="12.727229894066989"><ele>159.0</ele><time>2026-05-03T14:15:18.001Z</time></trkpt><trkpt lat="43.79371191712204" lon="12.727161787301624"><ele>159.0</ele><time>2026-05-03T14:15:19.001Z</time></trkpt><trkpt lat="43.79363132312789" lon="12.72703385810842"><ele>159.0</ele><time>2026-05-03T14:15:21.001Z</time></trkpt><trkpt lat="43.7935270071408" lon="12.726971221163181"><ele>159.0</ele><time>2026-05-03T14:15:23.001Z</time></trkpt><trkpt lat="43.79341860209079" lon="12.726921077394366"><ele>163.4</ele><time>2026-05-03T14:15:25.001Z</time></trkpt><trkpt lat="43.79332362116401" lon="12.726946879558504"><ele>167.8</ele><time>2026-05-03T14:15:27.001Z</time></trkpt><trkpt lat="43.793259447264205" lon="12.726990121504041"><ele>172.20000000000002</ele><time>2026-05-03T14:15:30.001Z</time></trkpt><trkpt lat="43.793352506057936" lon="12.726949566217378"><ele>176.60000000000002</ele><time>2026-05-03T14:15:35.001Z</time></trkpt><trkpt lat="43.79345659241271" lon="12.727120727246653"><ele>181.0</ele><time>2026-05-03T14:15:37.001Z</time></trkpt><trkpt lat="43.793480833617096" lon="12.727217602609283"><ele>181.0</ele><time>2026-05-03T14:15:39.001Z</time></trkpt><trkpt lat="43.793505225939285" lon="12.727332808323595"><ele>181.0</ele><time>2026-05-03T14:15:41.001Z</time></trkpt><trkpt lat="43.79351910447387" lon="12.727481363167577"><ele>181.0</ele><time>2026-05-03T14:15:43.001Z</time></trkpt><trkpt lat="43.793548365316035" lon="12.727636687099901"><ele>181.0</ele><time>2026-05-03T14:15:45.001Z</time></trkpt><trkpt lat="43.79353995816174" lon="12.727794774668737"><ele>181.0</ele><time>2026-05-03T14:15:47.001Z</time></trkpt><trkpt lat="43.793518239669964" lon="12.72795495544801"><ele>182.66666666666669</ele><time>2026-05-03T14:15:49.001Z</time></trkpt><trkpt lat="43.793503010984566" lon="12.72804194647541"><ele>184.33333333333334</ele><time>2026-05-03T14:15:50.001Z</time></trkpt><trkpt lat="43.79347353374882" lon="12.72812803672763"><ele>186.0</ele><time>2026-05-03T14:15:51.001Z</time></trkpt><trkpt lat="43.7934324639553" lon="12.728207812610565"><ele>187.66666666666666</ele><time>2026-05-03T14:15:52.001Z</time></trkpt><trkpt lat="43.79334827992656" lon="12.72831373777812"><ele>189.33333333333331</ele><time>2026-05-03T14:15:54.001Z</time></trkpt><trkpt lat="43.793270831139644" lon="12.728360416703959"><ele>191.0</ele><time>2026-05-03T14:15:56.001Z</time></trkpt><trkpt lat="43.79321761438815" lon="12.728431264031467"><ele>191.0</ele><time>2026-05-03T14:15:59.002Z</time></trkpt><trkpt lat="43.79321716972564" lon="12.72854964964532"><ele>191.0</ele><time>2026-05-03T14:16:02.002Z</time></trkpt><trkpt lat="43.793302289439005" lon="12.72865842053098"><ele>191.0</ele><time>2026-05-03T14:16:04.002Z</time></trkpt><trkpt lat="43.793362125083455" lon="12.72869127840942"><ele>191.0</ele><time>2026-05-03T14:16:05.002Z</time></trkpt><trkpt lat="43.79341958753014" lon="12.728737840063888"><ele>191.0</ele><time>2026-05-03T14:16:06.002Z</time></trkpt><trkpt lat="43.79348757228909" lon="12.728782271919195"><ele>191.0</ele><time>2026-05-03T14:16:07.002Z</time></trkpt><trkpt lat="43.79357485824389" lon="12.72881031847187"><ele>190.16666666666666</ele><time>2026-05-03T14:16:08.002Z</time></trkpt><trkpt lat="43.793659757193026" lon="12.728844824147632"><ele>189.33333333333331</ele><time>2026-05-03T14:16:09.002Z</time></trkpt><trkpt lat="43.793737085141814" lon="12.728898164326065"><ele>188.5</ele><time>2026-05-03T14:16:10.002Z</time></trkpt><trkpt lat="43.7938116730473" lon="12.728963921398385"><ele>187.66666666666666</ele><time>2026-05-03T14:16:11.002Z</time></trkpt><trkpt lat="43.79387270040154" lon="12.729053252618515"><ele>186.83333333333334</ele><time>2026-05-03T14:16:12.002Z</time></trkpt><trkpt lat="43.79393010591838" lon="12.729159664355144"><ele>186.0</ele><time>2026-05-03T14:16:13.002Z</time></trkpt><trkpt lat="43.793982223939516" lon="12.729262097414908"><ele>186.0</ele><time>2026-05-03T14:16:14.002Z</time></trkpt><trkpt lat="43.79401154814599" lon="12.729355803969169"><ele>186.0</ele><time>2026-05-03T14:16:15.002Z</time></trkpt><trkpt lat="43.79403808522482" lon="12.729455985125876"><ele>186.0</ele><time>2026-05-03T14:16:16.002Z</time></trkpt><trkpt lat="43.79412369409854" lon="12.729578008270467"><ele>186.0</ele><time>2026-05-03T14:16:18Z</time></trkpt><trkpt lat="43.794211788635046" lon="12.72965641481654"><ele>186.0</ele><time>2026-05-03T14:16:19Z</time></trkpt><trkpt lat="43.79430076575946" lon="12.729741537549243"><ele>187.60000000000002</ele><time>2026-05-03T14:16:20Z</time></trkpt><trkpt lat="43.794376287014224" lon="12.729813430294111"><ele>189.2</ele><time>2026-05-03T14:16:21Z</time></trkpt><trkpt lat="43.79446042505986" lon="12.729880519103643"><ele>190.8</ele><time>2026-05-03T14:16:22Z</time></trkpt><trkpt lat="43.79454458448764" lon="12.72994297778767"><ele>192.39999999999998</ele><time>2026-05-03T14:16:23Z</time></trkpt><trkpt lat="43.79461746525568" lon="12.730003613612125"><ele>194.0</ele><time>2026-05-03T14:16:24Z</time></trkpt><trkpt lat="43.79469694457088" lon="12.730065793367702"><ele>194.00000000000003</ele><time>2026-05-03T14:16:25Z</time></trkpt><trkpt lat="43.79478340082484" lon="12.730112116129026"><ele>194.0</ele><time>2026-05-03T14:16:26Z</time></trkpt><trkpt lat="43.79486593722959" lon="12.730136105243561"><ele>194.0</ele><time>2026-05-03T14:16:27Z</time></trkpt><trkpt lat="43.794950122997584" lon="12.730211687999818"><ele>194.0</ele><time>2026-05-03T14:16:28Z</time></trkpt><trkpt lat="43.79502271696242" lon="12.730248990765228"><ele>194.00000000000003</ele><time>2026-05-03T14:16:29Z</time></trkpt><trkpt lat="43.79510095368533" lon="12.730291906881629"><ele>194.0</ele><time>2026-05-03T14:16:30Z</time></trkpt><trkpt lat="43.79518058078352" lon="12.730371225490345"><ele>198.50000000000003</ele><time>2026-05-03T14:16:31Z</time></trkpt><trkpt lat="43.795250998427115" lon="12.730429675241357"><ele>203.0</ele><time>2026-05-03T14:16:32Z</time></trkpt><trkpt lat="43.795300189926735" lon="12.730488854938862"><ele>207.5</ele><time>2026-05-03T14:16:33Z</time></trkpt><trkpt lat="43.79538608041887" lon="12.730612500131231"><ele>212.0</ele><time>2026-05-03T14:16:35Z</time></trkpt><trkpt lat="43.795435798577024" lon="12.730708308330277"><ele>216.50000000000003</ele><time>2026-05-03T14:16:36Z</time></trkpt><trkpt lat="43.7954960964944" lon="12.730764556697755"><ele>221.0</ele><time>2026-05-03T14:16:37Z</time></trkpt><trkpt lat="43.79555831790055" lon="12.730832924267498"><ele>221.0</ele><time>2026-05-03T14:16:38Z</time></trkpt><trkpt lat="43.79561886438921" lon="12.73090521770645"><ele>221.00000000000003</ele><time>2026-05-03T14:16:39Z</time></trkpt><trkpt lat="43.79563137504875" lon="12.731074658733455"><ele>221.00000000000003</ele><time>2026-05-03T14:16:41Z</time></trkpt><trkpt lat="43.79567010584077" lon="12.73117999461736"><ele>221.0</ele><time>2026-05-03T14:16:42Z</time></trkpt><trkpt lat="43.795696062091004" lon="12.73129520000773"><ele>221.0</ele><time>2026-05-03T14:16:43Z</time></trkpt><trkpt lat="43.795740407997506" lon="12.73140370196104"><ele>220.4</ele><time>2026-05-03T14:16:44Z</time></trkpt><trkpt lat="43.79576145755752" lon="12.731490713778557"><ele>219.8</ele><time>2026-05-03T14:16:45Z</time></trkpt><trkpt lat="43.795781219800624" lon="12.731613383412107"><ele>219.20000000000002</ele><time>2026-05-03T14:16:46Z</time></trkpt><trkpt lat="43.79582820806459" lon="12.73175228097858"><ele>218.60000000000002</ele><time>2026-05-03T14:16:48Z</time></trkpt><trkpt lat="43.795871754098556" lon="12.731819659574056"><ele>218.0</ele><time>2026-05-03T14:16:49Z</time></trkpt><trkpt lat="43.79601012879362" lon="12.731866685126969"><ele>219.4</ele><time>2026-05-03T14:16:51Z</time></trkpt><trkpt lat="43.7961185435188" lon="12.731865962310101"><ele>220.8</ele><time>2026-05-03T14:16:52Z</time></trkpt><trkpt lat="43.7962330011641" lon="12.731841674608106"><ele>222.2</ele><time>2026-05-03T14:16:53Z</time></trkpt><trkpt lat="43.796314393679765" lon="12.731838379250458"><ele>223.6</ele><time>2026-05-03T14:16:54Z</time></trkpt><trkpt lat="43.79638936347747" lon="12.731824591333414"><ele>225.0</ele><time>2026-05-03T14:16:55Z</time></trkpt><trkpt lat="43.79646891319954" lon="12.731786577323625"><ele>225.0</ele><time>2026-05-03T14:16:56Z</time></trkpt><trkpt lat="43.796554058855456" lon="12.731747665794556"><ele>225.0</ele><time>2026-05-03T14:16:57Z</time></trkpt><trkpt lat="43.79666064058844" lon="12.731800698524738"><ele>225.0</ele><time>2026-05-03T14:16:59.001Z</time></trkpt><trkpt lat="43.7967229379529" lon="12.731844835307095"><ele>225.0</ele><time>2026-05-03T14:17:00.001Z</time></trkpt><trkpt lat="43.79677961321191" lon="12.731889851987923"><ele>225.0</ele><time>2026-05-03T14:17:01.001Z</time></trkpt><trkpt lat="43.796871340817376" lon="12.732004762953958"><ele>224.2</ele><time>2026-05-03T14:17:03.001Z</time></trkpt><trkpt lat="43.796919543545144" lon="12.73208559573656"><ele>223.4</ele><time>2026-05-03T14:17:04.001Z</time></trkpt><trkpt lat="43.79696716836822" lon="12.732257718894912"><ele>222.60000000000002</ele><time>2026-05-03T14:17:06.001Z</time></trkpt><trkpt lat="43.79698948847721" lon="12.7323934228654"><ele>221.8</ele><time>2026-05-03T14:17:07.001Z</time></trkpt><trkpt lat="43.79700912017827" lon="12.732535550671072"><ele>221.0</ele><time>2026-05-03T14:17:08.001Z</time></trkpt><trkpt lat="43.79702883834711" lon="12.732664683985266"><ele>224.0</ele><time>2026-05-03T14:17:09.001Z</time></trkpt><trkpt lat="43.79704140792084" lon="12.732769056399144"><ele>227.00000000000003</ele><time>2026-05-03T14:17:10.001Z</time></trkpt><trkpt lat="43.797035580719175" lon="12.732913201561598"><ele>230.00000000000003</ele><time>2026-05-03T14:17:12.001Z</time></trkpt><trkpt lat="43.79696686430114" lon="12.733038917488958"><ele>233.0</ele><time>2026-05-03T14:17:14.001Z</time></trkpt><trkpt lat="43.79691239925532" lon="12.733135789527239"><ele>236.0</ele><time>2026-05-03T14:17:15.001Z</time></trkpt><trkpt lat="43.79686284491533" lon="12.7332279218129"><ele>236.66666666666669</ele><time>2026-05-03T14:17:16.001Z</time></trkpt><trkpt lat="43.796822944815716" lon="12.733321949225779"><ele>237.33333333333334</ele><time>2026-05-03T14:17:17.001Z</time></trkpt><trkpt lat="43.796798490611465" lon="12.733411500918605"><ele>238.0</ele><time>2026-05-03T14:17:18.001Z</time></trkpt><trkpt lat="43.79678412386054" lon="12.733498167370932"><ele>238.66666666666669</ele><time>2026-05-03T14:17:19.001Z</time></trkpt><trkpt lat="43.79677430698957" lon="12.733651222974467"><ele>239.33333333333334</ele><time>2026-05-03T14:17:21.001Z</time></trkpt><trkpt lat="43.79677279263414" lon="12.733744906649289"><ele>240.0</ele><time>2026-05-03T14:17:22.001Z</time></trkpt><trkpt lat="43.796775782650535" lon="12.73386419231414"><ele>240.0</ele><time>2026-05-03T14:17:23.001Z</time></trkpt><trkpt lat="43.79677575020088" lon="12.733974362799335"><ele>240.0</ele><time>2026-05-03T14:17:24.001Z</time></trkpt><trkpt lat="43.79676028959791" lon="12.734062710529724"><ele>240.0</ele><time>2026-05-03T14:17:25.001Z</time></trkpt><trkpt lat="43.79674201794787" lon="12.734156308239342"><ele>240.0</ele><time>2026-05-03T14:17:26.001Z</time></trkpt><trkpt lat="43.796689554062816" lon="12.734326201008319"><ele>240.0</ele><time>2026-05-03T14:17:28.001Z</time></trkpt><trkpt lat="43.79666841866924" lon="12.734417463348946"><ele>240.0</ele><time>2026-05-03T14:17:29.001Z</time></trkpt><trkpt lat="43.796662793931546" lon="12.73453541303597"><ele>242.2</ele><time>2026-05-03T14:17:31.001Z</time></trkpt><trkpt lat="43.796713619483896" lon="12.734612074515164"><ele>244.4</ele><time>2026-05-03T14:17:32.001Z</time></trkpt><trkpt lat="43.79684454727518" lon="12.73460394644298"><ele>246.60000000000002</ele><time>2026-05-03T14:17:34.001Z</time></trkpt><trkpt lat="43.79691140192289" lon="12.734580733914038"><ele>248.8</ele><time>2026-05-03T14:17:35.001Z</time></trkpt><trkpt lat="43.79700724517793" lon="12.73456661819443"><ele>251.0</ele><time>2026-05-03T14:17:36.001Z</time></trkpt><trkpt lat="43.797110568432544" lon="12.73453770819715"><ele>252.33333333333334</ele><time>2026-05-03T14:17:37.001Z</time></trkpt><trkpt lat="43.79719004413439" lon="12.73451921219507"><ele>253.66666666666669</ele><time>2026-05-03T14:17:38.001Z</time></trkpt><trkpt lat="43.79729633770515" lon="12.734479214070758"><ele>255.0</ele><time>2026-05-03T14:17:40.001Z</time></trkpt><trkpt lat="43.79736377557382" lon="12.734470514856103"><ele>256.3333333333333</ele><time>2026-05-03T14:17:42.001Z</time></trkpt><trkpt lat="43.79743375592236" lon="12.734454804830504"><ele>257.66666666666663</ele><time>2026-05-03T14:18:07.001Z</time></trkpt><trkpt lat="43.79749658755314" lon="12.734418153232454"><ele>259.0</ele><time>2026-05-03T14:18:08.001Z</time></trkpt><trkpt lat="43.797567347640715" lon="12.734359325092427"><ele>259.0</ele><time>2026-05-03T14:18:09.001Z</time></trkpt><trkpt lat="43.79763788097005" lon="12.734303920043333"><ele>259.0</ele><time>2026-05-03T14:18:10.001Z</time></trkpt><trkpt lat="43.797715752023414" lon="12.734251384777"><ele>259.0</ele><time>2026-05-03T14:18:11.001Z</time></trkpt><trkpt lat="43.79781683814978" lon="12.734222519620909"><ele>259.0</ele><time>2026-05-03T14:18:12.001Z</time></trkpt><trkpt lat="43.797902302054744" lon="12.734177866629175"><ele>259.0</ele><time>2026-05-03T14:18:13.001Z</time></trkpt><trkpt lat="43.79801468454632" lon="12.734149727835081"><ele>261.4</ele><time>2026-05-03T14:18:15.001Z</time></trkpt><trkpt lat="43.798093600966695" lon="12.7341444190274"><ele>263.79999999999995</ele><time>2026-05-03T14:18:16.001Z</time></trkpt><trkpt lat="43.798183367799496" lon="12.734145317222856"><ele>266.20000000000005</ele><time>2026-05-03T14:18:17.001Z</time></trkpt><trkpt lat="43.798289290230485" lon="12.734133595166389"><ele>268.6</ele><time>2026-05-03T14:18:18.001Z</time></trkpt><trkpt lat="43.79838842371934" lon="12.734143863688843"><ele>271.0</ele><time>2026-05-03T14:18:19.002Z</time></trkpt><trkpt lat="43.79847396047341" lon="12.734171185609501"><ele>270.5</ele><time>2026-05-03T14:18:20.002Z</time></trkpt><trkpt lat="43.79854162983153" lon="12.734166359102796"><ele>270.0</ele><time>2026-05-03T14:18:21.002Z</time></trkpt><trkpt lat="43.798601822857755" lon="12.734129437808924"><ele>269.5</ele><time>2026-05-03T14:18:22.002Z</time></trkpt><trkpt lat="43.7986883246041" lon="12.73411512183019"><ele>269.0</ele><time>2026-05-03T14:18:23.002Z</time></trkpt><trkpt lat="43.79879200993809" lon="12.734092650413363"><ele>268.5</ele><time>2026-05-03T14:18:25Z</time></trkpt><trkpt lat="43.79885476632708" lon="12.73410233812917"><ele>268.0</ele><time>2026-05-03T14:18:26Z</time></trkpt><trkpt lat="43.79887533345196" lon="12.734190347556689"><ele>268.0</ele><time>2026-05-03T14:18:28Z</time></trkpt><trkpt lat="43.79888866655123" lon="12.734275810569658"><ele>268.0</ele><time>2026-05-03T14:18:30Z</time></trkpt><trkpt lat="43.79880531404035" lon="12.734307675651527"><ele>268.0</ele><time>2026-05-03T14:18:32Z</time></trkpt><trkpt lat="43.79874075522544" lon="12.734419980678446"><ele>268.0</ele><time>2026-05-03T14:18:34Z</time></trkpt><trkpt lat="43.79871463184152" lon="12.734558921141788"><ele>268.0</ele><time>2026-05-03T14:18:36Z</time></trkpt><trkpt lat="43.79873308755249" lon="12.734651847347532"><ele>268.0</ele><time>2026-05-03T14:18:37Z</time></trkpt><trkpt lat="43.79876246649994" lon="12.734803315646927"><ele>272.4</ele><time>2026-05-03T14:18:39Z</time></trkpt><trkpt lat="43.79875257978987" lon="12.734905058147415"><ele>276.8</ele><time>2026-05-03T14:18:40Z</time></trkpt><trkpt lat="43.79874596353358" lon="12.735040098746936"><ele>281.2</ele><time>2026-05-03T14:18:42Z</time></trkpt><trkpt lat="43.79872308990308" lon="12.735171959941882"><ele>285.6</ele><time>2026-05-03T14:18:44Z</time></trkpt><trkpt lat="43.79868886198408" lon="12.735318501712332"><ele>290.0</ele><time>2026-05-03T14:18:46Z</time></trkpt><trkpt lat="43.79864169033422" lon="12.73540359730342"><ele>294.4</ele><time>2026-05-03T14:18:48Z</time></trkpt><trkpt lat="43.79852688972423" lon="12.735403493423032"><ele>298.8</ele><time>2026-05-03T14:18:50Z</time></trkpt><trkpt lat="43.7984243238635" lon="12.735411068121849"><ele>303.2</ele><time>2026-05-03T14:18:51Z</time></trkpt><trkpt lat="43.79831467739947" lon="12.735419165761963"><ele>307.6</ele><time>2026-05-03T14:18:52Z</time></trkpt><trkpt lat="43.79824187788303" lon="12.73543788722207"><ele>312.0</ele><time>2026-05-03T14:18:53Z</time></trkpt><trkpt lat="43.79815988000638" lon="12.735430213539018"><ele>312.0</ele><time>2026-05-03T14:18:54Z</time></trkpt><trkpt lat="43.79809656061688" lon="12.7354561439986"><ele>312.0</ele><time>2026-05-03T14:18:55Z</time></trkpt><trkpt lat="43.79799984279274" lon="12.735463236820413"><ele>312.0</ele><time>2026-05-03T14:18:57Z</time></trkpt><trkpt lat="43.797938999018236" lon="12.735599663946847"><ele>312.0</ele><time>2026-05-03T14:18:59Z</time></trkpt><trkpt lat="43.79793636784688" lon="12.735689111732263"><ele>312.0</ele><time>2026-05-03T14:19:00Z</time></trkpt><trkpt lat="43.79796162608384" lon="12.735838779678158"><ele>312.0</ele><time>2026-05-03T14:19:02Z</time></trkpt><trkpt lat="43.798012461257166" lon="12.736020902423553"><ele>312.0</ele><time>2026-05-03T14:19:04Z</time></trkpt><trkpt lat="43.798043130215646" lon="12.736115357893553"><ele>312.0</ele><time>2026-05-03T14:19:05Z</time></trkpt><trkpt lat="43.798060322073695" lon="12.736215032347616"><ele>312.0</ele><time>2026-05-03T14:19:06Z</time></trkpt><trkpt lat="43.79809725616232" lon="12.736335741766284"><ele>312.0</ele><time>2026-05-03T14:19:08Z</time></trkpt><trkpt lat="43.79818713233985" lon="12.7363115520011"><ele>315.8</ele><time>2026-05-03T14:19:09Z</time></trkpt><trkpt lat="43.79831038853349" lon="12.736258904161513"><ele>319.6</ele><time>2026-05-03T14:19:11Z</time></trkpt><trkpt lat="43.79840982201575" lon="12.736208468621017"><ele>323.40000000000003</ele><time>2026-05-03T14:19:13Z</time></trkpt><trkpt lat="43.798482420602305" lon="12.736245850639872"><ele>327.2</ele><time>2026-05-03T14:19:15.001Z</time></trkpt><trkpt lat="43.798546255831376" lon="12.736293824953284"><ele>331.0</ele><time>2026-05-03T14:19:17.001Z</time></trkpt><trkpt lat="43.798522016349224" lon="12.736427075544508"><ele>331.0</ele><time>2026-05-03T14:19:20.001Z</time></trkpt><trkpt lat="43.79848598595505" lon="12.736500104266318"><ele>331.0</ele><time>2026-05-03T14:19:21.001Z</time></trkpt><trkpt lat="43.798438973948514" lon="12.736559861090399"><ele>331.0</ele><time>2026-05-03T14:19:22.001Z</time></trkpt><trkpt lat="43.79839758093543" lon="12.736632909568664"><ele>331.0</ele><time>2026-05-03T14:19:23.001Z</time></trkpt><trkpt lat="43.798373867383425" lon="12.73673201320609"><ele>331.0</ele><time>2026-05-03T14:19:24.001Z</time></trkpt><trkpt lat="43.79835929274482" lon="12.73686027436763"><ele>331.0</ele><time>2026-05-03T14:19:25.001Z</time></trkpt><trkpt lat="43.79834402965011" lon="12.736959335899178"><ele>331.0</ele><time>2026-05-03T14:19:26.001Z</time></trkpt><trkpt lat="43.79833082001025" lon="12.737048415861759"><ele>333.5</ele><time>2026-05-03T14:19:27.001Z</time></trkpt><trkpt lat="43.79830536440491" lon="12.73716758670178"><ele>336.0</ele><time>2026-05-03T14:19:28.001Z</time></trkpt><trkpt lat="43.79831107237319" lon="12.737311678946549"><ele>338.5</ele><time>2026-05-03T14:19:30.001Z</time></trkpt><trkpt lat="43.79832315510022" lon="12.737403362172364"><ele>341.0</ele><time>2026-05-03T14:19:31.001Z</time></trkpt><trkpt lat="43.79834376521255" lon="12.7375111721106"><ele>343.5</ele><time>2026-05-03T14:19:33.001Z</time></trkpt><trkpt lat="43.79843295655992" lon="12.73750216071806"><ele>346.0</ele><time>2026-05-03T14:19:35.001Z</time></trkpt><trkpt lat="43.79849479530004" lon="12.737464907906446"><ele>345.66666666666663</ele><time>2026-05-03T14:19:36.001Z</time></trkpt><trkpt lat="43.79856292942754" lon="12.737416502542061"><ele>345.3333333333333</ele><time>2026-05-03T14:19:37.001Z</time></trkpt><trkpt lat="43.79865967269258" lon="12.737395435344592"><ele>345.0</ele><time>2026-05-03T14:19:39.001Z</time></trkpt><trkpt lat="43.79873665289513" lon="12.7374047904393"><ele>344.6666666666667</ele><time>2026-05-03T14:19:48.001Z</time></trkpt><trkpt lat="43.79879909932479" lon="12.737372064528472"><ele>344.33333333333337</ele><time>2026-05-03T14:19:50.001Z</time></trkpt><trkpt lat="43.79886348674214" lon="12.737334596576067"><ele>344.0</ele><time>2026-05-03T14:19:52.001Z</time></trkpt><trkpt lat="43.79894137702358" lon="12.737323529890547"><ele>344.0</ele><time>2026-05-03T14:19:54.001Z</time></trkpt><trkpt lat="43.79900138228431" lon="12.737352728540566"><ele>344.0</ele><time>2026-05-03T14:19:56.001Z</time></trkpt><trkpt lat="43.79904461203611" lon="12.737446760380148"><ele>344.0</ele><time>2026-05-03T14:19:59.001Z</time></trkpt><trkpt lat="43.79909949850658" lon="12.737553789815593"><ele>344.0</ele><time>2026-05-03T14:20:01.001Z</time></trkpt><trkpt lat="43.79913219980636" lon="12.737666625703929"><ele>344.0</ele><time>2026-05-03T14:20:03.001Z</time></trkpt><trkpt lat="43.799158785817255" lon="12.73786168753161"><ele>346.4</ele><time>2026-05-03T14:20:05.001Z</time></trkpt><trkpt lat="43.799183067849" lon="12.737967567638242"><ele>348.79999999999995</ele><time>2026-05-03T14:20:06.001Z</time></trkpt><trkpt lat="43.79922886909302" lon="12.738088136783627"><ele>351.20000000000005</ele><time>2026-05-03T14:20:07.001Z</time></trkpt><trkpt lat="43.799280796564965" lon="12.738214200545183"><ele>353.6</ele><time>2026-05-03T14:20:08.001Z</time></trkpt><trkpt lat="43.799331168033184" lon="12.738342859943508"><ele>356.0</ele><time>2026-05-03T14:20:09.001Z</time></trkpt><trkpt lat="43.79935647062306" lon="12.73843176679945"><ele>355.33333333333337</ele><time>2026-05-03T14:20:10.001Z</time></trkpt><trkpt lat="43.79941463083482" lon="12.738546518796472"><ele>354.6666666666667</ele><time>2026-05-03T14:20:12.001Z</time></trkpt><trkpt lat="43.799469884759766" lon="12.738594644216759"><ele>354.0</ele><time>2026-05-03T14:20:13.001Z</time></trkpt><trkpt lat="43.79953522329556" lon="12.738622070487938"><ele>353.3333333333333</ele><time>2026-05-03T14:20:14.001Z</time></trkpt><trkpt lat="43.79961308184182" lon="12.738610016270286"><ele>352.66666666666663</ele><time>2026-05-03T14:20:15.001Z</time></trkpt><trkpt lat="43.79971000362963" lon="12.738609696630048"><ele>352.0</ele><time>2026-05-03T14:20:17.001Z</time></trkpt><trkpt lat="43.799809970421244" lon="12.73866421668811"><ele>352.0</ele><time>2026-05-03T14:20:19.001Z</time></trkpt><trkpt lat="43.799908755976865" lon="12.738694308546131"><ele>352.0</ele><time>2026-05-03T14:20:20.001Z</time></trkpt><trkpt lat="43.79998510558905" lon="12.738724772514285"><ele>352.0</ele><time>2026-05-03T14:20:22.001Z</time></trkpt><trkpt lat="43.800031742035614" lon="12.738785202789684"><ele>352.0</ele><time>2026-05-03T14:20:24.001Z</time></trkpt><trkpt lat="43.80011454360771" lon="12.738905286549993"><ele>352.0</ele><time>2026-05-03T14:20:26.001Z</time></trkpt><trkpt lat="43.80015526304353" lon="12.738991597265638"><ele>352.0</ele><time>2026-05-03T14:20:27.001Z</time></trkpt><trkpt lat="43.80019226320251" lon="12.739078340590435"><ele>347.20000000000005</ele><time>2026-05-03T14:20:28.001Z</time></trkpt><trkpt lat="43.80024440570718" lon="12.739168763536002"><ele>342.4</ele><time>2026-05-03T14:20:31Z</time></trkpt><trkpt lat="43.80022269823541" lon="12.73929996349734"><ele>337.6</ele><time>2026-05-03T14:20:33Z</time></trkpt><trkpt lat="43.80020380906094" lon="12.739415362812585"><ele>332.79999999999995</ele><time>2026-05-03T14:20:34Z</time></trkpt><trkpt lat="43.80018956032596" lon="12.739532577457007"><ele>328.0</ele><time>2026-05-03T14:20:35Z</time></trkpt><trkpt lat="43.800233127565114" lon="12.739706283917787"><ele>328.0</ele><time>2026-05-03T14:20:37Z</time></trkpt><trkpt lat="43.800257860371936" lon="12.739800428115277"><ele>328.0</ele><time>2026-05-03T14:20:38Z</time></trkpt><trkpt lat="43.800286655610016" lon="12.739900449021025"><ele>328.0</ele><time>2026-05-03T14:20:39Z</time></trkpt><trkpt lat="43.80032797396721" lon="12.740015738035838"><ele>328.0</ele><time>2026-05-03T14:20:40Z</time></trkpt><trkpt lat="43.800343608522695" lon="12.740139780976975"><ele>328.0</ele><time>2026-05-03T14:20:41Z</time></trkpt><trkpt lat="43.80036782730206" lon="12.74023515963423"><ele>328.0</ele><time>2026-05-03T14:20:42Z</time></trkpt><trkpt lat="43.80038899622465" lon="12.740334709483001"><ele>329.3333333333333</ele><time>2026-05-03T14:20:43Z</time></trkpt><trkpt lat="43.80041409494411" lon="12.740466742729947"><ele>330.66666666666663</ele><time>2026-05-03T14:20:44Z</time></trkpt><trkpt lat="43.80042960846851" lon="12.740578463041587"><ele>332.0</ele><time>2026-05-03T14:20:45Z</time></trkpt><trkpt lat="43.80044003868435" lon="12.740674673264854"><ele>333.3333333333333</ele><time>2026-05-03T14:20:46Z</time></trkpt><trkpt lat="43.80044470358654" lon="12.740777913375712"><ele>334.6666666666667</ele><time>2026-05-03T14:20:47Z</time></trkpt><trkpt lat="43.800442258712124" lon="12.740880196850762"><ele>336.0</ele><time>2026-05-03T14:20:48Z</time></trkpt><trkpt lat="43.80044491343808" lon="12.740981748261042"><ele>338.3333333333333</ele><time>2026-05-03T14:20:49Z</time></trkpt><trkpt lat="43.80045939041739" lon="12.741106621178389"><ele>340.6666666666667</ele><time>2026-05-03T14:20:51Z</time></trkpt><trkpt lat="43.80043887961353" lon="12.741211126538362"><ele>343.0</ele><time>2026-05-03T14:20:53Z</time></trkpt><trkpt lat="43.80042738653382" lon="12.741307193146422"><ele>345.33333333333337</ele><time>2026-05-03T14:20:55Z</time></trkpt><trkpt lat="43.80040177505922" lon="12.741401779733915"><ele>347.6666666666667</ele><time>2026-05-03T14:20:58Z</time></trkpt><trkpt lat="43.80037897985095" lon="12.741502711035496"><ele>350.0</ele><time>2026-05-03T14:21:01Z</time></trkpt><trkpt lat="43.800377144660985" lon="12.741623454646865"><ele>350.0</ele><time>2026-05-03T14:21:03Z</time></trkpt><trkpt lat="43.800391691076705" lon="12.74174051068298"><ele>350.0</ele><time>2026-05-03T14:21:05Z</time></trkpt><trkpt lat="43.800430804650155" lon="12.741839220862136"><ele>350.0</ele><time>2026-05-03T14:21:09Z</time></trkpt><trkpt lat="43.80049709229573" lon="12.741944527194939"><ele>350.0</ele><time>2026-05-03T14:21:11Z</time></trkpt><trkpt lat="43.800541751658024" lon="12.742017754731636"><ele>350.0</ele><time>2026-05-03T14:22:17.001Z</time></trkpt><trkpt lat="43.80060553331619" lon="12.742078591595208"><ele>350.0</ele><time>2026-05-03T14:22:20.001Z</time></trkpt><trkpt lat="43.800654549354206" lon="12.74217520389578"><ele>350.6666666666667</ele><time>2026-05-03T14:22:23.001Z</time></trkpt><trkpt lat="43.800691909602605" lon="12.74227805084431"><ele>351.33333333333337</ele><time>2026-05-03T14:22:26.001Z</time></trkpt><trkpt lat="43.80072625065604" lon="12.742375737020328"><ele>352.0</ele><time>2026-05-03T14:22:29.001Z</time></trkpt><trkpt lat="43.80075348008214" lon="12.742477134757735"><ele>352.6666666666667</ele><time>2026-05-03T14:22:32.001Z</time></trkpt><trkpt lat="43.80079225883853" lon="12.742573734323692"><ele>353.3333333333333</ele><time>2026-05-03T14:22:35.001Z</time></trkpt><trkpt lat="43.80083569619535" lon="12.742655895540379"><ele>354.0</ele><time>2026-05-03T14:22:38Z</time></trkpt><trkpt lat="43.8008941483746" lon="12.742723044414452"><ele>352.4</ele><time>2026-05-03T14:22:41Z</time></trkpt><trkpt lat="43.80098560682207" lon="12.742952531763118"><ele>350.79999999999995</ele><time>2026-05-03T14:22:44Z</time></trkpt><trkpt lat="43.80104837622383" lon="12.742914748923965"><ele>349.20000000000005</ele><time>2026-05-03T14:22:51Z</time></trkpt><trkpt lat="43.80112295425077" lon="12.742930979455512"><ele>347.6</ele><time>2026-05-03T14:22:55Z</time></trkpt><trkpt lat="43.801189474393794" lon="12.742955633303453"><ele>346.0</ele><time>2026-05-03T14:22:57Z</time></trkpt><trkpt lat="43.80128395913618" lon="12.742985995730097"><ele>345.5</ele><time>2026-05-03T14:23:01Z</time></trkpt><trkpt lat="43.801351139956694" lon="12.743007387749833"><ele>345.0</ele><time>2026-05-03T14:23:02Z</time></trkpt><trkpt lat="43.801427976600564" lon="12.743041212777225"><ele>344.5</ele><time>2026-05-03T14:23:03Z</time></trkpt><trkpt lat="43.80149681942805" lon="12.743070397984631"><ele>344.0</ele><time>2026-05-03T14:23:04Z</time></trkpt><trkpt lat="43.80158218888608" lon="12.743095760517365"><ele>343.5</ele><time>2026-05-03T14:23:05Z</time></trkpt><trkpt lat="43.80166423623458" lon="12.743133849211304"><ele>343.0</ele><time>2026-05-03T14:23:06Z</time></trkpt><trkpt lat="43.80175989897074" lon="12.743178475707932"><ele>342.75</ele><time>2026-05-03T14:23:07Z</time></trkpt><trkpt lat="43.80186993390071" lon="12.74321551661877"><ele>342.5</ele><time>2026-05-03T14:23:08Z</time></trkpt><trkpt lat="43.80198773593371" lon="12.743250411092657"><ele>342.25</ele><time>2026-05-03T14:23:09Z</time></trkpt><trkpt lat="43.80212131388212" lon="12.743284033606214"><ele>342.0</ele><time>2026-05-03T14:23:10Z</time></trkpt><trkpt lat="43.80225687190941" lon="12.743333457787818"><ele>342.0</ele><time>2026-05-03T14:23:11Z</time></trkpt><trkpt lat="43.802371752787856" lon="12.743379988021687"><ele>342.0</ele><time>2026-05-03T14:23:12Z</time></trkpt><trkpt lat="43.802485293095714" lon="12.743416899966215"><ele>342.0</ele><time>2026-05-03T14:23:13Z</time></trkpt><trkpt lat="43.80260929222641" lon="12.743465860556977"><ele>342.0</ele><time>2026-05-03T14:23:14Z</time></trkpt><trkpt lat="43.80272857674371" lon="12.743513270207407"><ele>338.75</ele><time>2026-05-03T14:23:15Z</time></trkpt><trkpt lat="43.802865510720935" lon="12.743550375317147"><ele>335.5</ele><time>2026-05-03T14:23:16Z</time></trkpt><trkpt lat="43.803009018938134" lon="12.743600980372978"><ele>332.25</ele><time>2026-05-03T14:23:17Z</time></trkpt><trkpt lat="43.803138715297166" lon="12.74363726520955"><ele>329.0</ele><time>2026-05-03T14:23:18Z</time></trkpt><trkpt lat="43.80324857379409" lon="12.743683604457274"><ele>329.0</ele><time>2026-05-03T14:23:19Z</time></trkpt><trkpt lat="43.803341381055766" lon="12.743723200887326"><ele>329.0</ele><time>2026-05-03T14:23:20Z</time></trkpt><trkpt lat="43.803433806530656" lon="12.743747077103949"><ele>329.0</ele><time>2026-05-03T14:23:21Z</time></trkpt><trkpt lat="43.803549412921136" lon="12.743750865069622"><ele>329.0</ele><time>2026-05-03T14:23:22Z</time></trkpt><trkpt lat="43.80368317292981" lon="12.743735667170668"><ele>329.0</ele><time>2026-05-03T14:23:23Z</time></trkpt><trkpt lat="43.80380518138501" lon="12.743736510205734"><ele>329.6</ele><time>2026-05-03T14:23:24Z</time></trkpt><trkpt lat="43.80390984550066" lon="12.743761151466716"><ele>330.2</ele><time>2026-05-03T14:23:25Z</time></trkpt><trkpt lat="43.80402828071805" lon="12.74381347192994"><ele>330.8</ele><time>2026-05-03T14:23:26Z</time></trkpt><trkpt lat="43.80413282972026" lon="12.743850958599031"><ele>331.40000000000003</ele><time>2026-05-03T14:23:27Z</time></trkpt><trkpt lat="43.80422364921534" lon="12.743880847990651"><ele>332.0</ele><time>2026-05-03T14:23:28Z</time></trkpt><trkpt lat="43.80429990161678" lon="12.743957220862132"><ele>330.5</ele><time>2026-05-03T14:23:29Z</time></trkpt><trkpt lat="43.804364408679604" lon="12.74406757140687"><ele>329.0</ele><time>2026-05-03T14:23:30.001Z</time></trkpt><trkpt lat="43.804425944732216" lon="12.744161005745683"><ele>327.5</ele><time>2026-05-03T14:23:31.001Z</time></trkpt><trkpt lat="43.804487155546326" lon="12.744215706058547"><ele>326.0</ele><time>2026-05-03T14:23:32.001Z</time></trkpt><trkpt lat="43.80455905059599" lon="12.744239454457139"><ele>324.5</ele><time>2026-05-03T14:23:33.001Z</time></trkpt><trkpt lat="43.80463680646466" lon="12.744226188789941"><ele>323.0</ele><time>2026-05-03T14:23:34.001Z</time></trkpt><trkpt lat="43.804721892658186" lon="12.744166430864865"><ele>323.0</ele><time>2026-05-03T14:23:35.001Z</time></trkpt><trkpt lat="43.80482410105561" lon="12.744107997290081"><ele>323.0</ele><time>2026-05-03T14:23:36.001Z</time></trkpt><trkpt lat="43.8048986259294" lon="12.744025673321778"><ele>323.0</ele><time>2026-05-03T14:23:37.001Z</time></trkpt><trkpt lat="43.80495592616983" lon="12.743938113360578"><ele>323.0</ele><time>2026-05-03T14:23:38.001Z</time></trkpt><trkpt lat="43.805006347933755" lon="12.74383334177656"><ele>323.0</ele><time>2026-05-03T14:23:39.001Z</time></trkpt><trkpt lat="43.80501964340729" lon="12.74371058916575"><ele>323.0</ele><time>2026-05-03T14:23:40.001Z</time></trkpt><trkpt lat="43.805008587532214" lon="12.74359963366114"><ele>323.0</ele><time>2026-05-03T14:23:41.001Z</time></trkpt><trkpt lat="43.80498874249704" lon="12.743468109288639"><ele>323.0</ele><time>2026-05-03T14:23:42.001Z</time></trkpt><trkpt lat="43.80496855500572" lon="12.743313307726932"><ele>323.0</ele><time>2026-05-03T14:23:43.001Z</time></trkpt><trkpt lat="43.805004357126755" lon="12.743182082163925"><ele>323.0</ele><time>2026-05-03T14:23:44.001Z</time></trkpt><trkpt lat="43.805034519120184" lon="12.74306046218474"><ele>323.2</ele><time>2026-05-03T14:23:45.001Z</time></trkpt><trkpt lat="43.805070739186434" lon="12.74293177494438"><ele>323.4</ele><time>2026-05-03T14:23:46.001Z</time></trkpt><trkpt lat="43.805139236349305" lon="12.742832715185896"><ele>323.59999999999997</ele><time>2026-05-03T14:23:47.001Z</time></trkpt><trkpt lat="43.80520052406358" lon="12.742715468515625"><ele>323.79999999999995</ele><time>2026-05-03T14:23:48.001Z</time></trkpt><trkpt lat="43.80529545876762" lon="12.742610626968299"><ele>324.0</ele><time>2026-05-03T14:23:49.001Z</time></trkpt><trkpt lat="43.80539543604469" lon="12.742524120791593"><ele>318.59999999999997</ele><time>2026-05-03T14:23:50.001Z</time></trkpt><trkpt lat="43.80548484006207" lon="12.742494230341897"><ele>313.2</ele><time>2026-05-03T14:23:51.001Z</time></trkpt><trkpt lat="43.805596791507696" lon="12.742472566688395"><ele>307.79999999999995</ele><time>2026-05-03T14:23:52.001Z</time></trkpt><trkpt lat="43.80568560419586" lon="12.74243088052543"><ele>302.4</ele><time>2026-05-03T14:23:53.001Z</time></trkpt><trkpt lat="43.80578408573259" lon="12.742377642527076"><ele>297.0</ele><time>2026-05-03T14:23:54.001Z</time></trkpt><trkpt lat="43.80587699344335" lon="12.742279248024596"><ele>297.0</ele><time>2026-05-03T14:23:55.001Z</time></trkpt><trkpt lat="43.80597336462898" lon="12.742247879127863"><ele>297.0</ele><time>2026-05-03T14:23:56.001Z</time></trkpt><trkpt lat="43.806074588454116" lon="12.74222958287135"><ele>297.0</ele><time>2026-05-03T14:23:57.001Z</time></trkpt><trkpt lat="43.806179205172256" lon="12.742201962557507"><ele>297.0</ele><time>2026-05-03T14:23:58.001Z</time></trkpt><trkpt lat="43.80630502773192" lon="12.742193259510499"><ele>297.0</ele><time>2026-05-03T14:23:59.001Z</time></trkpt><trkpt lat="43.806446785777744" lon="12.74218778398872"><ele>294.6</ele><time>2026-05-03T14:24:00.001Z</time></trkpt><trkpt lat="43.806569902426105" lon="12.742192570700379"><ele>292.2</ele><time>2026-05-03T14:24:01.001Z</time></trkpt><trkpt lat="43.80668151395408" lon="12.74220271118286"><ele>289.8</ele><time>2026-05-03T14:24:02.001Z</time></trkpt><trkpt lat="43.8067790570242" lon="12.742205424886409"><ele>287.4</ele><time>2026-05-03T14:24:03.001Z</time></trkpt><trkpt lat="43.806868031256656" lon="12.742231391309927"><ele>285.0</ele><time>2026-05-03T14:24:04.001Z</time></trkpt><trkpt lat="43.80696923337262" lon="12.742265835415484"><ele>281.0</ele><time>2026-05-03T14:24:05.001Z</time></trkpt><trkpt lat="43.807033149410906" lon="12.742318204244633"><ele>277.0</ele><time>2026-05-03T14:24:06.001Z</time></trkpt><trkpt lat="43.807098012405014" lon="12.74239448318319"><ele>273.0</ele><time>2026-05-03T14:24:07.001Z</time></trkpt><trkpt lat="43.80718167658884" lon="12.742492064856146"><ele>269.0</ele><time>2026-05-03T14:24:08.001Z</time></trkpt><trkpt lat="43.807266314142296" lon="12.742593974755863"><ele>265.0</ele><time>2026-05-03T14:24:09.001Z</time></trkpt><trkpt lat="43.807352374924136" lon="12.742689699814495"><ele>264.8</ele><time>2026-05-03T14:24:10.001Z</time></trkpt><trkpt lat="43.80739715372957" lon="12.742831796283294"><ele>264.6</ele><time>2026-05-03T14:24:11.001Z</time></trkpt><trkpt lat="43.80747360880427" lon="12.742944127581717"><ele>264.4</ele><time>2026-05-03T14:24:12.001Z</time></trkpt><trkpt lat="43.80752970170212" lon="12.743047350971342"><ele>264.2</ele><time>2026-05-03T14:24:13.001Z</time></trkpt><trkpt lat="43.80759296192681" lon="12.743111938070125"><ele>264.0</ele><time>2026-05-03T14:24:14.001Z</time></trkpt><trkpt lat="43.807673480209715" lon="12.743150611565786"><ele>264.0</ele><time>2026-05-03T14:24:15.001Z</time></trkpt><trkpt lat="43.80777434117398" lon="12.743175955049347"><ele>264.0</ele><time>2026-05-03T14:24:16.001Z</time></trkpt><trkpt lat="43.8078809831518" lon="12.743181548725792"><ele>264.0</ele><time>2026-05-03T14:24:17.001Z</time></trkpt><trkpt lat="43.807987830632825" lon="12.743184037075595"><ele>264.0</ele><time>2026-05-03T14:24:18.001Z</time></trkpt><trkpt lat="43.80807053603511" lon="12.743173310066696"><ele>264.0</ele><time>2026-05-03T14:24:19.001Z</time></trkpt><trkpt lat="43.80814672731831" lon="12.743114996707764"><ele>264.0</ele><time>2026-05-03T14:24:20.001Z</time></trkpt><trkpt lat="43.80821091661726" lon="12.743015213683083"><ele>264.0</ele><time>2026-05-03T14:24:21.001Z</time></trkpt><trkpt lat="43.808302840376456" lon="12.742877325992264"><ele>264.0</ele><time>2026-05-03T14:24:22.001Z</time></trkpt><trkpt lat="43.80839762046317" lon="12.74270079166398"><ele>264.0</ele><time>2026-05-03T14:24:23.001Z</time></trkpt><trkpt lat="43.80847817987698" lon="12.742578807911618"><ele>266.5</ele><time>2026-05-03T14:24:24.001Z</time></trkpt><trkpt lat="43.80854809361549" lon="12.742495830213919"><ele>269.0</ele><time>2026-05-03T14:24:25.001Z</time></trkpt><trkpt lat="43.80862297666835" lon="12.742443099258548"><ele>271.5</ele><time>2026-05-03T14:24:26.001Z</time></trkpt><trkpt lat="43.80870663528248" lon="12.742363957373527"><ele>274.0</ele><time>2026-05-03T14:24:27.001Z</time></trkpt><trkpt lat="43.80879291606553" lon="12.742364844495384"><ele>276.5</ele><time>2026-05-03T14:24:28.001Z</time></trkpt><trkpt lat="43.80887364940077" lon="12.742385696694935"><ele>279.0</ele><time>2026-05-03T14:24:29.001Z</time></trkpt><trkpt lat="43.809000568033454" lon="12.742413599409653"><ele>279.0</ele><time>2026-05-03T14:24:30.001Z</time></trkpt><trkpt lat="43.80912018614904" lon="12.742458439523283"><ele>279.0</ele><time>2026-05-03T14:24:31.001Z</time></trkpt><trkpt lat="43.80922018459813" lon="12.742516645485354"><ele>279.0</ele><time>2026-05-03T14:24:32.001Z</time></trkpt><trkpt lat="43.809341584733936" lon="12.74261034806599"><ele>279.0</ele><time>2026-05-03T14:24:33.001Z</time></trkpt><trkpt lat="43.80945482800312" lon="12.742724208078732"><ele>273.75</ele><time>2026-05-03T14:24:34.001Z</time></trkpt><trkpt lat="43.809553477441604" lon="12.742809088867661"><ele>268.5</ele><time>2026-05-03T14:24:35.001Z</time></trkpt><trkpt lat="43.80965638131923" lon="12.742873916299809"><ele>263.25</ele><time>2026-05-03T14:24:36.001Z</time></trkpt><trkpt lat="43.8097591023431" lon="12.74291051086191"><ele>258.0</ele><time>2026-05-03T14:24:37.001Z</time></trkpt><trkpt lat="43.80988770464006" lon="12.742933182451756"><ele>258.0</ele><time>2026-05-03T14:24:38.001Z</time></trkpt><trkpt lat="43.81005116745795" lon="12.742942588661483"><ele>258.0</ele><time>2026-05-03T14:24:39.001Z</time></trkpt><trkpt lat="43.81020582605589" lon="12.742949501181316"><ele>258.0</ele><time>2026-05-03T14:24:40.001Z</time></trkpt><trkpt lat="43.81033073499714" lon="12.743009736214734"><ele>258.75</ele><time>2026-05-03T14:24:41.001Z</time></trkpt><trkpt lat="43.81043933424803" lon="12.743058458255687"><ele>259.5</ele><time>2026-05-03T14:24:42Z</time></trkpt><trkpt lat="43.8105560124511" lon="12.743130571205647"><ele>260.25</ele><time>2026-05-03T14:24:43Z</time></trkpt><trkpt lat="43.810707696656394" lon="12.743238965126013"><ele>261.0</ele><time>2026-05-03T14:24:44Z</time></trkpt><trkpt lat="43.81084194122487" lon="12.74329928034635"><ele>261.0</ele><time>2026-05-03T14:24:45Z</time></trkpt><trkpt lat="43.810953255874225" lon="12.743370017939693"><ele>261.0</ele><time>2026-05-03T14:24:46Z</time></trkpt><trkpt lat="43.811081496561286" lon="12.743401966112508"><ele>261.0</ele><time>2026-05-03T14:24:47Z</time></trkpt><trkpt lat="43.811211487344096" lon="12.743454583108031"><ele>261.0</ele><time>2026-05-03T14:24:48Z</time></trkpt><trkpt lat="43.81133877237986" lon="12.743461683720696"><ele>260.0</ele><time>2026-05-03T14:24:49Z</time></trkpt><trkpt lat="43.81142655240569" lon="12.743521756992353"><ele>259.0</ele><time>2026-05-03T14:24:50Z</time></trkpt><trkpt lat="43.81152387863651" lon="12.743582659021852"><ele>258.0</ele><time>2026-05-03T14:24:51Z</time></trkpt><trkpt lat="43.81163342462801" lon="12.743644210109672"><ele>257.0</ele><time>2026-05-03T14:24:52Z</time></trkpt><trkpt lat="43.81174535389075" lon="12.743669223110258"><ele>256.0</ele><time>2026-05-03T14:24:53Z</time></trkpt><trkpt lat="43.8118175770137" lon="12.743686788597293"><ele>254.16666666666666</ele><time>2026-05-03T14:24:54Z</time></trkpt><trkpt lat="43.811878352905715" lon="12.743736978034992"><ele>252.33333333333331</ele><time>2026-05-03T14:24:55Z</time></trkpt><trkpt lat="43.8119112870649" lon="12.743831723961417"><ele>250.5</ele><time>2026-05-03T14:24:56Z</time></trkpt><trkpt lat="43.81192165266967" lon="12.743954934154571"><ele>248.66666666666669</ele><time>2026-05-03T14:24:57Z</time></trkpt><trkpt lat="43.811921575114624" lon="12.744098027064481"><ele>246.83333333333334</ele><time>2026-05-03T14:24:58Z</time></trkpt><trkpt lat="43.81194054517342" lon="12.744221538769173"><ele>245.0</ele><time>2026-05-03T14:24:59Z</time></trkpt><trkpt lat="43.81194605712021" lon="12.744331555153128"><ele>243.83333333333334</ele><time>2026-05-03T14:25:00Z</time></trkpt><trkpt lat="43.81197193263545" lon="12.744419234906957"><ele>242.66666666666669</ele><time>2026-05-03T14:25:01Z</time></trkpt><trkpt lat="43.812018450598075" lon="12.744490571767413"><ele>241.5</ele><time>2026-05-03T14:25:02Z</time></trkpt><trkpt lat="43.81209096596815" lon="12.74457036142041"><ele>240.33333333333331</ele><time>2026-05-03T14:25:03Z</time></trkpt><trkpt lat="43.81215539955267" lon="12.744651139161022"><ele>239.16666666666666</ele><time>2026-05-03T14:25:04Z</time></trkpt><trkpt lat="43.81220529969537" lon="12.744725722009813"><ele>238.0</ele><time>2026-05-03T14:25:05Z</time></trkpt><trkpt lat="43.81224914800769" lon="12.744812358699688"><ele>238.0</ele><time>2026-05-03T14:25:06Z</time></trkpt><trkpt lat="43.81226695220911" lon="12.744896564575473"><ele>238.0</ele><time>2026-05-03T14:25:07Z</time></trkpt><trkpt lat="43.81225212221356" lon="12.744993933573621"><ele>238.0</ele><time>2026-05-03T14:25:08Z</time></trkpt><trkpt lat="43.81222207582785" lon="12.745073048997114"><ele>238.0</ele><time>2026-05-03T14:25:09Z</time></trkpt><trkpt lat="43.812168853735265" lon="12.745146829713605"><ele>238.0</ele><time>2026-05-03T14:25:10Z</time></trkpt><trkpt lat="43.812102497902245" lon="12.745206250432629"><ele>238.0</ele><time>2026-05-03T14:25:11Z</time></trkpt><trkpt lat="43.812031758871655" lon="12.745258746554"><ele>238.0</ele><time>2026-05-03T14:25:12Z</time></trkpt><trkpt lat="43.811979080905516" lon="12.74530758814041"><ele>235.66666666666666</ele><time>2026-05-03T14:25:13Z</time></trkpt><trkpt lat="43.811956433086124" lon="12.745389212002893"><ele>233.33333333333331</ele><time>2026-05-03T14:25:14Z</time></trkpt><trkpt lat="43.81196349372996" lon="12.745483415331497"><ele>231.0</ele><time>2026-05-03T14:25:15Z</time></trkpt><trkpt lat="43.81200214094765" lon="12.74559015089331"><ele>228.66666666666669</ele><time>2026-05-03T14:25:16Z</time></trkpt><trkpt lat="43.81205410908347" lon="12.74568803739522"><ele>226.33333333333334</ele><time>2026-05-03T14:25:17Z</time></trkpt><trkpt lat="43.812127830466444" lon="12.745744218319206"><ele>224.0</ele><time>2026-05-03T14:25:18Z</time></trkpt><trkpt lat="43.812224652619676" lon="12.745776810543274"><ele>224.00000000000003</ele><time>2026-05-03T14:25:19Z</time></trkpt><trkpt lat="43.812298282726296" lon="12.745781451140145"><ele>224.0</ele><time>2026-05-03T14:25:20Z</time></trkpt><trkpt lat="43.81236288708695" lon="12.74583179025504"><ele>224.0</ele><time>2026-05-03T14:25:22Z</time></trkpt><trkpt lat="43.81232321533242" lon="12.74596616396007"><ele>224.0</ele><time>2026-05-03T14:25:24Z</time></trkpt><trkpt lat="43.8122602481809" lon="12.745991382875205"><ele>224.00000000000003</ele><time>2026-05-03T14:25:25Z</time></trkpt><trkpt lat="43.81217172503082" lon="12.746014288475124"><ele>224.0</ele><time>2026-05-03T14:25:26Z</time></trkpt><trkpt lat="43.812074225167784" lon="12.746018035824774"><ele>224.0</ele><time>2026-05-03T14:25:27Z</time></trkpt><trkpt lat="43.811978355857356" lon="12.746012930742088"><ele>223.99999999999997</ele><time>2026-05-03T14:25:28Z</time></trkpt><trkpt lat="43.81189614165376" lon="12.745991361422512"><ele>223.99999999999997</ele><time>2026-05-03T14:25:29Z</time></trkpt><trkpt lat="43.811820468628845" lon="12.745938992710064"><ele>224.0</ele><time>2026-05-03T14:25:30Z</time></trkpt><trkpt lat="43.81174380234056" lon="12.74591898937827"><ele>224.0</ele><time>2026-05-03T14:25:31Z</time></trkpt><trkpt lat="43.811645056433015" lon="12.745858801985749"><ele>223.25</ele><time>2026-05-03T14:25:33Z</time></trkpt><trkpt lat="43.811583633632424" lon="12.74596832054471"><ele>222.5</ele><time>2026-05-03T14:25:36Z</time></trkpt><trkpt lat="43.811678354757454" lon="12.746117184459782"><ele>221.75</ele><time>2026-05-03T14:25:38Z</time></trkpt><trkpt lat="43.81176579195956" lon="12.746224268149927"><ele>221.0</ele><time>2026-05-03T14:25:39Z</time></trkpt><trkpt lat="43.811860719475256" lon="12.746366627883756"><ele>216.66666666666669</ele><time>2026-05-03T14:25:40.001Z</time></trkpt><trkpt lat="43.81198900540999" lon="12.746483545347328"><ele>212.33333333333331</ele><time>2026-05-03T14:25:41.001Z</time></trkpt><trkpt lat="43.81211793994168" lon="12.746603224566458"><ele>208.0</ele><time>2026-05-03T14:25:42.001Z</time></trkpt><trkpt lat="43.812258942499064" lon="12.74668635184379"><ele>208.0</ele><time>2026-05-03T14:25:43.001Z</time></trkpt><trkpt lat="43.81238883849737" lon="12.746743718799754"><ele>208.0</ele><time>2026-05-03T14:25:44.001Z</time></trkpt><trkpt lat="43.81251129526361" lon="12.746774109704099"><ele>208.0</ele><time>2026-05-03T14:25:45.001Z</time></trkpt><trkpt lat="43.81261752177425" lon="12.746768785836082"><ele>208.0</ele><time>2026-05-03T14:25:46.001Z</time></trkpt><trkpt lat="43.812712085967576" lon="12.746724766188308"><ele>201.5</ele><time>2026-05-03T14:25:47.001Z</time></trkpt><trkpt lat="43.812811969878275" lon="12.746651447286897"><ele>195.0</ele><time>2026-05-03T14:25:48.001Z</time></trkpt><trkpt lat="43.81291393182838" lon="12.746526499225942"><ele>188.5</ele><time>2026-05-03T14:25:49.001Z</time></trkpt><trkpt lat="43.813002052526016" lon="12.74640382820679"><ele>182.0</ele><time>2026-05-03T14:25:50.001Z</time></trkpt><trkpt lat="43.81308054407975" lon="12.74627250481258"><ele>182.0</ele><time>2026-05-03T14:25:51.001Z</time></trkpt><trkpt lat="43.813154388385094" lon="12.746124938407283"><ele>182.0</ele><time>2026-05-03T14:25:52.001Z</time></trkpt><trkpt lat="43.813228725569395" lon="12.746004757189683"><ele>182.0</ele><time>2026-05-03T14:25:53.001Z</time></trkpt><trkpt lat="43.8133230771615" lon="12.745935120371355"><ele>182.0</ele><time>2026-05-03T14:25:54.001Z</time></trkpt><trkpt lat="43.81341451474402" lon="12.745895323307487"><ele>182.0</ele><time>2026-05-03T14:25:55.001Z</time></trkpt><trkpt lat="43.81353497405064" lon="12.745839420110485"><ele>184.33333333333331</ele><time>2026-05-03T14:25:56.001Z</time></trkpt><trkpt lat="43.81370690692661" lon="12.745796626908545"><ele>186.66666666666666</ele><time>2026-05-03T14:25:57.001Z</time></trkpt><trkpt lat="43.81386167731107" lon="12.745751414310742"><ele>189.0</ele><time>2026-05-03T14:25:58.001Z</time></trkpt><trkpt lat="43.813992337559185" lon="12.7457240704332"><ele>189.0</ele><time>2026-05-03T14:25:59.001Z</time></trkpt><trkpt lat="43.81410201171299" lon="12.745696327236338"><ele>189.0</ele><time>2026-05-03T14:26:00.001Z</time></trkpt><trkpt lat="43.814193113470864" lon="12.745685967037579"><ele>189.0</ele><time>2026-05-03T14:26:01.001Z</time></trkpt><trkpt lat="43.8142830967151" lon="12.7457423024141"><ele>189.0</ele><time>2026-05-03T14:26:02.001Z</time></trkpt><trkpt lat="43.81436012015104" lon="12.745758992316121"><ele>189.0</ele><time>2026-05-03T14:26:03.001Z</time></trkpt><trkpt lat="43.81444925745402" lon="12.745793883507623"><ele>187.6</ele><time>2026-05-03T14:26:04.001Z</time></trkpt><trkpt lat="43.81451979603496" lon="12.745771172225268"><ele>186.2</ele><time>2026-05-03T14:26:05.001Z</time></trkpt><trkpt lat="43.81456312754078" lon="12.74569195172179"><ele>184.79999999999998</ele><time>2026-05-03T14:26:06.001Z</time></trkpt><trkpt lat="43.81460752247547" lon="12.745538998586323"><ele>183.39999999999998</ele><time>2026-05-03T14:26:07.001Z</time></trkpt><trkpt lat="43.81464697062119" lon="12.745343684757165"><ele>182.0</ele><time>2026-05-03T14:26:08.001Z</time></trkpt><trkpt lat="43.81472243044935" lon="12.74514954967063"><ele>182.0</ele><time>2026-05-03T14:26:09.001Z</time></trkpt><trkpt lat="43.8147954045697" lon="12.744979049908487"><ele>182.0</ele><time>2026-05-03T14:26:10.001Z</time></trkpt><trkpt lat="43.81488245843162" lon="12.744807058345302"><ele>182.0</ele><time>2026-05-03T14:26:11.001Z</time></trkpt><trkpt lat="43.81496154787033" lon="12.74463957188763"><ele>182.0</ele><time>2026-05-03T14:26:12.001Z</time></trkpt><trkpt lat="43.815058978261256" lon="12.744494625488851"><ele>183.75</ele><time>2026-05-03T14:26:13.001Z</time></trkpt><trkpt lat="43.81513066550459" lon="12.744363201619295"><ele>185.5</ele><time>2026-05-03T14:26:14.001Z</time></trkpt><trkpt lat="43.81522716350587" lon="12.744255652934546"><ele>187.25</ele><time>2026-05-03T14:26:15.001Z</time></trkpt><trkpt lat="43.81535377951917" lon="12.744192838731308"><ele>189.0</ele><time>2026-05-03T14:26:16.001Z</time></trkpt><trkpt lat="43.81549467922393" lon="12.744140280482725"><ele>189.0</ele><time>2026-05-03T14:26:17.001Z</time></trkpt><trkpt lat="43.81561012599833" lon="12.744116709874683"><ele>189.0</ele><time>2026-05-03T14:26:18.001Z</time></trkpt><trkpt lat="43.815711369269955" lon="12.744104740224916"><ele>189.0</ele><time>2026-05-03T14:26:19.001Z</time></trkpt><trkpt lat="43.8158357144971" lon="12.744164855911713"><ele>189.0</ele><time>2026-05-03T14:26:20.001Z</time></trkpt><trkpt lat="43.815994544773545" lon="12.744252984082948"><ele>187.6</ele><time>2026-05-03T14:26:21.001Z</time></trkpt><trkpt lat="43.81611908648116" lon="12.7442873372814"><ele>186.2</ele><time>2026-05-03T14:26:22.001Z</time></trkpt><trkpt lat="43.816226299366704" lon="12.74433565129583"><ele>184.79999999999998</ele><time>2026-05-03T14:26:23.001Z</time></trkpt><trkpt lat="43.81632045697224" lon="12.744383818899331"><ele>183.39999999999998</ele><time>2026-05-03T14:26:24.001Z</time></trkpt><trkpt lat="43.8164015992669" lon="12.744421428003344"><ele>182.0</ele><time>2026-05-03T14:26:25.001Z</time></trkpt><trkpt lat="43.816481730081875" lon="12.744425238983581"><ele>182.0</ele><time>2026-05-03T14:26:26.001Z</time></trkpt><trkpt lat="43.81656561512709" lon="12.744374731088929"><ele>182.0</ele><time>2026-05-03T14:26:27.001Z</time></trkpt><trkpt lat="43.816672343364026" lon="12.744280368510076"><ele>182.0</ele><time>2026-05-03T14:26:28.001Z</time></trkpt><trkpt lat="43.81682331132879" lon="12.744151956034589"><ele>182.0</ele><time>2026-05-03T14:26:29.001Z</time></trkpt><trkpt lat="43.816976984248946" lon="12.744083904061732"><ele>177.75</ele><time>2026-05-03T14:26:30.001Z</time></trkpt><trkpt lat="43.8171290431687" lon="12.744010907524634"><ele>173.5</ele><time>2026-05-03T14:26:31.001Z</time></trkpt><trkpt lat="43.81726792898438" lon="12.743916084635632"><ele>169.25</ele><time>2026-05-03T14:26:32.001Z</time></trkpt><trkpt lat="43.81738331767686" lon="12.743830663609671"><ele>165.0</ele><time>2026-05-03T14:26:33.001Z</time></trkpt><trkpt lat="43.817510105672866" lon="12.743815983237043"><ele>165.0</ele><time>2026-05-03T14:26:34.001Z</time></trkpt><trkpt lat="43.817620441098825" lon="12.743787028291711"><ele>165.0</ele><time>2026-05-03T14:26:35.001Z</time></trkpt><trkpt lat="43.81774359877078" lon="12.743792405917265"><ele>165.0</ele><time>2026-05-03T14:26:36.001Z</time></trkpt><trkpt lat="43.817877922160825" lon="12.74379013198137"><ele>165.0</ele><time>2026-05-03T14:26:37.001Z</time></trkpt><trkpt lat="43.81797576846548" lon="12.743763310464585"><ele>160.75</ele><time>2026-05-03T14:26:38.001Z</time></trkpt><trkpt lat="43.818098941475114" lon="12.743740895024647"><ele>156.5</ele><time>2026-05-03T14:26:39.001Z</time></trkpt><trkpt lat="43.818217353912566" lon="12.743725159902901"><ele>152.25</ele><time>2026-05-03T14:26:40.001Z</time></trkpt><trkpt lat="43.81833685212274" lon="12.743666436997595"><ele>148.0</ele><time>2026-05-03T14:26:41.001Z</time></trkpt><trkpt lat="43.8184733092283" lon="12.743596130535256"><ele>146.0</ele><time>2026-05-03T14:26:42.001Z</time></trkpt><trkpt lat="43.81854871800632" lon="12.743519539316253"><ele>144.0</ele><time>2026-05-03T14:26:43.001Z</time></trkpt><trkpt lat="43.81864768642707" lon="12.743466468960035"><ele>142.0</ele><time>2026-05-03T14:26:44.001Z</time></trkpt><trkpt lat="43.818732247059955" lon="12.743411959827357"><ele>140.0</ele><time>2026-05-03T14:26:45.001Z</time></trkpt><trkpt lat="43.81881048692971" lon="12.74336723088893"><ele>138.0</ele><time>2026-05-03T14:26:46.001Z</time></trkpt><trkpt lat="43.8188885430401" lon="12.743349591598921"><ele>138.0</ele><time>2026-05-03T14:26:47.001Z</time></trkpt><trkpt lat="43.81895726464598" lon="12.74336072375935"><ele>138.0</ele><time>2026-05-03T14:26:48Z</time></trkpt><trkpt lat="43.81904687555933" lon="12.743387978575482"><ele>138.0</ele><time>2026-05-03T14:26:49Z</time></trkpt><trkpt lat="43.81914468177591" lon="12.74338063626677"><ele>138.0</ele><time>2026-05-03T14:26:50Z</time></trkpt><trkpt lat="43.8192444401452" lon="12.743346380208733"><ele>138.0</ele><time>2026-05-03T14:26:51Z</time></trkpt><trkpt lat="43.81932616381844" lon="12.743282200700971"><ele>134.6</ele><time>2026-05-03T14:26:52Z</time></trkpt><trkpt lat="43.81940364464158" lon="12.743196277128403"><ele>131.20000000000002</ele><time>2026-05-03T14:26:53Z</time></trkpt><trkpt lat="43.819461768511694" lon="12.743080954531674"><ele>127.8</ele><time>2026-05-03T14:26:54Z</time></trkpt><trkpt lat="43.819492258711456" lon="12.742975025964007"><ele>124.4</ele><time>2026-05-03T14:26:55Z</time></trkpt><trkpt lat="43.81955928325247" lon="12.742906530628302"><ele>121.0</ele><time>2026-05-03T14:26:56Z</time></trkpt><trkpt lat="43.81962392412457" lon="12.742815368542043"><ele>121.0</ele><time>2026-05-03T14:26:57Z</time></trkpt><trkpt lat="43.81970185827862" lon="12.742790734435093"><ele>121.0</ele><time>2026-05-03T14:26:58Z</time></trkpt><trkpt lat="43.81979420609394" lon="12.74279282068959"><ele>121.0</ele><time>2026-05-03T14:26:59Z</time></trkpt><trkpt lat="43.81988866508433" lon="12.742869134691263"><ele>121.0</ele><time>2026-05-03T14:27:00Z</time></trkpt><trkpt lat="43.81997992784012" lon="12.742940194442527"><ele>121.0</ele><time>2026-05-03T14:27:01Z</time></trkpt><trkpt lat="43.8200662035383" lon="12.74299474957075"><ele>121.0</ele><time>2026-05-03T14:27:02Z</time></trkpt><trkpt lat="43.82013890108763" lon="12.743089695993731"><ele>121.0</ele><time>2026-05-03T14:27:03Z</time></trkpt><trkpt lat="43.820221893562994" lon="12.743228811816715"><ele>121.0</ele><time>2026-05-03T14:27:04Z</time></trkpt><trkpt lat="43.820309879434575" lon="12.743368705391557"><ele>121.0</ele><time>2026-05-03T14:27:05Z</time></trkpt><trkpt lat="43.82037542499221" lon="12.743483168059438"><ele>117.0</ele><time>2026-05-03T14:27:06Z</time></trkpt><trkpt lat="43.8204199172" lon="12.743603407525903"><ele>113.0</ele><time>2026-05-03T14:27:07Z</time></trkpt><trkpt lat="43.820439247274074" lon="12.743743241391524"><ele>109.0</ele><time>2026-05-03T14:27:08Z</time></trkpt><trkpt lat="43.82044041447778" lon="12.743902128178004"><ele>105.0</ele><time>2026-05-03T14:27:09Z</time></trkpt><trkpt lat="43.820419326958856" lon="12.744062506549696"><ele>101.0</ele><time>2026-05-03T14:27:10Z</time></trkpt><trkpt lat="43.82036441694707" lon="12.74420653293675"><ele>101.0</ele><time>2026-05-03T14:27:11Z</time></trkpt><trkpt lat="43.82029561669691" lon="12.744360032715235"><ele>101.0</ele><time>2026-05-03T14:27:12Z</time></trkpt><trkpt lat="43.82023335871982" lon="12.744540900337217"><ele>101.0</ele><time>2026-05-03T14:27:13Z</time></trkpt><trkpt lat="43.82017413079421" lon="12.74468825637718"><ele>101.0</ele><time>2026-05-03T14:27:14Z</time></trkpt><trkpt lat="43.82013619867264" lon="12.744836460619224"><ele>101.8</ele><time>2026-05-03T14:27:15Z</time></trkpt><trkpt lat="43.82010703476812" lon="12.744971745392052"><ele>102.6</ele><time>2026-05-03T14:27:16Z</time></trkpt><trkpt lat="43.82007800887017" lon="12.745088393158834"><ele>103.4</ele><time>2026-05-03T14:27:17Z</time></trkpt><trkpt lat="43.82005385442528" lon="12.745172583661137"><ele>104.2</ele><time>2026-05-03T14:27:18Z</time></trkpt><trkpt lat="43.82009152678529" lon="12.745293401959463"><ele>105.0</ele><time>2026-05-03T14:27:20Z</time></trkpt><trkpt lat="43.82026902629109" lon="12.745287673033161"><ele>101.33333333333333</ele><time>2026-05-03T14:27:22Z</time></trkpt><trkpt lat="43.82042457851888" lon="12.745233982520077"><ele>97.66666666666666</ele><time>2026-05-03T14:27:23Z</time></trkpt><trkpt lat="43.82062246088165" lon="12.745172232960511"><ele>94.0</ele><time>2026-05-03T14:27:24Z</time></trkpt><trkpt lat="43.8208067329846" lon="12.745124349890663"><ele>94.0</ele><time>2026-05-03T14:27:25Z</time></trkpt><trkpt lat="43.82097216267286" lon="12.745079871132509"><ele>94.0</ele><time>2026-05-03T14:27:26Z</time></trkpt><trkpt lat="43.82111442392619" lon="12.745029324542678"><ele>94.0</ele><time>2026-05-03T14:27:27Z</time></trkpt><trkpt lat="43.82124358066158" lon="12.744980798712625"><ele>94.0</ele><time>2026-05-03T14:27:28Z</time></trkpt><trkpt lat="43.82135982759743" lon="12.744937132660947"><ele>91.33333333333333</ele><time>2026-05-03T14:27:29Z</time></trkpt><trkpt lat="43.82145835825675" lon="12.744893843598314"><ele>88.66666666666666</ele><time>2026-05-03T14:27:30Z</time></trkpt><trkpt lat="43.82153495232877" lon="12.744859138950714"><ele>86.0</ele><time>2026-05-03T14:27:31Z</time></trkpt><trkpt lat="43.821599540228725" lon="12.744799746844874"><ele>83.33333333333333</ele><time>2026-05-03T14:27:32Z</time></trkpt><trkpt lat="43.82164103051678" lon="12.744702712465275"><ele>80.66666666666667</ele><time>2026-05-03T14:27:33Z</time></trkpt><trkpt lat="43.82162422554225" lon="12.744602701139783"><ele>78.0</ele><time>2026-05-03T14:27:34Z</time></trkpt><trkpt lat="43.82161775480911" lon="12.744464663386214"><ele>77.66666666666667</ele><time>2026-05-03T14:27:35Z</time></trkpt><trkpt lat="43.82155652525007" lon="12.744278225414515"><ele>77.33333333333334</ele><time>2026-05-03T14:27:36Z</time></trkpt><trkpt lat="43.82145972857848" lon="12.744058151405767"><ele>77.0</ele><time>2026-05-03T14:27:37.001Z</time></trkpt><trkpt lat="43.82138561661959" lon="12.743886869558924"><ele>77.0</ele><time>2026-05-03T14:27:38.001Z</time></trkpt><trkpt lat="43.82132621442043" lon="12.74372903817352"><ele>77.0</ele><time>2026-05-03T14:27:39.001Z</time></trkpt><trkpt lat="43.821270643078705" lon="12.74356677903609"><ele>77.0</ele><time>2026-05-03T14:27:40.001Z</time></trkpt><trkpt lat="43.82121825506108" lon="12.743390862507065"><ele>77.0</ele><time>2026-05-03T14:27:41.001Z</time></trkpt><trkpt lat="43.82118188566066" lon="12.743214774790303"><ele>74.25</ele><time>2026-05-03T14:27:42.001Z</time></trkpt><trkpt lat="43.82116000113414" lon="12.743049507736654"><ele>71.5</ele><time>2026-05-03T14:27:43.001Z</time></trkpt><trkpt lat="43.82115027315769" lon="12.742904712703048"><ele>68.75</ele><time>2026-05-03T14:27:44.001Z</time></trkpt><trkpt lat="43.82113324989604" lon="12.74274058521106"><ele>66.0</ele><time>2026-05-03T14:27:45.001Z</time></trkpt><trkpt lat="43.821117019445346" lon="12.742585062921359"><ele>65.8</ele><time>2026-05-03T14:27:46.001Z</time></trkpt><trkpt lat="43.82109407253791" lon="12.742448386717134"><ele>65.6</ele><time>2026-05-03T14:27:47.001Z</time></trkpt><trkpt lat="43.82105686375049" lon="12.742322953220587"><ele>65.4</ele><time>2026-05-03T14:27:48.001Z</time></trkpt><trkpt lat="43.82106166067697" lon="12.742191614219722"><ele>65.2</ele><time>2026-05-03T14:27:49.001Z</time></trkpt><trkpt lat="43.82105624945782" lon="12.742067296294534"><ele>65.0</ele><time>2026-05-03T14:27:50.001Z</time></trkpt><trkpt lat="43.821067450432714" lon="12.741956733697256"><ele>65.2</ele><time>2026-05-03T14:27:51.001Z</time></trkpt><trkpt lat="43.82107773803174" lon="12.741829172016692"><ele>65.4</ele><time>2026-05-03T14:27:52.001Z</time></trkpt><trkpt lat="43.821093619571926" lon="12.741683549751313"><ele>65.6</ele><time>2026-05-03T14:27:53.001Z</time></trkpt><trkpt lat="43.82117100018097" lon="12.74153873858417"><ele>65.8</ele><time>2026-05-03T14:27:55.001Z</time></trkpt><trkpt lat="43.821286875651275" lon="12.741500575787718"><ele>66.0</ele><time>2026-05-03T14:27:57.001Z</time></trkpt><trkpt lat="43.821381368769174" lon="12.74162407523921"><ele>66.0</ele><time>2026-05-03T14:27:59.001Z</time></trkpt><trkpt lat="43.821425543732296" lon="12.741736610811932"><ele>66.0</ele><time>2026-05-03T14:28:00.001Z</time></trkpt><trkpt lat="43.82148845769427" lon="12.741844949225342"><ele>66.0</ele><time>2026-05-03T14:28:01.001Z</time></trkpt><trkpt lat="43.82157230739829" lon="12.741920451141121"><ele>66.0</ele><time>2026-05-03T14:28:03.001Z</time></trkpt><trkpt lat="43.821671109423534" lon="12.741837110545179"><ele>66.0</ele><time>2026-05-03T14:28:05.001Z</time></trkpt><trkpt lat="43.82171806798551" lon="12.741721810504602"><ele>66.0</ele><time>2026-05-03T14:28:06.001Z</time></trkpt><trkpt lat="43.82178565268618" lon="12.741536501313153"><ele>66.0</ele><time>2026-05-03T14:28:07.001Z</time></trkpt><trkpt lat="43.821851458900376" lon="12.74137364147382"><ele>66.0</ele><time>2026-05-03T14:28:08.001Z</time></trkpt><trkpt lat="43.82189737379163" lon="12.741240406485725"><ele>66.0</ele><time>2026-05-03T14:28:09.001Z</time></trkpt><trkpt lat="43.82193007002131" lon="12.741145676385434"><ele>65.2</ele><time>2026-05-03T14:28:10.001Z</time></trkpt><trkpt lat="43.821980944672696" lon="12.74106714390742"><ele>64.39999999999999</ele><time>2026-05-03T14:28:12.001Z</time></trkpt><trkpt lat="43.82195688153469" lon="12.741171714023558"><ele>63.6</ele><time>2026-05-03T14:28:19.001Z</time></trkpt><trkpt lat="43.821927231232394" lon="12.741254704093484"><ele>62.8</ele><time>2026-05-03T14:28:29.001Z</time></trkpt><trkpt lat="43.82208907311805" lon="12.741460493672765"><ele>62.0</ele><time>2026-05-03T14:28:30.001Z</time></trkpt><trkpt lat="43.82211306684657" lon="12.741565064837017"><ele>62.00000000000001</ele><time>2026-05-03T14:28:31.001Z</time></trkpt><trkpt lat="43.82215820084894" lon="12.7417093751931"><ele>62.0</ele><time>2026-05-03T14:28:33.001Z</time></trkpt><trkpt lat="43.822200378740824" lon="12.741774994755454"><ele>62.0</ele><time>2026-05-03T14:28:34.001Z</time></trkpt><trkpt lat="43.822252264694846" lon="12.741871132010273"><ele>62.0</ele><time>2026-05-03T14:28:35.001Z</time></trkpt><trkpt lat="43.82230086702713" lon="12.741982498715126"><ele>62.00000000000001</ele><time>2026-05-03T14:28:36.001Z</time></trkpt><trkpt lat="43.82234304446939" lon="12.742091091677414"><ele>62.0</ele><time>2026-05-03T14:28:37.001Z</time></trkpt><trkpt lat="43.822389381649984" lon="12.742192866230987"><ele>62.0</ele><time>2026-05-03T14:28:38.001Z</time></trkpt><trkpt lat="43.82243358466883" lon="12.742257184891278"><ele>62.0</ele><time>2026-05-03T14:28:39.001Z</time></trkpt><trkpt lat="43.822511811306946" lon="12.742391803696348"><ele>62.0</ele><time>2026-05-03T14:28:41.001Z</time></trkpt><trkpt lat="43.822566210855165" lon="12.742490435849792"><ele>62.0</ele><time>2026-05-03T14:28:43.001Z</time></trkpt><trkpt lat="43.82262077348317" lon="12.742558989929908"><ele>62.0</ele><time>2026-05-03T14:28:45.001Z</time></trkpt><trkpt lat="43.82266952481776" lon="12.742688621798454"><ele>62.333333333333336</ele><time>2026-05-03T14:28:48.001Z</time></trkpt><trkpt lat="43.82272934039402" lon="12.742822272511631"><ele>62.66666666666667</ele><time>2026-05-03T14:28:50.001Z</time></trkpt><trkpt lat="43.82278336402718" lon="12.742897395736684"><ele>63.0</ele><time>2026-05-03T14:28:51.001Z</time></trkpt><trkpt lat="43.822842069886484" lon="12.742954354744235"><ele>63.33333333333333</ele><time>2026-05-03T14:28:52.001Z</time></trkpt><trkpt lat="43.822904664826055" lon="12.743028746499856"><ele>63.666666666666664</ele><time>2026-05-03T14:28:53.001Z</time></trkpt><trkpt lat="43.82297793938684" lon="12.743132443763322"><ele>64.0</ele><time>2026-05-03T14:28:54Z</time></trkpt><trkpt lat="43.82306805812564" lon="12.743250405810938"><ele>63.99999999999999</ele><time>2026-05-03T14:28:55Z</time></trkpt><trkpt lat="43.82311733505114" lon="12.743336681403328"><ele>64.0</ele><time>2026-05-03T14:28:56Z</time></trkpt><trkpt lat="43.823191625507654" lon="12.743444610332542"><ele>64.0</ele><time>2026-05-03T14:28:57Z</time></trkpt><trkpt lat="43.823252939675335" lon="12.743546760555565"><ele>64.0</ele><time>2026-05-03T14:28:58Z</time></trkpt><trkpt lat="43.82329651281854" lon="12.743629448136991"><ele>63.99999999999999</ele><time>2026-05-03T14:28:59Z</time></trkpt><trkpt lat="43.823326044037394" lon="12.7437143290187"><ele>64.0</ele><time>2026-05-03T14:29:00Z</time></trkpt><trkpt lat="43.82336499849098" lon="12.743817064229733"><ele>63.666666666666664</ele><time>2026-05-03T14:29:01Z</time></trkpt><trkpt lat="43.82339694419853" lon="12.743915610780943"><ele>63.33333333333333</ele><time>2026-05-03T14:29:02Z</time></trkpt><trkpt lat="43.8234426634077" lon="12.743996588174806"><ele>63.0</ele><time>2026-05-03T14:29:03Z</time></trkpt><trkpt lat="43.823506972823154" lon="12.74407921563053"><ele>62.66666666666667</ele><time>2026-05-03T14:29:04Z</time></trkpt><trkpt lat="43.82358120775128" lon="12.744173868923037"><ele>62.333333333333336</ele><time>2026-05-03T14:29:05Z</time></trkpt><trkpt lat="43.82364370206436" lon="12.744251380494916"><ele>62.0</ele><time>2026-05-03T14:29:06Z</time></trkpt><trkpt lat="43.8237039104968" lon="12.744303048579129"><ele>61.8</ele><time>2026-05-03T14:29:07Z</time></trkpt><trkpt lat="43.82378371117555" lon="12.744391271542199"><ele>61.6</ele><time>2026-05-03T14:29:08Z</time></trkpt><trkpt lat="43.823857818900684" lon="12.744476876444516"><ele>61.39999999999999</ele><time>2026-05-03T14:29:09Z</time></trkpt><trkpt lat="43.823912435640544" lon="12.744528820479077"><ele>61.199999999999996</ele><time>2026-05-03T14:29:10Z</time></trkpt><trkpt lat="43.823980801515034" lon="12.744632631999773"><ele>61.0</ele><time>2026-05-03T14:29:12Z</time></trkpt><trkpt lat="43.824066148732484" lon="12.74471467933735"><ele>60.99999999999999</ele><time>2026-05-03T14:29:14Z</time></trkpt><trkpt lat="43.82406069613932" lon="12.744806128105237"><ele>61.0</ele><time>2026-05-03T14:29:18Z</time></trkpt><trkpt lat="43.82399710628203" lon="12.744835274858698"><ele>60.99999999999999</ele><time>2026-05-03T14:29:20Z</time></trkpt><trkpt lat="43.82391623234642" lon="12.744843888084981"><ele>60.99999999999999</ele><time>2026-05-03T14:29:22Z</time></trkpt><trkpt lat="43.823860021884315" lon="12.744926628164018"><ele>61.0</ele><time>2026-05-03T14:29:25Z</time></trkpt><trkpt lat="43.823813920523506" lon="12.744998792680606"><ele>60.99999999999999</ele><time>2026-05-03T14:29:34Z</time></trkpt><trkpt lat="43.82374104929969" lon="12.745006915550363"><ele>60.99999999999999</ele><time>2026-05-03T14:29:55.001Z</time></trkpt><trkpt lat="43.82366168330736" lon="12.744982641948535"><ele>60.99999999999999</ele><time>2026-05-03T14:30:01.001Z</time></trkpt><trkpt lat="43.82355697963271" lon="12.744946184241124"><ele>61.0</ele><time>2026-05-03T14:30:03.001Z</time></trkpt><trkpt lat="43.82351692418274" lon="12.744871425893598"><ele>61.0</ele><time>2026-05-03T14:30:22.001Z</time></trkpt><trkpt lat="43.82348477922311" lon="12.744793786302965"><ele>61.0</ele><time>2026-05-03T14:30:23.001Z</time></trkpt><trkpt lat="43.82343284439318" lon="12.744678392615553"><ele>60.99999999999999</ele><time>2026-05-03T14:30:25.001Z</time></trkpt><trkpt lat="43.82338848038022" lon="12.744563165615013"><ele>61.0</ele><time>2026-05-03T14:30:29.001Z</time></trkpt><trkpt lat="43.82332856394026" lon="12.744521610750397"><ele>61.166666666666664</ele><time>2026-05-03T14:30:31.001Z</time></trkpt><trkpt lat="43.82324951684472" lon="12.744532325168937"><ele>61.33333333333333</ele><time>2026-05-03T14:30:33.001Z</time></trkpt><trkpt lat="43.82316853610705" lon="12.744556306133717"><ele>61.5</ele><time>2026-05-03T14:30:35.001Z</time></trkpt><trkpt lat="43.8232489844055" lon="12.74452085225244"><ele>61.66666666666667</ele><time>2026-05-03T14:31:12Z</time></trkpt><trkpt lat="43.823327961427346" lon="12.744521818198226"><ele>61.833333333333336</ele><time>2026-05-03T14:31:16Z</time></trkpt><trkpt lat="43.82337221602694" lon="12.74460123356901"><ele>62.0</ele><time>2026-05-03T14:32:03.001Z</time></trkpt><trkpt lat="43.823407246490405" lon="12.744680167381794"><ele>62.00000000000001</ele><time>2026-05-03T14:32:05.001Z</time></trkpt><trkpt lat="43.82345638719507" lon="12.744761155368295"><ele>62.0</ele><time>2026-05-03T14:32:06.001Z</time></trkpt><trkpt lat="43.823496954098424" lon="12.744851058695021"><ele>62.0</ele><time>2026-05-03T14:32:08.001Z</time></trkpt><trkpt lat="43.82355099383623" lon="12.744941195178086"><ele>62.0</ele><time>2026-05-03T14:33:11Z</time></trkpt><trkpt lat="43.82363027901475" lon="12.744981997781638"><ele>62.00000000000001</ele><time>2026-05-03T14:33:49Z</time></trkpt><trkpt lat="43.82371170729026" lon="12.745006693630646"><ele>62.0</ele><time>2026-05-03T14:33:55Z</time></trkpt><trkpt lat="43.82379228830036" lon="12.744993093272925"><ele>61.833333333333336</ele><time>2026-05-03T14:33:57Z</time></trkpt><trkpt lat="43.82385412481875" lon="12.744967369549933"><ele>61.66666666666667</ele><time>2026-05-03T14:33:59.001Z</time></trkpt><trkpt lat="43.82391948755959" lon="12.744899260442438"><ele>61.5</ele><time>2026-05-03T14:34:27.001Z</time></trkpt><trkpt lat="43.82400659759145" lon="12.744850979688309"><ele>61.33333333333333</ele><time>2026-05-03T14:34:29.001Z</time></trkpt><trkpt lat="43.82408458589192" lon="12.744823693034716"><ele>61.166666666666664</ele><time>2026-05-03T14:34:31.001Z</time></trkpt><trkpt lat="43.824148669148116" lon="12.74478730099167"><ele>61.0</ele><time>2026-05-03T14:34:35.001Z</time></trkpt><trkpt lat="43.82422496053336" lon="12.744829855066891"><ele>61.0</ele><time>2026-05-03T14:34:39.001Z</time></trkpt><trkpt lat="43.824286893975966" lon="12.7448984051216"><ele>60.99999999999999</ele><time>2026-05-03T14:34:45.001Z</time></trkpt><trkpt lat="43.82438021603311" lon="12.744989278565816"><ele>60.99999999999999</ele><time>2026-05-03T14:34:46.001Z</time></trkpt><trkpt lat="43.82444514461443" lon="12.745045182791722"><ele>61.0</ele><time>2026-05-03T14:34:47.001Z</time></trkpt><trkpt lat="43.82455099596029" lon="12.745067628763506"><ele>61.0</ele><time>2026-05-03T14:34:49.001Z</time></trkpt><trkpt lat="43.824623744279144" lon="12.745037212950772"><ele>61.166666666666664</ele><time>2026-05-03T14:34:50.001Z</time></trkpt><trkpt lat="43.82473047613304" lon="12.745008629768394"><ele>61.33333333333333</ele><time>2026-05-03T14:34:51.001Z</time></trkpt><trkpt lat="43.82481163561408" lon="12.744998261963831"><ele>61.5</ele><time>2026-05-03T14:34:52.001Z</time></trkpt><trkpt lat="43.82487832955015" lon="12.745014748942001"><ele>61.66666666666667</ele><time>2026-05-03T14:34:53.001Z</time></trkpt><trkpt lat="43.82495513081421" lon="12.745051361143249"><ele>61.833333333333336</ele><time>2026-05-03T14:34:54.001Z</time></trkpt><trkpt lat="43.82501713185884" lon="12.745081752302305"><ele>62.0</ele><time>2026-05-03T14:34:55.001Z</time></trkpt><trkpt lat="43.82507365190726" lon="12.745128924763508"><ele>62.0</ele><time>2026-05-03T14:34:56.001Z</time></trkpt><trkpt lat="43.82513344589848" lon="12.745188042294497"><ele>62.0</ele><time>2026-05-03T14:34:57.001Z</time></trkpt><trkpt lat="43.825194601258715" lon="12.745291076217464"><ele>62.0</ele><time>2026-05-03T14:34:59.001Z</time></trkpt><trkpt lat="43.825198336965435" lon="12.745423818882601"><ele>62.0</ele><time>2026-05-03T14:35:01.001Z</time></trkpt><trkpt lat="43.82527742609293" lon="12.74547228397185"><ele>62.0</ele><time>2026-05-03T14:35:03.001Z</time></trkpt><trkpt lat="43.82538800635812" lon="12.745419710740611"><ele>61.8</ele><time>2026-05-03T14:35:05.001Z</time></trkpt><trkpt lat="43.82545991782298" lon="12.745407236075014"><ele>61.6</ele><time>2026-05-03T14:35:06.001Z</time></trkpt><trkpt lat="43.82553107128552" lon="12.745393322758524"><ele>61.39999999999999</ele><time>2026-05-03T14:35:07.001Z</time></trkpt><trkpt lat="43.82564882417896" lon="12.745383577614568"><ele>61.199999999999996</ele><time>2026-05-03T14:35:09.001Z</time></trkpt><trkpt lat="43.82576477324975" lon="12.745455514920712"><ele>61.0</ele><time>2026-05-03T14:35:11.001Z</time></trkpt><trkpt lat="43.82582745906887" lon="12.745509329903207"><ele>61.0</ele><time>2026-05-03T14:35:12Z</time></trkpt><trkpt lat="43.825914015076606" lon="12.74556072891027"><ele>60.99999999999999</ele><time>2026-05-03T14:35:13Z</time></trkpt><trkpt lat="43.825995602117494" lon="12.745597947918403"><ele>60.99999999999999</ele><time>2026-05-03T14:35:14Z</time></trkpt><trkpt lat="43.82607805637498" lon="12.745658769690237"><ele>61.0</ele><time>2026-05-03T14:35:15Z</time></trkpt><trkpt lat="43.82616395559188" lon="12.745700032889618"><ele>61.0</ele><time>2026-05-03T14:35:16Z</time></trkpt><trkpt lat="43.82626067300997" lon="12.745742928637057"><ele>61.0</ele><time>2026-05-03T14:35:17Z</time></trkpt><trkpt lat="43.82635737654874" lon="12.745795341367774"><ele>60.99999999999999</ele><time>2026-05-03T14:35:18Z</time></trkpt><trkpt lat="43.826448376797856" lon="12.745823724661872"><ele>60.99999999999999</ele><time>2026-05-03T14:35:19Z</time></trkpt><trkpt lat="43.82652225581207" lon="12.745887572859385"><ele>61.0</ele><time>2026-05-03T14:35:20Z</time></trkpt><trkpt lat="43.82662750404687" lon="12.74593559745654"><ele>61.0</ele><time>2026-05-03T14:35:21Z</time></trkpt><trkpt lat="43.826720117772474" lon="12.745981382275652"><ele>61.4</ele><time>2026-05-03T14:35:22Z</time></trkpt><trkpt lat="43.82681464480169" lon="12.746027184227493"><ele>61.8</ele><time>2026-05-03T14:35:23Z</time></trkpt><trkpt lat="43.8269122107502" lon="12.74607462968208"><ele>62.199999999999996</ele><time>2026-05-03T14:35:24Z</time></trkpt><trkpt lat="43.827013329210445" lon="12.74611559538169"><ele>62.599999999999994</ele><time>2026-05-03T14:35:25Z</time></trkpt><trkpt lat="43.82709598229142" lon="12.74615639725699"><ele>63.0</ele><time>2026-05-03T14:35:26Z</time></trkpt><trkpt lat="43.82717556586839" lon="12.746180601462992"><ele>63.0</ele><time>2026-05-03T14:35:27Z</time></trkpt><trkpt lat="43.82724784206202" lon="12.74619837588697"><ele>63.0</ele><time>2026-05-03T14:35:28Z</time></trkpt><trkpt lat="43.82732235922434" lon="12.746208780606239"><ele>63.0</ele><time>2026-05-03T14:35:29Z</time></trkpt><trkpt lat="43.82738620271371" lon="12.746221921842581"><ele>63.0</ele><time>2026-05-03T14:35:30Z</time></trkpt><trkpt lat="43.827449873887296" lon="12.746234790340852"><ele>63.0</ele><time>2026-05-03T14:35:31Z</time></trkpt><trkpt lat="43.827504932003755" lon="12.74629763844491"><ele>63.0</ele><time>2026-05-03T14:35:32Z</time></trkpt><trkpt lat="43.82758384432956" lon="12.746393492942484"><ele>63.4</ele><time>2026-05-03T14:35:33Z</time></trkpt><trkpt lat="43.827672130897476" lon="12.746458128510938"><ele>63.8</ele><time>2026-05-03T14:35:34Z</time></trkpt><trkpt lat="43.827737753660124" lon="12.746517754792992"><ele>64.2</ele><time>2026-05-03T14:35:35Z</time></trkpt><trkpt lat="43.82779434208871" lon="12.746569292881677"><ele>64.6</ele><time>2026-05-03T14:35:36Z</time></trkpt><trkpt lat="43.82788178616926" lon="12.746711828402665"><ele>65.0</ele><time>2026-05-03T14:35:38Z</time></trkpt><trkpt lat="43.827931480372285" lon="12.74677969874745"><ele>65.0</ele><time>2026-05-03T14:35:39Z</time></trkpt><trkpt lat="43.82804315450884" lon="12.746851836387908"><ele>65.0</ele><time>2026-05-03T14:35:41Z</time></trkpt><trkpt lat="43.82813522272268" lon="12.746877559374058"><ele>65.0</ele><time>2026-05-03T14:35:42Z</time></trkpt><trkpt lat="43.82822004803679" lon="12.746921559908404"><ele>65.0</ele><time>2026-05-03T14:35:43Z</time></trkpt><trkpt lat="43.82829489243493" lon="12.746995123059882"><ele>65.0</ele><time>2026-05-03T14:35:44Z</time></trkpt><trkpt lat="43.82838367425318" lon="12.747083437498244"><ele>64.6</ele><time>2026-05-03T14:35:45Z</time></trkpt><trkpt lat="43.828446072244446" lon="12.747144533995943"><ele>64.2</ele><time>2026-05-03T14:35:46Z</time></trkpt><trkpt lat="43.82856039487402" lon="12.747190888299047"><ele>63.8</ele><time>2026-05-03T14:35:48Z</time></trkpt><trkpt lat="43.828644164578954" lon="12.747188268055073"><ele>63.4</ele><time>2026-05-03T14:35:49Z</time></trkpt><trkpt lat="43.828737089244356" lon="12.747190486180537"><ele>63.0</ele><time>2026-05-03T14:35:50Z</time></trkpt><trkpt lat="43.82881546277806" lon="12.747220916437014"><ele>62.833333333333336</ele><time>2026-05-03T14:35:51Z</time></trkpt><trkpt lat="43.828895843307" lon="12.747267162214385"><ele>62.66666666666667</ele><time>2026-05-03T14:35:52Z</time></trkpt><trkpt lat="43.82897415445747" lon="12.747321983999774"><ele>62.5</ele><time>2026-05-03T14:35:53Z</time></trkpt><trkpt lat="43.829045431992505" lon="12.74738224140071"><ele>62.333333333333336</ele><time>2026-05-03T14:35:54Z</time></trkpt><trkpt lat="43.829114339936254" lon="12.747442844322352"><ele>62.16666666666667</ele><time>2026-05-03T14:35:55Z</time></trkpt><trkpt lat="43.82918568139971" lon="12.747506695579128"><ele>62.0</ele><time>2026-05-03T14:35:56Z</time></trkpt><trkpt lat="43.8292570268081" lon="12.747590467891895"><ele>61.400000000000006</ele><time>2026-05-03T14:35:57Z</time></trkpt><trkpt lat="43.82932038158386" lon="12.747676069868401"><ele>60.800000000000004</ele><time>2026-05-03T14:35:58Z</time></trkpt><trkpt lat="43.82940696342394" lon="12.747783738585824"><ele>60.2</ele><time>2026-05-03T14:35:59Z</time></trkpt><trkpt lat="43.8294941937946" lon="12.747893092153372"><ele>59.6</ele><time>2026-05-03T14:36:00Z</time></trkpt><trkpt lat="43.82954623344182" lon="12.747986084040587"><ele>59.0</ele><time>2026-05-03T14:36:01Z</time></trkpt><trkpt lat="43.82957958051582" lon="12.748103952209146"><ele>58.800000000000004</ele><time>2026-05-03T14:36:02Z</time></trkpt><trkpt lat="43.829607237830736" lon="12.748208102719845"><ele>58.60000000000001</ele><time>2026-05-03T14:36:03Z</time></trkpt><trkpt lat="43.82960915375939" lon="12.748370012027012"><ele>58.4</ele><time>2026-05-03T14:36:05Z</time></trkpt><trkpt lat="43.82958579773972" lon="12.748481767601886"><ele>58.2</ele><time>2026-05-03T14:36:06Z</time></trkpt><trkpt lat="43.829567154280625" lon="12.74858691242964"><ele>58.0</ele><time>2026-05-03T14:36:07Z</time></trkpt><trkpt lat="43.829629872068615" lon="12.748732549490287"><ele>58.33333333333333</ele><time>2026-05-03T14:36:09Z</time></trkpt><trkpt lat="43.82970860704156" lon="12.748831032917051"><ele>58.666666666666664</ele><time>2026-05-03T14:36:11Z</time></trkpt><trkpt lat="43.82977472735863" lon="12.748870099072711"><ele>59.0</ele><time>2026-05-03T14:36:12Z</time></trkpt><trkpt lat="43.82983117023596" lon="12.748923455882894"><ele>59.33333333333333</ele><time>2026-05-03T14:36:13Z</time></trkpt><trkpt lat="43.829874199094746" lon="12.749012952290071"><ele>59.666666666666664</ele><time>2026-05-03T14:36:15.001Z</time></trkpt><trkpt lat="43.829867925421055" lon="12.749158324513342"><ele>60.0</ele><time>2026-05-03T14:36:17.001Z</time></trkpt><trkpt lat="43.829889591498855" lon="12.749276944563253"><ele>60.166666666666664</ele><time>2026-05-03T14:36:18.001Z</time></trkpt><trkpt lat="43.829922340675516" lon="12.7493925712148"><ele>60.33333333333333</ele><time>2026-05-03T14:36:19.001Z</time></trkpt><trkpt lat="43.82994782031816" lon="12.749476925661698"><ele>60.5</ele><time>2026-05-03T14:36:20.001Z</time></trkpt><trkpt lat="43.83002831271258" lon="12.749522507350555"><ele>60.666666666666664</ele><time>2026-05-03T14:36:22.001Z</time></trkpt><trkpt lat="43.830117271313" lon="12.749585634141807"><ele>60.83333333333333</ele><time>2026-05-03T14:36:23.001Z</time></trkpt><trkpt lat="43.83018433622424" lon="12.749665281754437"><ele>61.0</ele><time>2026-05-03T14:36:24.001Z</time></trkpt><trkpt lat="43.83023350511588" lon="12.749731710883356"><ele>60.4</ele><time>2026-05-03T14:36:25.001Z</time></trkpt><trkpt lat="43.83028275972004" lon="12.74982354678287"><ele>59.8</ele><time>2026-05-03T14:36:26.001Z</time></trkpt><trkpt lat="43.830377039344945" lon="12.74989393958337"><ele>59.199999999999996</ele><time>2026-05-03T14:36:28.001Z</time></trkpt><trkpt lat="43.83050169318754" lon="12.749883370390604"><ele>58.599999999999994</ele><time>2026-05-03T14:36:30.001Z</time></trkpt><trkpt lat="43.830571098087376" lon="12.749967005726388"><ele>58.0</ele><time>2026-05-03T14:36:32.001Z</time></trkpt><trkpt lat="43.830644286211" lon="12.750098011281318"><ele>57.99999999999999</ele><time>2026-05-03T14:36:34.001Z</time></trkpt><trkpt lat="43.83066214730423" lon="12.75018560879041"><ele>58.0</ele><time>2026-05-03T14:36:35.001Z</time></trkpt><trkpt lat="43.83072612045556" lon="12.750292500720217"><ele>58.0</ele><time>2026-05-03T14:36:37.001Z</time></trkpt><trkpt lat="43.830784504821565" lon="12.750332750351678"><ele>58.0</ele><time>2026-05-03T14:36:38.001Z</time></trkpt><trkpt lat="43.8308401469074" lon="12.750379194442383"><ele>57.99999999999999</ele><time>2026-05-03T14:36:39.001Z</time></trkpt><trkpt lat="43.830885113557855" lon="12.75045304558945"><ele>58.0</ele><time>2026-05-03T14:36:40.001Z</time></trkpt><trkpt lat="43.83094587091752" lon="12.750549954217782"><ele>57.666666666666664</ele><time>2026-05-03T14:36:41.001Z</time></trkpt><trkpt lat="43.83100369125461" lon="12.750632278372972"><ele>57.33333333333333</ele><time>2026-05-03T14:36:42.001Z</time></trkpt><trkpt lat="43.83107608162831" lon="12.750688906145605"><ele>57.0</ele><time>2026-05-03T14:36:43.001Z</time></trkpt><trkpt lat="43.831139291045005" lon="12.750738726311537"><ele>56.66666666666667</ele><time>2026-05-03T14:36:44.001Z</time></trkpt><trkpt lat="43.831231817149984" lon="12.750784828339246"><ele>56.333333333333336</ele><time>2026-05-03T14:36:46.001Z</time></trkpt><trkpt lat="43.83129577631753" lon="12.750787941019226"><ele>56.0</ele><time>2026-05-03T14:36:47.001Z</time></trkpt><trkpt lat="43.831389351926376" lon="12.750801746103354"><ele>56.00000000000001</ele><time>2026-05-03T14:36:48.001Z</time></trkpt><trkpt lat="43.831460244760116" lon="12.750816395523305"><ele>56.0</ele><time>2026-05-03T14:36:49.001Z</time></trkpt><trkpt lat="43.83151970833832" lon="12.75085170001737"><ele>56.0</ele><time>2026-05-03T14:36:50.001Z</time></trkpt><trkpt lat="43.831591248934245" lon="12.750903059472355"><ele>56.0</ele><time>2026-05-03T14:36:51.001Z</time></trkpt><trkpt lat="43.83167196121727" lon="12.750969199372493"><ele>56.00000000000001</ele><time>2026-05-03T14:36:52.001Z</time></trkpt><trkpt lat="43.83172987773398" lon="12.751019368429708"><ele>56.0</ele><time>2026-05-03T14:36:53.001Z</time></trkpt><trkpt lat="43.83179030867204" lon="12.75108603229225"><ele>55.333333333333336</ele><time>2026-05-03T14:36:54.001Z</time></trkpt><trkpt lat="43.831845255638925" lon="12.751147835127657"><ele>54.66666666666667</ele><time>2026-05-03T14:36:55.001Z</time></trkpt><trkpt lat="43.831921639768645" lon="12.75122711773032"><ele>54.0</ele><time>2026-05-03T14:36:56.001Z</time></trkpt><trkpt lat="43.831998016670724" lon="12.751270739809186"><ele>53.33333333333333</ele><time>2026-05-03T14:36:57.001Z</time></trkpt><trkpt lat="43.83206076740863" lon="12.75131116607374"><ele>52.666666666666664</ele><time>2026-05-03T14:36:58.001Z</time></trkpt><trkpt lat="43.83213022314662" lon="12.751345868852912"><ele>52.0</ele><time>2026-05-03T14:36:59.001Z</time></trkpt><trkpt lat="43.83223046802732" lon="12.751436449732784"><ele>51.99999999999999</ele><time>2026-05-03T14:37:01.001Z</time></trkpt><trkpt lat="43.83231175197229" lon="12.751512073499747"><ele>52.0</ele><time>2026-05-03T14:37:02.001Z</time></trkpt><trkpt lat="43.83238330435465" lon="12.751567536855182"><ele>52.0</ele><time>2026-05-03T14:37:03.001Z</time></trkpt><trkpt lat="43.83246086904695" lon="12.751613515443013"><ele>52.0</ele><time>2026-05-03T14:37:04.001Z</time></trkpt><trkpt lat="43.83253134585078" lon="12.751642859755988"><ele>51.99999999999999</ele><time>2026-05-03T14:37:05.001Z</time></trkpt><trkpt lat="43.83263342097446" lon="12.751675361072117"><ele>52.0</ele><time>2026-05-03T14:37:06.001Z</time></trkpt><trkpt lat="43.83272709792433" lon="12.751702850774649"><ele>52.0</ele><time>2026-05-03T14:37:07.001Z</time></trkpt><trkpt lat="43.832811519411266" lon="12.751734511784724"><ele>52.0</ele><time>2026-05-03T14:37:08.001Z</time></trkpt><trkpt lat="43.83291649005233" lon="12.75178986766579"><ele>52.0</ele><time>2026-05-03T14:37:09.001Z</time></trkpt><trkpt lat="43.83300890616635" lon="12.751828224055581"><ele>52.0</ele><time>2026-05-03T14:37:10.001Z</time></trkpt><trkpt lat="43.833081018696426" lon="12.751854220453748"><ele>52.0</ele><time>2026-05-03T14:37:11.001Z</time></trkpt><trkpt lat="43.83318640642207" lon="12.751944642383705"><ele>52.0</ele><time>2026-05-03T14:37:13.001Z</time></trkpt><trkpt lat="43.833249218930725" lon="12.752046813190642"><ele>52.0</ele><time>2026-05-03T14:37:14.001Z</time></trkpt><trkpt lat="43.833323622226274" lon="12.752166524040934"><ele>52.0</ele><time>2026-05-03T14:37:15.001Z</time></trkpt><trkpt lat="43.8333857222313" lon="12.75228569710963"><ele>52.0</ele><time>2026-05-03T14:37:16.001Z</time></trkpt><trkpt lat="43.83347032016133" lon="12.75233144691152"><ele>52.0</ele><time>2026-05-03T14:37:17.001Z</time></trkpt><trkpt lat="43.83356271499954" lon="12.75241005229838"><ele>52.0</ele><time>2026-05-03T14:37:18Z</time></trkpt><trkpt lat="43.833668302997864" lon="12.75248448387781"><ele>52.0</ele><time>2026-05-03T14:37:19Z</time></trkpt><trkpt lat="43.833766727402434" lon="12.752529080321262"><ele>52.0</ele><time>2026-05-03T14:37:20Z</time></trkpt><trkpt lat="43.83384329212095" lon="12.75257846327131"><ele>52.0</ele><time>2026-05-03T14:37:21Z</time></trkpt><trkpt lat="43.83394370443419" lon="12.75260037765168"><ele>52.0</ele><time>2026-05-03T14:37:22Z</time></trkpt><trkpt lat="43.834090686199666" lon="12.7526153524369"><ele>52.0</ele><time>2026-05-03T14:37:23Z</time></trkpt><trkpt lat="43.834256101672835" lon="12.75264435826741"><ele>52.0</ele><time>2026-05-03T14:37:24Z</time></trkpt><trkpt lat="43.83440838086616" lon="12.7526710800918"><ele>52.0</ele><time>2026-05-03T14:37:25Z</time></trkpt><trkpt lat="43.834530905131636" lon="12.752720265403102"><ele>52.0</ele><time>2026-05-03T14:37:26Z</time></trkpt><trkpt lat="43.834657012975875" lon="12.752721544176186"><ele>52.2</ele><time>2026-05-03T14:37:27Z</time></trkpt><trkpt lat="43.83476826606502" lon="12.752736956638941"><ele>52.400000000000006</ele><time>2026-05-03T14:37:28Z</time></trkpt><trkpt lat="43.834882921072584" lon="12.752731937614145"><ele>52.599999999999994</ele><time>2026-05-03T14:37:29Z</time></trkpt><trkpt lat="43.834980210671645" lon="12.752713813372951"><ele>52.8</ele><time>2026-05-03T14:37:30Z</time></trkpt><trkpt lat="43.835089752115316" lon="12.75268181613038"><ele>53.0</ele><time>2026-05-03T14:37:31Z</time></trkpt><trkpt lat="43.83520850409853" lon="12.752632162685915"><ele>53.16666666666667</ele><time>2026-05-03T14:37:32Z</time></trkpt><trkpt lat="43.83530328276211" lon="12.752597490248952"><ele>53.333333333333336</ele><time>2026-05-03T14:37:33Z</time></trkpt><trkpt lat="43.835382795457264" lon="12.752557068088095"><ele>53.5</ele><time>2026-05-03T14:37:34Z</time></trkpt><trkpt lat="43.835440605953224" lon="12.752511504113139"><ele>53.66666666666667</ele><time>2026-05-03T14:37:35Z</time></trkpt><trkpt lat="43.835492660803794" lon="12.752455867407424"><ele>53.833333333333336</ele><time>2026-05-03T14:37:36Z</time></trkpt><trkpt lat="43.83556758543797" lon="12.752382595496831"><ele>54.0</ele><time>2026-05-03T14:37:38Z</time></trkpt><trkpt lat="43.83564036811031" lon="12.752411047887156"><ele>54.0</ele><time>2026-05-03T14:37:39Z</time></trkpt><trkpt lat="43.83575368933332" lon="12.752432245445531"><ele>54.0</ele><time>2026-05-03T14:37:40Z</time></trkpt><trkpt lat="43.83588971637359" lon="12.75244469776054"><ele>54.0</ele><time>2026-05-03T14:37:41Z</time></trkpt><trkpt lat="43.835995784583" lon="12.75244998076526"><ele>54.0</ele><time>2026-05-03T14:37:42Z</time></trkpt><trkpt lat="43.83609294373333" lon="12.752451862239628"><ele>54.166666666666664</ele><time>2026-05-03T14:37:43Z</time></trkpt><trkpt lat="43.83618417728911" lon="12.7524359652258"><ele>54.33333333333333</ele><time>2026-05-03T14:37:44Z</time></trkpt><trkpt lat="43.836259656757015" lon="12.752357068230774"><ele>54.5</ele><time>2026-05-03T14:37:45Z</time></trkpt><trkpt lat="43.83636278282459" lon="12.752401631585789"><ele>54.666666666666664</ele><time>2026-05-03T14:37:46Z</time></trkpt><trkpt lat="43.83643611237061" lon="12.75237508088971"><ele>54.83333333333333</ele><time>2026-05-03T14:37:47Z</time></trkpt><trkpt lat="43.83649976559097" lon="12.752354750241343"><ele>55.0</ele><time>2026-05-03T14:37:48Z</time></trkpt><trkpt lat="43.83656231848426" lon="12.752329520930461"><ele>54.99999999999999</ele><time>2026-05-03T14:37:49Z</time></trkpt><trkpt lat="43.8366187089519" lon="12.752274481458482"><ele>55.0</ele><time>2026-05-03T14:37:50Z</time></trkpt><trkpt lat="43.8367541806851" lon="12.75219548604497"><ele>55.0</ele><time>2026-05-03T14:37:51Z</time></trkpt><trkpt lat="43.83681600384235" lon="12.752166121533618"><ele>55.0</ele><time>2026-05-03T14:37:52Z</time></trkpt><trkpt lat="43.83688120762532" lon="12.752129128946038"><ele>54.99999999999999</ele><time>2026-05-03T14:37:53Z</time></trkpt><trkpt lat="43.836948947874355" lon="12.752041499059867"><ele>55.0</ele><time>2026-05-03T14:37:54Z</time></trkpt><trkpt lat="43.837041926829144" lon="12.751944675254656"><ele>54.2</ele><time>2026-05-03T14:37:55Z</time></trkpt><trkpt lat="43.837120829264606" lon="12.751872137265213"><ele>53.4</ele><time>2026-05-03T14:37:56Z</time></trkpt><trkpt lat="43.837218862971646" lon="12.751779660964392"><ele>52.599999999999994</ele><time>2026-05-03T14:37:57Z</time></trkpt><trkpt lat="43.83731432283201" lon="12.751669562007788"><ele>51.8</ele><time>2026-05-03T14:37:58Z</time></trkpt><trkpt lat="43.83739815173364" lon="12.751569682860463"><ele>51.0</ele><time>2026-05-03T14:37:59Z</time></trkpt><trkpt lat="43.837467327960674" lon="12.751478089757198"><ele>51.0</ele><time>2026-05-03T14:38:00Z</time></trkpt><trkpt lat="43.83754483556973" lon="12.75137930247804"><ele>51.0</ele><time>2026-05-03T14:38:01Z</time></trkpt><trkpt lat="43.83761529111673" lon="12.751285002395116"><ele>51.0</ele><time>2026-05-03T14:38:02Z</time></trkpt><trkpt lat="43.837672648961885" lon="12.751185293665737"><ele>51.0</ele><time>2026-05-03T14:38:03Z</time></trkpt><trkpt lat="43.83775240627814" lon="12.751066838681377"><ele>51.0</ele><time>2026-05-03T14:38:04Z</time></trkpt><trkpt lat="43.83783047201212" lon="12.750942223171807"><ele>51.4</ele><time>2026-05-03T14:38:05Z</time></trkpt><trkpt lat="43.83788350744838" lon="12.75084062502766"><ele>51.8</ele><time>2026-05-03T14:38:06Z</time></trkpt><trkpt lat="43.83793652582563" lon="12.750718303181474"><ele>52.199999999999996</ele><time>2026-05-03T14:38:07Z</time></trkpt><trkpt lat="43.83799378385114" lon="12.750579042707194"><ele>52.599999999999994</ele><time>2026-05-03T14:38:08Z</time></trkpt><trkpt lat="43.83803959513851" lon="12.750457732249073"><ele>53.0</ele><time>2026-05-03T14:38:09Z</time></trkpt><trkpt lat="43.838081613241215" lon="12.750362971997767"><ele>53.00000000000001</ele><time>2026-05-03T14:38:10Z</time></trkpt><trkpt lat="43.838128532419354" lon="12.75029381454252"><ele>53.0</ele><time>2026-05-03T14:38:11Z</time></trkpt><trkpt lat="43.838221180222824" lon="12.750190742334441"><ele>53.0</ele><time>2026-05-03T14:38:13Z</time></trkpt><trkpt lat="43.838278694057905" lon="12.750141603994246"><ele>53.0</ele><time>2026-05-03T14:38:14Z</time></trkpt><trkpt lat="43.83838054966999" lon="12.75005497614836"><ele>53.00000000000001</ele><time>2026-05-03T14:38:16.001Z</time></trkpt><trkpt lat="43.83845162697626" lon="12.750035000670408"><ele>53.0</ele><time>2026-05-03T14:38:17.001Z</time></trkpt><trkpt lat="43.838528126399204" lon="12.74998741703821"><ele>53.66666666666667</ele><time>2026-05-03T14:38:18.001Z</time></trkpt><trkpt lat="43.83861609513349" lon="12.749962101639836"><ele>54.333333333333336</ele><time>2026-05-03T14:38:19.001Z</time></trkpt><trkpt lat="43.83869124973076" lon="12.749946441307541"><ele>55.0</ele><time>2026-05-03T14:38:20.001Z</time></trkpt><trkpt lat="43.83876379233883" lon="12.74992027572369"><ele>55.66666666666667</ele><time>2026-05-03T14:38:21.001Z</time></trkpt><trkpt lat="43.83884051097656" lon="12.749900861324583"><ele>56.333333333333336</ele><time>2026-05-03T14:38:22.001Z</time></trkpt><trkpt lat="43.838946486074526" lon="12.749910760670776"><ele>57.0</ele><time>2026-05-03T14:38:24.001Z</time></trkpt><trkpt lat="43.839055433824875" lon="12.749945863585012"><ele>57.0</ele><time>2026-05-03T14:38:26.001Z</time></trkpt><trkpt lat="43.839164959747855" lon="12.749989848501064"><ele>57.0</ele><time>2026-05-03T14:38:28.001Z</time></trkpt><trkpt lat="43.83928052296937" lon="12.749996563810154"><ele>57.0</ele><time>2026-05-03T14:38:30.001Z</time></trkpt><trkpt lat="43.83934998285273" lon="12.75000474848179"><ele>57.0</ele><time>2026-05-03T14:38:31.001Z</time></trkpt><trkpt lat="43.8394617008907" lon="12.750006008492052"><ele>57.0</ele><time>2026-05-03T14:38:33.001Z</time></trkpt><trkpt lat="43.839534636271416" lon="12.75000767540004"><ele>56.400000000000006</ele><time>2026-05-03T14:38:35.001Z</time></trkpt><trkpt lat="43.839624794604404" lon="12.75000158805478"><ele>55.800000000000004</ele><time>2026-05-03T14:38:37.001Z</time></trkpt><trkpt lat="43.839726254052174" lon="12.750022518314246"><ele>55.2</ele><time>2026-05-03T14:38:39.001Z</time></trkpt><trkpt lat="43.839813358691856" lon="12.750043527823367"><ele>54.6</ele><time>2026-05-03T14:38:43.001Z</time></trkpt><trkpt lat="43.83991486912546" lon="12.750018912519618"><ele>54.0</ele><time>2026-05-03T14:38:45.001Z</time></trkpt><trkpt lat="43.840009551411804" lon="12.750028268162236"><ele>54.0</ele><time>2026-05-03T14:38:47.001Z</time></trkpt><trkpt lat="43.840084673856836" lon="12.750072957181981"><ele>54.00000000000001</ele><time>2026-05-03T14:38:48.001Z</time></trkpt><trkpt lat="43.84019350554357" lon="12.750105346575882"><ele>54.00000000000001</ele><time>2026-05-03T14:38:50.001Z</time></trkpt><trkpt lat="43.84026397479457" lon="12.75012786882489"><ele>54.0</ele><time>2026-05-03T14:38:51.001Z</time></trkpt><trkpt lat="43.84032916759203" lon="12.750162954675963"><ele>54.0</ele><time>2026-05-03T14:38:52.001Z</time></trkpt><trkpt lat="43.8404541053899" lon="12.750211921248725"><ele>53.833333333333336</ele><time>2026-05-03T14:38:54.001Z</time></trkpt><trkpt lat="43.84053844310118" lon="12.750253067298322"><ele>53.66666666666667</ele><time>2026-05-03T14:38:55.001Z</time></trkpt><trkpt lat="43.84060768455467" lon="12.750278070072058"><ele>53.5</ele><time>2026-05-03T14:38:56.001Z</time></trkpt><trkpt lat="43.840683728754854" lon="12.750299751383617"><ele>53.333333333333336</ele><time>2026-05-03T14:38:57.001Z</time></trkpt><trkpt lat="43.84074631586942" lon="12.750332245635033"><ele>53.16666666666667</ele><time>2026-05-03T14:38:58.001Z</time></trkpt><trkpt lat="43.840856082880535" lon="12.750410868939612"><ele>53.0</ele><time>2026-05-03T14:39:00.001Z</time></trkpt><trkpt lat="43.84091545502441" lon="12.7504445227617"><ele>53.0</ele><time>2026-05-03T14:39:01.001Z</time></trkpt><trkpt lat="43.84099614576558" lon="12.750476410464533"><ele>53.0</ele><time>2026-05-03T14:39:02.001Z</time></trkpt><trkpt lat="43.84114102550015" lon="12.750558167838193"><ele>53.0</ele><time>2026-05-03T14:39:04.001Z</time></trkpt><trkpt lat="43.84122726834898" lon="12.750555465384975"><ele>53.0</ele><time>2026-05-03T14:39:05.001Z</time></trkpt><trkpt lat="43.841293152179475" lon="12.750587871216768"><ele>53.0</ele><time>2026-05-03T14:39:06.001Z</time></trkpt><trkpt lat="43.84135235089856" lon="12.750630841651352"><ele>53.00000000000001</ele><time>2026-05-03T14:39:07.001Z</time></trkpt><trkpt lat="43.84141103145957" lon="12.750664427491122"><ele>53.0</ele><time>2026-05-03T14:39:08.001Z</time></trkpt><trkpt lat="43.84147028592005" lon="12.75071973960827"><ele>53.0</ele><time>2026-05-03T14:39:09.001Z</time></trkpt><trkpt lat="43.84153159021409" lon="12.75079342935418"><ele>53.0</ele><time>2026-05-03T14:39:10.001Z</time></trkpt><trkpt lat="43.84159749471408" lon="12.750870671995646"><ele>53.00000000000001</ele><time>2026-05-03T14:39:11.001Z</time></trkpt><trkpt lat="43.84166369562076" lon="12.750950459883338"><ele>53.0</ele><time>2026-05-03T14:39:12.001Z</time></trkpt><trkpt lat="43.84174804900994" lon="12.751059741148875"><ele>52.5</ele><time>2026-05-03T14:39:13.001Z</time></trkpt><trkpt lat="43.841828368725" lon="12.751191635306819"><ele>52.0</ele><time>2026-05-03T14:39:14.001Z</time></trkpt><trkpt lat="43.84189414953609" lon="12.75127138730631"><ele>51.5</ele><time>2026-05-03T14:39:15.001Z</time></trkpt><trkpt lat="43.84199075850153" lon="12.751362949135876"><ele>51.0</ele><time>2026-05-03T14:39:17.001Z</time></trkpt><trkpt lat="43.842143449456785" lon="12.751475842251642"><ele>51.0</ele><time>2026-05-03T14:39:19.001Z</time></trkpt><trkpt lat="43.84222061357327" lon="12.75153734563866"><ele>51.0</ele><time>2026-05-03T14:39:20.001Z</time></trkpt><trkpt lat="43.84228130711868" lon="12.751580627555068"><ele>51.0</ele><time>2026-05-03T14:39:21.001Z</time></trkpt><trkpt lat="43.84234849359388" lon="12.75163958538571"><ele>51.0</ele><time>2026-05-03T14:39:22.001Z</time></trkpt><trkpt lat="43.84243924507832" lon="12.751729469898395"><ele>51.0</ele><time>2026-05-03T14:39:23.001Z</time></trkpt><trkpt lat="43.842529044706495" lon="12.751823284107443"><ele>51.0</ele><time>2026-05-03T14:39:24Z</time></trkpt><trkpt lat="43.84259481546905" lon="12.751903975555237"><ele>51.0</ele><time>2026-05-03T14:39:25Z</time></trkpt><trkpt lat="43.84265679801497" lon="12.751965786341968"><ele>51.0</ele><time>2026-05-03T14:39:26Z</time></trkpt><trkpt lat="43.84271471721486" lon="12.752014063111924"><ele>51.0</ele><time>2026-05-03T14:39:27Z</time></trkpt><trkpt lat="43.84277195027991" lon="12.75207774431873"><ele>51.0</ele><time>2026-05-03T14:39:28Z</time></trkpt><trkpt lat="43.842861345568075" lon="12.752223334607502"><ele>51.0</ele><time>2026-05-03T14:39:30Z</time></trkpt><trkpt lat="43.842913625811114" lon="12.752343648262578"><ele>50.8</ele><time>2026-05-03T14:39:31Z</time></trkpt><trkpt lat="43.84297286688863" lon="12.752499778054982"><ele>50.599999999999994</ele><time>2026-05-03T14:39:32Z</time></trkpt><trkpt lat="43.84300945576168" lon="12.752631191219365"><ele>50.4</ele><time>2026-05-03T14:39:33Z</time></trkpt><trkpt lat="43.84304891059538" lon="12.752780296058262"><ele>50.2</ele><time>2026-05-03T14:39:34Z</time></trkpt><trkpt lat="43.84308338889983" lon="12.752909839337084"><ele>50.0</ele><time>2026-05-03T14:39:35Z</time></trkpt><trkpt lat="43.843113032459215" lon="12.753013353535053"><ele>50.00000000000001</ele><time>2026-05-03T14:39:36Z</time></trkpt><trkpt lat="43.843133409631506" lon="12.753104971648892"><ele>50.0</ele><time>2026-05-03T14:39:37Z</time></trkpt><trkpt lat="43.843153123421125" lon="12.753243965700436"><ele>50.0</ele><time>2026-05-03T14:39:39Z</time></trkpt><trkpt lat="43.84318445165663" lon="12.753324851710317"><ele>50.0</ele><time>2026-05-03T14:39:41Z</time></trkpt><trkpt lat="43.84320616160575" lon="12.753411756552547"><ele>50.00000000000001</ele><time>2026-05-03T14:39:43Z</time></trkpt><trkpt lat="43.843258248365096" lon="12.753512358708218"><ele>50.0</ele><time>2026-05-03T14:39:45Z</time></trkpt><trkpt lat="43.84329929283159" lon="12.753621852273472"><ele>50.0</ele><time>2026-05-03T14:39:46Z</time></trkpt><trkpt lat="43.84334399369952" lon="12.753763754719412"><ele>50.0</ele><time>2026-05-03T14:39:47Z</time></trkpt><trkpt lat="43.84338573760212" lon="12.753879336996192"><ele>50.0</ele><time>2026-05-03T14:39:48Z</time></trkpt><trkpt lat="43.843451700504495" lon="12.754022256510185"><ele>50.0</ele><time>2026-05-03T14:39:50Z</time></trkpt><trkpt lat="43.84349543465303" lon="12.754108944637904"><ele>50.0</ele><time>2026-05-03T14:39:51Z</time></trkpt><trkpt lat="43.843560364518574" lon="12.75422361542203"><ele>49.66666666666667</ele><time>2026-05-03T14:39:53Z</time></trkpt><trkpt lat="43.843619494704214" lon="12.754300575713584"><ele>49.333333333333336</ele><time>2026-05-03T14:39:56Z</time></trkpt><trkpt lat="43.84368610964651" lon="12.754373732796488"><ele>49.0</ele><time>2026-05-03T14:40:00Z</time></trkpt><trkpt lat="43.843717407666084" lon="12.754450632474802"><ele>48.66666666666667</ele><time>2026-05-03T14:40:02Z</time></trkpt><trkpt lat="43.843787859429106" lon="12.754528496764777"><ele>48.333333333333336</ele><time>2026-05-03T14:40:05Z</time></trkpt><trkpt lat="43.84386516778519" lon="12.75463567784556"><ele>48.0</ele><time>2026-05-03T14:40:07Z</time></trkpt><trkpt lat="43.84392728675709" lon="12.754739234131636"><ele>47.666666666666664</ele><time>2026-05-03T14:40:09Z</time></trkpt><trkpt lat="43.84398555070854" lon="12.754878099830757"><ele>47.333333333333336</ele><time>2026-05-03T14:40:11Z</time></trkpt><trkpt lat="43.84402885725191" lon="12.75497806777585"><ele>47.0</ele><time>2026-05-03T14:40:13Z</time></trkpt><trkpt lat="43.8440838295991" lon="12.75503331580912"><ele>46.66666666666667</ele><time>2026-05-03T14:40:15Z</time></trkpt><trkpt lat="43.84415530904757" lon="12.755022114959406"><ele>46.333333333333336</ele><time>2026-05-03T14:40:17Z</time></trkpt><trkpt lat="43.84422179540262" lon="12.755083303104486"><ele>46.0</ele><time>2026-05-03T14:40:20.001Z</time></trkpt><trkpt lat="43.84416811411797" lon="12.755016357288408"><ele>46.0</ele><time>2026-05-03T14:44:15.001Z</time></trkpt><trkpt lat="43.84410261777219" lon="12.754998233902164"><ele>46.0</ele><time>2026-05-03T14:44:17.001Z</time></trkpt><trkpt lat="43.84401391525898" lon="12.754908129760313"><ele>46.0</ele><time>2026-05-03T14:44:19.001Z</time></trkpt><trkpt lat="43.84395497760497" lon="12.754772590766855"><ele>46.0</ele><time>2026-05-03T14:44:21.001Z</time></trkpt><trkpt lat="43.843919189067485" lon="12.754671648571051"><ele>46.0</ele><time>2026-05-03T14:44:23.001Z</time></trkpt><trkpt lat="43.84387676927336" lon="12.754597823087176"><ele>46.0</ele><time>2026-05-03T14:44:25.001Z</time></trkpt><trkpt lat="43.84381065432849" lon="12.754487012677165"><ele>46.0</ele><time>2026-05-03T14:44:27.001Z</time></trkpt><trkpt lat="43.84372554498156" lon="12.75438252623152"><ele>46.0</ele><time>2026-05-03T14:44:29.001Z</time></trkpt><trkpt lat="43.84367666954618" lon="12.75432590439859"><ele>46.0</ele><time>2026-05-03T14:44:30.001Z</time></trkpt><trkpt lat="43.84358794853582" lon="12.754222893005288"><ele>46.0</ele><time>2026-05-03T14:44:32.001Z</time></trkpt><trkpt lat="43.843546361210464" lon="12.754155233972359"><ele>46.0</ele><time>2026-05-03T14:44:33.001Z</time></trkpt><trkpt lat="43.84351037549274" lon="12.754076566264354"><ele>46.0</ele><time>2026-05-03T14:44:34.001Z</time></trkpt><trkpt lat="43.84346223347896" lon="12.753984615837021"><ele>46.66666666666667</ele><time>2026-05-03T14:44:35.001Z</time></trkpt><trkpt lat="43.84342279479811" lon="12.753900168799275"><ele>47.333333333333336</ele><time>2026-05-03T14:44:36.001Z</time></trkpt><trkpt lat="43.8433848492728" lon="12.753818260534414"><ele>48.0</ele><time>2026-05-03T14:44:37.001Z</time></trkpt><trkpt lat="43.84334789786261" lon="12.753732875934821"><ele>48.66666666666667</ele><time>2026-05-03T14:44:38.001Z</time></trkpt><trkpt lat="43.84330835567866" lon="12.753631902650714"><ele>49.333333333333336</ele><time>2026-05-03T14:44:39.001Z</time></trkpt><trkpt lat="43.843277146517536" lon="12.753523846815598"><ele>50.0</ele><time>2026-05-03T14:44:40.001Z</time></trkpt><trkpt lat="43.843244101682586" lon="12.75342983982848"><ele>50.0</ele><time>2026-05-03T14:44:42.001Z</time></trkpt><trkpt lat="43.84320839371011" lon="12.753344130905356"><ele>50.0</ele><time>2026-05-03T14:44:44.001Z</time></trkpt><trkpt lat="43.84317185605039" lon="12.753171412234838"><ele>50.0</ele><time>2026-05-03T14:44:46.001Z</time></trkpt><trkpt lat="43.84314315724125" lon="12.75302855304578"><ele>50.0</ele><time>2026-05-03T14:44:47.001Z</time></trkpt><trkpt lat="43.84310822438427" lon="12.752860469668308"><ele>50.0</ele><time>2026-05-03T14:44:48.001Z</time></trkpt><trkpt lat="43.843070935345466" lon="12.752736178232826"><ele>50.00000000000001</ele><time>2026-05-03T14:44:49.001Z</time></trkpt><trkpt lat="43.84302778712827" lon="12.75258920226375"><ele>50.0</ele><time>2026-05-03T14:44:50.001Z</time></trkpt><trkpt lat="43.84298550844182" lon="12.752469392535568"><ele>50.0</ele><time>2026-05-03T14:44:51.001Z</time></trkpt><trkpt lat="43.8429515807335" lon="12.752373664470873"><ele>50.0</ele><time>2026-05-03T14:44:52.001Z</time></trkpt><trkpt lat="43.84291038090924" lon="12.752279271757299"><ele>50.00000000000001</ele><time>2026-05-03T14:44:53.001Z</time></trkpt><trkpt lat="43.842876942878206" lon="12.752202913931823"><ele>50.0</ele><time>2026-05-03T14:44:54.001Z</time></trkpt><trkpt lat="43.842832430470935" lon="12.752097277124012"><ele>50.00000000000001</ele><time>2026-05-03T14:44:55.001Z</time></trkpt><trkpt lat="43.84275967907347" lon="12.752029011303186"><ele>50.0</ele><time>2026-05-03T14:44:56.001Z</time></trkpt><trkpt lat="43.84270083998635" lon="12.751969304653437"><ele>50.0</ele><time>2026-05-03T14:44:57.001Z</time></trkpt><trkpt lat="43.84262603163622" lon="12.751906795933394"><ele>50.0</ele><time>2026-05-03T14:44:58.001Z</time></trkpt><trkpt lat="43.84254058598021" lon="12.751829503174"><ele>50.00000000000001</ele><time>2026-05-03T14:44:59.001Z</time></trkpt><trkpt lat="43.84247856827227" lon="12.75176005500318"><ele>50.0</ele><time>2026-05-03T14:45:00.001Z</time></trkpt><trkpt lat="43.84241310032333" lon="12.751678181904358"><ele>50.2</ele><time>2026-05-03T14:45:01.001Z</time></trkpt><trkpt lat="43.84233465065041" lon="12.751601570677085"><ele>50.4</ele><time>2026-05-03T14:45:02.001Z</time></trkpt><trkpt lat="43.842266273611365" lon="12.751552486625963"><ele>50.599999999999994</ele><time>2026-05-03T14:45:03.001Z</time></trkpt><trkpt lat="43.84217102242936" lon="12.751492520377864"><ele>50.8</ele><time>2026-05-03T14:45:04.001Z</time></trkpt><trkpt lat="43.842088543123175" lon="12.751438384285706"><ele>51.0</ele><time>2026-05-03T14:45:05.001Z</time></trkpt><trkpt lat="43.84201429905405" lon="12.751378261246119"><ele>51.0</ele><time>2026-05-03T14:45:06.001Z</time></trkpt><trkpt lat="43.84193190404421" lon="12.751300020447166"><ele>51.0</ele><time>2026-05-03T14:45:07.001Z</time></trkpt><trkpt lat="43.8418704693811" lon="12.751233870471273"><ele>51.0</ele><time>2026-05-03T14:45:08.001Z</time></trkpt><trkpt lat="43.84179917651652" lon="12.751132959027244"><ele>51.0</ele><time>2026-05-03T14:45:09.001Z</time></trkpt><trkpt lat="43.841720212414266" lon="12.751042530040444"><ele>51.0</ele><time>2026-05-03T14:45:10.001Z</time></trkpt><trkpt lat="43.84165955818669" lon="12.750951603867911"><ele>51.4</ele><time>2026-05-03T14:45:11.001Z</time></trkpt><trkpt lat="43.84158863816283" lon="12.750855195806647"><ele>51.8</ele><time>2026-05-03T14:45:12.001Z</time></trkpt><trkpt lat="43.84150860414371" lon="12.750766405537917"><ele>52.199999999999996</ele><time>2026-05-03T14:45:13.001Z</time></trkpt><trkpt lat="43.841451449194714" lon="12.750680202540748"><ele>52.599999999999994</ele><time>2026-05-03T14:45:14.001Z</time></trkpt><trkpt lat="43.841383477593645" lon="12.75064252764967"><ele>53.0</ele><time>2026-05-03T14:45:16.001Z</time></trkpt><trkpt lat="43.84126657168625" lon="12.750612731794277"><ele>53.00000000000001</ele><time>2026-05-03T14:45:18.001Z</time></trkpt><trkpt lat="43.841195349115516" lon="12.750573060835418"><ele>53.0</ele><time>2026-05-03T14:45:19.001Z</time></trkpt><trkpt lat="43.841102561244185" lon="12.7505153625337"><ele>53.0</ele><time>2026-05-03T14:45:20.001Z</time></trkpt><trkpt lat="43.84102845381174" lon="12.750469853970486"><ele>53.0</ele><time>2026-05-03T14:45:21.001Z</time></trkpt><trkpt lat="43.840967170459415" lon="12.75043620422771"><ele>53.00000000000001</ele><time>2026-05-03T14:45:22.001Z</time></trkpt><trkpt lat="43.84087645777576" lon="12.750364212475045"><ele>53.0</ele><time>2026-05-03T14:45:23.001Z</time></trkpt><trkpt lat="43.8408040910047" lon="12.750312303380685"><ele>53.0</ele><time>2026-05-03T14:45:24.001Z</time></trkpt><trkpt lat="43.840679862640634" lon="12.750275968285756"><ele>53.0</ele><time>2026-05-03T14:45:26.001Z</time></trkpt><trkpt lat="43.84060208857188" lon="12.75024088379089"><ele>53.0</ele><time>2026-05-03T14:45:27.001Z</time></trkpt><trkpt lat="43.84051117788057" lon="12.750215719392147"><ele>53.0</ele><time>2026-05-03T14:45:28.001Z</time></trkpt><trkpt lat="43.840449919466195" lon="12.750179603947652"><ele>53.0</ele><time>2026-05-03T14:45:29.001Z</time></trkpt><trkpt lat="43.840369033620895" lon="12.75012138691505"><ele>53.00000000000001</ele><time>2026-05-03T14:45:30.001Z</time></trkpt><trkpt lat="43.840267923746225" lon="12.750093692544223"><ele>53.0</ele><time>2026-05-03T14:45:32.001Z</time></trkpt><trkpt lat="43.84018782133672" lon="12.750053493657175"><ele>53.0</ele><time>2026-05-03T14:45:34.002Z</time></trkpt><trkpt lat="43.84011284479475" lon="12.750020146927078"><ele>53.0</ele><time>2026-05-03T14:45:35.002Z</time></trkpt><trkpt lat="43.84005029391644" lon="12.749994799516038"><ele>53.00000000000001</ele><time>2026-05-03T14:45:36.002Z</time></trkpt><trkpt lat="43.83994861620557" lon="12.749977846956615"><ele>53.0</ele><time>2026-05-03T14:45:38.002Z</time></trkpt><trkpt lat="43.83984909272306" lon="12.750034104481363"><ele>53.2</ele><time>2026-05-03T14:45:40.002Z</time></trkpt><trkpt lat="43.83975914319824" lon="12.750007368419322"><ele>53.4</ele><time>2026-05-03T14:45:43Z</time></trkpt><trkpt lat="43.839664196899044" lon="12.749978788973017"><ele>53.60000000000001</ele><time>2026-05-03T14:45:45Z</time></trkpt><trkpt lat="43.83957869014944" lon="12.749994835968675"><ele>53.800000000000004</ele><time>2026-05-03T14:45:47Z</time></trkpt><trkpt lat="43.839480261671" lon="12.74998263620848"><ele>54.0</ele><time>2026-05-03T14:45:49Z</time></trkpt><trkpt lat="43.83937727771345" lon="12.749975499692619"><ele>54.6</ele><time>2026-05-03T14:45:51Z</time></trkpt><trkpt lat="43.83926363107667" lon="12.749962907520402"><ele>55.2</ele><time>2026-05-03T14:45:53Z</time></trkpt><trkpt lat="43.839163759754264" lon="12.749946516386377"><ele>55.800000000000004</ele><time>2026-05-03T14:45:55Z</time></trkpt><trkpt lat="43.83905926812993" lon="12.749944087924241"><ele>56.400000000000006</ele><time>2026-05-03T14:45:57Z</time></trkpt><trkpt lat="43.83894207250043" lon="12.74991403624771"><ele>57.0</ele><time>2026-05-03T14:45:59Z</time></trkpt><trkpt lat="43.83887902476253" lon="12.749922073799736"><ele>57.0</ele><time>2026-05-03T14:46:00Z</time></trkpt><trkpt lat="43.83881550100038" lon="12.749942718897133"><ele>57.0</ele><time>2026-05-03T14:46:01Z</time></trkpt><trkpt lat="43.838754675919795" lon="12.749989091841215"><ele>57.0</ele><time>2026-05-03T14:46:02Z</time></trkpt><trkpt lat="43.83866523315563" lon="12.750041522533518"><ele>57.0</ele><time>2026-05-03T14:46:03Z</time></trkpt><trkpt lat="43.8385902510147" lon="12.750036695807173"><ele>57.0</ele><time>2026-05-03T14:46:04Z</time></trkpt><trkpt lat="43.83848116262911" lon="12.750058624081051"><ele>57.0</ele><time>2026-05-03T14:46:06Z</time></trkpt><trkpt lat="43.83840870395834" lon="12.750079602901573"><ele>56.6</ele><time>2026-05-03T14:46:07Z</time></trkpt><trkpt lat="43.838315744828385" lon="12.750120309951523"><ele>56.2</ele><time>2026-05-03T14:46:09Z</time></trkpt><trkpt lat="43.83820814165793" lon="12.750239639237064"><ele>55.8</ele><time>2026-05-03T14:46:11Z</time></trkpt><trkpt lat="43.83813271699443" lon="12.750340466042411"><ele>55.4</ele><time>2026-05-03T14:46:12Z</time></trkpt><trkpt lat="43.8380792202985" lon="12.750420022778293"><ele>55.0</ele><time>2026-05-03T14:46:13Z</time></trkpt><trkpt lat="43.838030155419325" lon="12.750515277735085"><ele>54.8</ele><time>2026-05-03T14:46:14Z</time></trkpt><trkpt lat="43.837978913747506" lon="12.750645397738547"><ele>54.6</ele><time>2026-05-03T14:46:15Z</time></trkpt><trkpt lat="43.8379225998447" lon="12.750787348547135"><ele>54.400000000000006</ele><time>2026-05-03T14:46:16Z</time></trkpt><trkpt lat="43.837868172320874" lon="12.750893980070034"><ele>54.2</ele><time>2026-05-03T14:46:17Z</time></trkpt><trkpt lat="43.83780394292053" lon="12.75099098475197"><ele>54.0</ele><time>2026-05-03T14:46:18Z</time></trkpt><trkpt lat="43.83771218723868" lon="12.751127502648176"><ele>53.400000000000006</ele><time>2026-05-03T14:46:19Z</time></trkpt><trkpt lat="43.83763209078171" lon="12.751246792224189"><ele>52.800000000000004</ele><time>2026-05-03T14:46:20Z</time></trkpt><trkpt lat="43.8375633935507" lon="12.751353527341012"><ele>52.2</ele><time>2026-05-03T14:46:21Z</time></trkpt><trkpt lat="43.83750408628528" lon="12.751439594927069"><ele>51.599999999999994</ele><time>2026-05-03T14:46:22Z</time></trkpt><trkpt lat="43.83743167750551" lon="12.75151718132325"><ele>51.0</ele><time>2026-05-03T14:46:23Z</time></trkpt><trkpt lat="43.83734747859174" lon="12.751607305128493"><ele>51.0</ele><time>2026-05-03T14:46:24.001Z</time></trkpt><trkpt lat="43.83726919203837" lon="12.7517133840009"><ele>51.0</ele><time>2026-05-03T14:46:25.001Z</time></trkpt><trkpt lat="43.83719303274479" lon="12.75180672639344"><ele>51.0</ele><time>2026-05-03T14:46:26.001Z</time></trkpt><trkpt lat="43.83711899918485" lon="12.751879451511167"><ele>51.0</ele><time>2026-05-03T14:46:27.001Z</time></trkpt><trkpt lat="43.837054079691036" lon="12.751925082907473"><ele>51.0</ele><time>2026-05-03T14:46:28.001Z</time></trkpt><trkpt lat="43.8369795253482" lon="12.751993042903104"><ele>51.599999999999994</ele><time>2026-05-03T14:46:29.001Z</time></trkpt><trkpt lat="43.83692179944073" lon="12.752060587902609"><ele>52.2</ele><time>2026-05-03T14:46:30.001Z</time></trkpt><trkpt lat="43.83682823318998" lon="12.752145872634731"><ele>52.800000000000004</ele><time>2026-05-03T14:46:32.001Z</time></trkpt><trkpt lat="43.836748973542306" lon="12.752181641412072"><ele>53.400000000000006</ele><time>2026-05-03T14:46:33.001Z</time></trkpt><trkpt lat="43.836678812415926" lon="12.752207781625714"><ele>54.0</ele><time>2026-05-03T14:46:34.001Z</time></trkpt><trkpt lat="43.836596562740205" lon="12.752315293949659"><ele>54.2</ele><time>2026-05-03T14:46:36.001Z</time></trkpt><trkpt lat="43.83652616557508" lon="12.752323749715643"><ele>54.400000000000006</ele><time>2026-05-03T14:46:37.001Z</time></trkpt><trkpt lat="43.836411060194806" lon="12.752365860921378"><ele>54.6</ele><time>2026-05-03T14:46:38.001Z</time></trkpt><trkpt lat="43.83627580648375" lon="12.752434400684995"><ele>54.8</ele><time>2026-05-03T14:46:39.001Z</time></trkpt><trkpt lat="43.836200065348216" lon="12.75242562313279"><ele>55.0</ele><time>2026-05-03T14:46:40.001Z</time></trkpt><trkpt lat="43.83610993480815" lon="12.752435068597585"><ele>54.99999999999999</ele><time>2026-05-03T14:46:42.001Z</time></trkpt><trkpt lat="43.836028691666534" lon="12.752444158482206"><ele>55.0</ele><time>2026-05-03T14:46:44.001Z</time></trkpt><trkpt lat="43.83594853056673" lon="12.752438101770766"><ele>55.0</ele><time>2026-05-03T14:46:45.001Z</time></trkpt><trkpt lat="43.8358418076942" lon="12.752427608383904"><ele>55.0</ele><time>2026-05-03T14:46:46.001Z</time></trkpt><trkpt lat="43.835739136825666" lon="12.752418243093025"><ele>54.99999999999999</ele><time>2026-05-03T14:46:47.001Z</time></trkpt><trkpt lat="43.83567201487906" lon="12.752417819866245"><ele>55.0</ele><time>2026-05-03T14:46:48.001Z</time></trkpt><trkpt lat="43.835614095047156" lon="12.752381778955845"><ele>54.8</ele><time>2026-05-03T14:46:49.001Z</time></trkpt><trkpt lat="43.83550862605475" lon="12.752379302407304"><ele>54.6</ele><time>2026-05-03T14:46:51.001Z</time></trkpt><trkpt lat="43.83540556524241" lon="12.752294315058938"><ele>54.400000000000006</ele><time>2026-05-03T14:46:53.001Z</time></trkpt><trkpt lat="43.83533331045773" lon="12.75221278303088"><ele>54.2</ele><time>2026-05-03T14:46:54.001Z</time></trkpt><trkpt lat="43.83527161485423" lon="12.752159336523686"><ele>54.0</ele><time>2026-05-03T14:46:55.001Z</time></trkpt><trkpt lat="43.835215019744446" lon="12.752087064122886"><ele>54.0</ele><time>2026-05-03T14:46:57.001Z</time></trkpt><trkpt lat="43.83534150931197" lon="12.751952620844285"><ele>54.0</ele><time>2026-05-03T14:47:00.001Z</time></trkpt><trkpt lat="43.835403251457095" lon="12.751860315840235"><ele>54.0</ele><time>2026-05-03T14:47:01.001Z</time></trkpt><trkpt lat="43.8355093449341" lon="12.75178118740666"><ele>54.0</ele><time>2026-05-03T14:47:02.001Z</time></trkpt><trkpt lat="43.835588598261914" lon="12.751678407960856"><ele>54.800000000000004</ele><time>2026-05-03T14:47:03.001Z</time></trkpt><trkpt lat="43.83563877927065" lon="12.75161494576792"><ele>55.60000000000001</ele><time>2026-05-03T14:47:04.001Z</time></trkpt><trkpt lat="43.835678233490384" lon="12.751440107570021"><ele>56.4</ele><time>2026-05-03T14:47:06.001Z</time></trkpt><trkpt lat="43.83566663205711" lon="12.751280785774728"><ele>57.2</ele><time>2026-05-03T14:47:07.001Z</time></trkpt><trkpt lat="43.83564898372436" lon="12.751102024587075"><ele>58.0</ele><time>2026-05-03T14:47:08.001Z</time></trkpt><trkpt lat="43.835640116512074" lon="12.750973583652861"><ele>58.8</ele><time>2026-05-03T14:47:09.001Z</time></trkpt><trkpt lat="43.835629652137015" lon="12.750851106056448"><ele>59.599999999999994</ele><time>2026-05-03T14:47:10.001Z</time></trkpt><trkpt lat="43.83562549574378" lon="12.750723384910671"><ele>60.400000000000006</ele><time>2026-05-03T14:47:11.001Z</time></trkpt><trkpt lat="43.835617910686054" lon="12.750586058470054"><ele>61.2</ele><time>2026-05-03T14:47:12.001Z</time></trkpt><trkpt lat="43.83560389154162" lon="12.750421585245045"><ele>62.0</ele><time>2026-05-03T14:47:13.001Z</time></trkpt><trkpt lat="43.83558961414828" lon="12.750263055639252"><ele>62.16666666666667</ele><time>2026-05-03T14:47:14.001Z</time></trkpt><trkpt lat="43.83560454313143" lon="12.750133125824162"><ele>62.333333333333336</ele><time>2026-05-03T14:47:16.001Z</time></trkpt><trkpt lat="43.83562352153247" lon="12.749996478589352"><ele>62.5</ele><time>2026-05-03T14:47:18.001Z</time></trkpt><trkpt lat="43.835625558996966" lon="12.749908239303146"><ele>62.66666666666667</ele><time>2026-05-03T14:47:19.001Z</time></trkpt><trkpt lat="43.83560986244201" lon="12.749775866727141"><ele>62.833333333333336</ele><time>2026-05-03T14:47:21.001Z</time></trkpt><trkpt lat="43.83552644907846" lon="12.749734838104908"><ele>63.0</ele><time>2026-05-03T14:47:23.001Z</time></trkpt><trkpt lat="43.83544438850405" lon="12.749752541226753"><ele>63.0</ele><time>2026-05-03T14:47:25.001Z</time></trkpt><trkpt lat="43.83550871999456" lon="12.74968917644278"><ele>63.0</ele><time>2026-05-03T14:47:34.001Z</time></trkpt><trkpt lat="43.83556944546965" lon="12.749719351655752"><ele>63.0</ele><time>2026-05-03T14:47:37.001Z</time></trkpt><trkpt lat="43.83563905113972" lon="12.749639485540566"><ele>63.0</ele><time>2026-05-03T14:47:44.001Z</time></trkpt><trkpt lat="43.83568522949842" lon="12.749775154162208"><ele>63.0</ele><time>2026-05-03T14:47:45.001Z</time></trkpt><trkpt lat="43.83573269698214" lon="12.74991921692948"><ele>63.0</ele><time>2026-05-03T14:47:46.001Z</time></trkpt><trkpt lat="43.83580244340431" lon="12.750104125622775"><ele>63.0</ele><time>2026-05-03T14:47:47.001Z</time></trkpt><trkpt lat="43.83586775398101" lon="12.750257470034063"><ele>63.0</ele><time>2026-05-03T14:47:48Z</time></trkpt><trkpt lat="43.835916056561345" lon="12.750412239456246"><ele>63.0</ele><time>2026-05-03T14:47:49Z</time></trkpt><trkpt lat="43.83596492774299" lon="12.750614799113386"><ele>61.0</ele><time>2026-05-03T14:47:50Z</time></trkpt><trkpt lat="43.83602881495456" lon="12.750850006202477"><ele>59.0</ele><time>2026-05-03T14:47:51Z</time></trkpt><trkpt lat="43.836105200059514" lon="12.751116452160762"><ele>57.0</ele><time>2026-05-03T14:47:52Z</time></trkpt><trkpt lat="43.83619743750515" lon="12.75143179501549"><ele>56.0</ele><time>2026-05-03T14:47:53Z</time></trkpt><trkpt lat="43.836285482463865" lon="12.751760350474107"><ele>55.0</ele><time>2026-05-03T14:47:54Z</time></trkpt><trkpt lat="43.836374601018285" lon="12.752104436261869"><ele>55.0</ele><time>2026-05-03T14:47:55Z</time></trkpt><trkpt lat="43.83646963533084" lon="12.752453033046233"><ele>55.0</ele><time>2026-05-03T14:47:56Z</time></trkpt><trkpt lat="43.83657608179116" lon="12.752819695712224"><ele>55.5</ele><time>2026-05-03T14:47:57Z</time></trkpt><trkpt lat="43.836681745828386" lon="12.75319800933576"><ele>56.0</ele><time>2026-05-03T14:47:58Z</time></trkpt><trkpt lat="43.836775845974245" lon="12.753535413491855"><ele>56.0</ele><time>2026-05-03T14:47:59Z</time></trkpt><trkpt lat="43.83686033307225" lon="12.753839081457624"><ele>56.0</ele><time>2026-05-03T14:48:00Z</time></trkpt><trkpt lat="43.836944022037066" lon="12.754134097182833"><ele>57.0</ele><time>2026-05-03T14:48:01Z</time></trkpt><trkpt lat="43.83702919272913" lon="12.754443930120281"><ele>58.0</ele><time>2026-05-03T14:48:02Z</time></trkpt><trkpt lat="43.83712439121405" lon="12.754774094232562"><ele>58.0</ele><time>2026-05-03T14:48:03Z</time></trkpt><trkpt lat="43.837222428958064" lon="12.755112018212186"><ele>58.0</ele><time>2026-05-03T14:48:04Z</time></trkpt><trkpt lat="43.83730596024143" lon="12.755414887619807"><ele>59.33333333333333</ele><time>2026-05-03T14:48:05Z</time></trkpt><trkpt lat="43.83737492625889" lon="12.755675734696887"><ele>60.66666666666667</ele><time>2026-05-03T14:48:06Z</time></trkpt><trkpt lat="43.837437537361595" lon="12.75589524179448"><ele>62.0</ele><time>2026-05-03T14:48:07Z</time></trkpt><trkpt lat="43.83749698560931" lon="12.756098772471733"><ele>62.66666666666667</ele><time>2026-05-03T14:48:08Z</time></trkpt><trkpt lat="43.837557487095985" lon="12.756306014999332"><ele>63.33333333333333</ele><time>2026-05-03T14:48:09Z</time></trkpt><trkpt lat="43.837613470187684" lon="12.75651788990203"><ele>64.0</ele><time>2026-05-03T14:48:10Z</time></trkpt><trkpt lat="43.83766580921435" lon="12.756742352553763"><ele>64.33333333333333</ele><time>2026-05-03T14:48:11Z</time></trkpt><trkpt lat="43.83772605042518" lon="12.75698777516086"><ele>64.66666666666667</ele><time>2026-05-03T14:48:12Z</time></trkpt><trkpt lat="43.83779328024588" lon="12.75725225461107"><ele>65.0</ele><time>2026-05-03T14:48:13Z</time></trkpt><trkpt lat="43.837852490729986" lon="12.757528283349894"><ele>66.0</ele><time>2026-05-03T14:48:14Z</time></trkpt><trkpt lat="43.8379118986938" lon="12.757811032247655"><ele>67.0</ele><time>2026-05-03T14:48:15Z</time></trkpt><trkpt lat="43.83796030151489" lon="12.758073435270544"><ele>68.0</ele><time>2026-05-03T14:48:16Z</time></trkpt><trkpt lat="43.83801366117604" lon="12.75833160006851"><ele>68.33333333333334</ele><time>2026-05-03T14:48:17Z</time></trkpt><trkpt lat="43.83806027531008" lon="12.758575761514889"><ele>68.66666666666667</ele><time>2026-05-03T14:48:18Z</time></trkpt><trkpt lat="43.838108326192064" lon="12.758827215872406"><ele>69.0</ele><time>2026-05-03T14:48:19Z</time></trkpt><trkpt lat="43.8381571129157" lon="12.759072165703468"><ele>69.0</ele><time>2026-05-03T14:48:20Z</time></trkpt><trkpt lat="43.83820436396664" lon="12.759311001035568"><ele>69.0</ele><time>2026-05-03T14:48:21Z</time></trkpt><trkpt lat="43.83824472292819" lon="12.759526993802424"><ele>69.0</ele><time>2026-05-03T14:48:22Z</time></trkpt><trkpt lat="43.83829168713565" lon="12.759736800369364"><ele>69.33333333333333</ele><time>2026-05-03T14:48:23Z</time></trkpt><trkpt lat="43.83832933659697" lon="12.75994955599795"><ele>69.66666666666666</ele><time>2026-05-03T14:48:24Z</time></trkpt><trkpt lat="43.838370485814806" lon="12.760166317254148"><ele>70.0</ele><time>2026-05-03T14:48:25Z</time></trkpt><trkpt lat="43.83841221158612" lon="12.760383487262258"><ele>70.66666666666666</ele><time>2026-05-03T14:48:26Z</time></trkpt><trkpt lat="43.838451655062876" lon="12.760596213645087"><ele>71.33333333333333</ele><time>2026-05-03T14:48:27Z</time></trkpt><trkpt lat="43.83849681207839" lon="12.760817947986933"><ele>72.0</ele><time>2026-05-03T14:48:28Z</time></trkpt><trkpt lat="43.838539512955634" lon="12.761031621820077"><ele>71.66666666666667</ele><time>2026-05-03T14:48:29Z</time></trkpt><trkpt lat="43.8385769345762" lon="12.761207470851193"><ele>71.33333333333333</ele><time>2026-05-03T14:48:30Z</time></trkpt><trkpt lat="43.83860238998769" lon="12.761343957588313"><ele>71.0</ele><time>2026-05-03T14:48:31Z</time></trkpt><trkpt lat="43.838621817649475" lon="12.761448581397552"><ele>70.66666666666666</ele><time>2026-05-03T14:48:32Z</time></trkpt><trkpt lat="43.838625643916025" lon="12.761539949126663"><ele>70.33333333333333</ele><time>2026-05-03T14:48:33Z</time></trkpt><trkpt lat="43.83860626067548" lon="12.76163146445412"><ele>70.0</ele><time>2026-05-03T14:48:34Z</time></trkpt><trkpt lat="43.83855397673057" lon="12.761706461790938"><ele>70.0</ele><time>2026-05-03T14:48:35Z</time></trkpt><trkpt lat="43.83848686951818" lon="12.761733840507375"><ele>70.0</ele><time>2026-05-03T14:48:36Z</time></trkpt><trkpt lat="43.83839042413655" lon="12.761818001386038"><ele>70.0</ele><time>2026-05-03T14:48:38Z</time></trkpt><trkpt lat="43.838374520375105" lon="12.76194197893505"><ele>70.0</ele><time>2026-05-03T14:48:39.001Z</time></trkpt><trkpt lat="43.838383192612284" lon="12.762099926175425"><ele>70.0</ele><time>2026-05-03T14:48:40.001Z</time></trkpt><trkpt lat="43.83839838685376" lon="12.762297136503129"><ele>70.0</ele><time>2026-05-03T14:48:41.001Z</time></trkpt><trkpt lat="43.83841297461443" lon="12.762462428762055"><ele>70.0</ele><time>2026-05-03T14:48:42.001Z</time></trkpt><trkpt lat="43.83842148319455" lon="12.76258843967411"><ele>70.0</ele><time>2026-05-03T14:48:43.001Z</time></trkpt><trkpt lat="43.83842915907702" lon="12.76271717456734"><ele>70.0</ele><time>2026-05-03T14:48:44.001Z</time></trkpt><trkpt lat="43.838437497564975" lon="12.76283988469673"><ele>70.0</ele><time>2026-05-03T14:48:45.001Z</time></trkpt><trkpt lat="43.838429418607454" lon="12.762955885194872"><ele>70.0</ele><time>2026-05-03T14:48:46.001Z</time></trkpt><trkpt lat="43.838417827314" lon="12.763061371155123"><ele>70.0</ele><time>2026-05-03T14:48:47.001Z</time></trkpt><trkpt lat="43.83836103288629" lon="12.763140494246136"><ele>70.0</ele><time>2026-05-03T14:48:48.001Z</time></trkpt><trkpt lat="43.838294054280816" lon="12.763217441038421"><ele>70.0</ele><time>2026-05-03T14:48:49.001Z</time></trkpt><trkpt lat="43.83820887408354" lon="12.76337342391401"><ele>70.0</ele><time>2026-05-03T14:48:50.001Z</time></trkpt><trkpt lat="43.83813810399438" lon="12.763519915442647"><ele>68.75</ele><time>2026-05-03T14:48:51.001Z</time></trkpt><trkpt lat="43.8380715694667" lon="12.76366026800925"><ele>67.5</ele><time>2026-05-03T14:48:52.001Z</time></trkpt><trkpt lat="43.83800660711763" lon="12.763818187575538"><ele>66.25</ele><time>2026-05-03T14:48:53.001Z</time></trkpt><trkpt lat="43.83795234064276" lon="12.76396059276562"><ele>65.0</ele><time>2026-05-03T14:48:54.001Z</time></trkpt><trkpt lat="43.83791849676676" lon="12.764098231918863"><ele>65.0</ele><time>2026-05-03T14:48:55.001Z</time></trkpt><trkpt lat="43.837866326865125" lon="12.764223495319465"><ele>65.0</ele><time>2026-05-03T14:48:56.001Z</time></trkpt><trkpt lat="43.83781772698812" lon="12.764339120785264"><ele>65.0</ele><time>2026-05-03T14:48:57.001Z</time></trkpt><trkpt lat="43.837769662860765" lon="12.76443997584674"><ele>65.0</ele><time>2026-05-03T14:48:58.001Z</time></trkpt><trkpt lat="43.837728166055065" lon="12.764555647184267"><ele>65.0</ele><time>2026-05-03T14:48:59.001Z</time></trkpt><trkpt lat="43.83771662903231" lon="12.764695256389942"><ele>64.33333333333334</ele><time>2026-05-03T14:49:00.001Z</time></trkpt><trkpt lat="43.83772851059521" lon="12.764878122862033"><ele>63.66666666666667</ele><time>2026-05-03T14:49:01.001Z</time></trkpt><trkpt lat="43.83775562878905" lon="12.765136114175649"><ele>63.0</ele><time>2026-05-03T14:49:02.001Z</time></trkpt><trkpt lat="43.83779084985129" lon="12.765347382160297"><ele>64.5</ele><time>2026-05-03T14:49:03.001Z</time></trkpt><trkpt lat="43.83783960441913" lon="12.765527708354064"><ele>66.0</ele><time>2026-05-03T14:49:04.001Z</time></trkpt><trkpt lat="43.83789302817249" lon="12.765705092213354"><ele>67.5</ele><time>2026-05-03T14:49:05.001Z</time></trkpt><trkpt lat="43.83796583046502" lon="12.765882420328712"><ele>69.0</ele><time>2026-05-03T14:49:06.001Z</time></trkpt><trkpt lat="43.83806787069149" lon="12.766050131847296"><ele>71.0</ele><time>2026-05-03T14:49:07.001Z</time></trkpt><trkpt lat="43.83819932966019" lon="12.76623508316531"><ele>73.0</ele><time>2026-05-03T14:49:08.001Z</time></trkpt><trkpt lat="43.83834279197436" lon="12.766423374099775"><ele>75.0</ele><time>2026-05-03T14:49:09.001Z</time></trkpt><trkpt lat="43.83845130095723" lon="12.7665798975448"><ele>74.66666666666667</ele><time>2026-05-03T14:49:10.001Z</time></trkpt><trkpt lat="43.83854753259648" lon="12.766726316434081"><ele>74.33333333333334</ele><time>2026-05-03T14:49:11.001Z</time></trkpt><trkpt lat="43.838637720537896" lon="12.766890280943045"><ele>74.0</ele><time>2026-05-03T14:49:12.001Z</time></trkpt><trkpt lat="43.838702384824614" lon="12.767098291185059"><ele>74.0</ele><time>2026-05-03T14:49:13.001Z</time></trkpt><trkpt lat="43.83880007491989" lon="12.767357537417235"><ele>74.0</ele><time>2026-05-03T14:49:14.001Z</time></trkpt><trkpt lat="43.83888349393568" lon="12.767584648403519"><ele>74.0</ele><time>2026-05-03T14:49:15.001Z</time></trkpt><trkpt lat="43.838961432342074" lon="12.767765719949189"><ele>74.66666666666667</ele><time>2026-05-03T14:49:16.001Z</time></trkpt><trkpt lat="43.838993103010786" lon="12.767984676575233"><ele>75.33333333333333</ele><time>2026-05-03T14:49:17.001Z</time></trkpt><trkpt lat="43.839053369477284" lon="12.768225949810601"><ele>76.0</ele><time>2026-05-03T14:49:18.001Z</time></trkpt><trkpt lat="43.83909221048801" lon="12.768455684169291"><ele>75.0</ele><time>2026-05-03T14:49:19.001Z</time></trkpt><trkpt lat="43.83913903262124" lon="12.768651858364274"><ele>74.0</ele><time>2026-05-03T14:49:20.001Z</time></trkpt><trkpt lat="43.83918808914603" lon="12.768834572238244"><ele>73.0</ele><time>2026-05-03T14:49:21.001Z</time></trkpt><trkpt lat="43.83923678518794" lon="12.769003492082346"><ele>72.0</ele><time>2026-05-03T14:49:22.001Z</time></trkpt><trkpt lat="43.839330134987335" lon="12.769171162466957"><ele>72.0</ele><time>2026-05-03T14:49:23.001Z</time></trkpt><trkpt lat="43.839431937222834" lon="12.76933354192692"><ele>72.0</ele><time>2026-05-03T14:49:24.001Z</time></trkpt><trkpt lat="43.83950711088759" lon="12.769482774817229"><ele>72.0</ele><time>2026-05-03T14:49:25.001Z</time></trkpt><trkpt lat="43.8395877146488" lon="12.769569836515826"><ele>72.0</ele><time>2026-05-03T14:49:26.001Z</time></trkpt><trkpt lat="43.83964355636984" lon="12.769636575709654"><ele>72.6</ele><time>2026-05-03T14:49:27.001Z</time></trkpt><trkpt lat="43.839713042185245" lon="12.76974328411573"><ele>73.2</ele><time>2026-05-03T14:49:29.001Z</time></trkpt><trkpt lat="43.839745401421716" lon="12.769826404477845"><ele>73.8</ele><time>2026-05-03T14:49:32.001Z</time></trkpt><trkpt lat="43.83980095061558" lon="12.769956093877793"><ele>74.4</ele><time>2026-05-03T14:49:35.001Z</time></trkpt><trkpt lat="43.83984012944266" lon="12.770064636069218"><ele>75.0</ele><time>2026-05-03T14:49:36.001Z</time></trkpt><trkpt lat="43.839894053816586" lon="12.770196589117504"><ele>76.0</ele><time>2026-05-03T14:49:37.001Z</time></trkpt><trkpt lat="43.83997693653949" lon="12.770362795212085"><ele>77.0</ele><time>2026-05-03T14:49:38.001Z</time></trkpt><trkpt lat="43.84007227066433" lon="12.77054511959426"><ele>78.0</ele><time>2026-05-03T14:49:39.001Z</time></trkpt><trkpt lat="43.8401807849057" lon="12.770751907574214"><ele>75.33333333333333</ele><time>2026-05-03T14:49:40.001Z</time></trkpt><trkpt lat="43.84027778456549" lon="12.77094984385488"><ele>72.66666666666666</ele><time>2026-05-03T14:49:41.001Z</time></trkpt><trkpt lat="43.840389130613545" lon="12.771177719422662"><ele>70.0</ele><time>2026-05-03T14:49:42.001Z</time></trkpt><trkpt lat="43.84051240738633" lon="12.771425677757742"><ele>70.0</ele><time>2026-05-03T14:49:43.001Z</time></trkpt><trkpt lat="43.840649331151155" lon="12.771692333278132"><ele>70.0</ele><time>2026-05-03T14:49:44.001Z</time></trkpt><trkpt lat="43.84077721297356" lon="12.771935741260611"><ele>70.66666666666666</ele><time>2026-05-03T14:49:45.001Z</time></trkpt><trkpt lat="43.840884464123434" lon="12.772150108280359"><ele>71.33333333333333</ele><time>2026-05-03T14:49:46.001Z</time></trkpt><trkpt lat="43.84097699626868" lon="12.772339832978238"><ele>72.0</ele><time>2026-05-03T14:49:47.001Z</time></trkpt><trkpt lat="43.84107518083765" lon="12.772553291207256"><ele>71.0</ele><time>2026-05-03T14:49:48.001Z</time></trkpt><trkpt lat="43.84117785390946" lon="12.772744251828236"><ele>70.0</ele><time>2026-05-03T14:49:49.001Z</time></trkpt><trkpt lat="43.84127979118464" lon="12.772951475314766"><ele>69.0</ele><time>2026-05-03T14:49:50.001Z</time></trkpt><trkpt lat="43.84137986216003" lon="12.773167819288402"><ele>69.0</ele><time>2026-05-03T14:49:51.001Z</time></trkpt><trkpt lat="43.84149392120458" lon="12.77337423592727"><ele>69.0</ele><time>2026-05-03T14:49:52.001Z</time></trkpt><trkpt lat="43.84159618302074" lon="12.773571795016409"><ele>69.0</ele><time>2026-05-03T14:49:53.001Z</time></trkpt><trkpt lat="43.84168191674388" lon="12.773748509402248"><ele>69.66666666666667</ele><time>2026-05-03T14:49:54Z</time></trkpt><trkpt lat="43.84177106656278" lon="12.77391658175732"><ele>70.33333333333334</ele><time>2026-05-03T14:49:55Z</time></trkpt><trkpt lat="43.84187071202929" lon="12.774098998783119"><ele>71.0</ele><time>2026-05-03T14:49:56Z</time></trkpt><trkpt lat="43.841978278593274" lon="12.774307059430226"><ele>68.0</ele><time>2026-05-03T14:49:57Z</time></trkpt><trkpt lat="43.84210193441212" lon="12.774540744072903"><ele>65.0</ele><time>2026-05-03T14:49:58Z</time></trkpt><trkpt lat="43.84223555062919" lon="12.774787099736583"><ele>62.0</ele><time>2026-05-03T14:49:59Z</time></trkpt><trkpt lat="43.842346936287385" lon="12.775017563733972"><ele>61.66666666666667</ele><time>2026-05-03T14:50:00Z</time></trkpt><trkpt lat="43.84244547116506" lon="12.775220701296817"><ele>61.33333333333333</ele><time>2026-05-03T14:50:01Z</time></trkpt><trkpt lat="43.842541075562735" lon="12.775414878539793"><ele>61.0</ele><time>2026-05-03T14:50:02Z</time></trkpt><trkpt lat="43.84263379748249" lon="12.7756091650398"><ele>61.0</ele><time>2026-05-03T14:50:03Z</time></trkpt><trkpt lat="43.84272670425461" lon="12.775806231061665"><ele>61.0</ele><time>2026-05-03T14:50:04Z</time></trkpt><trkpt lat="43.842806685040934" lon="12.7760336850312"><ele>61.0</ele><time>2026-05-03T14:50:05Z</time></trkpt><trkpt lat="43.84289381492874" lon="12.776270666023514"><ele>61.666666666666664</ele><time>2026-05-03T14:50:06Z</time></trkpt><trkpt lat="43.842970555884385" lon="12.776470014059921"><ele>62.33333333333333</ele><time>2026-05-03T14:50:07Z</time></trkpt><trkpt lat="43.84303618293156" lon="12.77665273756758"><ele>63.0</ele><time>2026-05-03T14:50:08Z</time></trkpt><trkpt lat="43.84309728344732" lon="12.776830858854249"><ele>63.25</ele><time>2026-05-03T14:50:09Z</time></trkpt><trkpt lat="43.84314872802232" lon="12.776985478668733"><ele>63.5</ele><time>2026-05-03T14:50:10Z</time></trkpt><trkpt lat="43.843188768790064" lon="12.777127749140243"><ele>63.75</ele><time>2026-05-03T14:50:11Z</time></trkpt><trkpt lat="43.84323786173983" lon="12.777261684084761"><ele>64.0</ele><time>2026-05-03T14:50:12Z</time></trkpt><trkpt lat="43.84326652125328" lon="12.777409711938027"><ele>64.0</ele><time>2026-05-03T14:50:13Z</time></trkpt><trkpt lat="43.84328330415076" lon="12.777546424426795"><ele>64.0</ele><time>2026-05-03T14:50:14Z</time></trkpt><trkpt lat="43.8432881139058" lon="12.777696159901222"><ele>64.0</ele><time>2026-05-03T14:50:15Z</time></trkpt><trkpt lat="43.84332097742547" lon="12.777905050781428"><ele>64.0</ele><time>2026-05-03T14:50:16Z</time></trkpt><trkpt lat="43.84334716478521" lon="12.77816247849961"><ele>64.5</ele><time>2026-05-03T14:50:17Z</time></trkpt><trkpt lat="43.843362798093494" lon="12.778457766780305"><ele>65.0</ele><time>2026-05-03T14:50:18Z</time></trkpt><trkpt lat="43.84340869758114" lon="12.778780245514593"><ele>65.0</ele><time>2026-05-03T14:50:19Z</time></trkpt><trkpt lat="43.843451252427265" lon="12.779123246586904"><ele>65.0</ele><time>2026-05-03T14:50:20Z</time></trkpt><trkpt lat="43.84347433330025" lon="12.779340523699767"><ele>65.0</ele><time>2026-05-03T14:50:21Z</time></trkpt><trkpt lat="43.84352297281351" lon="12.779584106321357"><ele>64.0</ele><time>2026-05-03T14:50:22Z</time></trkpt><trkpt lat="43.843602956206794" lon="12.779841084213974"><ele>63.0</ele><time>2026-05-03T14:50:23Z</time></trkpt><trkpt lat="43.84371706281506" lon="12.780131771260335"><ele>62.0</ele><time>2026-05-03T14:50:24Z</time></trkpt><trkpt lat="43.84383317190629" lon="12.78045971878301"><ele>62.0</ele><time>2026-05-03T14:50:25Z</time></trkpt><trkpt lat="43.84392639115672" lon="12.780736644691578"><ele>62.0</ele><time>2026-05-03T14:50:26Z</time></trkpt><trkpt lat="43.84401374817382" lon="12.780977116831522"><ele>62.0</ele><time>2026-05-03T14:50:27Z</time></trkpt><trkpt lat="43.84408876253238" lon="12.781188379114424"><ele>63.75</ele><time>2026-05-03T14:50:28Z</time></trkpt><trkpt lat="43.844151296126476" lon="12.781381683615267"><ele>65.5</ele><time>2026-05-03T14:50:29Z</time></trkpt><trkpt lat="43.84420186398863" lon="12.781531888581297"><ele>67.25</ele><time>2026-05-03T14:50:30Z</time></trkpt><trkpt lat="43.844244972632154" lon="12.781676669121818"><ele>69.0</ele><time>2026-05-03T14:50:31Z</time></trkpt><trkpt lat="43.844267475863276" lon="12.781811556044048"><ele>68.0</ele><time>2026-05-03T14:50:32Z</time></trkpt><trkpt lat="43.844271209611776" lon="12.78196156750583"><ele>67.0</ele><time>2026-05-03T14:50:33Z</time></trkpt><trkpt lat="43.84425492017317" lon="12.78214034509652"><ele>66.0</ele><time>2026-05-03T14:50:34Z</time></trkpt><trkpt lat="43.844224674010796" lon="12.782290275735146"><ele>65.0</ele><time>2026-05-03T14:50:35Z</time></trkpt><trkpt lat="43.844226101433776" lon="12.782433188399095"><ele>65.0</ele><time>2026-05-03T14:50:36Z</time></trkpt><trkpt lat="43.84426328698292" lon="12.78255406427274"><ele>65.0</ele><time>2026-05-03T14:50:37Z</time></trkpt><trkpt lat="43.844316256709" lon="12.78267016944191"><ele>65.0</ele><time>2026-05-03T14:50:38Z</time></trkpt><trkpt lat="43.84441100912314" lon="12.78276945442118"><ele>65.0</ele><time>2026-05-03T14:50:39Z</time></trkpt><trkpt lat="43.84451615832073" lon="12.782845529731759"><ele>65.0</ele><time>2026-05-03T14:50:40Z</time></trkpt><trkpt lat="43.84466431047336" lon="12.782899312041085"><ele>64.0</ele><time>2026-05-03T14:50:41Z</time></trkpt><trkpt lat="43.84483628290183" lon="12.782936415496774"><ele>63.0</ele><time>2026-05-03T14:50:42Z</time></trkpt><trkpt lat="43.84503148138905" lon="12.782979857849949"><ele>62.0</ele><time>2026-05-03T14:50:43Z</time></trkpt><trkpt lat="43.84518570010783" lon="12.783008322128278"><ele>60.75</ele><time>2026-05-03T14:50:44Z</time></trkpt><trkpt lat="43.84532365064441" lon="12.783059635457104"><ele>59.5</ele><time>2026-05-03T14:50:45Z</time></trkpt><trkpt lat="43.84545128160374" lon="12.783118285923567"><ele>58.25</ele><time>2026-05-03T14:50:46Z</time></trkpt><trkpt lat="43.845573327226425" lon="12.783181392694228"><ele>57.0</ele><time>2026-05-03T14:50:47Z</time></trkpt><trkpt lat="43.84567223681154" lon="12.78324137271743"><ele>57.0</ele><time>2026-05-03T14:50:48Z</time></trkpt><trkpt lat="43.84577664693304" lon="12.783355712677087"><ele>57.0</ele><time>2026-05-03T14:50:49Z</time></trkpt><trkpt lat="43.84588302050046" lon="12.783516972200225"><ele>57.0</ele><time>2026-05-03T14:50:50Z</time></trkpt><trkpt lat="43.84600508479322" lon="12.78373285315798"><ele>56.66666666666667</ele><time>2026-05-03T14:50:51Z</time></trkpt><trkpt lat="43.846117119083594" lon="12.783911408082593"><ele>56.333333333333336</ele><time>2026-05-03T14:50:52Z</time></trkpt><trkpt lat="43.846230643344846" lon="12.784132535522039"><ele>56.0</ele><time>2026-05-03T14:50:53Z</time></trkpt><trkpt lat="43.84634378070104" lon="12.784326625522162"><ele>56.66666666666667</ele><time>2026-05-03T14:50:54Z</time></trkpt><trkpt lat="43.846438172462335" lon="12.784499475656467"><ele>57.33333333333333</ele><time>2026-05-03T14:50:55Z</time></trkpt><trkpt lat="43.846522671521534" lon="12.784666066101508"><ele>58.0</ele><time>2026-05-03T14:50:56Z</time></trkpt><trkpt lat="43.84661314052879" lon="12.78482961737229"><ele>58.0</ele><time>2026-05-03T14:50:57Z</time></trkpt><trkpt lat="43.846673705507456" lon="12.784990954557552"><ele>58.0</ele><time>2026-05-03T14:50:58Z</time></trkpt><trkpt lat="43.84669838300475" lon="12.785156699258826"><ele>58.0</ele><time>2026-05-03T14:50:59Z</time></trkpt><trkpt lat="43.84672217699927" lon="12.78532876901872"><ele>58.0</ele><time>2026-05-03T14:51:00Z</time></trkpt><trkpt lat="43.84674910486646" lon="12.785475448181883"><ele>57.2</ele><time>2026-05-03T14:51:01Z</time></trkpt><trkpt lat="43.8467660972586" lon="12.785578363205506"><ele>56.4</ele><time>2026-05-03T14:51:02.001Z</time></trkpt><trkpt lat="43.846778251052314" lon="12.785703735609214"><ele>55.60000000000001</ele><time>2026-05-03T14:51:03.001Z</time></trkpt><trkpt lat="43.846801577886204" lon="12.785847504796665"><ele>54.800000000000004</ele><time>2026-05-03T14:51:04.001Z</time></trkpt><trkpt lat="43.84682943096276" lon="12.785994821252284"><ele>54.0</ele><time>2026-05-03T14:51:05.001Z</time></trkpt><trkpt lat="43.846887797971036" lon="12.786105279222667"><ele>53.5</ele><time>2026-05-03T14:51:06.001Z</time></trkpt><trkpt lat="43.84698541242839" lon="12.786199820334891"><ele>53.0</ele><time>2026-05-03T14:51:07.001Z</time></trkpt><trkpt lat="43.84711205082942" lon="12.78629781070117"><ele>52.5</ele><time>2026-05-03T14:51:08.001Z</time></trkpt><trkpt lat="43.84725274556924" lon="12.78646239922121"><ele>52.0</ele><time>2026-05-03T14:51:09.001Z</time></trkpt><trkpt lat="43.84740274447541" lon="12.786593718290515"><ele>52.0</ele><time>2026-05-03T14:51:10.001Z</time></trkpt><trkpt lat="43.8475120806238" lon="12.786728046958682"><ele>52.0</ele><time>2026-05-03T14:51:11.001Z</time></trkpt><trkpt lat="43.847616087781056" lon="12.7868331672746"><ele>52.0</ele><time>2026-05-03T14:51:12.001Z</time></trkpt><trkpt lat="43.84770472777053" lon="12.786923389520773"><ele>52.0</ele><time>2026-05-03T14:51:13.001Z</time></trkpt><trkpt lat="43.84777977575378" lon="12.787004988283948"><ele>51.400000000000006</ele><time>2026-05-03T14:51:14.001Z</time></trkpt><trkpt lat="43.8478282580128" lon="12.787075002405858"><ele>50.800000000000004</ele><time>2026-05-03T14:51:15.001Z</time></trkpt><trkpt lat="43.84790408660706" lon="12.787146671298734"><ele>50.2</ele><time>2026-05-03T14:51:17.001Z</time></trkpt><trkpt lat="43.84798799626128" lon="12.787043058039718"><ele>49.6</ele><time>2026-05-03T14:51:18.001Z</time></trkpt><trkpt lat="43.84804393935695" lon="12.786957070185881"><ele>49.0</ele><time>2026-05-03T14:51:19.001Z</time></trkpt><trkpt lat="43.848105869934656" lon="12.78684349777357"><ele>48.25</ele><time>2026-05-03T14:51:20.001Z</time></trkpt><trkpt lat="43.84818081863472" lon="12.786733421163143"><ele>47.5</ele><time>2026-05-03T14:51:21.001Z</time></trkpt><trkpt lat="43.84829647560816" lon="12.786668339067102"><ele>46.75</ele><time>2026-05-03T14:51:22.001Z</time></trkpt><trkpt lat="43.84842776581161" lon="12.786536933689998"><ele>46.0</ele><time>2026-05-03T14:51:23.001Z</time></trkpt><trkpt lat="43.84857075702553" lon="12.78642942535275"><ele>45.8</ele><time>2026-05-03T14:51:24.001Z</time></trkpt><trkpt lat="43.84868084810997" lon="12.786349196191654"><ele>45.599999999999994</ele><time>2026-05-03T14:51:25.001Z</time></trkpt><trkpt lat="43.84877964663069" lon="12.786306314853455"><ele>45.4</ele><time>2026-05-03T14:51:26.001Z</time></trkpt><trkpt lat="43.84887537258649" lon="12.786258874596932"><ele>45.2</ele><time>2026-05-03T14:51:27.001Z</time></trkpt><trkpt lat="43.84894829337293" lon="12.786203026006485"><ele>45.0</ele><time>2026-05-03T14:51:28.001Z</time></trkpt><trkpt lat="43.84901175383452" lon="12.786148027636097"><ele>45.0</ele><time>2026-05-03T14:51:29.001Z</time></trkpt><trkpt lat="43.849097348480484" lon="12.786084773631803"><ele>45.0</ele><time>2026-05-03T14:51:31.001Z</time></trkpt><trkpt lat="43.84917169828849" lon="12.786042057925238"><ele>45.0</ele><time>2026-05-03T14:51:34.001Z</time></trkpt><trkpt lat="43.849102845129714" lon="12.786057447946948"><ele>45.0</ele><time>2026-05-03T14:52:12Z</time></trkpt><trkpt lat="43.849089855520894" lon="12.785957859664768"><ele>45.0</ele><time>2026-05-03T14:52:13Z</time></trkpt><trkpt lat="43.8489431598664" lon="12.786095123969602"><ele>45.0</ele><time>2026-05-03T14:52:14Z</time></trkpt><trkpt lat="43.84887766459297" lon="12.786141458881984"><ele>45.0</ele><time>2026-05-03T14:52:16Z</time></trkpt><trkpt lat="43.84883999848349" lon="12.78606321180958"><ele>45.0</ele><time>2026-05-03T14:52:20Z</time></trkpt></trkseg></trk></gpx>